<?xml version="1.0" encoding="UTF-8" standalone="no" ?>
<gpx xmlns="http://www.topografix.com/GPX/1/1" xmlns:xsi="http://www.w3.org/2001/XMLSchema-instance" xsi:schemaLocation="http://www.topografix.com/GPX/1/1 http://www.topografix.com/GPX/1/1/gpx.xsd" version="1.1" creator="VisuGPX - https://www.visugpx.com">
  <metadata>
    <name>Les dunes de Keremma</name>
    <desc><![CDATA[Recherche de caches dans les dunes.]]></desc>
  </metadata>
  <trk>
    <name><![CDATA[Dune de Keremma]]></name>
    <trkseg>
      <trkpt lat="48.64789" lon="-4.23215">
        <ele>7</ele>
        <time>2014-09-23T11:50:28Z</time>
      </trkpt>
      <trkpt lat="48.64792" lon="-4.23216">
        <ele>7</ele>
        <time>2014-09-23T11:50:33Z</time>
      </trkpt>
      <trkpt lat="48.64796" lon="-4.23217">
        <ele>7</ele>
        <time>2014-09-23T11:50:38Z</time>
      </trkpt>
      <trkpt lat="48.64799" lon="-4.23221">
        <ele>7</ele>
        <time>2014-09-23T11:50:44Z</time>
      </trkpt>
      <trkpt lat="48.64803" lon="-4.23223">
        <ele>7</ele>
        <time>2014-09-23T11:50:49Z</time>
      </trkpt>
      <trkpt lat="48.64809" lon="-4.23226">
        <ele>7</ele>
        <time>2014-09-23T11:50:55Z</time>
      </trkpt>
      <trkpt lat="48.64813" lon="-4.23228">
        <ele>9</ele>
        <time>2014-09-23T11:51:01Z</time>
      </trkpt>
      <trkpt lat="48.64814" lon="-4.23232">
        <ele>9</ele>
        <time>2014-09-23T11:51:06Z</time>
      </trkpt>
      <trkpt lat="48.64814" lon="-4.23237">
        <ele>8</ele>
        <time>2014-09-23T11:51:12Z</time>
      </trkpt>
      <trkpt lat="48.64814" lon="-4.23243">
        <ele>7</ele>
        <time>2014-09-23T11:51:17Z</time>
      </trkpt>
      <trkpt lat="48.64817" lon="-4.23248">
        <ele>7</ele>
        <time>2014-09-23T11:51:23Z</time>
      </trkpt>
      <trkpt lat="48.64817" lon="-4.23249">
        <ele>7</ele>
        <time>2014-09-23T11:51:29Z</time>
      </trkpt>
      <trkpt lat="48.6482" lon="-4.23253">
        <ele>7</ele>
        <time>2014-09-23T11:51:34Z</time>
      </trkpt>
      <trkpt lat="48.64826" lon="-4.23257">
        <ele>8</ele>
        <time>2014-09-23T11:51:40Z</time>
      </trkpt>
      <trkpt lat="48.64832" lon="-4.2326">
        <ele>10</ele>
        <time>2014-09-23T11:51:46Z</time>
      </trkpt>
      <trkpt lat="48.64838" lon="-4.23263">
        <ele>10</ele>
        <time>2014-09-23T11:51:52Z</time>
      </trkpt>
      <trkpt lat="48.64842" lon="-4.23266">
        <ele>10</ele>
        <time>2014-09-23T11:51:57Z</time>
      </trkpt>
      <trkpt lat="48.64848" lon="-4.2327">
        <ele>8</ele>
        <time>2014-09-23T11:52:03Z</time>
      </trkpt>
      <trkpt lat="48.64854" lon="-4.23275">
        <ele>8</ele>
        <time>2014-09-23T11:52:09Z</time>
      </trkpt>
      <trkpt lat="48.64861" lon="-4.23281">
        <ele>7</ele>
        <time>2014-09-23T11:52:15Z</time>
      </trkpt>
      <trkpt lat="48.64868" lon="-4.23285">
        <ele>6</ele>
        <time>2014-09-23T11:52:21Z</time>
      </trkpt>
      <trkpt lat="48.64874" lon="-4.2329">
        <ele>7</ele>
        <time>2014-09-23T11:52:27Z</time>
      </trkpt>
      <trkpt lat="48.6488" lon="-4.23295">
        <ele>7</ele>
        <time>2014-09-23T11:52:33Z</time>
      </trkpt>
      <trkpt lat="48.64886" lon="-4.233">
        <ele>7</ele>
        <time>2014-09-23T11:52:39Z</time>
      </trkpt>
      <trkpt lat="48.64891" lon="-4.23306">
        <ele>7</ele>
        <time>2014-09-23T11:52:45Z</time>
      </trkpt>
      <trkpt lat="48.64895" lon="-4.2331">
        <ele>7</ele>
        <time>2014-09-23T11:52:50Z</time>
      </trkpt>
      <trkpt lat="48.64895" lon="-4.23318">
        <ele>6</ele>
        <time>2014-09-23T11:52:56Z</time>
      </trkpt>
      <trkpt lat="48.64894" lon="-4.23325">
        <ele>6</ele>
        <time>2014-09-23T11:53:01Z</time>
      </trkpt>
      <trkpt lat="48.64894" lon="-4.2333">
        <ele>7</ele>
        <time>2014-09-23T11:53:06Z</time>
      </trkpt>
      <trkpt lat="48.64894" lon="-4.23337">
        <ele>7</ele>
        <time>2014-09-23T11:53:11Z</time>
      </trkpt>
      <trkpt lat="48.64891" lon="-4.23343">
        <ele>7</ele>
        <time>2014-09-23T11:53:16Z</time>
      </trkpt>
      <trkpt lat="48.64889" lon="-4.23351">
        <ele>7</ele>
        <time>2014-09-23T11:53:22Z</time>
      </trkpt>
      <trkpt lat="48.64889" lon="-4.23358">
        <ele>7</ele>
        <time>2014-09-23T11:53:27Z</time>
      </trkpt>
      <trkpt lat="48.6489" lon="-4.23368">
        <ele>7</ele>
        <time>2014-09-23T11:53:33Z</time>
      </trkpt>
      <trkpt lat="48.64892" lon="-4.23376">
        <ele>7</ele>
        <time>2014-09-23T11:53:38Z</time>
      </trkpt>
      <trkpt lat="48.64894" lon="-4.23384">
        <ele>7</ele>
        <time>2014-09-23T11:53:43Z</time>
      </trkpt>
      <trkpt lat="48.64895" lon="-4.23392">
        <ele>7</ele>
        <time>2014-09-23T11:53:48Z</time>
      </trkpt>
      <trkpt lat="48.64896" lon="-4.234">
        <ele>8</ele>
        <time>2014-09-23T11:53:53Z</time>
      </trkpt>
      <trkpt lat="48.64896" lon="-4.23408">
        <ele>7</ele>
        <time>2014-09-23T11:53:58Z</time>
      </trkpt>
      <trkpt lat="48.64897" lon="-4.23418">
        <ele>7</ele>
        <time>2014-09-23T11:54:04Z</time>
      </trkpt>
      <trkpt lat="48.64897" lon="-4.23426">
        <ele>8</ele>
        <time>2014-09-23T11:54:10Z</time>
      </trkpt>
      <trkpt lat="48.64898" lon="-4.23434">
        <ele>8</ele>
        <time>2014-09-23T11:54:15Z</time>
      </trkpt>
      <trkpt lat="48.64899" lon="-4.23441">
        <ele>8</ele>
        <time>2014-09-23T11:54:20Z</time>
      </trkpt>
      <trkpt lat="48.64899" lon="-4.23451">
        <ele>8</ele>
        <time>2014-09-23T11:54:26Z</time>
      </trkpt>
      <trkpt lat="48.64899" lon="-4.23459">
        <ele>8</ele>
        <time>2014-09-23T11:54:31Z</time>
      </trkpt>
      <trkpt lat="48.64899" lon="-4.23467">
        <ele>8</ele>
        <time>2014-09-23T11:54:36Z</time>
      </trkpt>
      <trkpt lat="48.64899" lon="-4.23474">
        <ele>8</ele>
        <time>2014-09-23T11:54:41Z</time>
      </trkpt>
      <trkpt lat="48.64899" lon="-4.23481">
        <ele>7</ele>
        <time>2014-09-23T11:54:46Z</time>
      </trkpt>
      <trkpt lat="48.64898" lon="-4.23489">
        <ele>7</ele>
        <time>2014-09-23T11:54:51Z</time>
      </trkpt>
      <trkpt lat="48.64899" lon="-4.23496">
        <ele>7</ele>
        <time>2014-09-23T11:54:56Z</time>
      </trkpt>
      <trkpt lat="48.64899" lon="-4.23503">
        <ele>7</ele>
        <time>2014-09-23T11:55:01Z</time>
      </trkpt>
      <trkpt lat="48.649" lon="-4.23512">
        <ele>7</ele>
        <time>2014-09-23T11:55:07Z</time>
      </trkpt>
      <trkpt lat="48.649" lon="-4.2352">
        <ele>7</ele>
        <time>2014-09-23T11:55:12Z</time>
      </trkpt>
      <trkpt lat="48.64899" lon="-4.23526">
        <ele>7</ele>
        <time>2014-09-23T11:55:17Z</time>
      </trkpt>
      <trkpt lat="48.64899" lon="-4.23535">
        <ele>7</ele>
        <time>2014-09-23T11:55:23Z</time>
      </trkpt>
      <trkpt lat="48.64897" lon="-4.23544">
        <ele>7</ele>
        <time>2014-09-23T11:55:29Z</time>
      </trkpt>
      <trkpt lat="48.64896" lon="-4.23553">
        <ele>7</ele>
        <time>2014-09-23T11:55:35Z</time>
      </trkpt>
      <trkpt lat="48.64894" lon="-4.2356">
        <ele>7</ele>
        <time>2014-09-23T11:55:40Z</time>
      </trkpt>
      <trkpt lat="48.64892" lon="-4.23568">
        <ele>7</ele>
        <time>2014-09-23T11:55:46Z</time>
      </trkpt>
      <trkpt lat="48.6489" lon="-4.23577">
        <ele>7</ele>
        <time>2014-09-23T11:55:52Z</time>
      </trkpt>
      <trkpt lat="48.64888" lon="-4.23586">
        <ele>7</ele>
        <time>2014-09-23T11:55:57Z</time>
      </trkpt>
      <trkpt lat="48.64886" lon="-4.23593">
        <ele>7</ele>
        <time>2014-09-23T11:56:02Z</time>
      </trkpt>
      <trkpt lat="48.64886" lon="-4.236">
        <ele>6</ele>
        <time>2014-09-23T11:56:07Z</time>
      </trkpt>
      <trkpt lat="48.64888" lon="-4.23606">
        <ele>7</ele>
        <time>2014-09-23T11:56:12Z</time>
      </trkpt>
      <trkpt lat="48.6489" lon="-4.23615">
        <ele>7</ele>
        <time>2014-09-23T11:56:18Z</time>
      </trkpt>
      <trkpt lat="48.64892" lon="-4.23624">
        <ele>7</ele>
        <time>2014-09-23T11:56:24Z</time>
      </trkpt>
      <trkpt lat="48.64893" lon="-4.23632">
        <ele>6</ele>
        <time>2014-09-23T11:56:29Z</time>
      </trkpt>
      <trkpt lat="48.64893" lon="-4.23639">
        <ele>7</ele>
        <time>2014-09-23T11:56:34Z</time>
      </trkpt>
      <trkpt lat="48.64892" lon="-4.23647">
        <ele>7</ele>
        <time>2014-09-23T11:56:39Z</time>
      </trkpt>
      <trkpt lat="48.64892" lon="-4.23655">
        <ele>7</ele>
        <time>2014-09-23T11:56:44Z</time>
      </trkpt>
      <trkpt lat="48.6489" lon="-4.23663">
        <ele>7</ele>
        <time>2014-09-23T11:56:49Z</time>
      </trkpt>
      <trkpt lat="48.64889" lon="-4.2367">
        <ele>7</ele>
        <time>2014-09-23T11:56:54Z</time>
      </trkpt>
      <trkpt lat="48.64886" lon="-4.23679">
        <ele>6</ele>
        <time>2014-09-23T11:57:00Z</time>
      </trkpt>
      <trkpt lat="48.64885" lon="-4.23689">
        <ele>6</ele>
        <time>2014-09-23T11:57:06Z</time>
      </trkpt>
      <trkpt lat="48.64885" lon="-4.23698">
        <ele>6</ele>
        <time>2014-09-23T11:57:12Z</time>
      </trkpt>
      <trkpt lat="48.64885" lon="-4.23706">
        <ele>7</ele>
        <time>2014-09-23T11:57:17Z</time>
      </trkpt>
      <trkpt lat="48.64885" lon="-4.23713">
        <ele>6</ele>
        <time>2014-09-23T11:57:22Z</time>
      </trkpt>
      <trkpt lat="48.64884" lon="-4.23721">
        <ele>6</ele>
        <time>2014-09-23T11:57:27Z</time>
      </trkpt>
      <trkpt lat="48.64883" lon="-4.23727">
        <ele>6</ele>
        <time>2014-09-23T11:57:32Z</time>
      </trkpt>
      <trkpt lat="48.64881" lon="-4.23734">
        <ele>6</ele>
        <time>2014-09-23T11:57:38Z</time>
      </trkpt>
      <trkpt lat="48.64879" lon="-4.23741">
        <ele>6</ele>
        <time>2014-09-23T11:57:43Z</time>
      </trkpt>
      <trkpt lat="48.64876" lon="-4.23746">
        <ele>7</ele>
        <time>2014-09-23T11:57:48Z</time>
      </trkpt>
      <trkpt lat="48.64872" lon="-4.23753">
        <ele>7</ele>
        <time>2014-09-23T11:57:54Z</time>
      </trkpt>
      <trkpt lat="48.64869" lon="-4.23758">
        <ele>7</ele>
        <time>2014-09-23T11:57:59Z</time>
      </trkpt>
      <trkpt lat="48.64866" lon="-4.23765">
        <ele>7</ele>
        <time>2014-09-23T11:58:05Z</time>
      </trkpt>
      <trkpt lat="48.64864" lon="-4.23772">
        <ele>7</ele>
        <time>2014-09-23T11:58:10Z</time>
      </trkpt>
      <trkpt lat="48.64863" lon="-4.23778">
        <ele>8</ele>
        <time>2014-09-23T11:58:15Z</time>
      </trkpt>
      <trkpt lat="48.64861" lon="-4.23785">
        <ele>7</ele>
        <time>2014-09-23T11:58:21Z</time>
      </trkpt>
      <trkpt lat="48.64861" lon="-4.23792">
        <ele>7</ele>
        <time>2014-09-23T11:58:27Z</time>
      </trkpt>
      <trkpt lat="48.6486" lon="-4.23798">
        <ele>7</ele>
        <time>2014-09-23T11:58:33Z</time>
      </trkpt>
      <trkpt lat="48.6486" lon="-4.23799">
        <ele>7</ele>
        <time>2014-09-23T11:58:39Z</time>
      </trkpt>
      <trkpt lat="48.6486" lon="-4.238">
        <ele>7</ele>
        <time>2014-09-23T11:58:44Z</time>
      </trkpt>
      <trkpt lat="48.6486" lon="-4.238">
        <ele>7</ele>
        <time>2014-09-23T11:58:51Z</time>
      </trkpt>
      <trkpt lat="48.64859" lon="-4.23801">
        <ele>7</ele>
        <time>2014-09-23T11:58:56Z</time>
      </trkpt>
      <trkpt lat="48.64857" lon="-4.238">
        <ele>7</ele>
        <time>2014-09-23T11:59:02Z</time>
      </trkpt>
      <trkpt lat="48.64855" lon="-4.23799">
        <ele>7</ele>
        <time>2014-09-23T11:59:07Z</time>
      </trkpt>
      <trkpt lat="48.64853" lon="-4.23798">
        <ele>7</ele>
        <time>2014-09-23T11:59:13Z</time>
      </trkpt>
      <trkpt lat="48.64853" lon="-4.23796">
        <ele>7</ele>
        <time>2014-09-23T11:59:19Z</time>
      </trkpt>
      <trkpt lat="48.64853" lon="-4.23794">
        <ele>7</ele>
        <time>2014-09-23T11:59:25Z</time>
      </trkpt>
      <trkpt lat="48.64853" lon="-4.23793">
        <ele>7</ele>
        <time>2014-09-23T11:59:30Z</time>
      </trkpt>
      <trkpt lat="48.64853" lon="-4.23791">
        <ele>8</ele>
        <time>2014-09-23T11:59:35Z</time>
      </trkpt>
      <trkpt lat="48.64853" lon="-4.2379">
        <ele>8</ele>
        <time>2014-09-23T11:59:41Z</time>
      </trkpt>
      <trkpt lat="48.64853" lon="-4.2379">
        <ele>7</ele>
        <time>2014-09-23T11:59:51Z</time>
      </trkpt>
      <trkpt lat="48.64853" lon="-4.23795">
        <ele>7</ele>
        <time>2014-09-23T11:59:56Z</time>
      </trkpt>
      <trkpt lat="48.64855" lon="-4.23796">
        <ele>7</ele>
        <time>2014-09-23T12:00:02Z</time>
      </trkpt>
      <trkpt lat="48.64856" lon="-4.23799">
        <ele>7</ele>
        <time>2014-09-23T12:00:08Z</time>
      </trkpt>
      <trkpt lat="48.64856" lon="-4.23799">
        <ele>7</ele>
        <time>2014-09-23T12:00:13Z</time>
      </trkpt>
      <trkpt lat="48.64855" lon="-4.23799">
        <ele>7</ele>
        <time>2014-09-23T12:00:19Z</time>
      </trkpt>
      <trkpt lat="48.64856" lon="-4.23797">
        <ele>7</ele>
        <time>2014-09-23T12:00:24Z</time>
      </trkpt>
      <trkpt lat="48.64856" lon="-4.23798">
        <ele>7</ele>
        <time>2014-09-23T12:00:30Z</time>
      </trkpt>
      <trkpt lat="48.64853" lon="-4.23798">
        <ele>8</ele>
        <time>2014-09-23T12:00:35Z</time>
      </trkpt>
      <trkpt lat="48.64853" lon="-4.23801">
        <ele>8</ele>
        <time>2014-09-23T12:00:40Z</time>
      </trkpt>
      <trkpt lat="48.64852" lon="-4.23802">
        <ele>7</ele>
        <time>2014-09-23T12:00:46Z</time>
      </trkpt>
      <trkpt lat="48.64851" lon="-4.23803">
        <ele>7</ele>
        <time>2014-09-23T12:00:51Z</time>
      </trkpt>
      <trkpt lat="48.6485" lon="-4.23803">
        <ele>7</ele>
        <time>2014-09-23T12:00:56Z</time>
      </trkpt>
      <trkpt lat="48.6485" lon="-4.23802">
        <ele>8</ele>
        <time>2014-09-23T12:01:02Z</time>
      </trkpt>
      <trkpt lat="48.64849" lon="-4.23801">
        <ele>7</ele>
        <time>2014-09-23T12:01:07Z</time>
      </trkpt>
      <trkpt lat="48.64851" lon="-4.23802">
        <ele>7</ele>
        <time>2014-09-23T12:01:12Z</time>
      </trkpt>
      <trkpt lat="48.64851" lon="-4.23802">
        <ele>7</ele>
        <time>2014-09-23T12:01:17Z</time>
      </trkpt>
      <trkpt lat="48.6485" lon="-4.23803">
        <ele>7</ele>
        <time>2014-09-23T12:01:23Z</time>
      </trkpt>
      <trkpt lat="48.64849" lon="-4.23807">
        <ele>7</ele>
        <time>2014-09-23T12:01:29Z</time>
      </trkpt>
      <trkpt lat="48.6485" lon="-4.23809">
        <ele>7</ele>
        <time>2014-09-23T12:01:34Z</time>
      </trkpt>
      <trkpt lat="48.6485" lon="-4.23808">
        <ele>7</ele>
        <time>2014-09-23T12:01:39Z</time>
      </trkpt>
      <trkpt lat="48.64849" lon="-4.23808">
        <ele>7</ele>
        <time>2014-09-23T12:01:45Z</time>
      </trkpt>
      <trkpt lat="48.6485" lon="-4.23808">
        <ele>7</ele>
        <time>2014-09-23T12:01:51Z</time>
      </trkpt>
      <trkpt lat="48.64851" lon="-4.23808">
        <ele>7</ele>
        <time>2014-09-23T12:01:56Z</time>
      </trkpt>
      <trkpt lat="48.64851" lon="-4.23806">
        <ele>7</ele>
        <time>2014-09-23T12:02:02Z</time>
      </trkpt>
      <trkpt lat="48.64853" lon="-4.23803">
        <ele>7</ele>
        <time>2014-09-23T12:02:07Z</time>
      </trkpt>
      <trkpt lat="48.64855" lon="-4.238">
        <ele>7</ele>
        <time>2014-09-23T12:02:13Z</time>
      </trkpt>
      <trkpt lat="48.64856" lon="-4.238">
        <ele>7</ele>
        <time>2014-09-23T12:02:20Z</time>
      </trkpt>
      <trkpt lat="48.64857" lon="-4.23803">
        <ele>7</ele>
        <time>2014-09-23T12:02:26Z</time>
      </trkpt>
      <trkpt lat="48.64857" lon="-4.23805">
        <ele>7</ele>
        <time>2014-09-23T12:02:32Z</time>
      </trkpt>
      <trkpt lat="48.64857" lon="-4.23807">
        <ele>7</ele>
        <time>2014-09-23T12:02:38Z</time>
      </trkpt>
      <trkpt lat="48.64856" lon="-4.23808">
        <ele>7</ele>
        <time>2014-09-23T12:02:43Z</time>
      </trkpt>
      <trkpt lat="48.64856" lon="-4.23809">
        <ele>7</ele>
        <time>2014-09-23T12:02:49Z</time>
      </trkpt>
      <trkpt lat="48.64856" lon="-4.23813">
        <ele>7</ele>
        <time>2014-09-23T12:02:55Z</time>
      </trkpt>
      <trkpt lat="48.64856" lon="-4.23813">
        <ele>7</ele>
        <time>2014-09-23T12:03:00Z</time>
      </trkpt>
      <trkpt lat="48.64856" lon="-4.23814">
        <ele>7</ele>
        <time>2014-09-23T12:03:05Z</time>
      </trkpt>
      <trkpt lat="48.64856" lon="-4.23813">
        <ele>6</ele>
        <time>2014-09-23T12:03:11Z</time>
      </trkpt>
      <trkpt lat="48.64855" lon="-4.23812">
        <ele>6</ele>
        <time>2014-09-23T12:03:17Z</time>
      </trkpt>
      <trkpt lat="48.64854" lon="-4.23812">
        <ele>5</ele>
        <time>2014-09-23T12:03:23Z</time>
      </trkpt>
      <trkpt lat="48.64855" lon="-4.23808">
        <ele>6</ele>
        <time>2014-09-23T12:03:30Z</time>
      </trkpt>
      <trkpt lat="48.64855" lon="-4.23809">
        <ele>6</ele>
        <time>2014-09-23T12:03:36Z</time>
      </trkpt>
      <trkpt lat="48.64855" lon="-4.23809">
        <ele>6</ele>
        <time>2014-09-23T12:03:42Z</time>
      </trkpt>
      <trkpt lat="48.64855" lon="-4.2381">
        <ele>6</ele>
        <time>2014-09-23T12:03:47Z</time>
      </trkpt>
      <trkpt lat="48.64855" lon="-4.23809">
        <ele>7</ele>
        <time>2014-09-23T12:03:53Z</time>
      </trkpt>
      <trkpt lat="48.64855" lon="-4.23812">
        <ele>7</ele>
        <time>2014-09-23T12:03:59Z</time>
      </trkpt>
      <trkpt lat="48.64855" lon="-4.23812">
        <ele>6</ele>
        <time>2014-09-23T12:04:05Z</time>
      </trkpt>
      <trkpt lat="48.64856" lon="-4.23804">
        <ele>6</ele>
        <time>2014-09-23T12:04:10Z</time>
      </trkpt>
      <trkpt lat="48.64857" lon="-4.23803">
        <ele>6</ele>
        <time>2014-09-23T12:04:15Z</time>
      </trkpt>
      <trkpt lat="48.64856" lon="-4.23803">
        <ele>6</ele>
        <time>2014-09-23T12:04:21Z</time>
      </trkpt>
      <trkpt lat="48.64856" lon="-4.23803">
        <ele>5</ele>
        <time>2014-09-23T12:04:26Z</time>
      </trkpt>
      <trkpt lat="48.64856" lon="-4.23803">
        <ele>5</ele>
        <time>2014-09-23T12:04:31Z</time>
      </trkpt>
      <trkpt lat="48.64856" lon="-4.23803">
        <ele>5</ele>
        <time>2014-09-23T12:04:37Z</time>
      </trkpt>
      <trkpt lat="48.64856" lon="-4.23804">
        <ele>5</ele>
        <time>2014-09-23T12:04:42Z</time>
      </trkpt>
      <trkpt lat="48.64856" lon="-4.23804">
        <ele>5</ele>
        <time>2014-09-23T12:04:48Z</time>
      </trkpt>
      <trkpt lat="48.64856" lon="-4.23803">
        <ele>5</ele>
        <time>2014-09-23T12:04:53Z</time>
      </trkpt>
      <trkpt lat="48.64856" lon="-4.23803">
        <ele>5</ele>
        <time>2014-09-23T12:04:58Z</time>
      </trkpt>
      <trkpt lat="48.64856" lon="-4.23803">
        <ele>5</ele>
        <time>2014-09-23T12:05:05Z</time>
      </trkpt>
      <trkpt lat="48.64856" lon="-4.23803">
        <ele>5</ele>
        <time>2014-09-23T12:05:11Z</time>
      </trkpt>
      <trkpt lat="48.64856" lon="-4.23802">
        <ele>5</ele>
        <time>2014-09-23T12:05:16Z</time>
      </trkpt>
      <trkpt lat="48.64856" lon="-4.23802">
        <ele>5</ele>
        <time>2014-09-23T12:05:21Z</time>
      </trkpt>
      <trkpt lat="48.64856" lon="-4.23802">
        <ele>5</ele>
        <time>2014-09-23T12:05:26Z</time>
      </trkpt>
      <trkpt lat="48.64855" lon="-4.23803">
        <ele>5</ele>
        <time>2014-09-23T12:05:31Z</time>
      </trkpt>
      <trkpt lat="48.64855" lon="-4.23804">
        <ele>5</ele>
        <time>2014-09-23T12:05:37Z</time>
      </trkpt>
      <trkpt lat="48.64856" lon="-4.23803">
        <ele>6</ele>
        <time>2014-09-23T12:05:43Z</time>
      </trkpt>
      <trkpt lat="48.64855" lon="-4.23803">
        <ele>6</ele>
        <time>2014-09-23T12:05:50Z</time>
      </trkpt>
      <trkpt lat="48.64857" lon="-4.23806">
        <ele>6</ele>
        <time>2014-09-23T12:05:56Z</time>
      </trkpt>
      <trkpt lat="48.64857" lon="-4.23806">
        <ele>6</ele>
        <time>2014-09-23T12:06:06Z</time>
      </trkpt>
      <trkpt lat="48.64857" lon="-4.23806">
        <ele>6</ele>
        <time>2014-09-23T12:06:11Z</time>
      </trkpt>
      <trkpt lat="48.64857" lon="-4.23809">
        <ele>6</ele>
        <time>2014-09-23T12:06:17Z</time>
      </trkpt>
      <trkpt lat="48.64856" lon="-4.23815">
        <ele>6</ele>
        <time>2014-09-23T12:06:22Z</time>
      </trkpt>
      <trkpt lat="48.64854" lon="-4.23823">
        <ele>7</ele>
        <time>2014-09-23T12:06:28Z</time>
      </trkpt>
      <trkpt lat="48.64853" lon="-4.23829">
        <ele>7</ele>
        <time>2014-09-23T12:06:33Z</time>
      </trkpt>
      <trkpt lat="48.64852" lon="-4.23835">
        <ele>7</ele>
        <time>2014-09-23T12:06:39Z</time>
      </trkpt>
      <trkpt lat="48.64851" lon="-4.23841">
        <ele>7</ele>
        <time>2014-09-23T12:06:45Z</time>
      </trkpt>
      <trkpt lat="48.64848" lon="-4.23848">
        <ele>7</ele>
        <time>2014-09-23T12:06:50Z</time>
      </trkpt>
      <trkpt lat="48.64847" lon="-4.23855">
        <ele>8</ele>
        <time>2014-09-23T12:06:55Z</time>
      </trkpt>
      <trkpt lat="48.64846" lon="-4.23861">
        <ele>8</ele>
        <time>2014-09-23T12:07:01Z</time>
      </trkpt>
      <trkpt lat="48.64845" lon="-4.23867">
        <ele>8</ele>
        <time>2014-09-23T12:07:06Z</time>
      </trkpt>
      <trkpt lat="48.64844" lon="-4.23875">
        <ele>8</ele>
        <time>2014-09-23T12:07:11Z</time>
      </trkpt>
      <trkpt lat="48.64846" lon="-4.23885">
        <ele>8</ele>
        <time>2014-09-23T12:07:16Z</time>
      </trkpt>
      <trkpt lat="48.64848" lon="-4.23892">
        <ele>8</ele>
        <time>2014-09-23T12:07:22Z</time>
      </trkpt>
      <trkpt lat="48.6485" lon="-4.23902">
        <ele>7</ele>
        <time>2014-09-23T12:07:28Z</time>
      </trkpt>
      <trkpt lat="48.64851" lon="-4.2391">
        <ele>7</ele>
        <time>2014-09-23T12:07:33Z</time>
      </trkpt>
      <trkpt lat="48.64853" lon="-4.23919">
        <ele>7</ele>
        <time>2014-09-23T12:07:39Z</time>
      </trkpt>
      <trkpt lat="48.64854" lon="-4.23928">
        <ele>6</ele>
        <time>2014-09-23T12:07:45Z</time>
      </trkpt>
      <trkpt lat="48.64854" lon="-4.23937">
        <ele>6</ele>
        <time>2014-09-23T12:07:51Z</time>
      </trkpt>
      <trkpt lat="48.64853" lon="-4.23947">
        <ele>6</ele>
        <time>2014-09-23T12:07:56Z</time>
      </trkpt>
      <trkpt lat="48.64852" lon="-4.23954">
        <ele>6</ele>
        <time>2014-09-23T12:08:01Z</time>
      </trkpt>
      <trkpt lat="48.64851" lon="-4.23961">
        <ele>6</ele>
        <time>2014-09-23T12:08:06Z</time>
      </trkpt>
      <trkpt lat="48.64849" lon="-4.23968">
        <ele>6</ele>
        <time>2014-09-23T12:08:11Z</time>
      </trkpt>
      <trkpt lat="48.64847" lon="-4.23976">
        <ele>6</ele>
        <time>2014-09-23T12:08:16Z</time>
      </trkpt>
      <trkpt lat="48.64846" lon="-4.23983">
        <ele>6</ele>
        <time>2014-09-23T12:08:22Z</time>
      </trkpt>
      <trkpt lat="48.64844" lon="-4.23989">
        <ele>6</ele>
        <time>2014-09-23T12:08:27Z</time>
      </trkpt>
      <trkpt lat="48.64843" lon="-4.23997">
        <ele>6</ele>
        <time>2014-09-23T12:08:32Z</time>
      </trkpt>
      <trkpt lat="48.64844" lon="-4.24002">
        <ele>6</ele>
        <time>2014-09-23T12:08:37Z</time>
      </trkpt>
      <trkpt lat="48.64846" lon="-4.24007">
        <ele>6</ele>
        <time>2014-09-23T12:08:43Z</time>
      </trkpt>
      <trkpt lat="48.64849" lon="-4.24011">
        <ele>6</ele>
        <time>2014-09-23T12:08:48Z</time>
      </trkpt>
      <trkpt lat="48.64852" lon="-4.24015">
        <ele>6</ele>
        <time>2014-09-23T12:08:53Z</time>
      </trkpt>
      <trkpt lat="48.64855" lon="-4.24021">
        <ele>6</ele>
        <time>2014-09-23T12:08:58Z</time>
      </trkpt>
      <trkpt lat="48.64856" lon="-4.24027">
        <ele>6</ele>
        <time>2014-09-23T12:09:03Z</time>
      </trkpt>
      <trkpt lat="48.64857" lon="-4.24034">
        <ele>6</ele>
        <time>2014-09-23T12:09:08Z</time>
      </trkpt>
      <trkpt lat="48.64856" lon="-4.24041">
        <ele>6</ele>
        <time>2014-09-23T12:09:13Z</time>
      </trkpt>
      <trkpt lat="48.64854" lon="-4.24048">
        <ele>6</ele>
        <time>2014-09-23T12:09:19Z</time>
      </trkpt>
      <trkpt lat="48.64854" lon="-4.24054">
        <ele>6</ele>
        <time>2014-09-23T12:09:25Z</time>
      </trkpt>
      <trkpt lat="48.64854" lon="-4.24059">
        <ele>6</ele>
        <time>2014-09-23T12:09:30Z</time>
      </trkpt>
      <trkpt lat="48.64852" lon="-4.24066">
        <ele>6</ele>
        <time>2014-09-23T12:09:36Z</time>
      </trkpt>
      <trkpt lat="48.64851" lon="-4.24072">
        <ele>6</ele>
        <time>2014-09-23T12:09:41Z</time>
      </trkpt>
      <trkpt lat="48.64849" lon="-4.24079">
        <ele>6</ele>
        <time>2014-09-23T12:09:46Z</time>
      </trkpt>
      <trkpt lat="48.64848" lon="-4.24086">
        <ele>6</ele>
        <time>2014-09-23T12:09:52Z</time>
      </trkpt>
      <trkpt lat="48.64846" lon="-4.24094">
        <ele>6</ele>
        <time>2014-09-23T12:09:57Z</time>
      </trkpt>
      <trkpt lat="48.64845" lon="-4.241">
        <ele>6</ele>
        <time>2014-09-23T12:10:03Z</time>
      </trkpt>
      <trkpt lat="48.64843" lon="-4.24108">
        <ele>5</ele>
        <time>2014-09-23T12:10:09Z</time>
      </trkpt>
      <trkpt lat="48.64842" lon="-4.24115">
        <ele>6</ele>
        <time>2014-09-23T12:10:14Z</time>
      </trkpt>
      <trkpt lat="48.6484" lon="-4.24122">
        <ele>6</ele>
        <time>2014-09-23T12:10:20Z</time>
      </trkpt>
      <trkpt lat="48.64839" lon="-4.24129">
        <ele>6</ele>
        <time>2014-09-23T12:10:25Z</time>
      </trkpt>
      <trkpt lat="48.64838" lon="-4.24136">
        <ele>6</ele>
        <time>2014-09-23T12:10:30Z</time>
      </trkpt>
      <trkpt lat="48.64836" lon="-4.24142">
        <ele>6</ele>
        <time>2014-09-23T12:10:35Z</time>
      </trkpt>
      <trkpt lat="48.64835" lon="-4.24148">
        <ele>6</ele>
        <time>2014-09-23T12:10:40Z</time>
      </trkpt>
      <trkpt lat="48.64833" lon="-4.24154">
        <ele>6</ele>
        <time>2014-09-23T12:10:45Z</time>
      </trkpt>
      <trkpt lat="48.64832" lon="-4.24159">
        <ele>6</ele>
        <time>2014-09-23T12:10:51Z</time>
      </trkpt>
      <trkpt lat="48.6483" lon="-4.24164">
        <ele>6</ele>
        <time>2014-09-23T12:10:56Z</time>
      </trkpt>
      <trkpt lat="48.64828" lon="-4.24169">
        <ele>6</ele>
        <time>2014-09-23T12:11:01Z</time>
      </trkpt>
      <trkpt lat="48.64827" lon="-4.24173">
        <ele>6</ele>
        <time>2014-09-23T12:11:06Z</time>
      </trkpt>
      <trkpt lat="48.64827" lon="-4.24175">
        <ele>6</ele>
        <time>2014-09-23T12:11:11Z</time>
      </trkpt>
      <trkpt lat="48.64827" lon="-4.24179">
        <ele>7</ele>
        <time>2014-09-23T12:11:17Z</time>
      </trkpt>
      <trkpt lat="48.64827" lon="-4.2418">
        <ele>7</ele>
        <time>2014-09-23T12:11:22Z</time>
      </trkpt>
      <trkpt lat="48.64828" lon="-4.2418">
        <ele>7</ele>
        <time>2014-09-23T12:11:28Z</time>
      </trkpt>
      <trkpt lat="48.6483" lon="-4.24179">
        <ele>7</ele>
        <time>2014-09-23T12:11:34Z</time>
      </trkpt>
      <trkpt lat="48.6483" lon="-4.24179">
        <ele>6</ele>
        <time>2014-09-23T12:11:39Z</time>
      </trkpt>
      <trkpt lat="48.6483" lon="-4.24179">
        <ele>6</ele>
        <time>2014-09-23T12:11:44Z</time>
      </trkpt>
      <trkpt lat="48.6483" lon="-4.24181">
        <ele>6</ele>
        <time>2014-09-23T12:11:52Z</time>
      </trkpt>
      <trkpt lat="48.6483" lon="-4.24181">
        <ele>6</ele>
        <time>2014-09-23T12:11:57Z</time>
      </trkpt>
      <trkpt lat="48.6483" lon="-4.24182">
        <ele>6</ele>
        <time>2014-09-23T12:12:03Z</time>
      </trkpt>
      <trkpt lat="48.6483" lon="-4.24182">
        <ele>6</ele>
        <time>2014-09-23T12:12:08Z</time>
      </trkpt>
      <trkpt lat="48.64829" lon="-4.24183">
        <ele>5</ele>
        <time>2014-09-23T12:12:14Z</time>
      </trkpt>
      <trkpt lat="48.64829" lon="-4.24182">
        <ele>5</ele>
        <time>2014-09-23T12:12:19Z</time>
      </trkpt>
      <trkpt lat="48.64828" lon="-4.24183">
        <ele>5</ele>
        <time>2014-09-23T12:12:24Z</time>
      </trkpt>
      <trkpt lat="48.64828" lon="-4.24182">
        <ele>6</ele>
        <time>2014-09-23T12:12:29Z</time>
      </trkpt>
      <trkpt lat="48.64828" lon="-4.24182">
        <ele>5</ele>
        <time>2014-09-23T12:12:34Z</time>
      </trkpt>
      <trkpt lat="48.64829" lon="-4.24182">
        <ele>6</ele>
        <time>2014-09-23T12:12:40Z</time>
      </trkpt>
      <trkpt lat="48.64829" lon="-4.24182">
        <ele>5</ele>
        <time>2014-09-23T12:12:48Z</time>
      </trkpt>
      <trkpt lat="48.64829" lon="-4.24183">
        <ele>5</ele>
        <time>2014-09-23T12:12:55Z</time>
      </trkpt>
      <trkpt lat="48.64829" lon="-4.24183">
        <ele>5</ele>
        <time>2014-09-23T12:13:00Z</time>
      </trkpt>
      <trkpt lat="48.64829" lon="-4.24183">
        <ele>6</ele>
        <time>2014-09-23T12:13:07Z</time>
      </trkpt>
      <trkpt lat="48.64829" lon="-4.24182">
        <ele>6</ele>
        <time>2014-09-23T12:13:15Z</time>
      </trkpt>
      <trkpt lat="48.64829" lon="-4.24181">
        <ele>5</ele>
        <time>2014-09-23T12:13:20Z</time>
      </trkpt>
      <trkpt lat="48.64829" lon="-4.24181">
        <ele>5</ele>
        <time>2014-09-23T12:13:25Z</time>
      </trkpt>
      <trkpt lat="48.64829" lon="-4.2418">
        <ele>6</ele>
        <time>2014-09-23T12:13:30Z</time>
      </trkpt>
      <trkpt lat="48.64829" lon="-4.24179">
        <ele>6</ele>
        <time>2014-09-23T12:13:35Z</time>
      </trkpt>
      <trkpt lat="48.64829" lon="-4.24179">
        <ele>5</ele>
        <time>2014-09-23T12:13:42Z</time>
      </trkpt>
      <trkpt lat="48.64829" lon="-4.24179">
        <ele>5</ele>
        <time>2014-09-23T12:13:48Z</time>
      </trkpt>
      <trkpt lat="48.64828" lon="-4.24179">
        <ele>6</ele>
        <time>2014-09-23T12:13:54Z</time>
      </trkpt>
      <trkpt lat="48.64828" lon="-4.2418">
        <ele>6</ele>
        <time>2014-09-23T12:13:59Z</time>
      </trkpt>
      <trkpt lat="48.64828" lon="-4.24181">
        <ele>5</ele>
        <time>2014-09-23T12:14:04Z</time>
      </trkpt>
      <trkpt lat="48.64827" lon="-4.24182">
        <ele>6</ele>
        <time>2014-09-23T12:14:13Z</time>
      </trkpt>
      <trkpt lat="48.64827" lon="-4.24181">
        <ele>5</ele>
        <time>2014-09-23T12:14:19Z</time>
      </trkpt>
      <trkpt lat="48.64826" lon="-4.24181">
        <ele>6</ele>
        <time>2014-09-23T12:14:25Z</time>
      </trkpt>
      <trkpt lat="48.64826" lon="-4.24181">
        <ele>6</ele>
        <time>2014-09-23T12:14:31Z</time>
      </trkpt>
      <trkpt lat="48.64827" lon="-4.24181">
        <ele>5</ele>
        <time>2014-09-23T12:14:36Z</time>
      </trkpt>
      <trkpt lat="48.64826" lon="-4.2418">
        <ele>6</ele>
        <time>2014-09-23T12:14:41Z</time>
      </trkpt>
      <trkpt lat="48.64827" lon="-4.24181">
        <ele>5</ele>
        <time>2014-09-23T12:14:48Z</time>
      </trkpt>
      <trkpt lat="48.64827" lon="-4.24181">
        <ele>5</ele>
        <time>2014-09-23T12:14:56Z</time>
      </trkpt>
      <trkpt lat="48.64827" lon="-4.24179">
        <ele>6</ele>
        <time>2014-09-23T12:15:01Z</time>
      </trkpt>
      <trkpt lat="48.64825" lon="-4.24184">
        <ele>6</ele>
        <time>2014-09-23T12:15:06Z</time>
      </trkpt>
      <trkpt lat="48.64825" lon="-4.24187">
        <ele>6</ele>
        <time>2014-09-23T12:15:11Z</time>
      </trkpt>
      <trkpt lat="48.64824" lon="-4.24191">
        <ele>6</ele>
        <time>2014-09-23T12:15:17Z</time>
      </trkpt>
      <trkpt lat="48.64823" lon="-4.24194">
        <ele>6</ele>
        <time>2014-09-23T12:15:23Z</time>
      </trkpt>
      <trkpt lat="48.64822" lon="-4.24199">
        <ele>6</ele>
        <time>2014-09-23T12:15:28Z</time>
      </trkpt>
      <trkpt lat="48.64821" lon="-4.24205">
        <ele>6</ele>
        <time>2014-09-23T12:15:33Z</time>
      </trkpt>
      <trkpt lat="48.64821" lon="-4.24211">
        <ele>5</ele>
        <time>2014-09-23T12:15:38Z</time>
      </trkpt>
      <trkpt lat="48.6482" lon="-4.24219">
        <ele>5</ele>
        <time>2014-09-23T12:15:44Z</time>
      </trkpt>
      <trkpt lat="48.64819" lon="-4.24226">
        <ele>6</ele>
        <time>2014-09-23T12:15:49Z</time>
      </trkpt>
      <trkpt lat="48.64817" lon="-4.24234">
        <ele>5</ele>
        <time>2014-09-23T12:15:54Z</time>
      </trkpt>
      <trkpt lat="48.64816" lon="-4.24241">
        <ele>6</ele>
        <time>2014-09-23T12:16:00Z</time>
      </trkpt>
      <trkpt lat="48.64815" lon="-4.24249">
        <ele>7</ele>
        <time>2014-09-23T12:16:06Z</time>
      </trkpt>
      <trkpt lat="48.64814" lon="-4.24257">
        <ele>6</ele>
        <time>2014-09-23T12:16:11Z</time>
      </trkpt>
      <trkpt lat="48.64811" lon="-4.24264">
        <ele>5</ele>
        <time>2014-09-23T12:16:17Z</time>
      </trkpt>
      <trkpt lat="48.64808" lon="-4.24272">
        <ele>6</ele>
        <time>2014-09-23T12:16:23Z</time>
      </trkpt>
      <trkpt lat="48.64805" lon="-4.2428">
        <ele>5</ele>
        <time>2014-09-23T12:16:28Z</time>
      </trkpt>
      <trkpt lat="48.64805" lon="-4.24286">
        <ele>6</ele>
        <time>2014-09-23T12:16:34Z</time>
      </trkpt>
      <trkpt lat="48.64803" lon="-4.24293">
        <ele>6</ele>
        <time>2014-09-23T12:16:39Z</time>
      </trkpt>
      <trkpt lat="48.64802" lon="-4.24299">
        <ele>6</ele>
        <time>2014-09-23T12:16:44Z</time>
      </trkpt>
      <trkpt lat="48.64801" lon="-4.24308">
        <ele>5</ele>
        <time>2014-09-23T12:16:49Z</time>
      </trkpt>
      <trkpt lat="48.64799" lon="-4.24314">
        <ele>5</ele>
        <time>2014-09-23T12:16:55Z</time>
      </trkpt>
      <trkpt lat="48.64797" lon="-4.24321">
        <ele>5</ele>
        <time>2014-09-23T12:17:00Z</time>
      </trkpt>
      <trkpt lat="48.64794" lon="-4.2433">
        <ele>5</ele>
        <time>2014-09-23T12:17:05Z</time>
      </trkpt>
      <trkpt lat="48.64793" lon="-4.24338">
        <ele>6</ele>
        <time>2014-09-23T12:17:12Z</time>
      </trkpt>
      <trkpt lat="48.64791" lon="-4.24345">
        <ele>6</ele>
        <time>2014-09-23T12:17:18Z</time>
      </trkpt>
      <trkpt lat="48.6479" lon="-4.24351">
        <ele>6</ele>
        <time>2014-09-23T12:17:23Z</time>
      </trkpt>
      <trkpt lat="48.64788" lon="-4.24358">
        <ele>6</ele>
        <time>2014-09-23T12:17:28Z</time>
      </trkpt>
      <trkpt lat="48.64787" lon="-4.24363">
        <ele>6</ele>
        <time>2014-09-23T12:17:34Z</time>
      </trkpt>
      <trkpt lat="48.64787" lon="-4.2437">
        <ele>6</ele>
        <time>2014-09-23T12:17:40Z</time>
      </trkpt>
      <trkpt lat="48.64787" lon="-4.24378">
        <ele>5</ele>
        <time>2014-09-23T12:17:45Z</time>
      </trkpt>
      <trkpt lat="48.64788" lon="-4.24384">
        <ele>5</ele>
        <time>2014-09-23T12:17:50Z</time>
      </trkpt>
      <trkpt lat="48.64787" lon="-4.2439">
        <ele>6</ele>
        <time>2014-09-23T12:17:56Z</time>
      </trkpt>
      <trkpt lat="48.64783" lon="-4.24399">
        <ele>6</ele>
        <time>2014-09-23T12:18:01Z</time>
      </trkpt>
      <trkpt lat="48.64781" lon="-4.24405">
        <ele>5</ele>
        <time>2014-09-23T12:18:06Z</time>
      </trkpt>
      <trkpt lat="48.64778" lon="-4.24411">
        <ele>5</ele>
        <time>2014-09-23T12:18:12Z</time>
      </trkpt>
      <trkpt lat="48.64775" lon="-4.24417">
        <ele>5</ele>
        <time>2014-09-23T12:18:17Z</time>
      </trkpt>
      <trkpt lat="48.64774" lon="-4.24423">
        <ele>5</ele>
        <time>2014-09-23T12:18:23Z</time>
      </trkpt>
      <trkpt lat="48.64774" lon="-4.24428">
        <ele>5</ele>
        <time>2014-09-23T12:18:28Z</time>
      </trkpt>
      <trkpt lat="48.64773" lon="-4.24434">
        <ele>5</ele>
        <time>2014-09-23T12:18:33Z</time>
      </trkpt>
      <trkpt lat="48.64772" lon="-4.24441">
        <ele>6</ele>
        <time>2014-09-23T12:18:38Z</time>
      </trkpt>
      <trkpt lat="48.64771" lon="-4.24448">
        <ele>6</ele>
        <time>2014-09-23T12:18:43Z</time>
      </trkpt>
      <trkpt lat="48.6477" lon="-4.24458">
        <ele>7</ele>
        <time>2014-09-23T12:18:49Z</time>
      </trkpt>
      <trkpt lat="48.6477" lon="-4.24465">
        <ele>7</ele>
        <time>2014-09-23T12:18:54Z</time>
      </trkpt>
      <trkpt lat="48.64769" lon="-4.24472">
        <ele>7</ele>
        <time>2014-09-23T12:18:59Z</time>
      </trkpt>
      <trkpt lat="48.64767" lon="-4.24479">
        <ele>6</ele>
        <time>2014-09-23T12:19:05Z</time>
      </trkpt>
      <trkpt lat="48.64766" lon="-4.24484">
        <ele>6</ele>
        <time>2014-09-23T12:19:10Z</time>
      </trkpt>
      <trkpt lat="48.64764" lon="-4.24492">
        <ele>6</ele>
        <time>2014-09-23T12:19:16Z</time>
      </trkpt>
      <trkpt lat="48.64764" lon="-4.24499">
        <ele>6</ele>
        <time>2014-09-23T12:19:21Z</time>
      </trkpt>
      <trkpt lat="48.64763" lon="-4.24506">
        <ele>6</ele>
        <time>2014-09-23T12:19:27Z</time>
      </trkpt>
      <trkpt lat="48.64761" lon="-4.24512">
        <ele>6</ele>
        <time>2014-09-23T12:19:32Z</time>
      </trkpt>
      <trkpt lat="48.6476" lon="-4.2452">
        <ele>6</ele>
        <time>2014-09-23T12:19:38Z</time>
      </trkpt>
      <trkpt lat="48.64759" lon="-4.24528">
        <ele>6</ele>
        <time>2014-09-23T12:19:44Z</time>
      </trkpt>
      <trkpt lat="48.64757" lon="-4.24535">
        <ele>6</ele>
        <time>2014-09-23T12:19:49Z</time>
      </trkpt>
      <trkpt lat="48.64755" lon="-4.24543">
        <ele>6</ele>
        <time>2014-09-23T12:19:54Z</time>
      </trkpt>
      <trkpt lat="48.64753" lon="-4.24549">
        <ele>5</ele>
        <time>2014-09-23T12:19:59Z</time>
      </trkpt>
      <trkpt lat="48.64752" lon="-4.24554">
        <ele>6</ele>
        <time>2014-09-23T12:20:05Z</time>
      </trkpt>
      <trkpt lat="48.64751" lon="-4.24563">
        <ele>6</ele>
        <time>2014-09-23T12:20:10Z</time>
      </trkpt>
      <trkpt lat="48.64748" lon="-4.24569">
        <ele>5</ele>
        <time>2014-09-23T12:20:15Z</time>
      </trkpt>
      <trkpt lat="48.64747" lon="-4.24577">
        <ele>5</ele>
        <time>2014-09-23T12:20:21Z</time>
      </trkpt>
      <trkpt lat="48.64746" lon="-4.24584">
        <ele>5</ele>
        <time>2014-09-23T12:20:26Z</time>
      </trkpt>
      <trkpt lat="48.64745" lon="-4.24591">
        <ele>6</ele>
        <time>2014-09-23T12:20:31Z</time>
      </trkpt>
      <trkpt lat="48.64744" lon="-4.24598">
        <ele>6</ele>
        <time>2014-09-23T12:20:36Z</time>
      </trkpt>
      <trkpt lat="48.64742" lon="-4.24604">
        <ele>6</ele>
        <time>2014-09-23T12:20:42Z</time>
      </trkpt>
      <trkpt lat="48.64741" lon="-4.24611">
        <ele>6</ele>
        <time>2014-09-23T12:20:48Z</time>
      </trkpt>
      <trkpt lat="48.6474" lon="-4.24616">
        <ele>5</ele>
        <time>2014-09-23T12:20:53Z</time>
      </trkpt>
      <trkpt lat="48.64738" lon="-4.24622">
        <ele>5</ele>
        <time>2014-09-23T12:20:59Z</time>
      </trkpt>
      <trkpt lat="48.64737" lon="-4.24627">
        <ele>5</ele>
        <time>2014-09-23T12:21:05Z</time>
      </trkpt>
      <trkpt lat="48.64737" lon="-4.24633">
        <ele>5</ele>
        <time>2014-09-23T12:21:10Z</time>
      </trkpt>
      <trkpt lat="48.64737" lon="-4.24639">
        <ele>6</ele>
        <time>2014-09-23T12:21:16Z</time>
      </trkpt>
      <trkpt lat="48.64736" lon="-4.24645">
        <ele>6</ele>
        <time>2014-09-23T12:21:22Z</time>
      </trkpt>
      <trkpt lat="48.64736" lon="-4.24651">
        <ele>6</ele>
        <time>2014-09-23T12:21:27Z</time>
      </trkpt>
      <trkpt lat="48.64736" lon="-4.24652">
        <ele>6</ele>
        <time>2014-09-23T12:21:33Z</time>
      </trkpt>
      <trkpt lat="48.64735" lon="-4.24658">
        <ele>6</ele>
        <time>2014-09-23T12:21:38Z</time>
      </trkpt>
      <trkpt lat="48.64734" lon="-4.24667">
        <ele>6</ele>
        <time>2014-09-23T12:21:45Z</time>
      </trkpt>
      <trkpt lat="48.64734" lon="-4.24675">
        <ele>6</ele>
        <time>2014-09-23T12:21:50Z</time>
      </trkpt>
      <trkpt lat="48.64733" lon="-4.24682">
        <ele>6</ele>
        <time>2014-09-23T12:21:55Z</time>
      </trkpt>
      <trkpt lat="48.64732" lon="-4.24689">
        <ele>5</ele>
        <time>2014-09-23T12:22:01Z</time>
      </trkpt>
      <trkpt lat="48.64732" lon="-4.24698">
        <ele>5</ele>
        <time>2014-09-23T12:22:07Z</time>
      </trkpt>
      <trkpt lat="48.6473" lon="-4.24706">
        <ele>6</ele>
        <time>2014-09-23T12:22:12Z</time>
      </trkpt>
      <trkpt lat="48.64728" lon="-4.24712">
        <ele>6</ele>
        <time>2014-09-23T12:22:17Z</time>
      </trkpt>
      <trkpt lat="48.64727" lon="-4.24718">
        <ele>6</ele>
        <time>2014-09-23T12:22:23Z</time>
      </trkpt>
      <trkpt lat="48.64724" lon="-4.24723">
        <ele>6</ele>
        <time>2014-09-23T12:22:28Z</time>
      </trkpt>
      <trkpt lat="48.64722" lon="-4.24731">
        <ele>5</ele>
        <time>2014-09-23T12:22:34Z</time>
      </trkpt>
      <trkpt lat="48.64719" lon="-4.24737">
        <ele>5</ele>
        <time>2014-09-23T12:22:39Z</time>
      </trkpt>
      <trkpt lat="48.64717" lon="-4.24742">
        <ele>6</ele>
        <time>2014-09-23T12:22:44Z</time>
      </trkpt>
      <trkpt lat="48.64715" lon="-4.24747">
        <ele>7</ele>
        <time>2014-09-23T12:22:49Z</time>
      </trkpt>
      <trkpt lat="48.64714" lon="-4.24752">
        <ele>7</ele>
        <time>2014-09-23T12:22:54Z</time>
      </trkpt>
      <trkpt lat="48.64712" lon="-4.24759">
        <ele>6</ele>
        <time>2014-09-23T12:22:59Z</time>
      </trkpt>
      <trkpt lat="48.64711" lon="-4.24764">
        <ele>6</ele>
        <time>2014-09-23T12:23:04Z</time>
      </trkpt>
      <trkpt lat="48.64708" lon="-4.24769">
        <ele>7</ele>
        <time>2014-09-23T12:23:10Z</time>
      </trkpt>
      <trkpt lat="48.64705" lon="-4.24773">
        <ele>7</ele>
        <time>2014-09-23T12:23:15Z</time>
      </trkpt>
      <trkpt lat="48.64703" lon="-4.24777">
        <ele>7</ele>
        <time>2014-09-23T12:23:21Z</time>
      </trkpt>
      <trkpt lat="48.647" lon="-4.24783">
        <ele>7</ele>
        <time>2014-09-23T12:23:26Z</time>
      </trkpt>
      <trkpt lat="48.64698" lon="-4.24788">
        <ele>7</ele>
        <time>2014-09-23T12:23:31Z</time>
      </trkpt>
      <trkpt lat="48.64694" lon="-4.24793">
        <ele>7</ele>
        <time>2014-09-23T12:23:38Z</time>
      </trkpt>
      <trkpt lat="48.6469" lon="-4.24797">
        <ele>7</ele>
        <time>2014-09-23T12:23:44Z</time>
      </trkpt>
      <trkpt lat="48.64685" lon="-4.24799">
        <ele>7</ele>
        <time>2014-09-23T12:23:49Z</time>
      </trkpt>
      <trkpt lat="48.64682" lon="-4.24801">
        <ele>7</ele>
        <time>2014-09-23T12:23:55Z</time>
      </trkpt>
      <trkpt lat="48.64679" lon="-4.24802">
        <ele>7</ele>
        <time>2014-09-23T12:24:01Z</time>
      </trkpt>
      <trkpt lat="48.64677" lon="-4.24802">
        <ele>7</ele>
        <time>2014-09-23T12:24:07Z</time>
      </trkpt>
      <trkpt lat="48.64678" lon="-4.24801">
        <ele>7</ele>
        <time>2014-09-23T12:24:12Z</time>
      </trkpt>
      <trkpt lat="48.6468" lon="-4.248">
        <ele>7</ele>
        <time>2014-09-23T12:24:18Z</time>
      </trkpt>
      <trkpt lat="48.64681" lon="-4.24801">
        <ele>7</ele>
        <time>2014-09-23T12:24:23Z</time>
      </trkpt>
      <trkpt lat="48.6468" lon="-4.24804">
        <ele>7</ele>
        <time>2014-09-23T12:24:29Z</time>
      </trkpt>
      <trkpt lat="48.64679" lon="-4.24808">
        <ele>7</ele>
        <time>2014-09-23T12:24:35Z</time>
      </trkpt>
      <trkpt lat="48.64678" lon="-4.24812">
        <ele>7</ele>
        <time>2014-09-23T12:24:40Z</time>
      </trkpt>
      <trkpt lat="48.64677" lon="-4.24816">
        <ele>7</ele>
        <time>2014-09-23T12:24:45Z</time>
      </trkpt>
      <trkpt lat="48.64676" lon="-4.24817">
        <ele>6</ele>
        <time>2014-09-23T12:24:51Z</time>
      </trkpt>
      <trkpt lat="48.64675" lon="-4.24816">
        <ele>6</ele>
        <time>2014-09-23T12:24:58Z</time>
      </trkpt>
      <trkpt lat="48.64674" lon="-4.24815">
        <ele>6</ele>
        <time>2014-09-23T12:25:03Z</time>
      </trkpt>
      <trkpt lat="48.64674" lon="-4.24814">
        <ele>6</ele>
        <time>2014-09-23T12:25:08Z</time>
      </trkpt>
      <trkpt lat="48.64674" lon="-4.24814">
        <ele>6</ele>
        <time>2014-09-23T12:25:13Z</time>
      </trkpt>
      <trkpt lat="48.64674" lon="-4.24814">
        <ele>7</ele>
        <time>2014-09-23T12:25:18Z</time>
      </trkpt>
      <trkpt lat="48.64674" lon="-4.24814">
        <ele>6</ele>
        <time>2014-09-23T12:25:24Z</time>
      </trkpt>
      <trkpt lat="48.64674" lon="-4.24813">
        <ele>6</ele>
        <time>2014-09-23T12:25:31Z</time>
      </trkpt>
      <trkpt lat="48.64674" lon="-4.24813">
        <ele>6</ele>
        <time>2014-09-23T12:25:38Z</time>
      </trkpt>
      <trkpt lat="48.64674" lon="-4.24813">
        <ele>6</ele>
        <time>2014-09-23T12:25:44Z</time>
      </trkpt>
      <trkpt lat="48.64675" lon="-4.24812">
        <ele>6</ele>
        <time>2014-09-23T12:25:50Z</time>
      </trkpt>
      <trkpt lat="48.64675" lon="-4.24812">
        <ele>7</ele>
        <time>2014-09-23T12:25:55Z</time>
      </trkpt>
      <trkpt lat="48.64675" lon="-4.24812">
        <ele>7</ele>
        <time>2014-09-23T12:26:02Z</time>
      </trkpt>
      <trkpt lat="48.64678" lon="-4.24813">
        <ele>7</ele>
        <time>2014-09-23T12:26:08Z</time>
      </trkpt>
      <trkpt lat="48.64678" lon="-4.24813">
        <ele>8</ele>
        <time>2014-09-23T12:26:13Z</time>
      </trkpt>
      <trkpt lat="48.64679" lon="-4.24812">
        <ele>8</ele>
        <time>2014-09-23T12:26:19Z</time>
      </trkpt>
      <trkpt lat="48.6468" lon="-4.24811">
        <ele>9</ele>
        <time>2014-09-23T12:26:24Z</time>
      </trkpt>
      <trkpt lat="48.64677" lon="-4.2481">
        <ele>8</ele>
        <time>2014-09-23T12:26:29Z</time>
      </trkpt>
      <trkpt lat="48.64675" lon="-4.24809">
        <ele>8</ele>
        <time>2014-09-23T12:26:35Z</time>
      </trkpt>
      <trkpt lat="48.64675" lon="-4.24808">
        <ele>7</ele>
        <time>2014-09-23T12:26:40Z</time>
      </trkpt>
      <trkpt lat="48.64674" lon="-4.24807">
        <ele>7</ele>
        <time>2014-09-23T12:26:45Z</time>
      </trkpt>
      <trkpt lat="48.64674" lon="-4.24809">
        <ele>8</ele>
        <time>2014-09-23T12:26:51Z</time>
      </trkpt>
      <trkpt lat="48.64675" lon="-4.24817">
        <ele>8</ele>
        <time>2014-09-23T12:26:56Z</time>
      </trkpt>
      <trkpt lat="48.64676" lon="-4.24824">
        <ele>8</ele>
        <time>2014-09-23T12:27:02Z</time>
      </trkpt>
      <trkpt lat="48.64676" lon="-4.24826">
        <ele>8</ele>
        <time>2014-09-23T12:27:09Z</time>
      </trkpt>
      <trkpt lat="48.64676" lon="-4.24826">
        <ele>8</ele>
        <time>2014-09-23T12:27:16Z</time>
      </trkpt>
      <trkpt lat="48.64679" lon="-4.24832">
        <ele>7</ele>
        <time>2014-09-23T12:27:21Z</time>
      </trkpt>
      <trkpt lat="48.64683" lon="-4.24836">
        <ele>7</ele>
        <time>2014-09-23T12:27:27Z</time>
      </trkpt>
      <trkpt lat="48.64686" lon="-4.24841">
        <ele>7</ele>
        <time>2014-09-23T12:27:32Z</time>
      </trkpt>
      <trkpt lat="48.64688" lon="-4.24847">
        <ele>7</ele>
        <time>2014-09-23T12:27:39Z</time>
      </trkpt>
      <trkpt lat="48.6469" lon="-4.24855">
        <ele>7</ele>
        <time>2014-09-23T12:27:44Z</time>
      </trkpt>
      <trkpt lat="48.64691" lon="-4.24862">
        <ele>6</ele>
        <time>2014-09-23T12:27:50Z</time>
      </trkpt>
      <trkpt lat="48.64693" lon="-4.24871">
        <ele>7</ele>
        <time>2014-09-23T12:27:55Z</time>
      </trkpt>
      <trkpt lat="48.64695" lon="-4.24878">
        <ele>7</ele>
        <time>2014-09-23T12:28:01Z</time>
      </trkpt>
      <trkpt lat="48.64695" lon="-4.24887">
        <ele>8</ele>
        <time>2014-09-23T12:28:06Z</time>
      </trkpt>
      <trkpt lat="48.64694" lon="-4.24894">
        <ele>8</ele>
        <time>2014-09-23T12:28:11Z</time>
      </trkpt>
      <trkpt lat="48.64694" lon="-4.24903">
        <ele>7</ele>
        <time>2014-09-23T12:28:18Z</time>
      </trkpt>
      <trkpt lat="48.64695" lon="-4.2491">
        <ele>7</ele>
        <time>2014-09-23T12:28:23Z</time>
      </trkpt>
      <trkpt lat="48.64696" lon="-4.24919">
        <ele>7</ele>
        <time>2014-09-23T12:28:28Z</time>
      </trkpt>
      <trkpt lat="48.64698" lon="-4.24926">
        <ele>7</ele>
        <time>2014-09-23T12:28:33Z</time>
      </trkpt>
      <trkpt lat="48.64699" lon="-4.24935">
        <ele>7</ele>
        <time>2014-09-23T12:28:39Z</time>
      </trkpt>
      <trkpt lat="48.647" lon="-4.24943">
        <ele>8</ele>
        <time>2014-09-23T12:28:44Z</time>
      </trkpt>
      <trkpt lat="48.64701" lon="-4.24952">
        <ele>7</ele>
        <time>2014-09-23T12:28:50Z</time>
      </trkpt>
      <trkpt lat="48.64703" lon="-4.24959">
        <ele>7</ele>
        <time>2014-09-23T12:28:55Z</time>
      </trkpt>
      <trkpt lat="48.64704" lon="-4.24967">
        <ele>7</ele>
        <time>2014-09-23T12:29:02Z</time>
      </trkpt>
      <trkpt lat="48.64704" lon="-4.24975">
        <ele>7</ele>
        <time>2014-09-23T12:29:07Z</time>
      </trkpt>
      <trkpt lat="48.64704" lon="-4.24981">
        <ele>8</ele>
        <time>2014-09-23T12:29:12Z</time>
      </trkpt>
      <trkpt lat="48.64703" lon="-4.24988">
        <ele>8</ele>
        <time>2014-09-23T12:29:17Z</time>
      </trkpt>
      <trkpt lat="48.64703" lon="-4.24995">
        <ele>8</ele>
        <time>2014-09-23T12:29:23Z</time>
      </trkpt>
      <trkpt lat="48.64701" lon="-4.25003">
        <ele>8</ele>
        <time>2014-09-23T12:29:29Z</time>
      </trkpt>
      <trkpt lat="48.64701" lon="-4.2501">
        <ele>7</ele>
        <time>2014-09-23T12:29:35Z</time>
      </trkpt>
      <trkpt lat="48.647" lon="-4.25017">
        <ele>7</ele>
        <time>2014-09-23T12:29:41Z</time>
      </trkpt>
      <trkpt lat="48.647" lon="-4.25025">
        <ele>7</ele>
        <time>2014-09-23T12:29:46Z</time>
      </trkpt>
      <trkpt lat="48.647" lon="-4.25031">
        <ele>6</ele>
        <time>2014-09-23T12:29:51Z</time>
      </trkpt>
      <trkpt lat="48.64701" lon="-4.25036">
        <ele>6</ele>
        <time>2014-09-23T12:29:57Z</time>
      </trkpt>
      <trkpt lat="48.64701" lon="-4.25042">
        <ele>6</ele>
        <time>2014-09-23T12:30:02Z</time>
      </trkpt>
      <trkpt lat="48.64702" lon="-4.25049">
        <ele>6</ele>
        <time>2014-09-23T12:30:08Z</time>
      </trkpt>
      <trkpt lat="48.64703" lon="-4.25055">
        <ele>6</ele>
        <time>2014-09-23T12:30:13Z</time>
      </trkpt>
      <trkpt lat="48.64704" lon="-4.25063">
        <ele>6</ele>
        <time>2014-09-23T12:30:19Z</time>
      </trkpt>
      <trkpt lat="48.64705" lon="-4.25069">
        <ele>6</ele>
        <time>2014-09-23T12:30:24Z</time>
      </trkpt>
      <trkpt lat="48.64706" lon="-4.25076">
        <ele>6</ele>
        <time>2014-09-23T12:30:30Z</time>
      </trkpt>
      <trkpt lat="48.64706" lon="-4.25084">
        <ele>6</ele>
        <time>2014-09-23T12:30:37Z</time>
      </trkpt>
      <trkpt lat="48.64707" lon="-4.25092">
        <ele>6</ele>
        <time>2014-09-23T12:30:42Z</time>
      </trkpt>
      <trkpt lat="48.64707" lon="-4.251">
        <ele>6</ele>
        <time>2014-09-23T12:30:48Z</time>
      </trkpt>
      <trkpt lat="48.64707" lon="-4.25106">
        <ele>7</ele>
        <time>2014-09-23T12:30:54Z</time>
      </trkpt>
      <trkpt lat="48.64707" lon="-4.25113">
        <ele>6</ele>
        <time>2014-09-23T12:31:00Z</time>
      </trkpt>
      <trkpt lat="48.64707" lon="-4.25118">
        <ele>6</ele>
        <time>2014-09-23T12:31:05Z</time>
      </trkpt>
      <trkpt lat="48.64706" lon="-4.25122">
        <ele>7</ele>
        <time>2014-09-23T12:31:10Z</time>
      </trkpt>
      <trkpt lat="48.64706" lon="-4.25122">
        <ele>6</ele>
        <time>2014-09-23T12:31:16Z</time>
      </trkpt>
      <trkpt lat="48.64707" lon="-4.25117">
        <ele>6</ele>
        <time>2014-09-23T12:31:21Z</time>
      </trkpt>
      <trkpt lat="48.64707" lon="-4.25115">
        <ele>6</ele>
        <time>2014-09-23T12:31:27Z</time>
      </trkpt>
      <trkpt lat="48.64708" lon="-4.25115">
        <ele>6</ele>
        <time>2014-09-23T12:31:33Z</time>
      </trkpt>
      <trkpt lat="48.64707" lon="-4.25116">
        <ele>6</ele>
        <time>2014-09-23T12:31:38Z</time>
      </trkpt>
      <trkpt lat="48.64706" lon="-4.25119">
        <ele>6</ele>
        <time>2014-09-23T12:31:43Z</time>
      </trkpt>
      <trkpt lat="48.64706" lon="-4.25122">
        <ele>6</ele>
        <time>2014-09-23T12:31:48Z</time>
      </trkpt>
      <trkpt lat="48.64706" lon="-4.25125">
        <ele>6</ele>
        <time>2014-09-23T12:31:54Z</time>
      </trkpt>
      <trkpt lat="48.64706" lon="-4.25126">
        <ele>6</ele>
        <time>2014-09-23T12:32:00Z</time>
      </trkpt>
      <trkpt lat="48.64706" lon="-4.2513">
        <ele>6</ele>
        <time>2014-09-23T12:32:06Z</time>
      </trkpt>
      <trkpt lat="48.64707" lon="-4.25133">
        <ele>6</ele>
        <time>2014-09-23T12:32:12Z</time>
      </trkpt>
      <trkpt lat="48.64707" lon="-4.25128">
        <ele>6</ele>
        <time>2014-09-23T12:32:18Z</time>
      </trkpt>
      <trkpt lat="48.64707" lon="-4.25126">
        <ele>6</ele>
        <time>2014-09-23T12:32:23Z</time>
      </trkpt>
      <trkpt lat="48.64708" lon="-4.25126">
        <ele>7</ele>
        <time>2014-09-23T12:32:29Z</time>
      </trkpt>
      <trkpt lat="48.64708" lon="-4.25125">
        <ele>6</ele>
        <time>2014-09-23T12:32:35Z</time>
      </trkpt>
      <trkpt lat="48.64709" lon="-4.25125">
        <ele>6</ele>
        <time>2014-09-23T12:32:41Z</time>
      </trkpt>
      <trkpt lat="48.64709" lon="-4.25124">
        <ele>6</ele>
        <time>2014-09-23T12:32:46Z</time>
      </trkpt>
      <trkpt lat="48.64708" lon="-4.25125">
        <ele>6</ele>
        <time>2014-09-23T12:32:52Z</time>
      </trkpt>
      <trkpt lat="48.64707" lon="-4.25125">
        <ele>6</ele>
        <time>2014-09-23T12:32:58Z</time>
      </trkpt>
      <trkpt lat="48.64706" lon="-4.25125">
        <ele>6</ele>
        <time>2014-09-23T12:33:04Z</time>
      </trkpt>
      <trkpt lat="48.64706" lon="-4.25125">
        <ele>6</ele>
        <time>2014-09-23T12:33:11Z</time>
      </trkpt>
      <trkpt lat="48.64705" lon="-4.25125">
        <ele>5</ele>
        <time>2014-09-23T12:33:17Z</time>
      </trkpt>
      <trkpt lat="48.64705" lon="-4.25126">
        <ele>5</ele>
        <time>2014-09-23T12:33:23Z</time>
      </trkpt>
      <trkpt lat="48.64704" lon="-4.25126">
        <ele>6</ele>
        <time>2014-09-23T12:33:28Z</time>
      </trkpt>
      <trkpt lat="48.64703" lon="-4.25126">
        <ele>6</ele>
        <time>2014-09-23T12:33:34Z</time>
      </trkpt>
      <trkpt lat="48.64703" lon="-4.25126">
        <ele>5</ele>
        <time>2014-09-23T12:33:39Z</time>
      </trkpt>
      <trkpt lat="48.64702" lon="-4.25126">
        <ele>6</ele>
        <time>2014-09-23T12:33:45Z</time>
      </trkpt>
      <trkpt lat="48.64703" lon="-4.25126">
        <ele>5</ele>
        <time>2014-09-23T12:33:50Z</time>
      </trkpt>
      <trkpt lat="48.64703" lon="-4.25126">
        <ele>6</ele>
        <time>2014-09-23T12:33:56Z</time>
      </trkpt>
      <trkpt lat="48.64704" lon="-4.25126">
        <ele>6</ele>
        <time>2014-09-23T12:34:01Z</time>
      </trkpt>
      <trkpt lat="48.64704" lon="-4.25126">
        <ele>6</ele>
        <time>2014-09-23T12:34:07Z</time>
      </trkpt>
      <trkpt lat="48.64704" lon="-4.25126">
        <ele>6</ele>
        <time>2014-09-23T12:34:13Z</time>
      </trkpt>
      <trkpt lat="48.64706" lon="-4.25125">
        <ele>6</ele>
        <time>2014-09-23T12:34:19Z</time>
      </trkpt>
      <trkpt lat="48.64707" lon="-4.25126">
        <ele>7</ele>
        <time>2014-09-23T12:34:25Z</time>
      </trkpt>
      <trkpt lat="48.64707" lon="-4.25131">
        <ele>7</ele>
        <time>2014-09-23T12:34:30Z</time>
      </trkpt>
      <trkpt lat="48.64707" lon="-4.25131">
        <ele>6</ele>
        <time>2014-09-23T12:34:36Z</time>
      </trkpt>
      <trkpt lat="48.64707" lon="-4.25127">
        <ele>6</ele>
        <time>2014-09-23T12:34:41Z</time>
      </trkpt>
      <trkpt lat="48.64707" lon="-4.25128">
        <ele>6</ele>
        <time>2014-09-23T12:34:47Z</time>
      </trkpt>
      <trkpt lat="48.64708" lon="-4.25133">
        <ele>6</ele>
        <time>2014-09-23T12:34:52Z</time>
      </trkpt>
      <trkpt lat="48.64707" lon="-4.25134">
        <ele>6</ele>
        <time>2014-09-23T12:34:59Z</time>
      </trkpt>
      <trkpt lat="48.64707" lon="-4.25134">
        <ele>6</ele>
        <time>2014-09-23T12:35:05Z</time>
      </trkpt>
      <trkpt lat="48.64707" lon="-4.25135">
        <ele>6</ele>
        <time>2014-09-23T12:35:12Z</time>
      </trkpt>
      <trkpt lat="48.64707" lon="-4.25135">
        <ele>6</ele>
        <time>2014-09-23T12:35:18Z</time>
      </trkpt>
      <trkpt lat="48.64707" lon="-4.25138">
        <ele>7</ele>
        <time>2014-09-23T12:35:23Z</time>
      </trkpt>
      <trkpt lat="48.64708" lon="-4.25145">
        <ele>6</ele>
        <time>2014-09-23T12:35:29Z</time>
      </trkpt>
      <trkpt lat="48.6471" lon="-4.25153">
        <ele>6</ele>
        <time>2014-09-23T12:35:35Z</time>
      </trkpt>
      <trkpt lat="48.64712" lon="-4.25161">
        <ele>6</ele>
        <time>2014-09-23T12:35:41Z</time>
      </trkpt>
      <trkpt lat="48.64713" lon="-4.25168">
        <ele>6</ele>
        <time>2014-09-23T12:35:46Z</time>
      </trkpt>
      <trkpt lat="48.64714" lon="-4.25174">
        <ele>6</ele>
        <time>2014-09-23T12:35:52Z</time>
      </trkpt>
      <trkpt lat="48.64714" lon="-4.25176">
        <ele>6</ele>
        <time>2014-09-23T12:35:57Z</time>
      </trkpt>
      <trkpt lat="48.64716" lon="-4.25182">
        <ele>6</ele>
        <time>2014-09-23T12:36:02Z</time>
      </trkpt>
      <trkpt lat="48.64716" lon="-4.25189">
        <ele>6</ele>
        <time>2014-09-23T12:36:08Z</time>
      </trkpt>
      <trkpt lat="48.64715" lon="-4.25196">
        <ele>6</ele>
        <time>2014-09-23T12:36:14Z</time>
      </trkpt>
      <trkpt lat="48.64715" lon="-4.25202">
        <ele>7</ele>
        <time>2014-09-23T12:36:19Z</time>
      </trkpt>
      <trkpt lat="48.64715" lon="-4.25205">
        <ele>7</ele>
        <time>2014-09-23T12:36:24Z</time>
      </trkpt>
      <trkpt lat="48.64715" lon="-4.25211">
        <ele>6</ele>
        <time>2014-09-23T12:36:30Z</time>
      </trkpt>
      <trkpt lat="48.64715" lon="-4.25218">
        <ele>7</ele>
        <time>2014-09-23T12:36:35Z</time>
      </trkpt>
      <trkpt lat="48.64714" lon="-4.25224">
        <ele>7</ele>
        <time>2014-09-23T12:36:40Z</time>
      </trkpt>
      <trkpt lat="48.64716" lon="-4.25232">
        <ele>7</ele>
        <time>2014-09-23T12:36:46Z</time>
      </trkpt>
      <trkpt lat="48.64716" lon="-4.25239">
        <ele>7</ele>
        <time>2014-09-23T12:36:51Z</time>
      </trkpt>
      <trkpt lat="48.64718" lon="-4.25248">
        <ele>7</ele>
        <time>2014-09-23T12:36:57Z</time>
      </trkpt>
      <trkpt lat="48.64719" lon="-4.25257">
        <ele>7</ele>
        <time>2014-09-23T12:37:03Z</time>
      </trkpt>
      <trkpt lat="48.64719" lon="-4.25265">
        <ele>7</ele>
        <time>2014-09-23T12:37:08Z</time>
      </trkpt>
      <trkpt lat="48.6472" lon="-4.25274">
        <ele>7</ele>
        <time>2014-09-23T12:37:14Z</time>
      </trkpt>
      <trkpt lat="48.6472" lon="-4.25284">
        <ele>7</ele>
        <time>2014-09-23T12:37:20Z</time>
      </trkpt>
      <trkpt lat="48.64722" lon="-4.25293">
        <ele>7</ele>
        <time>2014-09-23T12:37:26Z</time>
      </trkpt>
      <trkpt lat="48.64723" lon="-4.253">
        <ele>6</ele>
        <time>2014-09-23T12:37:31Z</time>
      </trkpt>
      <trkpt lat="48.64725" lon="-4.25307">
        <ele>7</ele>
        <time>2014-09-23T12:37:37Z</time>
      </trkpt>
      <trkpt lat="48.64726" lon="-4.25312">
        <ele>7</ele>
        <time>2014-09-23T12:37:42Z</time>
      </trkpt>
      <trkpt lat="48.64727" lon="-4.25319">
        <ele>7</ele>
        <time>2014-09-23T12:37:47Z</time>
      </trkpt>
      <trkpt lat="48.64728" lon="-4.25327">
        <ele>7</ele>
        <time>2014-09-23T12:37:53Z</time>
      </trkpt>
      <trkpt lat="48.64729" lon="-4.25335">
        <ele>7</ele>
        <time>2014-09-23T12:37:58Z</time>
      </trkpt>
      <trkpt lat="48.6473" lon="-4.25343">
        <ele>7</ele>
        <time>2014-09-23T12:38:04Z</time>
      </trkpt>
      <trkpt lat="48.64731" lon="-4.25351">
        <ele>7</ele>
        <time>2014-09-23T12:38:10Z</time>
      </trkpt>
      <trkpt lat="48.64732" lon="-4.25359">
        <ele>7</ele>
        <time>2014-09-23T12:38:16Z</time>
      </trkpt>
      <trkpt lat="48.64732" lon="-4.25366">
        <ele>7</ele>
        <time>2014-09-23T12:38:21Z</time>
      </trkpt>
      <trkpt lat="48.64732" lon="-4.25375">
        <ele>7</ele>
        <time>2014-09-23T12:38:27Z</time>
      </trkpt>
      <trkpt lat="48.64732" lon="-4.25382">
        <ele>7</ele>
        <time>2014-09-23T12:38:33Z</time>
      </trkpt>
      <trkpt lat="48.64732" lon="-4.25389">
        <ele>7</ele>
        <time>2014-09-23T12:38:38Z</time>
      </trkpt>
      <trkpt lat="48.64733" lon="-4.25397">
        <ele>7</ele>
        <time>2014-09-23T12:38:44Z</time>
      </trkpt>
      <trkpt lat="48.64733" lon="-4.25406">
        <ele>8</ele>
        <time>2014-09-23T12:38:50Z</time>
      </trkpt>
      <trkpt lat="48.64733" lon="-4.25414">
        <ele>7</ele>
        <time>2014-09-23T12:38:55Z</time>
      </trkpt>
      <trkpt lat="48.64733" lon="-4.25423">
        <ele>7</ele>
        <time>2014-09-23T12:39:01Z</time>
      </trkpt>
      <trkpt lat="48.64734" lon="-4.25431">
        <ele>7</ele>
        <time>2014-09-23T12:39:07Z</time>
      </trkpt>
      <trkpt lat="48.64734" lon="-4.25439">
        <ele>7</ele>
        <time>2014-09-23T12:39:12Z</time>
      </trkpt>
      <trkpt lat="48.64735" lon="-4.25447">
        <ele>7</ele>
        <time>2014-09-23T12:39:18Z</time>
      </trkpt>
      <trkpt lat="48.64736" lon="-4.25455">
        <ele>7</ele>
        <time>2014-09-23T12:39:24Z</time>
      </trkpt>
      <trkpt lat="48.64736" lon="-4.25461">
        <ele>8</ele>
        <time>2014-09-23T12:39:29Z</time>
      </trkpt>
      <trkpt lat="48.64736" lon="-4.25468">
        <ele>8</ele>
        <time>2014-09-23T12:39:34Z</time>
      </trkpt>
      <trkpt lat="48.64737" lon="-4.25475">
        <ele>8</ele>
        <time>2014-09-23T12:39:39Z</time>
      </trkpt>
      <trkpt lat="48.64737" lon="-4.25482">
        <ele>8</ele>
        <time>2014-09-23T12:39:45Z</time>
      </trkpt>
      <trkpt lat="48.64737" lon="-4.25489">
        <ele>8</ele>
        <time>2014-09-23T12:39:50Z</time>
      </trkpt>
      <trkpt lat="48.64737" lon="-4.25496">
        <ele>7</ele>
        <time>2014-09-23T12:39:56Z</time>
      </trkpt>
      <trkpt lat="48.64737" lon="-4.25503">
        <ele>7</ele>
        <time>2014-09-23T12:40:01Z</time>
      </trkpt>
      <trkpt lat="48.64738" lon="-4.2551">
        <ele>7</ele>
        <time>2014-09-23T12:40:07Z</time>
      </trkpt>
      <trkpt lat="48.64739" lon="-4.25515">
        <ele>7</ele>
        <time>2014-09-23T12:40:12Z</time>
      </trkpt>
      <trkpt lat="48.64739" lon="-4.25522">
        <ele>7</ele>
        <time>2014-09-23T12:40:18Z</time>
      </trkpt>
      <trkpt lat="48.6474" lon="-4.25528">
        <ele>7</ele>
        <time>2014-09-23T12:40:23Z</time>
      </trkpt>
      <trkpt lat="48.6474" lon="-4.25534">
        <ele>7</ele>
        <time>2014-09-23T12:40:28Z</time>
      </trkpt>
      <trkpt lat="48.6474" lon="-4.25541">
        <ele>7</ele>
        <time>2014-09-23T12:40:34Z</time>
      </trkpt>
      <trkpt lat="48.6474" lon="-4.25547">
        <ele>7</ele>
        <time>2014-09-23T12:40:40Z</time>
      </trkpt>
      <trkpt lat="48.64741" lon="-4.25552">
        <ele>7</ele>
        <time>2014-09-23T12:40:45Z</time>
      </trkpt>
      <trkpt lat="48.64741" lon="-4.25558">
        <ele>7</ele>
        <time>2014-09-23T12:40:50Z</time>
      </trkpt>
      <trkpt lat="48.64742" lon="-4.25566">
        <ele>7</ele>
        <time>2014-09-23T12:40:56Z</time>
      </trkpt>
      <trkpt lat="48.64743" lon="-4.25573">
        <ele>7</ele>
        <time>2014-09-23T12:41:01Z</time>
      </trkpt>
      <trkpt lat="48.64743" lon="-4.25579">
        <ele>7</ele>
        <time>2014-09-23T12:41:06Z</time>
      </trkpt>
      <trkpt lat="48.64743" lon="-4.25588">
        <ele>7</ele>
        <time>2014-09-23T12:41:12Z</time>
      </trkpt>
      <trkpt lat="48.64741" lon="-4.25594">
        <ele>7</ele>
        <time>2014-09-23T12:41:18Z</time>
      </trkpt>
      <trkpt lat="48.6474" lon="-4.25602">
        <ele>7</ele>
        <time>2014-09-23T12:41:23Z</time>
      </trkpt>
      <trkpt lat="48.64741" lon="-4.25609">
        <ele>7</ele>
        <time>2014-09-23T12:41:28Z</time>
      </trkpt>
      <trkpt lat="48.64742" lon="-4.25617">
        <ele>7</ele>
        <time>2014-09-23T12:41:34Z</time>
      </trkpt>
      <trkpt lat="48.64743" lon="-4.25624">
        <ele>7</ele>
        <time>2014-09-23T12:41:40Z</time>
      </trkpt>
      <trkpt lat="48.64743" lon="-4.25631">
        <ele>7</ele>
        <time>2014-09-23T12:41:45Z</time>
      </trkpt>
      <trkpt lat="48.64744" lon="-4.25639">
        <ele>7</ele>
        <time>2014-09-23T12:41:51Z</time>
      </trkpt>
      <trkpt lat="48.64746" lon="-4.25645">
        <ele>7</ele>
        <time>2014-09-23T12:41:56Z</time>
      </trkpt>
      <trkpt lat="48.64747" lon="-4.25653">
        <ele>7</ele>
        <time>2014-09-23T12:42:02Z</time>
      </trkpt>
      <trkpt lat="48.64749" lon="-4.2566">
        <ele>7</ele>
        <time>2014-09-23T12:42:07Z</time>
      </trkpt>
      <trkpt lat="48.6475" lon="-4.25667">
        <ele>7</ele>
        <time>2014-09-23T12:42:12Z</time>
      </trkpt>
      <trkpt lat="48.64753" lon="-4.25673">
        <ele>7</ele>
        <time>2014-09-23T12:42:17Z</time>
      </trkpt>
      <trkpt lat="48.64754" lon="-4.25681">
        <ele>7</ele>
        <time>2014-09-23T12:42:23Z</time>
      </trkpt>
      <trkpt lat="48.64754" lon="-4.2569">
        <ele>8</ele>
        <time>2014-09-23T12:42:28Z</time>
      </trkpt>
      <trkpt lat="48.64754" lon="-4.25696">
        <ele>8</ele>
        <time>2014-09-23T12:42:33Z</time>
      </trkpt>
      <trkpt lat="48.64754" lon="-4.25704">
        <ele>7</ele>
        <time>2014-09-23T12:42:39Z</time>
      </trkpt>
      <trkpt lat="48.64753" lon="-4.2571">
        <ele>7</ele>
        <time>2014-09-23T12:42:44Z</time>
      </trkpt>
      <trkpt lat="48.64753" lon="-4.25716">
        <ele>8</ele>
        <time>2014-09-23T12:42:49Z</time>
      </trkpt>
      <trkpt lat="48.64753" lon="-4.25722">
        <ele>8</ele>
        <time>2014-09-23T12:42:54Z</time>
      </trkpt>
      <trkpt lat="48.64754" lon="-4.25728">
        <ele>7</ele>
        <time>2014-09-23T12:42:59Z</time>
      </trkpt>
      <trkpt lat="48.64757" lon="-4.2573">
        <ele>7</ele>
        <time>2014-09-23T12:43:05Z</time>
      </trkpt>
      <trkpt lat="48.64759" lon="-4.25734">
        <ele>7</ele>
        <time>2014-09-23T12:43:10Z</time>
      </trkpt>
      <trkpt lat="48.64761" lon="-4.25739">
        <ele>8</ele>
        <time>2014-09-23T12:43:16Z</time>
      </trkpt>
      <trkpt lat="48.64764" lon="-4.25743">
        <ele>8</ele>
        <time>2014-09-23T12:43:21Z</time>
      </trkpt>
      <trkpt lat="48.64768" lon="-4.25747">
        <ele>8</ele>
        <time>2014-09-23T12:43:27Z</time>
      </trkpt>
      <trkpt lat="48.64769" lon="-4.2575">
        <ele>8</ele>
        <time>2014-09-23T12:43:32Z</time>
      </trkpt>
      <trkpt lat="48.64769" lon="-4.25751">
        <ele>8</ele>
        <time>2014-09-23T12:43:38Z</time>
      </trkpt>
      <trkpt lat="48.64768" lon="-4.25749">
        <ele>8</ele>
        <time>2014-09-23T12:43:44Z</time>
      </trkpt>
      <trkpt lat="48.64768" lon="-4.25749">
        <ele>7</ele>
        <time>2014-09-23T12:43:51Z</time>
      </trkpt>
      <trkpt lat="48.64768" lon="-4.2575">
        <ele>7</ele>
        <time>2014-09-23T12:43:56Z</time>
      </trkpt>
      <trkpt lat="48.64769" lon="-4.25749">
        <ele>7</ele>
        <time>2014-09-23T12:44:02Z</time>
      </trkpt>
      <trkpt lat="48.64769" lon="-4.2575">
        <ele>7</ele>
        <time>2014-09-23T12:44:09Z</time>
      </trkpt>
      <trkpt lat="48.6477" lon="-4.2575">
        <ele>7</ele>
        <time>2014-09-23T12:44:17Z</time>
      </trkpt>
      <trkpt lat="48.64771" lon="-4.2575">
        <ele>7</ele>
        <time>2014-09-23T12:44:22Z</time>
      </trkpt>
      <trkpt lat="48.64772" lon="-4.2575">
        <ele>7</ele>
        <time>2014-09-23T12:44:28Z</time>
      </trkpt>
      <trkpt lat="48.64771" lon="-4.2575">
        <ele>7</ele>
        <time>2014-09-23T12:44:33Z</time>
      </trkpt>
      <trkpt lat="48.64771" lon="-4.2575">
        <ele>7</ele>
        <time>2014-09-23T12:44:39Z</time>
      </trkpt>
      <trkpt lat="48.64771" lon="-4.2575">
        <ele>7</ele>
        <time>2014-09-23T12:44:45Z</time>
      </trkpt>
      <trkpt lat="48.64771" lon="-4.2575">
        <ele>6</ele>
        <time>2014-09-23T12:44:52Z</time>
      </trkpt>
      <trkpt lat="48.6477" lon="-4.2575">
        <ele>6</ele>
        <time>2014-09-23T12:45:01Z</time>
      </trkpt>
      <trkpt lat="48.6477" lon="-4.2575">
        <ele>6</ele>
        <time>2014-09-23T12:45:14Z</time>
      </trkpt>
      <trkpt lat="48.6477" lon="-4.2575">
        <ele>7</ele>
        <time>2014-09-23T12:45:20Z</time>
      </trkpt>
      <trkpt lat="48.6477" lon="-4.2575">
        <ele>7</ele>
        <time>2014-09-23T12:45:26Z</time>
      </trkpt>
      <trkpt lat="48.6477" lon="-4.25748">
        <ele>7</ele>
        <time>2014-09-23T12:45:32Z</time>
      </trkpt>
      <trkpt lat="48.64771" lon="-4.25747">
        <ele>7</ele>
        <time>2014-09-23T12:45:38Z</time>
      </trkpt>
      <trkpt lat="48.64771" lon="-4.25748">
        <ele>7</ele>
        <time>2014-09-23T12:45:43Z</time>
      </trkpt>
      <trkpt lat="48.64769" lon="-4.25748">
        <ele>7</ele>
        <time>2014-09-23T12:45:48Z</time>
      </trkpt>
      <trkpt lat="48.6477" lon="-4.25748">
        <ele>8</ele>
        <time>2014-09-23T12:45:56Z</time>
      </trkpt>
      <trkpt lat="48.64771" lon="-4.25748">
        <ele>8</ele>
        <time>2014-09-23T12:46:01Z</time>
      </trkpt>
      <trkpt lat="48.64772" lon="-4.25748">
        <ele>8</ele>
        <time>2014-09-23T12:46:07Z</time>
      </trkpt>
      <trkpt lat="48.64773" lon="-4.25748">
        <ele>8</ele>
        <time>2014-09-23T12:46:14Z</time>
      </trkpt>
      <trkpt lat="48.64774" lon="-4.25749">
        <ele>7</ele>
        <time>2014-09-23T12:46:19Z</time>
      </trkpt>
      <trkpt lat="48.64774" lon="-4.25749">
        <ele>7</ele>
        <time>2014-09-23T12:46:24Z</time>
      </trkpt>
      <trkpt lat="48.64774" lon="-4.25749">
        <ele>7</ele>
        <time>2014-09-23T12:46:30Z</time>
      </trkpt>
      <trkpt lat="48.64774" lon="-4.25749">
        <ele>7</ele>
        <time>2014-09-23T12:46:35Z</time>
      </trkpt>
      <trkpt lat="48.64774" lon="-4.25748">
        <ele>7</ele>
        <time>2014-09-23T12:46:42Z</time>
      </trkpt>
      <trkpt lat="48.64774" lon="-4.25749">
        <ele>7</ele>
        <time>2014-09-23T12:46:48Z</time>
      </trkpt>
      <trkpt lat="48.64772" lon="-4.2575">
        <ele>8</ele>
        <time>2014-09-23T12:46:53Z</time>
      </trkpt>
      <trkpt lat="48.64772" lon="-4.2575">
        <ele>7</ele>
        <time>2014-09-23T12:46:58Z</time>
      </trkpt>
      <trkpt lat="48.6477" lon="-4.25749">
        <ele>8</ele>
        <time>2014-09-23T12:47:04Z</time>
      </trkpt>
      <trkpt lat="48.6477" lon="-4.25749">
        <ele>8</ele>
        <time>2014-09-23T12:47:09Z</time>
      </trkpt>
      <trkpt lat="48.6477" lon="-4.25748">
        <ele>8</ele>
        <time>2014-09-23T12:47:15Z</time>
      </trkpt>
      <trkpt lat="48.64769" lon="-4.25748">
        <ele>8</ele>
        <time>2014-09-23T12:47:20Z</time>
      </trkpt>
      <trkpt lat="48.64769" lon="-4.25747">
        <ele>8</ele>
        <time>2014-09-23T12:47:25Z</time>
      </trkpt>
      <trkpt lat="48.64768" lon="-4.25747">
        <ele>8</ele>
        <time>2014-09-23T12:47:30Z</time>
      </trkpt>
      <trkpt lat="48.64768" lon="-4.25747">
        <ele>7</ele>
        <time>2014-09-23T12:47:38Z</time>
      </trkpt>
      <trkpt lat="48.64766" lon="-4.25749">
        <ele>7</ele>
        <time>2014-09-23T12:47:44Z</time>
      </trkpt>
      <trkpt lat="48.64764" lon="-4.25754">
        <ele>8</ele>
        <time>2014-09-23T12:47:49Z</time>
      </trkpt>
      <trkpt lat="48.64761" lon="-4.25758">
        <ele>9</ele>
        <time>2014-09-23T12:47:54Z</time>
      </trkpt>
      <trkpt lat="48.64761" lon="-4.25762">
        <ele>9</ele>
        <time>2014-09-23T12:48:00Z</time>
      </trkpt>
      <trkpt lat="48.6476" lon="-4.25762">
        <ele>8</ele>
        <time>2014-09-23T12:48:08Z</time>
      </trkpt>
      <trkpt lat="48.64759" lon="-4.25763">
        <ele>8</ele>
        <time>2014-09-23T12:48:14Z</time>
      </trkpt>
      <trkpt lat="48.64759" lon="-4.25763">
        <ele>9</ele>
        <time>2014-09-23T12:48:19Z</time>
      </trkpt>
      <trkpt lat="48.64759" lon="-4.25763">
        <ele>8</ele>
        <time>2014-09-23T12:48:25Z</time>
      </trkpt>
      <trkpt lat="48.64759" lon="-4.25763">
        <ele>8</ele>
        <time>2014-09-23T12:48:31Z</time>
      </trkpt>
      <trkpt lat="48.64758" lon="-4.25764">
        <ele>8</ele>
        <time>2014-09-23T12:48:37Z</time>
      </trkpt>
      <trkpt lat="48.64758" lon="-4.25768">
        <ele>9</ele>
        <time>2014-09-23T12:48:42Z</time>
      </trkpt>
      <trkpt lat="48.64758" lon="-4.25774">
        <ele>7</ele>
        <time>2014-09-23T12:48:47Z</time>
      </trkpt>
      <trkpt lat="48.64757" lon="-4.25782">
        <ele>7</ele>
        <time>2014-09-23T12:48:53Z</time>
      </trkpt>
      <trkpt lat="48.64758" lon="-4.25788">
        <ele>7</ele>
        <time>2014-09-23T12:48:58Z</time>
      </trkpt>
      <trkpt lat="48.6476" lon="-4.25794">
        <ele>7</ele>
        <time>2014-09-23T12:49:03Z</time>
      </trkpt>
      <trkpt lat="48.6476" lon="-4.25801">
        <ele>8</ele>
        <time>2014-09-23T12:49:08Z</time>
      </trkpt>
      <trkpt lat="48.64761" lon="-4.25808">
        <ele>7</ele>
        <time>2014-09-23T12:49:14Z</time>
      </trkpt>
      <trkpt lat="48.64762" lon="-4.25813">
        <ele>7</ele>
        <time>2014-09-23T12:49:19Z</time>
      </trkpt>
      <trkpt lat="48.64766" lon="-4.25819">
        <ele>7</ele>
        <time>2014-09-23T12:49:25Z</time>
      </trkpt>
      <trkpt lat="48.64767" lon="-4.25825">
        <ele>7</ele>
        <time>2014-09-23T12:49:30Z</time>
      </trkpt>
      <trkpt lat="48.64768" lon="-4.25834">
        <ele>7</ele>
        <time>2014-09-23T12:49:36Z</time>
      </trkpt>
      <trkpt lat="48.64768" lon="-4.25841">
        <ele>7</ele>
        <time>2014-09-23T12:49:41Z</time>
      </trkpt>
      <trkpt lat="48.64769" lon="-4.25848">
        <ele>7</ele>
        <time>2014-09-23T12:49:46Z</time>
      </trkpt>
      <trkpt lat="48.6477" lon="-4.25856">
        <ele>7</ele>
        <time>2014-09-23T12:49:52Z</time>
      </trkpt>
      <trkpt lat="48.64772" lon="-4.25864">
        <ele>7</ele>
        <time>2014-09-23T12:49:57Z</time>
      </trkpt>
      <trkpt lat="48.64774" lon="-4.25872">
        <ele>7</ele>
        <time>2014-09-23T12:50:03Z</time>
      </trkpt>
      <trkpt lat="48.64775" lon="-4.25877">
        <ele>7</ele>
        <time>2014-09-23T12:50:09Z</time>
      </trkpt>
      <trkpt lat="48.64777" lon="-4.25882">
        <ele>7</ele>
        <time>2014-09-23T12:50:14Z</time>
      </trkpt>
      <trkpt lat="48.6478" lon="-4.25888">
        <ele>7</ele>
        <time>2014-09-23T12:50:20Z</time>
      </trkpt>
      <trkpt lat="48.64782" lon="-4.25894">
        <ele>6</ele>
        <time>2014-09-23T12:50:26Z</time>
      </trkpt>
      <trkpt lat="48.64783" lon="-4.259">
        <ele>7</ele>
        <time>2014-09-23T12:50:31Z</time>
      </trkpt>
      <trkpt lat="48.64786" lon="-4.25908">
        <ele>7</ele>
        <time>2014-09-23T12:50:37Z</time>
      </trkpt>
      <trkpt lat="48.6479" lon="-4.25913">
        <ele>7</ele>
        <time>2014-09-23T12:50:42Z</time>
      </trkpt>
      <trkpt lat="48.64793" lon="-4.25918">
        <ele>7</ele>
        <time>2014-09-23T12:50:47Z</time>
      </trkpt>
      <trkpt lat="48.64798" lon="-4.25923">
        <ele>7</ele>
        <time>2014-09-23T12:50:53Z</time>
      </trkpt>
      <trkpt lat="48.64803" lon="-4.25929">
        <ele>8</ele>
        <time>2014-09-23T12:50:59Z</time>
      </trkpt>
      <trkpt lat="48.64806" lon="-4.25933">
        <ele>8</ele>
        <time>2014-09-23T12:51:04Z</time>
      </trkpt>
      <trkpt lat="48.64811" lon="-4.25939">
        <ele>8</ele>
        <time>2014-09-23T12:51:10Z</time>
      </trkpt>
      <trkpt lat="48.64814" lon="-4.25945">
        <ele>7</ele>
        <time>2014-09-23T12:51:15Z</time>
      </trkpt>
      <trkpt lat="48.64817" lon="-4.25948">
        <ele>7</ele>
        <time>2014-09-23T12:51:20Z</time>
      </trkpt>
      <trkpt lat="48.64821" lon="-4.25953">
        <ele>7</ele>
        <time>2014-09-23T12:51:26Z</time>
      </trkpt>
      <trkpt lat="48.64825" lon="-4.25958">
        <ele>7</ele>
        <time>2014-09-23T12:51:32Z</time>
      </trkpt>
      <trkpt lat="48.64829" lon="-4.25965">
        <ele>7</ele>
        <time>2014-09-23T12:51:38Z</time>
      </trkpt>
      <trkpt lat="48.64832" lon="-4.2597">
        <ele>7</ele>
        <time>2014-09-23T12:51:43Z</time>
      </trkpt>
      <trkpt lat="48.64836" lon="-4.25977">
        <ele>7</ele>
        <time>2014-09-23T12:51:49Z</time>
      </trkpt>
      <trkpt lat="48.64839" lon="-4.25983">
        <ele>7</ele>
        <time>2014-09-23T12:51:55Z</time>
      </trkpt>
      <trkpt lat="48.6484" lon="-4.2599">
        <ele>8</ele>
        <time>2014-09-23T12:52:01Z</time>
      </trkpt>
      <trkpt lat="48.6484" lon="-4.25997">
        <ele>8</ele>
        <time>2014-09-23T12:52:06Z</time>
      </trkpt>
      <trkpt lat="48.6484" lon="-4.26003">
        <ele>7</ele>
        <time>2014-09-23T12:52:11Z</time>
      </trkpt>
      <trkpt lat="48.64842" lon="-4.2601">
        <ele>8</ele>
        <time>2014-09-23T12:52:16Z</time>
      </trkpt>
      <trkpt lat="48.64843" lon="-4.26018">
        <ele>7</ele>
        <time>2014-09-23T12:52:22Z</time>
      </trkpt>
      <trkpt lat="48.64844" lon="-4.26027">
        <ele>7</ele>
        <time>2014-09-23T12:52:28Z</time>
      </trkpt>
      <trkpt lat="48.64844" lon="-4.26035">
        <ele>8</ele>
        <time>2014-09-23T12:52:34Z</time>
      </trkpt>
      <trkpt lat="48.64845" lon="-4.26043">
        <ele>8</ele>
        <time>2014-09-23T12:52:40Z</time>
      </trkpt>
      <trkpt lat="48.64846" lon="-4.26051">
        <ele>8</ele>
        <time>2014-09-23T12:52:45Z</time>
      </trkpt>
      <trkpt lat="48.64847" lon="-4.26059">
        <ele>8</ele>
        <time>2014-09-23T12:52:50Z</time>
      </trkpt>
      <trkpt lat="48.64848" lon="-4.26068">
        <ele>7</ele>
        <time>2014-09-23T12:52:56Z</time>
      </trkpt>
      <trkpt lat="48.64851" lon="-4.26076">
        <ele>8</ele>
        <time>2014-09-23T12:53:01Z</time>
      </trkpt>
      <trkpt lat="48.64853" lon="-4.26083">
        <ele>8</ele>
        <time>2014-09-23T12:53:06Z</time>
      </trkpt>
      <trkpt lat="48.64855" lon="-4.26089">
        <ele>8</ele>
        <time>2014-09-23T12:53:11Z</time>
      </trkpt>
      <trkpt lat="48.64857" lon="-4.26097">
        <ele>8</ele>
        <time>2014-09-23T12:53:17Z</time>
      </trkpt>
      <trkpt lat="48.64859" lon="-4.26103">
        <ele>8</ele>
        <time>2014-09-23T12:53:22Z</time>
      </trkpt>
      <trkpt lat="48.6486" lon="-4.26109">
        <ele>8</ele>
        <time>2014-09-23T12:53:27Z</time>
      </trkpt>
      <trkpt lat="48.64861" lon="-4.26117">
        <ele>8</ele>
        <time>2014-09-23T12:53:33Z</time>
      </trkpt>
      <trkpt lat="48.64862" lon="-4.26125">
        <ele>8</ele>
        <time>2014-09-23T12:53:39Z</time>
      </trkpt>
      <trkpt lat="48.64862" lon="-4.26133">
        <ele>8</ele>
        <time>2014-09-23T12:53:45Z</time>
      </trkpt>
      <trkpt lat="48.64862" lon="-4.2614">
        <ele>8</ele>
        <time>2014-09-23T12:53:50Z</time>
      </trkpt>
      <trkpt lat="48.64862" lon="-4.26147">
        <ele>7</ele>
        <time>2014-09-23T12:53:56Z</time>
      </trkpt>
      <trkpt lat="48.64861" lon="-4.26154">
        <ele>8</ele>
        <time>2014-09-23T12:54:01Z</time>
      </trkpt>
      <trkpt lat="48.6486" lon="-4.26159">
        <ele>8</ele>
        <time>2014-09-23T12:54:06Z</time>
      </trkpt>
      <trkpt lat="48.64861" lon="-4.26166">
        <ele>8</ele>
        <time>2014-09-23T12:54:12Z</time>
      </trkpt>
      <trkpt lat="48.64864" lon="-4.2617">
        <ele>8</ele>
        <time>2014-09-23T12:54:17Z</time>
      </trkpt>
      <trkpt lat="48.64867" lon="-4.26175">
        <ele>8</ele>
        <time>2014-09-23T12:54:23Z</time>
      </trkpt>
      <trkpt lat="48.64867" lon="-4.26176">
        <ele>8</ele>
        <time>2014-09-23T12:54:29Z</time>
      </trkpt>
      <trkpt lat="48.64862" lon="-4.26174">
        <ele>8</ele>
        <time>2014-09-23T12:54:35Z</time>
      </trkpt>
      <trkpt lat="48.64859" lon="-4.26172">
        <ele>8</ele>
        <time>2014-09-23T12:54:41Z</time>
      </trkpt>
      <trkpt lat="48.64856" lon="-4.26177">
        <ele>8</ele>
        <time>2014-09-23T12:54:46Z</time>
      </trkpt>
      <trkpt lat="48.64854" lon="-4.26184">
        <ele>8</ele>
        <time>2014-09-23T12:54:52Z</time>
      </trkpt>
      <trkpt lat="48.64853" lon="-4.26187">
        <ele>8</ele>
        <time>2014-09-23T12:55:00Z</time>
      </trkpt>
      <trkpt lat="48.64853" lon="-4.2619">
        <ele>9</ele>
        <time>2014-09-23T12:55:06Z</time>
      </trkpt>
      <trkpt lat="48.64852" lon="-4.26196">
        <ele>8</ele>
        <time>2014-09-23T12:55:11Z</time>
      </trkpt>
      <trkpt lat="48.64851" lon="-4.26203">
        <ele>9</ele>
        <time>2014-09-23T12:55:17Z</time>
      </trkpt>
      <trkpt lat="48.6485" lon="-4.26209">
        <ele>8</ele>
        <time>2014-09-23T12:55:22Z</time>
      </trkpt>
      <trkpt lat="48.64849" lon="-4.26215">
        <ele>8</ele>
        <time>2014-09-23T12:55:27Z</time>
      </trkpt>
      <trkpt lat="48.64849" lon="-4.26221">
        <ele>8</ele>
        <time>2014-09-23T12:55:33Z</time>
      </trkpt>
      <trkpt lat="48.64848" lon="-4.26228">
        <ele>9</ele>
        <time>2014-09-23T12:55:39Z</time>
      </trkpt>
      <trkpt lat="48.64848" lon="-4.26236">
        <ele>9</ele>
        <time>2014-09-23T12:55:45Z</time>
      </trkpt>
      <trkpt lat="48.64848" lon="-4.26243">
        <ele>8</ele>
        <time>2014-09-23T12:55:51Z</time>
      </trkpt>
      <trkpt lat="48.64848" lon="-4.26249">
        <ele>8</ele>
        <time>2014-09-23T12:55:57Z</time>
      </trkpt>
      <trkpt lat="48.64848" lon="-4.26251">
        <ele>8</ele>
        <time>2014-09-23T12:56:02Z</time>
      </trkpt>
      <trkpt lat="48.64848" lon="-4.26256">
        <ele>9</ele>
        <time>2014-09-23T12:56:07Z</time>
      </trkpt>
      <trkpt lat="48.64848" lon="-4.26261">
        <ele>9</ele>
        <time>2014-09-23T12:56:13Z</time>
      </trkpt>
      <trkpt lat="48.64848" lon="-4.26267">
        <ele>8</ele>
        <time>2014-09-23T12:56:19Z</time>
      </trkpt>
      <trkpt lat="48.64847" lon="-4.26273">
        <ele>8</ele>
        <time>2014-09-23T12:56:25Z</time>
      </trkpt>
      <trkpt lat="48.64845" lon="-4.26277">
        <ele>8</ele>
        <time>2014-09-23T12:56:30Z</time>
      </trkpt>
      <trkpt lat="48.64843" lon="-4.26281">
        <ele>8</ele>
        <time>2014-09-23T12:56:35Z</time>
      </trkpt>
      <trkpt lat="48.64843" lon="-4.26281">
        <ele>8</ele>
        <time>2014-09-23T12:56:40Z</time>
      </trkpt>
      <trkpt lat="48.64842" lon="-4.26282">
        <ele>8</ele>
        <time>2014-09-23T12:56:48Z</time>
      </trkpt>
      <trkpt lat="48.64842" lon="-4.26281">
        <ele>8</ele>
        <time>2014-09-23T12:56:53Z</time>
      </trkpt>
      <trkpt lat="48.64842" lon="-4.26281">
        <ele>8</ele>
        <time>2014-09-23T12:56:59Z</time>
      </trkpt>
      <trkpt lat="48.64841" lon="-4.2628">
        <ele>8</ele>
        <time>2014-09-23T12:57:05Z</time>
      </trkpt>
      <trkpt lat="48.64841" lon="-4.2628">
        <ele>8</ele>
        <time>2014-09-23T12:57:10Z</time>
      </trkpt>
      <trkpt lat="48.64841" lon="-4.2628">
        <ele>8</ele>
        <time>2014-09-23T12:57:16Z</time>
      </trkpt>
      <trkpt lat="48.64841" lon="-4.26282">
        <ele>8</ele>
        <time>2014-09-23T12:57:21Z</time>
      </trkpt>
      <trkpt lat="48.64838" lon="-4.26285">
        <ele>9</ele>
        <time>2014-09-23T12:57:27Z</time>
      </trkpt>
      <trkpt lat="48.64836" lon="-4.26286">
        <ele>8</ele>
        <time>2014-09-23T12:57:33Z</time>
      </trkpt>
      <trkpt lat="48.64837" lon="-4.26287">
        <ele>8</ele>
        <time>2014-09-23T12:57:38Z</time>
      </trkpt>
      <trkpt lat="48.6484" lon="-4.26285">
        <ele>8</ele>
        <time>2014-09-23T12:57:43Z</time>
      </trkpt>
      <trkpt lat="48.64843" lon="-4.26277">
        <ele>8</ele>
        <time>2014-09-23T12:57:49Z</time>
      </trkpt>
      <trkpt lat="48.64843" lon="-4.26273">
        <ele>8</ele>
        <time>2014-09-23T12:57:55Z</time>
      </trkpt>
      <trkpt lat="48.64843" lon="-4.26274">
        <ele>8</ele>
        <time>2014-09-23T12:58:00Z</time>
      </trkpt>
      <trkpt lat="48.64844" lon="-4.26274">
        <ele>8</ele>
        <time>2014-09-23T12:58:05Z</time>
      </trkpt>
      <trkpt lat="48.64844" lon="-4.26274">
        <ele>8</ele>
        <time>2014-09-23T12:58:11Z</time>
      </trkpt>
      <trkpt lat="48.64844" lon="-4.26273">
        <ele>7</ele>
        <time>2014-09-23T12:58:16Z</time>
      </trkpt>
      <trkpt lat="48.64844" lon="-4.26273">
        <ele>7</ele>
        <time>2014-09-23T12:58:22Z</time>
      </trkpt>
      <trkpt lat="48.64844" lon="-4.26273">
        <ele>7</ele>
        <time>2014-09-23T12:58:27Z</time>
      </trkpt>
      <trkpt lat="48.64844" lon="-4.26273">
        <ele>7</ele>
        <time>2014-09-23T12:58:35Z</time>
      </trkpt>
      <trkpt lat="48.64844" lon="-4.26274">
        <ele>7</ele>
        <time>2014-09-23T12:58:42Z</time>
      </trkpt>
      <trkpt lat="48.64844" lon="-4.26274">
        <ele>7</ele>
        <time>2014-09-23T12:58:47Z</time>
      </trkpt>
      <trkpt lat="48.64844" lon="-4.26274">
        <ele>7</ele>
        <time>2014-09-23T12:58:53Z</time>
      </trkpt>
      <trkpt lat="48.64843" lon="-4.26274">
        <ele>7</ele>
        <time>2014-09-23T12:58:59Z</time>
      </trkpt>
      <trkpt lat="48.64843" lon="-4.26274">
        <ele>7</ele>
        <time>2014-09-23T12:59:06Z</time>
      </trkpt>
      <trkpt lat="48.64843" lon="-4.26274">
        <ele>7</ele>
        <time>2014-09-23T12:59:11Z</time>
      </trkpt>
      <trkpt lat="48.64843" lon="-4.26274">
        <ele>7</ele>
        <time>2014-09-23T12:59:17Z</time>
      </trkpt>
      <trkpt lat="48.64843" lon="-4.26274">
        <ele>7</ele>
        <time>2014-09-23T12:59:22Z</time>
      </trkpt>
      <trkpt lat="48.64843" lon="-4.26274">
        <ele>7</ele>
        <time>2014-09-23T12:59:29Z</time>
      </trkpt>
      <trkpt lat="48.64844" lon="-4.26273">
        <ele>7</ele>
        <time>2014-09-23T12:59:38Z</time>
      </trkpt>
      <trkpt lat="48.64844" lon="-4.26274">
        <ele>7</ele>
        <time>2014-09-23T12:59:43Z</time>
      </trkpt>
      <trkpt lat="48.64844" lon="-4.26273">
        <ele>7</ele>
        <time>2014-09-23T12:59:51Z</time>
      </trkpt>
      <trkpt lat="48.64844" lon="-4.26273">
        <ele>7</ele>
        <time>2014-09-23T12:59:56Z</time>
      </trkpt>
      <trkpt lat="48.64843" lon="-4.26272">
        <ele>7</ele>
        <time>2014-09-23T13:00:02Z</time>
      </trkpt>
      <trkpt lat="48.64846" lon="-4.26273">
        <ele>7</ele>
        <time>2014-09-23T13:00:08Z</time>
      </trkpt>
      <trkpt lat="48.64847" lon="-4.26274">
        <ele>9</ele>
        <time>2014-09-23T13:00:14Z</time>
      </trkpt>
      <trkpt lat="48.64847" lon="-4.26274">
        <ele>9</ele>
        <time>2014-09-23T13:00:21Z</time>
      </trkpt>
      <trkpt lat="48.64846" lon="-4.26274">
        <ele>8</ele>
        <time>2014-09-23T13:00:26Z</time>
      </trkpt>
      <trkpt lat="48.64846" lon="-4.26274">
        <ele>9</ele>
        <time>2014-09-23T13:00:32Z</time>
      </trkpt>
      <trkpt lat="48.64846" lon="-4.26277">
        <ele>9</ele>
        <time>2014-09-23T13:00:38Z</time>
      </trkpt>
      <trkpt lat="48.64846" lon="-4.26278">
        <ele>8</ele>
        <time>2014-09-23T13:00:45Z</time>
      </trkpt>
      <trkpt lat="48.64846" lon="-4.26278">
        <ele>8</ele>
        <time>2014-09-23T13:00:50Z</time>
      </trkpt>
      <trkpt lat="48.64846" lon="-4.26283">
        <ele>9</ele>
        <time>2014-09-23T13:00:55Z</time>
      </trkpt>
      <trkpt lat="48.64846" lon="-4.26291">
        <ele>9</ele>
        <time>2014-09-23T13:01:01Z</time>
      </trkpt>
      <trkpt lat="48.64846" lon="-4.26296">
        <ele>8</ele>
        <time>2014-09-23T13:01:06Z</time>
      </trkpt>
      <trkpt lat="48.64847" lon="-4.26304">
        <ele>9</ele>
        <time>2014-09-23T13:01:12Z</time>
      </trkpt>
      <trkpt lat="48.64847" lon="-4.26311">
        <ele>8</ele>
        <time>2014-09-23T13:01:17Z</time>
      </trkpt>
      <trkpt lat="48.64846" lon="-4.2632">
        <ele>8</ele>
        <time>2014-09-23T13:01:23Z</time>
      </trkpt>
      <trkpt lat="48.64845" lon="-4.26327">
        <ele>8</ele>
        <time>2014-09-23T13:01:28Z</time>
      </trkpt>
      <trkpt lat="48.64845" lon="-4.26333">
        <ele>9</ele>
        <time>2014-09-23T13:01:33Z</time>
      </trkpt>
      <trkpt lat="48.64844" lon="-4.26339">
        <ele>9</ele>
        <time>2014-09-23T13:01:38Z</time>
      </trkpt>
      <trkpt lat="48.64843" lon="-4.26346">
        <ele>9</ele>
        <time>2014-09-23T13:01:44Z</time>
      </trkpt>
      <trkpt lat="48.64843" lon="-4.26352">
        <ele>9</ele>
        <time>2014-09-23T13:01:50Z</time>
      </trkpt>
      <trkpt lat="48.64843" lon="-4.26357">
        <ele>9</ele>
        <time>2014-09-23T13:01:55Z</time>
      </trkpt>
      <trkpt lat="48.64843" lon="-4.26363">
        <ele>9</ele>
        <time>2014-09-23T13:02:00Z</time>
      </trkpt>
      <trkpt lat="48.64842" lon="-4.26367">
        <ele>9</ele>
        <time>2014-09-23T13:02:05Z</time>
      </trkpt>
      <trkpt lat="48.64842" lon="-4.26373">
        <ele>9</ele>
        <time>2014-09-23T13:02:11Z</time>
      </trkpt>
      <trkpt lat="48.64842" lon="-4.26378">
        <ele>9</ele>
        <time>2014-09-23T13:02:16Z</time>
      </trkpt>
      <trkpt lat="48.64841" lon="-4.26383">
        <ele>9</ele>
        <time>2014-09-23T13:02:21Z</time>
      </trkpt>
      <trkpt lat="48.64841" lon="-4.2639">
        <ele>9</ele>
        <time>2014-09-23T13:02:27Z</time>
      </trkpt>
      <trkpt lat="48.6484" lon="-4.26397">
        <ele>9</ele>
        <time>2014-09-23T13:02:33Z</time>
      </trkpt>
      <trkpt lat="48.64839" lon="-4.26402">
        <ele>9</ele>
        <time>2014-09-23T13:02:38Z</time>
      </trkpt>
      <trkpt lat="48.64838" lon="-4.26408">
        <ele>9</ele>
        <time>2014-09-23T13:02:44Z</time>
      </trkpt>
      <trkpt lat="48.64836" lon="-4.26414">
        <ele>9</ele>
        <time>2014-09-23T13:02:50Z</time>
      </trkpt>
      <trkpt lat="48.64835" lon="-4.26419">
        <ele>9</ele>
        <time>2014-09-23T13:02:55Z</time>
      </trkpt>
      <trkpt lat="48.64834" lon="-4.26426">
        <ele>8</ele>
        <time>2014-09-23T13:03:01Z</time>
      </trkpt>
      <trkpt lat="48.64832" lon="-4.26432">
        <ele>8</ele>
        <time>2014-09-23T13:03:07Z</time>
      </trkpt>
      <trkpt lat="48.64831" lon="-4.26438">
        <ele>8</ele>
        <time>2014-09-23T13:03:12Z</time>
      </trkpt>
      <trkpt lat="48.6483" lon="-4.26442">
        <ele>9</ele>
        <time>2014-09-23T13:03:17Z</time>
      </trkpt>
      <trkpt lat="48.64829" lon="-4.26447">
        <ele>9</ele>
        <time>2014-09-23T13:03:22Z</time>
      </trkpt>
      <trkpt lat="48.64828" lon="-4.26453">
        <ele>9</ele>
        <time>2014-09-23T13:03:28Z</time>
      </trkpt>
      <trkpt lat="48.64827" lon="-4.26459">
        <ele>9</ele>
        <time>2014-09-23T13:03:34Z</time>
      </trkpt>
      <trkpt lat="48.64826" lon="-4.26464">
        <ele>9</ele>
        <time>2014-09-23T13:03:40Z</time>
      </trkpt>
      <trkpt lat="48.64825" lon="-4.2647">
        <ele>9</ele>
        <time>2014-09-23T13:03:46Z</time>
      </trkpt>
      <trkpt lat="48.64823" lon="-4.26475">
        <ele>9</ele>
        <time>2014-09-23T13:03:52Z</time>
      </trkpt>
      <trkpt lat="48.6482" lon="-4.26481">
        <ele>9</ele>
        <time>2014-09-23T13:03:58Z</time>
      </trkpt>
      <trkpt lat="48.64818" lon="-4.26486">
        <ele>9</ele>
        <time>2014-09-23T13:04:04Z</time>
      </trkpt>
      <trkpt lat="48.64816" lon="-4.2649">
        <ele>9</ele>
        <time>2014-09-23T13:04:09Z</time>
      </trkpt>
      <trkpt lat="48.64814" lon="-4.26494">
        <ele>9</ele>
        <time>2014-09-23T13:04:14Z</time>
      </trkpt>
      <trkpt lat="48.64812" lon="-4.26499">
        <ele>9</ele>
        <time>2014-09-23T13:04:19Z</time>
      </trkpt>
      <trkpt lat="48.64811" lon="-4.265">
        <ele>9</ele>
        <time>2014-09-23T13:04:24Z</time>
      </trkpt>
      <trkpt lat="48.64811" lon="-4.26502">
        <ele>8</ele>
        <time>2014-09-23T13:04:29Z</time>
      </trkpt>
      <trkpt lat="48.6481" lon="-4.26504">
        <ele>9</ele>
        <time>2014-09-23T13:04:37Z</time>
      </trkpt>
      <trkpt lat="48.64811" lon="-4.26504">
        <ele>9</ele>
        <time>2014-09-23T13:04:43Z</time>
      </trkpt>
      <trkpt lat="48.64811" lon="-4.26504">
        <ele>9</ele>
        <time>2014-09-23T13:04:49Z</time>
      </trkpt>
      <trkpt lat="48.64811" lon="-4.26503">
        <ele>9</ele>
        <time>2014-09-23T13:04:56Z</time>
      </trkpt>
      <trkpt lat="48.64811" lon="-4.26503">
        <ele>9</ele>
        <time>2014-09-23T13:05:02Z</time>
      </trkpt>
      <trkpt lat="48.64811" lon="-4.26504">
        <ele>9</ele>
        <time>2014-09-23T13:05:08Z</time>
      </trkpt>
      <trkpt lat="48.64812" lon="-4.26504">
        <ele>9</ele>
        <time>2014-09-23T13:05:15Z</time>
      </trkpt>
      <trkpt lat="48.64812" lon="-4.26506">
        <ele>9</ele>
        <time>2014-09-23T13:05:20Z</time>
      </trkpt>
      <trkpt lat="48.64811" lon="-4.26508">
        <ele>9</ele>
        <time>2014-09-23T13:05:27Z</time>
      </trkpt>
      <trkpt lat="48.64811" lon="-4.26508">
        <ele>9</ele>
        <time>2014-09-23T13:05:33Z</time>
      </trkpt>
      <trkpt lat="48.64811" lon="-4.26512">
        <ele>9</ele>
        <time>2014-09-23T13:05:39Z</time>
      </trkpt>
      <trkpt lat="48.64811" lon="-4.26512">
        <ele>9</ele>
        <time>2014-09-23T13:05:46Z</time>
      </trkpt>
      <trkpt lat="48.64811" lon="-4.26514">
        <ele>9</ele>
        <time>2014-09-23T13:05:51Z</time>
      </trkpt>
      <trkpt lat="48.64811" lon="-4.26517">
        <ele>9</ele>
        <time>2014-09-23T13:05:58Z</time>
      </trkpt>
      <trkpt lat="48.64811" lon="-4.26517">
        <ele>8</ele>
        <time>2014-09-23T13:06:05Z</time>
      </trkpt>
      <trkpt lat="48.64811" lon="-4.26517">
        <ele>8</ele>
        <time>2014-09-23T13:06:10Z</time>
      </trkpt>
      <trkpt lat="48.64811" lon="-4.26516">
        <ele>9</ele>
        <time>2014-09-23T13:06:16Z</time>
      </trkpt>
      <trkpt lat="48.64811" lon="-4.26516">
        <ele>8</ele>
        <time>2014-09-23T13:06:22Z</time>
      </trkpt>
      <trkpt lat="48.64811" lon="-4.26517">
        <ele>8</ele>
        <time>2014-09-23T13:06:28Z</time>
      </trkpt>
      <trkpt lat="48.64811" lon="-4.26517">
        <ele>8</ele>
        <time>2014-09-23T13:06:33Z</time>
      </trkpt>
      <trkpt lat="48.6481" lon="-4.26518">
        <ele>9</ele>
        <time>2014-09-23T13:06:39Z</time>
      </trkpt>
      <trkpt lat="48.64809" lon="-4.26519">
        <ele>8</ele>
        <time>2014-09-23T13:06:44Z</time>
      </trkpt>
      <trkpt lat="48.64809" lon="-4.2652">
        <ele>8</ele>
        <time>2014-09-23T13:06:49Z</time>
      </trkpt>
      <trkpt lat="48.6481" lon="-4.2652">
        <ele>8</ele>
        <time>2014-09-23T13:06:55Z</time>
      </trkpt>
      <trkpt lat="48.6481" lon="-4.26524">
        <ele>9</ele>
        <time>2014-09-23T13:07:01Z</time>
      </trkpt>
      <trkpt lat="48.64809" lon="-4.26528">
        <ele>9</ele>
        <time>2014-09-23T13:07:06Z</time>
      </trkpt>
      <trkpt lat="48.64808" lon="-4.26532">
        <ele>8</ele>
        <time>2014-09-23T13:07:12Z</time>
      </trkpt>
      <trkpt lat="48.64807" lon="-4.26534">
        <ele>8</ele>
        <time>2014-09-23T13:07:17Z</time>
      </trkpt>
      <trkpt lat="48.64805" lon="-4.26536">
        <ele>9</ele>
        <time>2014-09-23T13:07:23Z</time>
      </trkpt>
      <trkpt lat="48.64804" lon="-4.26539">
        <ele>8</ele>
        <time>2014-09-23T13:07:29Z</time>
      </trkpt>
      <trkpt lat="48.64801" lon="-4.26545">
        <ele>9</ele>
        <time>2014-09-23T13:07:34Z</time>
      </trkpt>
      <trkpt lat="48.64796" lon="-4.26551">
        <ele>8</ele>
        <time>2014-09-23T13:07:40Z</time>
      </trkpt>
      <trkpt lat="48.64793" lon="-4.26557">
        <ele>9</ele>
        <time>2014-09-23T13:07:46Z</time>
      </trkpt>
      <trkpt lat="48.64791" lon="-4.26561">
        <ele>9</ele>
        <time>2014-09-23T13:07:51Z</time>
      </trkpt>
      <trkpt lat="48.64789" lon="-4.26566">
        <ele>9</ele>
        <time>2014-09-23T13:07:57Z</time>
      </trkpt>
      <trkpt lat="48.64786" lon="-4.26571">
        <ele>9</ele>
        <time>2014-09-23T13:08:02Z</time>
      </trkpt>
      <trkpt lat="48.64782" lon="-4.26578">
        <ele>9</ele>
        <time>2014-09-23T13:08:08Z</time>
      </trkpt>
      <trkpt lat="48.64777" lon="-4.26584">
        <ele>9</ele>
        <time>2014-09-23T13:08:14Z</time>
      </trkpt>
      <trkpt lat="48.64773" lon="-4.26591">
        <ele>8</ele>
        <time>2014-09-23T13:08:20Z</time>
      </trkpt>
      <trkpt lat="48.64771" lon="-4.26595">
        <ele>9</ele>
        <time>2014-09-23T13:08:26Z</time>
      </trkpt>
      <trkpt lat="48.6477" lon="-4.26598">
        <ele>9</ele>
        <time>2014-09-23T13:08:31Z</time>
      </trkpt>
      <trkpt lat="48.64768" lon="-4.26606">
        <ele>9</ele>
        <time>2014-09-23T13:08:37Z</time>
      </trkpt>
      <trkpt lat="48.64767" lon="-4.26613">
        <ele>9</ele>
        <time>2014-09-23T13:08:42Z</time>
      </trkpt>
      <trkpt lat="48.64769" lon="-4.2662">
        <ele>9</ele>
        <time>2014-09-23T13:08:48Z</time>
      </trkpt>
      <trkpt lat="48.64771" lon="-4.26625">
        <ele>9</ele>
        <time>2014-09-23T13:08:53Z</time>
      </trkpt>
      <trkpt lat="48.64775" lon="-4.2663">
        <ele>9</ele>
        <time>2014-09-23T13:08:59Z</time>
      </trkpt>
      <trkpt lat="48.64777" lon="-4.26636">
        <ele>9</ele>
        <time>2014-09-23T13:09:04Z</time>
      </trkpt>
      <trkpt lat="48.64776" lon="-4.26644">
        <ele>9</ele>
        <time>2014-09-23T13:09:10Z</time>
      </trkpt>
      <trkpt lat="48.64776" lon="-4.26645">
        <ele>10</ele>
        <time>2014-09-23T13:09:15Z</time>
      </trkpt>
      <trkpt lat="48.64776" lon="-4.26646">
        <ele>9</ele>
        <time>2014-09-23T13:09:21Z</time>
      </trkpt>
      <trkpt lat="48.64776" lon="-4.26645">
        <ele>9</ele>
        <time>2014-09-23T13:09:26Z</time>
      </trkpt>
      <trkpt lat="48.64776" lon="-4.26648">
        <ele>9</ele>
        <time>2014-09-23T13:09:31Z</time>
      </trkpt>
      <trkpt lat="48.64774" lon="-4.26653">
        <ele>9</ele>
        <time>2014-09-23T13:09:37Z</time>
      </trkpt>
      <trkpt lat="48.64772" lon="-4.26658">
        <ele>9</ele>
        <time>2014-09-23T13:09:42Z</time>
      </trkpt>
      <trkpt lat="48.64771" lon="-4.26662">
        <ele>9</ele>
        <time>2014-09-23T13:09:47Z</time>
      </trkpt>
      <trkpt lat="48.64769" lon="-4.26664">
        <ele>9</ele>
        <time>2014-09-23T13:09:53Z</time>
      </trkpt>
      <trkpt lat="48.64767" lon="-4.26669">
        <ele>9</ele>
        <time>2014-09-23T13:09:58Z</time>
      </trkpt>
      <trkpt lat="48.64765" lon="-4.26675">
        <ele>9</ele>
        <time>2014-09-23T13:10:04Z</time>
      </trkpt>
      <trkpt lat="48.64763" lon="-4.26681">
        <ele>9</ele>
        <time>2014-09-23T13:10:09Z</time>
      </trkpt>
      <trkpt lat="48.64761" lon="-4.26685">
        <ele>9</ele>
        <time>2014-09-23T13:10:14Z</time>
      </trkpt>
      <trkpt lat="48.64759" lon="-4.26691">
        <ele>9</ele>
        <time>2014-09-23T13:10:20Z</time>
      </trkpt>
      <trkpt lat="48.64756" lon="-4.26695">
        <ele>9</ele>
        <time>2014-09-23T13:10:25Z</time>
      </trkpt>
      <trkpt lat="48.64753" lon="-4.26701">
        <ele>9</ele>
        <time>2014-09-23T13:10:31Z</time>
      </trkpt>
      <trkpt lat="48.64749" lon="-4.26707">
        <ele>9</ele>
        <time>2014-09-23T13:10:37Z</time>
      </trkpt>
      <trkpt lat="48.64746" lon="-4.26712">
        <ele>10</ele>
        <time>2014-09-23T13:10:42Z</time>
      </trkpt>
      <trkpt lat="48.64743" lon="-4.26718">
        <ele>9</ele>
        <time>2014-09-23T13:10:48Z</time>
      </trkpt>
      <trkpt lat="48.6474" lon="-4.26723">
        <ele>9</ele>
        <time>2014-09-23T13:10:53Z</time>
      </trkpt>
      <trkpt lat="48.64738" lon="-4.26728">
        <ele>9</ele>
        <time>2014-09-23T13:10:58Z</time>
      </trkpt>
      <trkpt lat="48.64736" lon="-4.26733">
        <ele>9</ele>
        <time>2014-09-23T13:11:03Z</time>
      </trkpt>
      <trkpt lat="48.64734" lon="-4.26738">
        <ele>10</ele>
        <time>2014-09-23T13:11:08Z</time>
      </trkpt>
      <trkpt lat="48.64732" lon="-4.26745">
        <ele>10</ele>
        <time>2014-09-23T13:11:14Z</time>
      </trkpt>
      <trkpt lat="48.6473" lon="-4.26751">
        <ele>9</ele>
        <time>2014-09-23T13:11:20Z</time>
      </trkpt>
      <trkpt lat="48.64728" lon="-4.26758">
        <ele>9</ele>
        <time>2014-09-23T13:11:25Z</time>
      </trkpt>
      <trkpt lat="48.64727" lon="-4.26764">
        <ele>9</ele>
        <time>2014-09-23T13:11:31Z</time>
      </trkpt>
      <trkpt lat="48.64726" lon="-4.26771">
        <ele>9</ele>
        <time>2014-09-23T13:11:36Z</time>
      </trkpt>
      <trkpt lat="48.64725" lon="-4.26777">
        <ele>9</ele>
        <time>2014-09-23T13:11:41Z</time>
      </trkpt>
      <trkpt lat="48.64724" lon="-4.26784">
        <ele>9</ele>
        <time>2014-09-23T13:11:47Z</time>
      </trkpt>
      <trkpt lat="48.64723" lon="-4.2679">
        <ele>9</ele>
        <time>2014-09-23T13:11:53Z</time>
      </trkpt>
      <trkpt lat="48.64719" lon="-4.26791">
        <ele>9</ele>
        <time>2014-09-23T13:11:58Z</time>
      </trkpt>
      <trkpt lat="48.64716" lon="-4.26792">
        <ele>9</ele>
        <time>2014-09-23T13:12:03Z</time>
      </trkpt>
      <trkpt lat="48.64715" lon="-4.26791">
        <ele>9</ele>
        <time>2014-09-23T13:12:08Z</time>
      </trkpt>
      <trkpt lat="48.64711" lon="-4.26791">
        <ele>9</ele>
        <time>2014-09-23T13:12:14Z</time>
      </trkpt>
      <trkpt lat="48.64711" lon="-4.26792">
        <ele>9</ele>
        <time>2014-09-23T13:12:20Z</time>
      </trkpt>
      <trkpt lat="48.6471" lon="-4.26792">
        <ele>9</ele>
        <time>2014-09-23T13:12:26Z</time>
      </trkpt>
      <trkpt lat="48.64709" lon="-4.26794">
        <ele>9</ele>
        <time>2014-09-23T13:12:31Z</time>
      </trkpt>
      <trkpt lat="48.64709" lon="-4.26795">
        <ele>9</ele>
        <time>2014-09-23T13:12:36Z</time>
      </trkpt>
      <trkpt lat="48.64709" lon="-4.26799">
        <ele>9</ele>
        <time>2014-09-23T13:12:42Z</time>
      </trkpt>
      <trkpt lat="48.64708" lon="-4.26802">
        <ele>9</ele>
        <time>2014-09-23T13:12:48Z</time>
      </trkpt>
      <trkpt lat="48.64707" lon="-4.26803">
        <ele>9</ele>
        <time>2014-09-23T13:12:54Z</time>
      </trkpt>
      <trkpt lat="48.64707" lon="-4.26805">
        <ele>9</ele>
        <time>2014-09-23T13:13:00Z</time>
      </trkpt>
      <trkpt lat="48.64708" lon="-4.26807">
        <ele>9</ele>
        <time>2014-09-23T13:13:05Z</time>
      </trkpt>
      <trkpt lat="48.64709" lon="-4.26807">
        <ele>9</ele>
        <time>2014-09-23T13:13:11Z</time>
      </trkpt>
      <trkpt lat="48.64711" lon="-4.26807">
        <ele>9</ele>
        <time>2014-09-23T13:13:16Z</time>
      </trkpt>
      <trkpt lat="48.64712" lon="-4.26807">
        <ele>9</ele>
        <time>2014-09-23T13:13:21Z</time>
      </trkpt>
      <trkpt lat="48.64713" lon="-4.26806">
        <ele>9</ele>
        <time>2014-09-23T13:13:27Z</time>
      </trkpt>
      <trkpt lat="48.64714" lon="-4.26808">
        <ele>9</ele>
        <time>2014-09-23T13:13:32Z</time>
      </trkpt>
      <trkpt lat="48.64714" lon="-4.26807">
        <ele>9</ele>
        <time>2014-09-23T13:13:37Z</time>
      </trkpt>
      <trkpt lat="48.64714" lon="-4.26806">
        <ele>9</ele>
        <time>2014-09-23T13:13:44Z</time>
      </trkpt>
      <trkpt lat="48.64714" lon="-4.26806">
        <ele>9</ele>
        <time>2014-09-23T13:13:50Z</time>
      </trkpt>
      <trkpt lat="48.64714" lon="-4.26803">
        <ele>9</ele>
        <time>2014-09-23T13:13:56Z</time>
      </trkpt>
      <trkpt lat="48.64711" lon="-4.26802">
        <ele>9</ele>
        <time>2014-09-23T13:14:02Z</time>
      </trkpt>
      <trkpt lat="48.64711" lon="-4.26799">
        <ele>9</ele>
        <time>2014-09-23T13:14:07Z</time>
      </trkpt>
      <trkpt lat="48.6471" lon="-4.26799">
        <ele>9</ele>
        <time>2014-09-23T13:14:12Z</time>
      </trkpt>
      <trkpt lat="48.64709" lon="-4.26799">
        <ele>9</ele>
        <time>2014-09-23T13:14:19Z</time>
      </trkpt>
      <trkpt lat="48.64709" lon="-4.26799">
        <ele>9</ele>
        <time>2014-09-23T13:14:24Z</time>
      </trkpt>
      <trkpt lat="48.64708" lon="-4.26798">
        <ele>9</ele>
        <time>2014-09-23T13:14:31Z</time>
      </trkpt>
      <trkpt lat="48.64708" lon="-4.26798">
        <ele>9</ele>
        <time>2014-09-23T13:14:37Z</time>
      </trkpt>
      <trkpt lat="48.64708" lon="-4.26799">
        <ele>9</ele>
        <time>2014-09-23T13:14:42Z</time>
      </trkpt>
      <trkpt lat="48.64707" lon="-4.268">
        <ele>9</ele>
        <time>2014-09-23T13:14:47Z</time>
      </trkpt>
      <trkpt lat="48.64705" lon="-4.268">
        <ele>9</ele>
        <time>2014-09-23T13:14:52Z</time>
      </trkpt>
      <trkpt lat="48.64706" lon="-4.26805">
        <ele>10</ele>
        <time>2014-09-23T13:14:58Z</time>
      </trkpt>
      <trkpt lat="48.64706" lon="-4.26807">
        <ele>10</ele>
        <time>2014-09-23T13:15:04Z</time>
      </trkpt>
      <trkpt lat="48.64706" lon="-4.26803">
        <ele>9</ele>
        <time>2014-09-23T13:15:09Z</time>
      </trkpt>
      <trkpt lat="48.64706" lon="-4.26799">
        <ele>9</ele>
        <time>2014-09-23T13:15:14Z</time>
      </trkpt>
      <trkpt lat="48.64705" lon="-4.26796">
        <ele>9</ele>
        <time>2014-09-23T13:15:20Z</time>
      </trkpt>
      <trkpt lat="48.64705" lon="-4.26795">
        <ele>9</ele>
        <time>2014-09-23T13:15:25Z</time>
      </trkpt>
      <trkpt lat="48.64706" lon="-4.26795">
        <ele>8</ele>
        <time>2014-09-23T13:15:32Z</time>
      </trkpt>
      <trkpt lat="48.64706" lon="-4.26794">
        <ele>9</ele>
        <time>2014-09-23T13:15:37Z</time>
      </trkpt>
      <trkpt lat="48.64705" lon="-4.26793">
        <ele>9</ele>
        <time>2014-09-23T13:15:42Z</time>
      </trkpt>
      <trkpt lat="48.64705" lon="-4.26794">
        <ele>9</ele>
        <time>2014-09-23T13:15:47Z</time>
      </trkpt>
      <trkpt lat="48.64705" lon="-4.26794">
        <ele>9</ele>
        <time>2014-09-23T13:15:53Z</time>
      </trkpt>
      <trkpt lat="48.64706" lon="-4.26794">
        <ele>9</ele>
        <time>2014-09-23T13:15:58Z</time>
      </trkpt>
      <trkpt lat="48.64706" lon="-4.26795">
        <ele>9</ele>
        <time>2014-09-23T13:16:04Z</time>
      </trkpt>
      <trkpt lat="48.64705" lon="-4.26796">
        <ele>9</ele>
        <time>2014-09-23T13:16:10Z</time>
      </trkpt>
      <trkpt lat="48.64705" lon="-4.26796">
        <ele>10</ele>
        <time>2014-09-23T13:16:15Z</time>
      </trkpt>
      <trkpt lat="48.64705" lon="-4.26796">
        <ele>10</ele>
        <time>2014-09-23T13:16:21Z</time>
      </trkpt>
      <trkpt lat="48.64706" lon="-4.26796">
        <ele>9</ele>
        <time>2014-09-23T13:16:26Z</time>
      </trkpt>
      <trkpt lat="48.64706" lon="-4.26796">
        <ele>9</ele>
        <time>2014-09-23T13:16:31Z</time>
      </trkpt>
      <trkpt lat="48.64707" lon="-4.26796">
        <ele>9</ele>
        <time>2014-09-23T13:16:37Z</time>
      </trkpt>
      <trkpt lat="48.64707" lon="-4.26795">
        <ele>9</ele>
        <time>2014-09-23T13:16:43Z</time>
      </trkpt>
      <trkpt lat="48.64706" lon="-4.26794">
        <ele>9</ele>
        <time>2014-09-23T13:16:50Z</time>
      </trkpt>
      <trkpt lat="48.64708" lon="-4.26795">
        <ele>9</ele>
        <time>2014-09-23T13:16:56Z</time>
      </trkpt>
      <trkpt lat="48.64708" lon="-4.26795">
        <ele>9</ele>
        <time>2014-09-23T13:17:01Z</time>
      </trkpt>
      <trkpt lat="48.64708" lon="-4.26796">
        <ele>10</ele>
        <time>2014-09-23T13:17:09Z</time>
      </trkpt>
      <trkpt lat="48.64709" lon="-4.26798">
        <ele>10</ele>
        <time>2014-09-23T13:17:15Z</time>
      </trkpt>
      <trkpt lat="48.64709" lon="-4.26799">
        <ele>10</ele>
        <time>2014-09-23T13:17:20Z</time>
      </trkpt>
      <trkpt lat="48.64709" lon="-4.26798">
        <ele>9</ele>
        <time>2014-09-23T13:17:25Z</time>
      </trkpt>
      <trkpt lat="48.64709" lon="-4.26799">
        <ele>9</ele>
        <time>2014-09-23T13:17:30Z</time>
      </trkpt>
      <trkpt lat="48.6471" lon="-4.268">
        <ele>10</ele>
        <time>2014-09-23T13:17:35Z</time>
      </trkpt>
      <trkpt lat="48.64709" lon="-4.26799">
        <ele>10</ele>
        <time>2014-09-23T13:17:41Z</time>
      </trkpt>
      <trkpt lat="48.64711" lon="-4.26798">
        <ele>9</ele>
        <time>2014-09-23T13:17:46Z</time>
      </trkpt>
      <trkpt lat="48.64712" lon="-4.26798">
        <ele>10</ele>
        <time>2014-09-23T13:17:52Z</time>
      </trkpt>
      <trkpt lat="48.64714" lon="-4.26798">
        <ele>10</ele>
        <time>2014-09-23T13:17:58Z</time>
      </trkpt>
      <trkpt lat="48.64718" lon="-4.26796">
        <ele>9</ele>
        <time>2014-09-23T13:18:04Z</time>
      </trkpt>
      <trkpt lat="48.64722" lon="-4.26797">
        <ele>10</ele>
        <time>2014-09-23T13:18:09Z</time>
      </trkpt>
      <trkpt lat="48.64723" lon="-4.26796">
        <ele>10</ele>
        <time>2014-09-23T13:18:14Z</time>
      </trkpt>
      <trkpt lat="48.64723" lon="-4.26796">
        <ele>10</ele>
        <time>2014-09-23T13:18:19Z</time>
      </trkpt>
      <trkpt lat="48.64723" lon="-4.26795">
        <ele>10</ele>
        <time>2014-09-23T13:18:25Z</time>
      </trkpt>
      <trkpt lat="48.64722" lon="-4.26795">
        <ele>10</ele>
        <time>2014-09-23T13:18:32Z</time>
      </trkpt>
      <trkpt lat="48.64722" lon="-4.26795">
        <ele>10</ele>
        <time>2014-09-23T13:18:39Z</time>
      </trkpt>
      <trkpt lat="48.64722" lon="-4.26795">
        <ele>10</ele>
        <time>2014-09-23T13:18:45Z</time>
      </trkpt>
      <trkpt lat="48.64724" lon="-4.26799">
        <ele>10</ele>
        <time>2014-09-23T13:18:50Z</time>
      </trkpt>
      <trkpt lat="48.64724" lon="-4.26805">
        <ele>10</ele>
        <time>2014-09-23T13:18:55Z</time>
      </trkpt>
      <trkpt lat="48.64725" lon="-4.26812">
        <ele>11</ele>
        <time>2014-09-23T13:19:01Z</time>
      </trkpt>
      <trkpt lat="48.64727" lon="-4.2682">
        <ele>11</ele>
        <time>2014-09-23T13:19:07Z</time>
      </trkpt>
      <trkpt lat="48.64728" lon="-4.26828">
        <ele>11</ele>
        <time>2014-09-23T13:19:13Z</time>
      </trkpt>
      <trkpt lat="48.64728" lon="-4.26835">
        <ele>11</ele>
        <time>2014-09-23T13:19:18Z</time>
      </trkpt>
      <trkpt lat="48.64729" lon="-4.26842">
        <ele>11</ele>
        <time>2014-09-23T13:19:23Z</time>
      </trkpt>
      <trkpt lat="48.6473" lon="-4.2685">
        <ele>11</ele>
        <time>2014-09-23T13:19:28Z</time>
      </trkpt>
      <trkpt lat="48.6473" lon="-4.26857">
        <ele>11</ele>
        <time>2014-09-23T13:19:33Z</time>
      </trkpt>
      <trkpt lat="48.6473" lon="-4.26866">
        <ele>11</ele>
        <time>2014-09-23T13:19:39Z</time>
      </trkpt>
      <trkpt lat="48.6473" lon="-4.26874">
        <ele>11</ele>
        <time>2014-09-23T13:19:45Z</time>
      </trkpt>
      <trkpt lat="48.6473" lon="-4.26882">
        <ele>11</ele>
        <time>2014-09-23T13:19:50Z</time>
      </trkpt>
      <trkpt lat="48.64729" lon="-4.26889">
        <ele>11</ele>
        <time>2014-09-23T13:19:56Z</time>
      </trkpt>
      <trkpt lat="48.64729" lon="-4.26896">
        <ele>11</ele>
        <time>2014-09-23T13:20:01Z</time>
      </trkpt>
      <trkpt lat="48.64729" lon="-4.26904">
        <ele>10</ele>
        <time>2014-09-23T13:20:07Z</time>
      </trkpt>
      <trkpt lat="48.64728" lon="-4.26909">
        <ele>10</ele>
        <time>2014-09-23T13:20:12Z</time>
      </trkpt>
      <trkpt lat="48.64728" lon="-4.26916">
        <ele>10</ele>
        <time>2014-09-23T13:20:18Z</time>
      </trkpt>
      <trkpt lat="48.64728" lon="-4.26924">
        <ele>10</ele>
        <time>2014-09-23T13:20:23Z</time>
      </trkpt>
      <trkpt lat="48.64729" lon="-4.26931">
        <ele>10</ele>
        <time>2014-09-23T13:20:28Z</time>
      </trkpt>
      <trkpt lat="48.6473" lon="-4.26939">
        <ele>11</ele>
        <time>2014-09-23T13:20:34Z</time>
      </trkpt>
      <trkpt lat="48.64732" lon="-4.26948">
        <ele>11</ele>
        <time>2014-09-23T13:20:40Z</time>
      </trkpt>
      <trkpt lat="48.64736" lon="-4.26953">
        <ele>11</ele>
        <time>2014-09-23T13:20:45Z</time>
      </trkpt>
      <trkpt lat="48.6474" lon="-4.26958">
        <ele>10</ele>
        <time>2014-09-23T13:20:50Z</time>
      </trkpt>
      <trkpt lat="48.64744" lon="-4.26963">
        <ele>11</ele>
        <time>2014-09-23T13:20:55Z</time>
      </trkpt>
      <trkpt lat="48.64748" lon="-4.26969">
        <ele>11</ele>
        <time>2014-09-23T13:21:01Z</time>
      </trkpt>
      <trkpt lat="48.64751" lon="-4.26974">
        <ele>11</ele>
        <time>2014-09-23T13:21:07Z</time>
      </trkpt>
      <trkpt lat="48.64754" lon="-4.26979">
        <ele>11</ele>
        <time>2014-09-23T13:21:13Z</time>
      </trkpt>
      <trkpt lat="48.64755" lon="-4.26987">
        <ele>11</ele>
        <time>2014-09-23T13:21:19Z</time>
      </trkpt>
      <trkpt lat="48.64756" lon="-4.26994">
        <ele>11</ele>
        <time>2014-09-23T13:21:24Z</time>
      </trkpt>
      <trkpt lat="48.64756" lon="-4.27001">
        <ele>11</ele>
        <time>2014-09-23T13:21:29Z</time>
      </trkpt>
      <trkpt lat="48.64756" lon="-4.2701">
        <ele>11</ele>
        <time>2014-09-23T13:21:35Z</time>
      </trkpt>
      <trkpt lat="48.64756" lon="-4.27019">
        <ele>11</ele>
        <time>2014-09-23T13:21:41Z</time>
      </trkpt>
      <trkpt lat="48.64755" lon="-4.27027">
        <ele>11</ele>
        <time>2014-09-23T13:21:47Z</time>
      </trkpt>
      <trkpt lat="48.64754" lon="-4.27033">
        <ele>11</ele>
        <time>2014-09-23T13:21:52Z</time>
      </trkpt>
      <trkpt lat="48.64751" lon="-4.27041">
        <ele>11</ele>
        <time>2014-09-23T13:21:58Z</time>
      </trkpt>
      <trkpt lat="48.64751" lon="-4.27048">
        <ele>11</ele>
        <time>2014-09-23T13:22:04Z</time>
      </trkpt>
      <trkpt lat="48.64747" lon="-4.27052">
        <ele>11</ele>
        <time>2014-09-23T13:22:10Z</time>
      </trkpt>
      <trkpt lat="48.64743" lon="-4.27058">
        <ele>11</ele>
        <time>2014-09-23T13:22:16Z</time>
      </trkpt>
      <trkpt lat="48.64739" lon="-4.27061">
        <ele>11</ele>
        <time>2014-09-23T13:22:22Z</time>
      </trkpt>
      <trkpt lat="48.64732" lon="-4.27062">
        <ele>11</ele>
        <time>2014-09-23T13:22:28Z</time>
      </trkpt>
      <trkpt lat="48.64727" lon="-4.27061">
        <ele>11</ele>
        <time>2014-09-23T13:22:33Z</time>
      </trkpt>
      <trkpt lat="48.64722" lon="-4.27059">
        <ele>11</ele>
        <time>2014-09-23T13:22:38Z</time>
      </trkpt>
      <trkpt lat="48.64716" lon="-4.27059">
        <ele>11</ele>
        <time>2014-09-23T13:22:44Z</time>
      </trkpt>
      <trkpt lat="48.64713" lon="-4.27063">
        <ele>11</ele>
        <time>2014-09-23T13:22:49Z</time>
      </trkpt>
      <trkpt lat="48.64713" lon="-4.27069">
        <ele>11</ele>
        <time>2014-09-23T13:22:55Z</time>
      </trkpt>
      <trkpt lat="48.64715" lon="-4.2707">
        <ele>11</ele>
        <time>2014-09-23T13:23:00Z</time>
      </trkpt>
      <trkpt lat="48.64719" lon="-4.27072">
        <ele>11</ele>
        <time>2014-09-23T13:23:06Z</time>
      </trkpt>
      <trkpt lat="48.64724" lon="-4.27076">
        <ele>11</ele>
        <time>2014-09-23T13:23:12Z</time>
      </trkpt>
      <trkpt lat="48.64728" lon="-4.2708">
        <ele>11</ele>
        <time>2014-09-23T13:23:17Z</time>
      </trkpt>
      <trkpt lat="48.64732" lon="-4.27087">
        <ele>11</ele>
        <time>2014-09-23T13:23:23Z</time>
      </trkpt>
      <trkpt lat="48.64735" lon="-4.27094">
        <ele>11</ele>
        <time>2014-09-23T13:23:28Z</time>
      </trkpt>
      <trkpt lat="48.64739" lon="-4.271">
        <ele>10</ele>
        <time>2014-09-23T13:23:34Z</time>
      </trkpt>
      <trkpt lat="48.64743" lon="-4.27105">
        <ele>10</ele>
        <time>2014-09-23T13:23:39Z</time>
      </trkpt>
      <trkpt lat="48.64746" lon="-4.2711">
        <ele>10</ele>
        <time>2014-09-23T13:23:45Z</time>
      </trkpt>
      <trkpt lat="48.64743" lon="-4.27116">
        <ele>11</ele>
        <time>2014-09-23T13:23:51Z</time>
      </trkpt>
      <trkpt lat="48.64743" lon="-4.27122">
        <ele>11</ele>
        <time>2014-09-23T13:23:57Z</time>
      </trkpt>
      <trkpt lat="48.64743" lon="-4.27123">
        <ele>12</ele>
        <time>2014-09-23T13:24:02Z</time>
      </trkpt>
      <trkpt lat="48.64743" lon="-4.27125">
        <ele>11</ele>
        <time>2014-09-23T13:24:09Z</time>
      </trkpt>
      <trkpt lat="48.64742" lon="-4.27125">
        <ele>11</ele>
        <time>2014-09-23T13:24:14Z</time>
      </trkpt>
      <trkpt lat="48.6474" lon="-4.27132">
        <ele>12</ele>
        <time>2014-09-23T13:24:20Z</time>
      </trkpt>
      <trkpt lat="48.64741" lon="-4.27141">
        <ele>11</ele>
        <time>2014-09-23T13:24:26Z</time>
      </trkpt>
      <trkpt lat="48.64742" lon="-4.2715">
        <ele>11</ele>
        <time>2014-09-23T13:24:32Z</time>
      </trkpt>
      <trkpt lat="48.64742" lon="-4.27157">
        <ele>11</ele>
        <time>2014-09-23T13:24:37Z</time>
      </trkpt>
      <trkpt lat="48.64741" lon="-4.27164">
        <ele>11</ele>
        <time>2014-09-23T13:24:42Z</time>
      </trkpt>
      <trkpt lat="48.6474" lon="-4.27171">
        <ele>11</ele>
        <time>2014-09-23T13:24:47Z</time>
      </trkpt>
      <trkpt lat="48.64738" lon="-4.27176">
        <ele>11</ele>
        <time>2014-09-23T13:24:53Z</time>
      </trkpt>
      <trkpt lat="48.64738" lon="-4.27176">
        <ele>11</ele>
        <time>2014-09-23T13:24:59Z</time>
      </trkpt>
      <trkpt lat="48.64737" lon="-4.27179">
        <ele>11</ele>
        <time>2014-09-23T13:25:04Z</time>
      </trkpt>
      <trkpt lat="48.64737" lon="-4.27187">
        <ele>11</ele>
        <time>2014-09-23T13:25:10Z</time>
      </trkpt>
      <trkpt lat="48.64737" lon="-4.27193">
        <ele>11</ele>
        <time>2014-09-23T13:25:16Z</time>
      </trkpt>
      <trkpt lat="48.64736" lon="-4.27199">
        <ele>11</ele>
        <time>2014-09-23T13:25:21Z</time>
      </trkpt>
      <trkpt lat="48.64735" lon="-4.27205">
        <ele>11</ele>
        <time>2014-09-23T13:25:27Z</time>
      </trkpt>
      <trkpt lat="48.64735" lon="-4.27211">
        <ele>11</ele>
        <time>2014-09-23T13:25:32Z</time>
      </trkpt>
      <trkpt lat="48.64736" lon="-4.27217">
        <ele>11</ele>
        <time>2014-09-23T13:25:38Z</time>
      </trkpt>
      <trkpt lat="48.64738" lon="-4.27222">
        <ele>11</ele>
        <time>2014-09-23T13:25:43Z</time>
      </trkpt>
      <trkpt lat="48.64738" lon="-4.27228">
        <ele>11</ele>
        <time>2014-09-23T13:25:49Z</time>
      </trkpt>
      <trkpt lat="48.64737" lon="-4.27231">
        <ele>11</ele>
        <time>2014-09-23T13:25:54Z</time>
      </trkpt>
      <trkpt lat="48.64738" lon="-4.27235">
        <ele>10</ele>
        <time>2014-09-23T13:25:59Z</time>
      </trkpt>
      <trkpt lat="48.64738" lon="-4.27236">
        <ele>10</ele>
        <time>2014-09-23T13:26:05Z</time>
      </trkpt>
      <trkpt lat="48.64738" lon="-4.27238">
        <ele>10</ele>
        <time>2014-09-23T13:26:10Z</time>
      </trkpt>
      <trkpt lat="48.64739" lon="-4.27244">
        <ele>11</ele>
        <time>2014-09-23T13:26:15Z</time>
      </trkpt>
      <trkpt lat="48.64739" lon="-4.27251">
        <ele>11</ele>
        <time>2014-09-23T13:26:21Z</time>
      </trkpt>
      <trkpt lat="48.64737" lon="-4.27258">
        <ele>11</ele>
        <time>2014-09-23T13:26:26Z</time>
      </trkpt>
      <trkpt lat="48.64737" lon="-4.27267">
        <ele>11</ele>
        <time>2014-09-23T13:26:32Z</time>
      </trkpt>
      <trkpt lat="48.64737" lon="-4.27274">
        <ele>11</ele>
        <time>2014-09-23T13:26:37Z</time>
      </trkpt>
      <trkpt lat="48.64738" lon="-4.27278">
        <ele>11</ele>
        <time>2014-09-23T13:26:43Z</time>
      </trkpt>
      <trkpt lat="48.64738" lon="-4.27274">
        <ele>11</ele>
        <time>2014-09-23T13:26:49Z</time>
      </trkpt>
      <trkpt lat="48.64738" lon="-4.27266">
        <ele>11</ele>
        <time>2014-09-23T13:26:55Z</time>
      </trkpt>
      <trkpt lat="48.64738" lon="-4.27259">
        <ele>11</ele>
        <time>2014-09-23T13:27:01Z</time>
      </trkpt>
      <trkpt lat="48.64738" lon="-4.27252">
        <ele>11</ele>
        <time>2014-09-23T13:27:06Z</time>
      </trkpt>
      <trkpt lat="48.64738" lon="-4.27244">
        <ele>10</ele>
        <time>2014-09-23T13:27:12Z</time>
      </trkpt>
      <trkpt lat="48.64735" lon="-4.2724">
        <ele>10</ele>
        <time>2014-09-23T13:27:18Z</time>
      </trkpt>
      <trkpt lat="48.64731" lon="-4.27241">
        <ele>10</ele>
        <time>2014-09-23T13:27:23Z</time>
      </trkpt>
      <trkpt lat="48.64728" lon="-4.27242">
        <ele>11</ele>
        <time>2014-09-23T13:27:28Z</time>
      </trkpt>
      <trkpt lat="48.64725" lon="-4.27242">
        <ele>11</ele>
        <time>2014-09-23T13:27:33Z</time>
      </trkpt>
      <trkpt lat="48.64722" lon="-4.27245">
        <ele>11</ele>
        <time>2014-09-23T13:27:39Z</time>
      </trkpt>
      <trkpt lat="48.64718" lon="-4.27248">
        <ele>11</ele>
        <time>2014-09-23T13:27:44Z</time>
      </trkpt>
      <trkpt lat="48.64713" lon="-4.27252">
        <ele>11</ele>
        <time>2014-09-23T13:27:50Z</time>
      </trkpt>
      <trkpt lat="48.64709" lon="-4.27258">
        <ele>12</ele>
        <time>2014-09-23T13:27:56Z</time>
      </trkpt>
      <trkpt lat="48.64706" lon="-4.27261">
        <ele>12</ele>
        <time>2014-09-23T13:28:01Z</time>
      </trkpt>
      <trkpt lat="48.64704" lon="-4.2726">
        <ele>12</ele>
        <time>2014-09-23T13:28:06Z</time>
      </trkpt>
      <trkpt lat="48.64703" lon="-4.27258">
        <ele>11</ele>
        <time>2014-09-23T13:28:12Z</time>
      </trkpt>
      <trkpt lat="48.64703" lon="-4.27258">
        <ele>11</ele>
        <time>2014-09-23T13:28:17Z</time>
      </trkpt>
      <trkpt lat="48.64704" lon="-4.27257">
        <ele>12</ele>
        <time>2014-09-23T13:28:23Z</time>
      </trkpt>
      <trkpt lat="48.64703" lon="-4.27256">
        <ele>11</ele>
        <time>2014-09-23T13:28:28Z</time>
      </trkpt>
      <trkpt lat="48.64705" lon="-4.27258">
        <ele>12</ele>
        <time>2014-09-23T13:28:34Z</time>
      </trkpt>
      <trkpt lat="48.64705" lon="-4.27256">
        <ele>12</ele>
        <time>2014-09-23T13:28:40Z</time>
      </trkpt>
      <trkpt lat="48.64704" lon="-4.27254">
        <ele>11</ele>
        <time>2014-09-23T13:28:46Z</time>
      </trkpt>
      <trkpt lat="48.64706" lon="-4.27258">
        <ele>11</ele>
        <time>2014-09-23T13:28:51Z</time>
      </trkpt>
      <trkpt lat="48.64705" lon="-4.27259">
        <ele>11</ele>
        <time>2014-09-23T13:28:57Z</time>
      </trkpt>
      <trkpt lat="48.64706" lon="-4.27262">
        <ele>12</ele>
        <time>2014-09-23T13:29:02Z</time>
      </trkpt>
      <trkpt lat="48.64705" lon="-4.27263">
        <ele>11</ele>
        <time>2014-09-23T13:29:08Z</time>
      </trkpt>
      <trkpt lat="48.64705" lon="-4.27263">
        <ele>11</ele>
        <time>2014-09-23T13:29:13Z</time>
      </trkpt>
      <trkpt lat="48.64704" lon="-4.2726">
        <ele>12</ele>
        <time>2014-09-23T13:29:19Z</time>
      </trkpt>
      <trkpt lat="48.64702" lon="-4.27257">
        <ele>12</ele>
        <time>2014-09-23T13:29:25Z</time>
      </trkpt>
      <trkpt lat="48.647" lon="-4.27257">
        <ele>11</ele>
        <time>2014-09-23T13:29:30Z</time>
      </trkpt>
      <trkpt lat="48.647" lon="-4.27257">
        <ele>11</ele>
        <time>2014-09-23T13:29:36Z</time>
      </trkpt>
      <trkpt lat="48.64699" lon="-4.27257">
        <ele>10</ele>
        <time>2014-09-23T13:29:41Z</time>
      </trkpt>
      <trkpt lat="48.64698" lon="-4.27259">
        <ele>9</ele>
        <time>2014-09-23T13:29:47Z</time>
      </trkpt>
      <trkpt lat="48.64697" lon="-4.27259">
        <ele>10</ele>
        <time>2014-09-23T13:29:52Z</time>
      </trkpt>
      <trkpt lat="48.64696" lon="-4.27262">
        <ele>10</ele>
        <time>2014-09-23T13:29:58Z</time>
      </trkpt>
      <trkpt lat="48.64696" lon="-4.27262">
        <ele>10</ele>
        <time>2014-09-23T13:30:04Z</time>
      </trkpt>
      <trkpt lat="48.64697" lon="-4.27262">
        <ele>10</ele>
        <time>2014-09-23T13:30:09Z</time>
      </trkpt>
      <trkpt lat="48.64697" lon="-4.27262">
        <ele>10</ele>
        <time>2014-09-23T13:30:14Z</time>
      </trkpt>
      <trkpt lat="48.64697" lon="-4.27262">
        <ele>10</ele>
        <time>2014-09-23T13:30:21Z</time>
      </trkpt>
      <trkpt lat="48.64697" lon="-4.27263">
        <ele>10</ele>
        <time>2014-09-23T13:30:28Z</time>
      </trkpt>
      <trkpt lat="48.64697" lon="-4.27263">
        <ele>10</ele>
        <time>2014-09-23T13:30:34Z</time>
      </trkpt>
      <trkpt lat="48.64697" lon="-4.27262">
        <ele>10</ele>
        <time>2014-09-23T13:30:39Z</time>
      </trkpt>
      <trkpt lat="48.64697" lon="-4.27259">
        <ele>10</ele>
        <time>2014-09-23T13:30:45Z</time>
      </trkpt>
      <trkpt lat="48.64696" lon="-4.27258">
        <ele>10</ele>
        <time>2014-09-23T13:30:51Z</time>
      </trkpt>
      <trkpt lat="48.64696" lon="-4.27256">
        <ele>10</ele>
        <time>2014-09-23T13:30:56Z</time>
      </trkpt>
      <trkpt lat="48.64698" lon="-4.27255">
        <ele>10</ele>
        <time>2014-09-23T13:31:01Z</time>
      </trkpt>
      <trkpt lat="48.64697" lon="-4.27254">
        <ele>10</ele>
        <time>2014-09-23T13:31:07Z</time>
      </trkpt>
      <trkpt lat="48.64696" lon="-4.27253">
        <ele>10</ele>
        <time>2014-09-23T13:31:13Z</time>
      </trkpt>
      <trkpt lat="48.64695" lon="-4.27253">
        <ele>11</ele>
        <time>2014-09-23T13:31:19Z</time>
      </trkpt>
      <trkpt lat="48.64696" lon="-4.27255">
        <ele>11</ele>
        <time>2014-09-23T13:31:24Z</time>
      </trkpt>
      <trkpt lat="48.64696" lon="-4.27257">
        <ele>11</ele>
        <time>2014-09-23T13:31:30Z</time>
      </trkpt>
      <trkpt lat="48.64696" lon="-4.2726">
        <ele>11</ele>
        <time>2014-09-23T13:31:36Z</time>
      </trkpt>
      <trkpt lat="48.64695" lon="-4.27262">
        <ele>10</ele>
        <time>2014-09-23T13:31:41Z</time>
      </trkpt>
      <trkpt lat="48.64698" lon="-4.27265">
        <ele>10</ele>
        <time>2014-09-23T13:31:47Z</time>
      </trkpt>
      <trkpt lat="48.64699" lon="-4.27267">
        <ele>11</ele>
        <time>2014-09-23T13:31:52Z</time>
      </trkpt>
      <trkpt lat="48.64697" lon="-4.27261">
        <ele>11</ele>
        <time>2014-09-23T13:31:58Z</time>
      </trkpt>
      <trkpt lat="48.64699" lon="-4.2726">
        <ele>11</ele>
        <time>2014-09-23T13:32:04Z</time>
      </trkpt>
      <trkpt lat="48.647" lon="-4.27263">
        <ele>12</ele>
        <time>2014-09-23T13:32:10Z</time>
      </trkpt>
      <trkpt lat="48.64703" lon="-4.27268">
        <ele>12</ele>
        <time>2014-09-23T13:32:15Z</time>
      </trkpt>
      <trkpt lat="48.64704" lon="-4.2727">
        <ele>12</ele>
        <time>2014-09-23T13:32:20Z</time>
      </trkpt>
      <trkpt lat="48.64705" lon="-4.2727">
        <ele>12</ele>
        <time>2014-09-23T13:32:25Z</time>
      </trkpt>
      <trkpt lat="48.64705" lon="-4.27269">
        <ele>12</ele>
        <time>2014-09-23T13:32:32Z</time>
      </trkpt>
      <trkpt lat="48.64705" lon="-4.27269">
        <ele>12</ele>
        <time>2014-09-23T13:32:37Z</time>
      </trkpt>
      <trkpt lat="48.64705" lon="-4.27268">
        <ele>12</ele>
        <time>2014-09-23T13:32:42Z</time>
      </trkpt>
      <trkpt lat="48.64705" lon="-4.27268">
        <ele>12</ele>
        <time>2014-09-23T13:32:48Z</time>
      </trkpt>
      <trkpt lat="48.64704" lon="-4.2727">
        <ele>12</ele>
        <time>2014-09-23T13:32:53Z</time>
      </trkpt>
      <trkpt lat="48.64704" lon="-4.27269">
        <ele>12</ele>
        <time>2014-09-23T13:32:58Z</time>
      </trkpt>
      <trkpt lat="48.64703" lon="-4.2727">
        <ele>12</ele>
        <time>2014-09-23T13:33:03Z</time>
      </trkpt>
      <trkpt lat="48.64701" lon="-4.27274">
        <ele>12</ele>
        <time>2014-09-23T13:33:08Z</time>
      </trkpt>
      <trkpt lat="48.64698" lon="-4.27281">
        <ele>12</ele>
        <time>2014-09-23T13:33:14Z</time>
      </trkpt>
      <trkpt lat="48.64696" lon="-4.27289">
        <ele>12</ele>
        <time>2014-09-23T13:33:20Z</time>
      </trkpt>
      <trkpt lat="48.64694" lon="-4.27296">
        <ele>12</ele>
        <time>2014-09-23T13:33:26Z</time>
      </trkpt>
      <trkpt lat="48.6469" lon="-4.27301">
        <ele>12</ele>
        <time>2014-09-23T13:33:32Z</time>
      </trkpt>
      <trkpt lat="48.64688" lon="-4.27305">
        <ele>12</ele>
        <time>2014-09-23T13:33:37Z</time>
      </trkpt>
      <trkpt lat="48.64687" lon="-4.27306">
        <ele>12</ele>
        <time>2014-09-23T13:33:43Z</time>
      </trkpt>
      <trkpt lat="48.64685" lon="-4.2731">
        <ele>12</ele>
        <time>2014-09-23T13:33:49Z</time>
      </trkpt>
      <trkpt lat="48.64682" lon="-4.27316">
        <ele>12</ele>
        <time>2014-09-23T13:33:54Z</time>
      </trkpt>
      <trkpt lat="48.64678" lon="-4.27322">
        <ele>12</ele>
        <time>2014-09-23T13:34:00Z</time>
      </trkpt>
      <trkpt lat="48.64675" lon="-4.2733">
        <ele>12</ele>
        <time>2014-09-23T13:34:06Z</time>
      </trkpt>
      <trkpt lat="48.64672" lon="-4.27337">
        <ele>12</ele>
        <time>2014-09-23T13:34:11Z</time>
      </trkpt>
      <trkpt lat="48.64669" lon="-4.27344">
        <ele>12</ele>
        <time>2014-09-23T13:34:17Z</time>
      </trkpt>
      <trkpt lat="48.64667" lon="-4.27351">
        <ele>12</ele>
        <time>2014-09-23T13:34:22Z</time>
      </trkpt>
      <trkpt lat="48.64664" lon="-4.27358">
        <ele>12</ele>
        <time>2014-09-23T13:34:27Z</time>
      </trkpt>
      <trkpt lat="48.64663" lon="-4.27365">
        <ele>12</ele>
        <time>2014-09-23T13:34:32Z</time>
      </trkpt>
      <trkpt lat="48.6466" lon="-4.27373">
        <ele>12</ele>
        <time>2014-09-23T13:34:38Z</time>
      </trkpt>
      <trkpt lat="48.64658" lon="-4.27378">
        <ele>12</ele>
        <time>2014-09-23T13:34:43Z</time>
      </trkpt>
      <trkpt lat="48.64652" lon="-4.27385">
        <ele>12</ele>
        <time>2014-09-23T13:34:49Z</time>
      </trkpt>
      <trkpt lat="48.64648" lon="-4.27392">
        <ele>11</ele>
        <time>2014-09-23T13:34:55Z</time>
      </trkpt>
      <trkpt lat="48.64643" lon="-4.27396">
        <ele>11</ele>
        <time>2014-09-23T13:35:00Z</time>
      </trkpt>
      <trkpt lat="48.64637" lon="-4.27401">
        <ele>11</ele>
        <time>2014-09-23T13:35:06Z</time>
      </trkpt>
      <trkpt lat="48.64632" lon="-4.27405">
        <ele>11</ele>
        <time>2014-09-23T13:35:12Z</time>
      </trkpt>
      <trkpt lat="48.64629" lon="-4.27407">
        <ele>11</ele>
        <time>2014-09-23T13:35:18Z</time>
      </trkpt>
      <trkpt lat="48.64624" lon="-4.27411">
        <ele>11</ele>
        <time>2014-09-23T13:35:23Z</time>
      </trkpt>
      <trkpt lat="48.64619" lon="-4.27414">
        <ele>11</ele>
        <time>2014-09-23T13:35:28Z</time>
      </trkpt>
      <trkpt lat="48.64613" lon="-4.27418">
        <ele>11</ele>
        <time>2014-09-23T13:35:34Z</time>
      </trkpt>
      <trkpt lat="48.64608" lon="-4.27425">
        <ele>11</ele>
        <time>2014-09-23T13:35:40Z</time>
      </trkpt>
      <trkpt lat="48.64604" lon="-4.27431">
        <ele>11</ele>
        <time>2014-09-23T13:35:45Z</time>
      </trkpt>
      <trkpt lat="48.64598" lon="-4.27436">
        <ele>11</ele>
        <time>2014-09-23T13:35:51Z</time>
      </trkpt>
      <trkpt lat="48.64593" lon="-4.2744">
        <ele>11</ele>
        <time>2014-09-23T13:35:57Z</time>
      </trkpt>
      <trkpt lat="48.64587" lon="-4.27446">
        <ele>11</ele>
        <time>2014-09-23T13:36:03Z</time>
      </trkpt>
      <trkpt lat="48.64583" lon="-4.2745">
        <ele>11</ele>
        <time>2014-09-23T13:36:10Z</time>
      </trkpt>
      <trkpt lat="48.64579" lon="-4.27454">
        <ele>11</ele>
        <time>2014-09-23T13:36:15Z</time>
      </trkpt>
      <trkpt lat="48.64573" lon="-4.27459">
        <ele>11</ele>
        <time>2014-09-23T13:36:21Z</time>
      </trkpt>
      <trkpt lat="48.64567" lon="-4.2746">
        <ele>11</ele>
        <time>2014-09-23T13:36:27Z</time>
      </trkpt>
      <trkpt lat="48.64562" lon="-4.2746">
        <ele>11</ele>
        <time>2014-09-23T13:36:32Z</time>
      </trkpt>
      <trkpt lat="48.64556" lon="-4.27462">
        <ele>11</ele>
        <time>2014-09-23T13:36:38Z</time>
      </trkpt>
      <trkpt lat="48.64551" lon="-4.27464">
        <ele>11</ele>
        <time>2014-09-23T13:36:43Z</time>
      </trkpt>
      <trkpt lat="48.64545" lon="-4.27465">
        <ele>11</ele>
        <time>2014-09-23T13:36:48Z</time>
      </trkpt>
      <trkpt lat="48.6454" lon="-4.27468">
        <ele>11</ele>
        <time>2014-09-23T13:36:54Z</time>
      </trkpt>
      <trkpt lat="48.64535" lon="-4.27475">
        <ele>12</ele>
        <time>2014-09-23T13:37:00Z</time>
      </trkpt>
      <trkpt lat="48.64531" lon="-4.27482">
        <ele>11</ele>
        <time>2014-09-23T13:37:06Z</time>
      </trkpt>
      <trkpt lat="48.64529" lon="-4.27488">
        <ele>11</ele>
        <time>2014-09-23T13:37:11Z</time>
      </trkpt>
      <trkpt lat="48.64527" lon="-4.27491">
        <ele>12</ele>
        <time>2014-09-23T13:37:16Z</time>
      </trkpt>
      <trkpt lat="48.64524" lon="-4.27496">
        <ele>12</ele>
        <time>2014-09-23T13:37:21Z</time>
      </trkpt>
      <trkpt lat="48.64521" lon="-4.27501">
        <ele>12</ele>
        <time>2014-09-23T13:37:27Z</time>
      </trkpt>
      <trkpt lat="48.64515" lon="-4.27506">
        <ele>12</ele>
        <time>2014-09-23T13:37:33Z</time>
      </trkpt>
      <trkpt lat="48.64511" lon="-4.27511">
        <ele>12</ele>
        <time>2014-09-23T13:37:38Z</time>
      </trkpt>
      <trkpt lat="48.64507" lon="-4.27515">
        <ele>12</ele>
        <time>2014-09-23T13:37:44Z</time>
      </trkpt>
      <trkpt lat="48.64507" lon="-4.27515">
        <ele>12</ele>
        <time>2014-09-23T13:37:50Z</time>
      </trkpt>
      <trkpt lat="48.64505" lon="-4.27517">
        <ele>12</ele>
        <time>2014-09-23T13:37:55Z</time>
      </trkpt>
      <trkpt lat="48.645" lon="-4.27522">
        <ele>12</ele>
        <time>2014-09-23T13:38:01Z</time>
      </trkpt>
      <trkpt lat="48.64497" lon="-4.27528">
        <ele>12</ele>
        <time>2014-09-23T13:38:06Z</time>
      </trkpt>
      <trkpt lat="48.64493" lon="-4.27534">
        <ele>12</ele>
        <time>2014-09-23T13:38:11Z</time>
      </trkpt>
      <trkpt lat="48.64488" lon="-4.2754">
        <ele>11</ele>
        <time>2014-09-23T13:38:17Z</time>
      </trkpt>
      <trkpt lat="48.64483" lon="-4.27546">
        <ele>12</ele>
        <time>2014-09-23T13:38:23Z</time>
      </trkpt>
      <trkpt lat="48.64479" lon="-4.27551">
        <ele>12</ele>
        <time>2014-09-23T13:38:28Z</time>
      </trkpt>
      <trkpt lat="48.64475" lon="-4.27556">
        <ele>12</ele>
        <time>2014-09-23T13:38:33Z</time>
      </trkpt>
      <trkpt lat="48.64471" lon="-4.27561">
        <ele>11</ele>
        <time>2014-09-23T13:38:38Z</time>
      </trkpt>
      <trkpt lat="48.64467" lon="-4.27567">
        <ele>12</ele>
        <time>2014-09-23T13:38:44Z</time>
      </trkpt>
      <trkpt lat="48.64463" lon="-4.27573">
        <ele>12</ele>
        <time>2014-09-23T13:38:49Z</time>
      </trkpt>
      <trkpt lat="48.64459" lon="-4.27579">
        <ele>12</ele>
        <time>2014-09-23T13:38:55Z</time>
      </trkpt>
      <trkpt lat="48.64457" lon="-4.27585">
        <ele>12</ele>
        <time>2014-09-23T13:39:00Z</time>
      </trkpt>
      <trkpt lat="48.64454" lon="-4.27591">
        <ele>12</ele>
        <time>2014-09-23T13:39:06Z</time>
      </trkpt>
      <trkpt lat="48.64451" lon="-4.27598">
        <ele>12</ele>
        <time>2014-09-23T13:39:12Z</time>
      </trkpt>
      <trkpt lat="48.64448" lon="-4.27605">
        <ele>12</ele>
        <time>2014-09-23T13:39:18Z</time>
      </trkpt>
      <trkpt lat="48.64445" lon="-4.27614">
        <ele>12</ele>
        <time>2014-09-23T13:39:24Z</time>
      </trkpt>
      <trkpt lat="48.64442" lon="-4.27622">
        <ele>12</ele>
        <time>2014-09-23T13:39:30Z</time>
      </trkpt>
      <trkpt lat="48.64441" lon="-4.27629">
        <ele>12</ele>
        <time>2014-09-23T13:39:36Z</time>
      </trkpt>
      <trkpt lat="48.64439" lon="-4.27632">
        <ele>11</ele>
        <time>2014-09-23T13:39:42Z</time>
      </trkpt>
      <trkpt lat="48.64438" lon="-4.27636">
        <ele>11</ele>
        <time>2014-09-23T13:39:47Z</time>
      </trkpt>
      <trkpt lat="48.64438" lon="-4.27641">
        <ele>11</ele>
        <time>2014-09-23T13:39:53Z</time>
      </trkpt>
      <trkpt lat="48.64439" lon="-4.27645">
        <ele>11</ele>
        <time>2014-09-23T13:39:59Z</time>
      </trkpt>
      <trkpt lat="48.64439" lon="-4.27649">
        <ele>12</ele>
        <time>2014-09-23T13:40:04Z</time>
      </trkpt>
      <trkpt lat="48.64435" lon="-4.27652">
        <ele>13</ele>
        <time>2014-09-23T13:40:09Z</time>
      </trkpt>
      <trkpt lat="48.6443" lon="-4.27655">
        <ele>12</ele>
        <time>2014-09-23T13:40:15Z</time>
      </trkpt>
      <trkpt lat="48.64425" lon="-4.27656">
        <ele>12</ele>
        <time>2014-09-23T13:40:20Z</time>
      </trkpt>
      <trkpt lat="48.6442" lon="-4.27659">
        <ele>12</ele>
        <time>2014-09-23T13:40:25Z</time>
      </trkpt>
      <trkpt lat="48.64415" lon="-4.27662">
        <ele>12</ele>
        <time>2014-09-23T13:40:31Z</time>
      </trkpt>
      <trkpt lat="48.64411" lon="-4.27665">
        <ele>12</ele>
        <time>2014-09-23T13:40:36Z</time>
      </trkpt>
      <trkpt lat="48.64408" lon="-4.27667">
        <ele>12</ele>
        <time>2014-09-23T13:40:41Z</time>
      </trkpt>
      <trkpt lat="48.64408" lon="-4.27667">
        <ele>13</ele>
        <time>2014-09-23T13:40:47Z</time>
      </trkpt>
      <trkpt lat="48.64406" lon="-4.27669">
        <ele>12</ele>
        <time>2014-09-23T13:40:53Z</time>
      </trkpt>
      <trkpt lat="48.64402" lon="-4.27673">
        <ele>12</ele>
        <time>2014-09-23T13:40:58Z</time>
      </trkpt>
      <trkpt lat="48.64398" lon="-4.27676">
        <ele>13</ele>
        <time>2014-09-23T13:41:04Z</time>
      </trkpt>
      <trkpt lat="48.64395" lon="-4.27681">
        <ele>13</ele>
        <time>2014-09-23T13:41:09Z</time>
      </trkpt>
      <trkpt lat="48.6439" lon="-4.27686">
        <ele>12</ele>
        <time>2014-09-23T13:41:15Z</time>
      </trkpt>
      <trkpt lat="48.64386" lon="-4.27692">
        <ele>12</ele>
        <time>2014-09-23T13:41:21Z</time>
      </trkpt>
      <trkpt lat="48.64381" lon="-4.27697">
        <ele>12</ele>
        <time>2014-09-23T13:41:27Z</time>
      </trkpt>
      <trkpt lat="48.64379" lon="-4.27704">
        <ele>12</ele>
        <time>2014-09-23T13:41:33Z</time>
      </trkpt>
      <trkpt lat="48.64378" lon="-4.2771">
        <ele>13</ele>
        <time>2014-09-23T13:41:38Z</time>
      </trkpt>
      <trkpt lat="48.64376" lon="-4.27715">
        <ele>13</ele>
        <time>2014-09-23T13:41:43Z</time>
      </trkpt>
      <trkpt lat="48.64373" lon="-4.27721">
        <ele>12</ele>
        <time>2014-09-23T13:41:49Z</time>
      </trkpt>
      <trkpt lat="48.64368" lon="-4.27725">
        <ele>13</ele>
        <time>2014-09-23T13:41:55Z</time>
      </trkpt>
      <trkpt lat="48.64365" lon="-4.27727">
        <ele>13</ele>
        <time>2014-09-23T13:42:00Z</time>
      </trkpt>
      <trkpt lat="48.64361" lon="-4.27727">
        <ele>13</ele>
        <time>2014-09-23T13:42:05Z</time>
      </trkpt>
      <trkpt lat="48.64357" lon="-4.27725">
        <ele>13</ele>
        <time>2014-09-23T13:42:11Z</time>
      </trkpt>
      <trkpt lat="48.64355" lon="-4.27721">
        <ele>12</ele>
        <time>2014-09-23T13:42:16Z</time>
      </trkpt>
      <trkpt lat="48.64354" lon="-4.27717">
        <ele>12</ele>
        <time>2014-09-23T13:42:22Z</time>
      </trkpt>
      <trkpt lat="48.64351" lon="-4.27712">
        <ele>13</ele>
        <time>2014-09-23T13:42:28Z</time>
      </trkpt>
      <trkpt lat="48.64346" lon="-4.27708">
        <ele>12</ele>
        <time>2014-09-23T13:42:34Z</time>
      </trkpt>
      <trkpt lat="48.64341" lon="-4.27707">
        <ele>12</ele>
        <time>2014-09-23T13:42:40Z</time>
      </trkpt>
      <trkpt lat="48.64334" lon="-4.27706">
        <ele>12</ele>
        <time>2014-09-23T13:42:46Z</time>
      </trkpt>
      <trkpt lat="48.6433" lon="-4.27705">
        <ele>12</ele>
        <time>2014-09-23T13:42:51Z</time>
      </trkpt>
      <trkpt lat="48.64323" lon="-4.27702">
        <ele>12</ele>
        <time>2014-09-23T13:42:57Z</time>
      </trkpt>
      <trkpt lat="48.64318" lon="-4.277">
        <ele>12</ele>
        <time>2014-09-23T13:43:02Z</time>
      </trkpt>
      <trkpt lat="48.64312" lon="-4.27699">
        <ele>12</ele>
        <time>2014-09-23T13:43:08Z</time>
      </trkpt>
      <trkpt lat="48.64307" lon="-4.27698">
        <ele>12</ele>
        <time>2014-09-23T13:43:13Z</time>
      </trkpt>
      <trkpt lat="48.64303" lon="-4.27695">
        <ele>12</ele>
        <time>2014-09-23T13:43:18Z</time>
      </trkpt>
      <trkpt lat="48.64301" lon="-4.27693">
        <ele>12</ele>
        <time>2014-09-23T13:43:23Z</time>
      </trkpt>
      <trkpt lat="48.64297" lon="-4.2769">
        <ele>12</ele>
        <time>2014-09-23T13:43:29Z</time>
      </trkpt>
      <trkpt lat="48.64293" lon="-4.27688">
        <ele>12</ele>
        <time>2014-09-23T13:43:35Z</time>
      </trkpt>
      <trkpt lat="48.64293" lon="-4.27686">
        <ele>12</ele>
        <time>2014-09-23T13:43:40Z</time>
      </trkpt>
      <trkpt lat="48.64288" lon="-4.27684">
        <ele>12</ele>
        <time>2014-09-23T13:43:46Z</time>
      </trkpt>
      <trkpt lat="48.64286" lon="-4.27683">
        <ele>12</ele>
        <time>2014-09-23T13:43:52Z</time>
      </trkpt>
      <trkpt lat="48.6429" lon="-4.27683">
        <ele>12</ele>
        <time>2014-09-23T13:43:57Z</time>
      </trkpt>
      <trkpt lat="48.64296" lon="-4.27679">
        <ele>12</ele>
        <time>2014-09-23T13:44:03Z</time>
      </trkpt>
      <trkpt lat="48.64296" lon="-4.27675">
        <ele>12</ele>
        <time>2014-09-23T13:44:09Z</time>
      </trkpt>
      <trkpt lat="48.64295" lon="-4.27674">
        <ele>12</ele>
        <time>2014-09-23T13:44:14Z</time>
      </trkpt>
      <trkpt lat="48.64294" lon="-4.27672">
        <ele>11</ele>
        <time>2014-09-23T13:44:20Z</time>
      </trkpt>
      <trkpt lat="48.64292" lon="-4.27668">
        <ele>12</ele>
        <time>2014-09-23T13:44:25Z</time>
      </trkpt>
      <trkpt lat="48.64291" lon="-4.27665">
        <ele>12</ele>
        <time>2014-09-23T13:44:30Z</time>
      </trkpt>
      <trkpt lat="48.6429" lon="-4.27663">
        <ele>11</ele>
        <time>2014-09-23T13:44:36Z</time>
      </trkpt>
      <trkpt lat="48.64289" lon="-4.27661">
        <ele>12</ele>
        <time>2014-09-23T13:44:42Z</time>
      </trkpt>
      <trkpt lat="48.64288" lon="-4.27659">
        <ele>12</ele>
        <time>2014-09-23T13:44:47Z</time>
      </trkpt>
      <trkpt lat="48.6429" lon="-4.27659">
        <ele>13</ele>
        <time>2014-09-23T13:44:53Z</time>
      </trkpt>
      <trkpt lat="48.64291" lon="-4.27661">
        <ele>12</ele>
        <time>2014-09-23T13:44:58Z</time>
      </trkpt>
      <trkpt lat="48.64295" lon="-4.27661">
        <ele>12</ele>
        <time>2014-09-23T13:45:03Z</time>
      </trkpt>
      <trkpt lat="48.64298" lon="-4.27657">
        <ele>12</ele>
        <time>2014-09-23T13:45:09Z</time>
      </trkpt>
      <trkpt lat="48.64299" lon="-4.27655">
        <ele>12</ele>
        <time>2014-09-23T13:45:15Z</time>
      </trkpt>
      <trkpt lat="48.64302" lon="-4.27652">
        <ele>12</ele>
        <time>2014-09-23T13:45:20Z</time>
      </trkpt>
      <trkpt lat="48.64304" lon="-4.27647">
        <ele>12</ele>
        <time>2014-09-23T13:45:25Z</time>
      </trkpt>
      <trkpt lat="48.64304" lon="-4.27646">
        <ele>12</ele>
        <time>2014-09-23T13:45:31Z</time>
      </trkpt>
      <trkpt lat="48.64304" lon="-4.27645">
        <ele>11</ele>
        <time>2014-09-23T13:45:36Z</time>
      </trkpt>
      <trkpt lat="48.64304" lon="-4.27643">
        <ele>11</ele>
        <time>2014-09-23T13:45:41Z</time>
      </trkpt>
      <trkpt lat="48.64303" lon="-4.27642">
        <ele>10</ele>
        <time>2014-09-23T13:45:47Z</time>
      </trkpt>
      <trkpt lat="48.64302" lon="-4.2764">
        <ele>10</ele>
        <time>2014-09-23T13:45:52Z</time>
      </trkpt>
      <trkpt lat="48.64299" lon="-4.27639">
        <ele>10</ele>
        <time>2014-09-23T13:45:58Z</time>
      </trkpt>
      <trkpt lat="48.64298" lon="-4.27638">
        <ele>10</ele>
        <time>2014-09-23T13:46:03Z</time>
      </trkpt>
      <trkpt lat="48.64299" lon="-4.27637">
        <ele>10</ele>
        <time>2014-09-23T13:46:08Z</time>
      </trkpt>
      <trkpt lat="48.643" lon="-4.27635">
        <ele>10</ele>
        <time>2014-09-23T13:46:14Z</time>
      </trkpt>
      <trkpt lat="48.64301" lon="-4.27636">
        <ele>10</ele>
        <time>2014-09-23T13:46:20Z</time>
      </trkpt>
      <trkpt lat="48.64301" lon="-4.27636">
        <ele>10</ele>
        <time>2014-09-23T13:46:25Z</time>
      </trkpt>
      <trkpt lat="48.64302" lon="-4.27636">
        <ele>10</ele>
        <time>2014-09-23T13:46:31Z</time>
      </trkpt>
      <trkpt lat="48.64302" lon="-4.27638">
        <ele>11</ele>
        <time>2014-09-23T13:46:36Z</time>
      </trkpt>
      <trkpt lat="48.64302" lon="-4.27639">
        <ele>11</ele>
        <time>2014-09-23T13:46:42Z</time>
      </trkpt>
      <trkpt lat="48.64304" lon="-4.27644">
        <ele>12</ele>
        <time>2014-09-23T13:46:47Z</time>
      </trkpt>
      <trkpt lat="48.64308" lon="-4.27647">
        <ele>12</ele>
        <time>2014-09-23T13:46:53Z</time>
      </trkpt>
      <trkpt lat="48.64311" lon="-4.27646">
        <ele>12</ele>
        <time>2014-09-23T13:46:58Z</time>
      </trkpt>
      <trkpt lat="48.64314" lon="-4.27646">
        <ele>12</ele>
        <time>2014-09-23T13:47:04Z</time>
      </trkpt>
      <trkpt lat="48.64315" lon="-4.27647">
        <ele>12</ele>
        <time>2014-09-23T13:47:09Z</time>
      </trkpt>
      <trkpt lat="48.64319" lon="-4.27649">
        <ele>12</ele>
        <time>2014-09-23T13:47:15Z</time>
      </trkpt>
      <trkpt lat="48.64323" lon="-4.27649">
        <ele>12</ele>
        <time>2014-09-23T13:47:21Z</time>
      </trkpt>
      <trkpt lat="48.64323" lon="-4.27647">
        <ele>12</ele>
        <time>2014-09-23T13:47:27Z</time>
      </trkpt>
      <trkpt lat="48.64324" lon="-4.27646">
        <ele>12</ele>
        <time>2014-09-23T13:47:33Z</time>
      </trkpt>
      <trkpt lat="48.64323" lon="-4.27645">
        <ele>11</ele>
        <time>2014-09-23T13:47:38Z</time>
      </trkpt>
      <trkpt lat="48.64324" lon="-4.27641">
        <ele>10</ele>
        <time>2014-09-23T13:47:44Z</time>
      </trkpt>
      <trkpt lat="48.64324" lon="-4.2764">
        <ele>10</ele>
        <time>2014-09-23T13:47:50Z</time>
      </trkpt>
      <trkpt lat="48.64323" lon="-4.27639">
        <ele>10</ele>
        <time>2014-09-23T13:47:57Z</time>
      </trkpt>
      <trkpt lat="48.64324" lon="-4.27639">
        <ele>10</ele>
        <time>2014-09-23T13:48:03Z</time>
      </trkpt>
      <trkpt lat="48.64325" lon="-4.27639">
        <ele>10</ele>
        <time>2014-09-23T13:48:10Z</time>
      </trkpt>
      <trkpt lat="48.64325" lon="-4.27638">
        <ele>10</ele>
        <time>2014-09-23T13:48:15Z</time>
      </trkpt>
      <trkpt lat="48.64324" lon="-4.27638">
        <ele>10</ele>
        <time>2014-09-23T13:48:21Z</time>
      </trkpt>
      <trkpt lat="48.64322" lon="-4.27638">
        <ele>10</ele>
        <time>2014-09-23T13:48:26Z</time>
      </trkpt>
      <trkpt lat="48.64321" lon="-4.27638">
        <ele>10</ele>
        <time>2014-09-23T13:48:31Z</time>
      </trkpt>
      <trkpt lat="48.64319" lon="-4.27636">
        <ele>10</ele>
        <time>2014-09-23T13:48:37Z</time>
      </trkpt>
      <trkpt lat="48.64318" lon="-4.27637">
        <ele>10</ele>
        <time>2014-09-23T13:48:42Z</time>
      </trkpt>
      <trkpt lat="48.64318" lon="-4.27638">
        <ele>10</ele>
        <time>2014-09-23T13:48:47Z</time>
      </trkpt>
      <trkpt lat="48.64317" lon="-4.27639">
        <ele>10</ele>
        <time>2014-09-23T13:48:53Z</time>
      </trkpt>
      <trkpt lat="48.64314" lon="-4.27638">
        <ele>10</ele>
        <time>2014-09-23T13:48:59Z</time>
      </trkpt>
      <trkpt lat="48.64313" lon="-4.27639">
        <ele>10</ele>
        <time>2014-09-23T13:49:04Z</time>
      </trkpt>
      <trkpt lat="48.64313" lon="-4.27639">
        <ele>10</ele>
        <time>2014-09-23T13:49:10Z</time>
      </trkpt>
      <trkpt lat="48.64312" lon="-4.27638">
        <ele>10</ele>
        <time>2014-09-23T13:49:16Z</time>
      </trkpt>
      <trkpt lat="48.64311" lon="-4.27637">
        <ele>10</ele>
        <time>2014-09-23T13:49:22Z</time>
      </trkpt>
      <trkpt lat="48.6431" lon="-4.27637">
        <ele>10</ele>
        <time>2014-09-23T13:49:27Z</time>
      </trkpt>
      <trkpt lat="48.64308" lon="-4.27636">
        <ele>10</ele>
        <time>2014-09-23T13:49:33Z</time>
      </trkpt>
      <trkpt lat="48.64306" lon="-4.27639">
        <ele>10</ele>
        <time>2014-09-23T13:49:38Z</time>
      </trkpt>
      <trkpt lat="48.64305" lon="-4.27642">
        <ele>11</ele>
        <time>2014-09-23T13:49:43Z</time>
      </trkpt>
      <trkpt lat="48.64305" lon="-4.27643">
        <ele>12</ele>
        <time>2014-09-23T13:49:49Z</time>
      </trkpt>
      <trkpt lat="48.64305" lon="-4.27644">
        <ele>11</ele>
        <time>2014-09-23T13:49:55Z</time>
      </trkpt>
      <trkpt lat="48.64305" lon="-4.27644">
        <ele>11</ele>
        <time>2014-09-23T13:50:00Z</time>
      </trkpt>
      <trkpt lat="48.64306" lon="-4.27648">
        <ele>12</ele>
        <time>2014-09-23T13:50:06Z</time>
      </trkpt>
      <trkpt lat="48.64307" lon="-4.27648">
        <ele>13</ele>
        <time>2014-09-23T13:50:11Z</time>
      </trkpt>
      <trkpt lat="48.64305" lon="-4.27646">
        <ele>12</ele>
        <time>2014-09-23T13:50:17Z</time>
      </trkpt>
      <trkpt lat="48.64305" lon="-4.27643">
        <ele>11</ele>
        <time>2014-09-23T13:50:23Z</time>
      </trkpt>
      <trkpt lat="48.64306" lon="-4.27641">
        <ele>10</ele>
        <time>2014-09-23T13:50:28Z</time>
      </trkpt>
      <trkpt lat="48.64308" lon="-4.27641">
        <ele>11</ele>
        <time>2014-09-23T13:50:34Z</time>
      </trkpt>
      <trkpt lat="48.64309" lon="-4.27639">
        <ele>10</ele>
        <time>2014-09-23T13:50:39Z</time>
      </trkpt>
      <trkpt lat="48.64311" lon="-4.27639">
        <ele>11</ele>
        <time>2014-09-23T13:50:44Z</time>
      </trkpt>
      <trkpt lat="48.64312" lon="-4.27639">
        <ele>10</ele>
        <time>2014-09-23T13:50:49Z</time>
      </trkpt>
      <trkpt lat="48.64314" lon="-4.2764">
        <ele>10</ele>
        <time>2014-09-23T13:50:56Z</time>
      </trkpt>
      <trkpt lat="48.64316" lon="-4.2764">
        <ele>10</ele>
        <time>2014-09-23T13:51:02Z</time>
      </trkpt>
      <trkpt lat="48.64317" lon="-4.2764">
        <ele>11</ele>
        <time>2014-09-23T13:51:08Z</time>
      </trkpt>
      <trkpt lat="48.64317" lon="-4.27639">
        <ele>10</ele>
        <time>2014-09-23T13:51:14Z</time>
      </trkpt>
      <trkpt lat="48.64318" lon="-4.27638">
        <ele>10</ele>
        <time>2014-09-23T13:51:20Z</time>
      </trkpt>
      <trkpt lat="48.64319" lon="-4.27638">
        <ele>10</ele>
        <time>2014-09-23T13:51:25Z</time>
      </trkpt>
      <trkpt lat="48.64319" lon="-4.27639">
        <ele>11</ele>
        <time>2014-09-23T13:51:32Z</time>
      </trkpt>
      <trkpt lat="48.64319" lon="-4.2764">
        <ele>11</ele>
        <time>2014-09-23T13:51:37Z</time>
      </trkpt>
      <trkpt lat="48.64319" lon="-4.27642">
        <ele>10</ele>
        <time>2014-09-23T13:51:43Z</time>
      </trkpt>
      <trkpt lat="48.64319" lon="-4.2764">
        <ele>11</ele>
        <time>2014-09-23T13:51:49Z</time>
      </trkpt>
      <trkpt lat="48.6432" lon="-4.2764">
        <ele>10</ele>
        <time>2014-09-23T13:51:55Z</time>
      </trkpt>
      <trkpt lat="48.64319" lon="-4.27637">
        <ele>11</ele>
        <time>2014-09-23T13:52:00Z</time>
      </trkpt>
      <trkpt lat="48.6432" lon="-4.27636">
        <ele>12</ele>
        <time>2014-09-23T13:52:05Z</time>
      </trkpt>
      <trkpt lat="48.6432" lon="-4.27634">
        <ele>12</ele>
        <time>2014-09-23T13:52:11Z</time>
      </trkpt>
      <trkpt lat="48.64321" lon="-4.27635">
        <ele>12</ele>
        <time>2014-09-23T13:52:16Z</time>
      </trkpt>
      <trkpt lat="48.64323" lon="-4.27634">
        <ele>12</ele>
        <time>2014-09-23T13:52:22Z</time>
      </trkpt>
      <trkpt lat="48.64324" lon="-4.27631">
        <ele>13</ele>
        <time>2014-09-23T13:52:27Z</time>
      </trkpt>
      <trkpt lat="48.64324" lon="-4.27631">
        <ele>13</ele>
        <time>2014-09-23T13:52:33Z</time>
      </trkpt>
      <trkpt lat="48.64324" lon="-4.2763">
        <ele>14</ele>
        <time>2014-09-23T13:52:38Z</time>
      </trkpt>
      <trkpt lat="48.64324" lon="-4.27629">
        <ele>13</ele>
        <time>2014-09-23T13:52:44Z</time>
      </trkpt>
      <trkpt lat="48.64323" lon="-4.27626">
        <ele>13</ele>
        <time>2014-09-23T13:52:50Z</time>
      </trkpt>
      <trkpt lat="48.64323" lon="-4.27623">
        <ele>13</ele>
        <time>2014-09-23T13:52:56Z</time>
      </trkpt>
      <trkpt lat="48.64322" lon="-4.27621">
        <ele>12</ele>
        <time>2014-09-23T13:53:01Z</time>
      </trkpt>
      <trkpt lat="48.6432" lon="-4.27622">
        <ele>12</ele>
        <time>2014-09-23T13:53:06Z</time>
      </trkpt>
      <trkpt lat="48.64317" lon="-4.27623">
        <ele>12</ele>
        <time>2014-09-23T13:53:12Z</time>
      </trkpt>
      <trkpt lat="48.64317" lon="-4.27622">
        <ele>12</ele>
        <time>2014-09-23T13:53:17Z</time>
      </trkpt>
      <trkpt lat="48.64316" lon="-4.27623">
        <ele>12</ele>
        <time>2014-09-23T13:53:24Z</time>
      </trkpt>
      <trkpt lat="48.64315" lon="-4.27623">
        <ele>12</ele>
        <time>2014-09-23T13:53:29Z</time>
      </trkpt>
      <trkpt lat="48.64315" lon="-4.27625">
        <ele>12</ele>
        <time>2014-09-23T13:53:35Z</time>
      </trkpt>
      <trkpt lat="48.64315" lon="-4.27625">
        <ele>13</ele>
        <time>2014-09-23T13:53:40Z</time>
      </trkpt>
      <trkpt lat="48.64314" lon="-4.27628">
        <ele>13</ele>
        <time>2014-09-23T13:53:45Z</time>
      </trkpt>
      <trkpt lat="48.64314" lon="-4.27629">
        <ele>13</ele>
        <time>2014-09-23T13:53:51Z</time>
      </trkpt>
      <trkpt lat="48.64314" lon="-4.2763">
        <ele>12</ele>
        <time>2014-09-23T13:53:56Z</time>
      </trkpt>
      <trkpt lat="48.64314" lon="-4.27629">
        <ele>12</ele>
        <time>2014-09-23T13:54:02Z</time>
      </trkpt>
      <trkpt lat="48.64312" lon="-4.27628">
        <ele>12</ele>
        <time>2014-09-23T13:54:08Z</time>
      </trkpt>
      <trkpt lat="48.64313" lon="-4.27629">
        <ele>12</ele>
        <time>2014-09-23T13:54:14Z</time>
      </trkpt>
      <trkpt lat="48.64313" lon="-4.27629">
        <ele>12</ele>
        <time>2014-09-23T13:54:19Z</time>
      </trkpt>
      <trkpt lat="48.64314" lon="-4.27629">
        <ele>12</ele>
        <time>2014-09-23T13:54:24Z</time>
      </trkpt>
      <trkpt lat="48.64315" lon="-4.2763">
        <ele>12</ele>
        <time>2014-09-23T13:54:30Z</time>
      </trkpt>
      <trkpt lat="48.64316" lon="-4.2763">
        <ele>12</ele>
        <time>2014-09-23T13:54:36Z</time>
      </trkpt>
      <trkpt lat="48.64317" lon="-4.2763">
        <ele>12</ele>
        <time>2014-09-23T13:54:41Z</time>
      </trkpt>
      <trkpt lat="48.64317" lon="-4.2763">
        <ele>12</ele>
        <time>2014-09-23T13:54:46Z</time>
      </trkpt>
      <trkpt lat="48.64318" lon="-4.2763">
        <ele>11</ele>
        <time>2014-09-23T13:54:52Z</time>
      </trkpt>
      <trkpt lat="48.6432" lon="-4.27631">
        <ele>12</ele>
        <time>2014-09-23T13:54:57Z</time>
      </trkpt>
      <trkpt lat="48.6432" lon="-4.27632">
        <ele>12</ele>
        <time>2014-09-23T13:55:03Z</time>
      </trkpt>
      <trkpt lat="48.6432" lon="-4.27632">
        <ele>13</ele>
        <time>2014-09-23T13:55:08Z</time>
      </trkpt>
      <trkpt lat="48.64321" lon="-4.27632">
        <ele>13</ele>
        <time>2014-09-23T13:55:14Z</time>
      </trkpt>
      <trkpt lat="48.64321" lon="-4.27632">
        <ele>13</ele>
        <time>2014-09-23T13:55:20Z</time>
      </trkpt>
      <trkpt lat="48.64321" lon="-4.27632">
        <ele>13</ele>
        <time>2014-09-23T13:55:27Z</time>
      </trkpt>
      <trkpt lat="48.64322" lon="-4.27633">
        <ele>12</ele>
        <time>2014-09-23T13:55:32Z</time>
      </trkpt>
      <trkpt lat="48.64322" lon="-4.27632">
        <ele>12</ele>
        <time>2014-09-23T13:55:38Z</time>
      </trkpt>
      <trkpt lat="48.64321" lon="-4.27631">
        <ele>12</ele>
        <time>2014-09-23T13:55:43Z</time>
      </trkpt>
      <trkpt lat="48.6432" lon="-4.2763">
        <ele>12</ele>
        <time>2014-09-23T13:55:49Z</time>
      </trkpt>
      <trkpt lat="48.6432" lon="-4.27631">
        <ele>12</ele>
        <time>2014-09-23T13:55:55Z</time>
      </trkpt>
      <trkpt lat="48.6432" lon="-4.2763">
        <ele>12</ele>
        <time>2014-09-23T13:56:01Z</time>
      </trkpt>
      <trkpt lat="48.6432" lon="-4.27632">
        <ele>12</ele>
        <time>2014-09-23T13:56:07Z</time>
      </trkpt>
      <trkpt lat="48.64319" lon="-4.27633">
        <ele>12</ele>
        <time>2014-09-23T13:56:12Z</time>
      </trkpt>
      <trkpt lat="48.64318" lon="-4.27632">
        <ele>12</ele>
        <time>2014-09-23T13:56:18Z</time>
      </trkpt>
      <trkpt lat="48.64318" lon="-4.27633">
        <ele>13</ele>
        <time>2014-09-23T13:56:24Z</time>
      </trkpt>
      <trkpt lat="48.64318" lon="-4.27632">
        <ele>13</ele>
        <time>2014-09-23T13:56:29Z</time>
      </trkpt>
      <trkpt lat="48.64318" lon="-4.27631">
        <ele>13</ele>
        <time>2014-09-23T13:56:35Z</time>
      </trkpt>
      <trkpt lat="48.6432" lon="-4.27629">
        <ele>13</ele>
        <time>2014-09-23T13:56:41Z</time>
      </trkpt>
      <trkpt lat="48.6432" lon="-4.27628">
        <ele>12</ele>
        <time>2014-09-23T13:56:47Z</time>
      </trkpt>
      <trkpt lat="48.6432" lon="-4.27627">
        <ele>12</ele>
        <time>2014-09-23T13:56:52Z</time>
      </trkpt>
      <trkpt lat="48.64321" lon="-4.27626">
        <ele>12</ele>
        <time>2014-09-23T13:56:59Z</time>
      </trkpt>
      <trkpt lat="48.64322" lon="-4.27628">
        <ele>13</ele>
        <time>2014-09-23T13:57:05Z</time>
      </trkpt>
      <trkpt lat="48.64322" lon="-4.27632">
        <ele>13</ele>
        <time>2014-09-23T13:57:11Z</time>
      </trkpt>
      <trkpt lat="48.6432" lon="-4.27634">
        <ele>12</ele>
        <time>2014-09-23T13:57:17Z</time>
      </trkpt>
      <trkpt lat="48.6432" lon="-4.27635">
        <ele>12</ele>
        <time>2014-09-23T13:57:23Z</time>
      </trkpt>
      <trkpt lat="48.6432" lon="-4.27636">
        <ele>11</ele>
        <time>2014-09-23T13:57:29Z</time>
      </trkpt>
      <trkpt lat="48.64321" lon="-4.27637">
        <ele>10</ele>
        <time>2014-09-23T13:57:35Z</time>
      </trkpt>
      <trkpt lat="48.64321" lon="-4.2764">
        <ele>11</ele>
        <time>2014-09-23T13:57:40Z</time>
      </trkpt>
      <trkpt lat="48.64323" lon="-4.27643">
        <ele>11</ele>
        <time>2014-09-23T13:57:45Z</time>
      </trkpt>
      <trkpt lat="48.64324" lon="-4.27648">
        <ele>12</ele>
        <time>2014-09-23T13:57:51Z</time>
      </trkpt>
      <trkpt lat="48.64324" lon="-4.27656">
        <ele>12</ele>
        <time>2014-09-23T13:57:57Z</time>
      </trkpt>
      <trkpt lat="48.64325" lon="-4.27663">
        <ele>13</ele>
        <time>2014-09-23T13:58:02Z</time>
      </trkpt>
      <trkpt lat="48.64326" lon="-4.27669">
        <ele>13</ele>
        <time>2014-09-23T13:58:07Z</time>
      </trkpt>
      <trkpt lat="48.64327" lon="-4.27677">
        <ele>13</ele>
        <time>2014-09-23T13:58:13Z</time>
      </trkpt>
      <trkpt lat="48.64327" lon="-4.27686">
        <ele>13</ele>
        <time>2014-09-23T13:58:19Z</time>
      </trkpt>
      <trkpt lat="48.64328" lon="-4.27695">
        <ele>12</ele>
        <time>2014-09-23T13:58:25Z</time>
      </trkpt>
      <trkpt lat="48.64328" lon="-4.27702">
        <ele>12</ele>
        <time>2014-09-23T13:58:30Z</time>
      </trkpt>
      <trkpt lat="48.64328" lon="-4.27709">
        <ele>12</ele>
        <time>2014-09-23T13:58:35Z</time>
      </trkpt>
      <trkpt lat="48.64329" lon="-4.27717">
        <ele>12</ele>
        <time>2014-09-23T13:58:41Z</time>
      </trkpt>
      <trkpt lat="48.64328" lon="-4.27725">
        <ele>12</ele>
        <time>2014-09-23T13:58:46Z</time>
      </trkpt>
      <trkpt lat="48.64329" lon="-4.27728">
        <ele>13</ele>
        <time>2014-09-23T13:58:52Z</time>
      </trkpt>
      <trkpt lat="48.6433" lon="-4.27734">
        <ele>12</ele>
        <time>2014-09-23T13:58:57Z</time>
      </trkpt>
      <trkpt lat="48.64333" lon="-4.27741">
        <ele>12</ele>
        <time>2014-09-23T13:59:03Z</time>
      </trkpt>
      <trkpt lat="48.64332" lon="-4.27747">
        <ele>12</ele>
        <time>2014-09-23T13:59:08Z</time>
      </trkpt>
      <trkpt lat="48.64331" lon="-4.27754">
        <ele>13</ele>
        <time>2014-09-23T13:59:13Z</time>
      </trkpt>
      <trkpt lat="48.64331" lon="-4.27762">
        <ele>13</ele>
        <time>2014-09-23T13:59:19Z</time>
      </trkpt>
      <trkpt lat="48.64332" lon="-4.27768">
        <ele>13</ele>
        <time>2014-09-23T13:59:24Z</time>
      </trkpt>
      <trkpt lat="48.64332" lon="-4.27768">
        <ele>13</ele>
        <time>2014-09-23T13:59:33Z</time>
      </trkpt>
      <trkpt lat="48.64332" lon="-4.27772">
        <ele>13</ele>
        <time>2014-09-23T13:59:38Z</time>
      </trkpt>
      <trkpt lat="48.64331" lon="-4.27777">
        <ele>13</ele>
        <time>2014-09-23T13:59:44Z</time>
      </trkpt>
      <trkpt lat="48.6433" lon="-4.27783">
        <ele>13</ele>
        <time>2014-09-23T13:59:49Z</time>
      </trkpt>
      <trkpt lat="48.64328" lon="-4.2779">
        <ele>14</ele>
        <time>2014-09-23T13:59:54Z</time>
      </trkpt>
      <trkpt lat="48.64327" lon="-4.27796">
        <ele>14</ele>
        <time>2014-09-23T14:00:00Z</time>
      </trkpt>
      <trkpt lat="48.64325" lon="-4.27801">
        <ele>14</ele>
        <time>2014-09-23T14:00:05Z</time>
      </trkpt>
      <trkpt lat="48.6432" lon="-4.27803">
        <ele>13</ele>
        <time>2014-09-23T14:00:10Z</time>
      </trkpt>
      <trkpt lat="48.64315" lon="-4.27804">
        <ele>13</ele>
        <time>2014-09-23T14:00:15Z</time>
      </trkpt>
      <trkpt lat="48.64312" lon="-4.27809">
        <ele>14</ele>
        <time>2014-09-23T14:00:20Z</time>
      </trkpt>
      <trkpt lat="48.64308" lon="-4.27816">
        <ele>14</ele>
        <time>2014-09-23T14:00:26Z</time>
      </trkpt>
      <trkpt lat="48.64304" lon="-4.27821">
        <ele>14</ele>
        <time>2014-09-23T14:00:31Z</time>
      </trkpt>
      <trkpt lat="48.643" lon="-4.27829">
        <ele>14</ele>
        <time>2014-09-23T14:00:37Z</time>
      </trkpt>
      <trkpt lat="48.64296" lon="-4.27835">
        <ele>14</ele>
        <time>2014-09-23T14:00:42Z</time>
      </trkpt>
      <trkpt lat="48.64292" lon="-4.27842">
        <ele>14</ele>
        <time>2014-09-23T14:00:48Z</time>
      </trkpt>
      <trkpt lat="48.64288" lon="-4.27848">
        <ele>14</ele>
        <time>2014-09-23T14:00:54Z</time>
      </trkpt>
      <trkpt lat="48.64288" lon="-4.27849">
        <ele>14</ele>
        <time>2014-09-23T14:01:01Z</time>
      </trkpt>
      <trkpt lat="48.64285" lon="-4.27853">
        <ele>14</ele>
        <time>2014-09-23T14:01:06Z</time>
      </trkpt>
      <trkpt lat="48.64282" lon="-4.27857">
        <ele>13</ele>
        <time>2014-09-23T14:01:11Z</time>
      </trkpt>
      <trkpt lat="48.64278" lon="-4.27863">
        <ele>13</ele>
        <time>2014-09-23T14:01:17Z</time>
      </trkpt>
      <trkpt lat="48.64275" lon="-4.27869">
        <ele>14</ele>
        <time>2014-09-23T14:01:23Z</time>
      </trkpt>
      <trkpt lat="48.64271" lon="-4.27875">
        <ele>13</ele>
        <time>2014-09-23T14:01:28Z</time>
      </trkpt>
      <trkpt lat="48.64267" lon="-4.2788">
        <ele>14</ele>
        <time>2014-09-23T14:01:34Z</time>
      </trkpt>
      <trkpt lat="48.64264" lon="-4.27885">
        <ele>13</ele>
        <time>2014-09-23T14:01:39Z</time>
      </trkpt>
      <trkpt lat="48.6426" lon="-4.27891">
        <ele>13</ele>
        <time>2014-09-23T14:01:44Z</time>
      </trkpt>
      <trkpt lat="48.64258" lon="-4.27898">
        <ele>14</ele>
        <time>2014-09-23T14:01:50Z</time>
      </trkpt>
      <trkpt lat="48.64255" lon="-4.27903">
        <ele>14</ele>
        <time>2014-09-23T14:01:55Z</time>
      </trkpt>
      <trkpt lat="48.64252" lon="-4.27908">
        <ele>13</ele>
        <time>2014-09-23T14:02:00Z</time>
      </trkpt>
      <trkpt lat="48.64248" lon="-4.27915">
        <ele>13</ele>
        <time>2014-09-23T14:02:06Z</time>
      </trkpt>
      <trkpt lat="48.64245" lon="-4.27921">
        <ele>13</ele>
        <time>2014-09-23T14:02:11Z</time>
      </trkpt>
      <trkpt lat="48.64241" lon="-4.27927">
        <ele>14</ele>
        <time>2014-09-23T14:02:17Z</time>
      </trkpt>
      <trkpt lat="48.64237" lon="-4.27934">
        <ele>13</ele>
        <time>2014-09-23T14:02:23Z</time>
      </trkpt>
      <trkpt lat="48.64233" lon="-4.2794">
        <ele>13</ele>
        <time>2014-09-23T14:02:29Z</time>
      </trkpt>
      <trkpt lat="48.6423" lon="-4.27946">
        <ele>13</ele>
        <time>2014-09-23T14:02:34Z</time>
      </trkpt>
      <trkpt lat="48.64225" lon="-4.27952">
        <ele>13</ele>
        <time>2014-09-23T14:02:40Z</time>
      </trkpt>
      <trkpt lat="48.64222" lon="-4.27959">
        <ele>13</ele>
        <time>2014-09-23T14:02:46Z</time>
      </trkpt>
      <trkpt lat="48.64218" lon="-4.27964">
        <ele>13</ele>
        <time>2014-09-23T14:02:51Z</time>
      </trkpt>
      <trkpt lat="48.64214" lon="-4.2797">
        <ele>13</ele>
        <time>2014-09-23T14:02:57Z</time>
      </trkpt>
      <trkpt lat="48.6421" lon="-4.27977">
        <ele>13</ele>
        <time>2014-09-23T14:03:03Z</time>
      </trkpt>
      <trkpt lat="48.64207" lon="-4.27982">
        <ele>12</ele>
        <time>2014-09-23T14:03:08Z</time>
      </trkpt>
      <trkpt lat="48.64203" lon="-4.27983">
        <ele>12</ele>
        <time>2014-09-23T14:03:13Z</time>
      </trkpt>
      <trkpt lat="48.64198" lon="-4.27984">
        <ele>13</ele>
        <time>2014-09-23T14:03:18Z</time>
      </trkpt>
      <trkpt lat="48.64194" lon="-4.27985">
        <ele>12</ele>
        <time>2014-09-23T14:03:24Z</time>
      </trkpt>
      <trkpt lat="48.64188" lon="-4.27985">
        <ele>12</ele>
        <time>2014-09-23T14:03:30Z</time>
      </trkpt>
      <trkpt lat="48.64182" lon="-4.27985">
        <ele>12</ele>
        <time>2014-09-23T14:03:36Z</time>
      </trkpt>
      <trkpt lat="48.64177" lon="-4.27984">
        <ele>12</ele>
        <time>2014-09-23T14:03:41Z</time>
      </trkpt>
      <trkpt lat="48.64171" lon="-4.27984">
        <ele>13</ele>
        <time>2014-09-23T14:03:47Z</time>
      </trkpt>
      <trkpt lat="48.64166" lon="-4.27982">
        <ele>12</ele>
        <time>2014-09-23T14:03:52Z</time>
      </trkpt>
      <trkpt lat="48.64159" lon="-4.2798">
        <ele>12</ele>
        <time>2014-09-23T14:03:58Z</time>
      </trkpt>
      <trkpt lat="48.64154" lon="-4.2798">
        <ele>12</ele>
        <time>2014-09-23T14:04:03Z</time>
      </trkpt>
      <trkpt lat="48.64148" lon="-4.27979">
        <ele>12</ele>
        <time>2014-09-23T14:04:09Z</time>
      </trkpt>
      <trkpt lat="48.64143" lon="-4.27978">
        <ele>12</ele>
        <time>2014-09-23T14:04:14Z</time>
      </trkpt>
      <trkpt lat="48.64138" lon="-4.27976">
        <ele>12</ele>
        <time>2014-09-23T14:04:19Z</time>
      </trkpt>
      <trkpt lat="48.64132" lon="-4.27974">
        <ele>12</ele>
        <time>2014-09-23T14:04:25Z</time>
      </trkpt>
      <trkpt lat="48.64127" lon="-4.27972">
        <ele>12</ele>
        <time>2014-09-23T14:04:30Z</time>
      </trkpt>
      <trkpt lat="48.6412" lon="-4.27972">
        <ele>12</ele>
        <time>2014-09-23T14:04:36Z</time>
      </trkpt>
      <trkpt lat="48.64115" lon="-4.27971">
        <ele>12</ele>
        <time>2014-09-23T14:04:41Z</time>
      </trkpt>
      <trkpt lat="48.6411" lon="-4.2797">
        <ele>12</ele>
        <time>2014-09-23T14:04:46Z</time>
      </trkpt>
      <trkpt lat="48.64105" lon="-4.27969">
        <ele>12</ele>
        <time>2014-09-23T14:04:51Z</time>
      </trkpt>
      <trkpt lat="48.641" lon="-4.27969">
        <ele>12</ele>
        <time>2014-09-23T14:04:56Z</time>
      </trkpt>
      <trkpt lat="48.64094" lon="-4.27968">
        <ele>12</ele>
        <time>2014-09-23T14:05:02Z</time>
      </trkpt>
      <trkpt lat="48.64089" lon="-4.27967">
        <ele>12</ele>
        <time>2014-09-23T14:05:07Z</time>
      </trkpt>
      <trkpt lat="48.64082" lon="-4.27965">
        <ele>12</ele>
        <time>2014-09-23T14:05:13Z</time>
      </trkpt>
      <trkpt lat="48.64077" lon="-4.27965">
        <ele>11</ele>
        <time>2014-09-23T14:05:18Z</time>
      </trkpt>
      <trkpt lat="48.64071" lon="-4.27962">
        <ele>12</ele>
        <time>2014-09-23T14:05:24Z</time>
      </trkpt>
      <trkpt lat="48.64066" lon="-4.27961">
        <ele>12</ele>
        <time>2014-09-23T14:05:29Z</time>
      </trkpt>
      <trkpt lat="48.6406" lon="-4.27957">
        <ele>12</ele>
        <time>2014-09-23T14:05:35Z</time>
      </trkpt>
      <trkpt lat="48.64056" lon="-4.27954">
        <ele>12</ele>
        <time>2014-09-23T14:05:40Z</time>
      </trkpt>
      <trkpt lat="48.64052" lon="-4.27951">
        <ele>12</ele>
        <time>2014-09-23T14:05:46Z</time>
      </trkpt>
      <trkpt lat="48.64048" lon="-4.27956">
        <ele>12</ele>
        <time>2014-09-23T14:05:51Z</time>
      </trkpt>
      <trkpt lat="48.64043" lon="-4.2796">
        <ele>12</ele>
        <time>2014-09-23T14:05:57Z</time>
      </trkpt>
      <trkpt lat="48.64039" lon="-4.27964">
        <ele>12</ele>
        <time>2014-09-23T14:06:02Z</time>
      </trkpt>
      <trkpt lat="48.64034" lon="-4.27965">
        <ele>12</ele>
        <time>2014-09-23T14:06:07Z</time>
      </trkpt>
      <trkpt lat="48.64029" lon="-4.27964">
        <ele>12</ele>
        <time>2014-09-23T14:06:13Z</time>
      </trkpt>
      <trkpt lat="48.64024" lon="-4.27962">
        <ele>12</ele>
        <time>2014-09-23T14:06:19Z</time>
      </trkpt>
      <trkpt lat="48.64019" lon="-4.27961">
        <ele>12</ele>
        <time>2014-09-23T14:06:24Z</time>
      </trkpt>
      <trkpt lat="48.64013" lon="-4.2796">
        <ele>12</ele>
        <time>2014-09-23T14:06:30Z</time>
      </trkpt>
      <trkpt lat="48.64009" lon="-4.27959">
        <ele>12</ele>
        <time>2014-09-23T14:06:35Z</time>
      </trkpt>
      <trkpt lat="48.64004" lon="-4.27958">
        <ele>11</ele>
        <time>2014-09-23T14:06:40Z</time>
      </trkpt>
      <trkpt lat="48.63999" lon="-4.27956">
        <ele>11</ele>
        <time>2014-09-23T14:06:45Z</time>
      </trkpt>
      <trkpt lat="48.63994" lon="-4.27955">
        <ele>12</ele>
        <time>2014-09-23T14:06:50Z</time>
      </trkpt>
      <trkpt lat="48.63989" lon="-4.27952">
        <ele>12</ele>
        <time>2014-09-23T14:06:56Z</time>
      </trkpt>
      <trkpt lat="48.63984" lon="-4.2795">
        <ele>12</ele>
        <time>2014-09-23T14:07:01Z</time>
      </trkpt>
      <trkpt lat="48.63981" lon="-4.27953">
        <ele>12</ele>
        <time>2014-09-23T14:07:07Z</time>
      </trkpt>
      <trkpt lat="48.63978" lon="-4.27958">
        <ele>12</ele>
        <time>2014-09-23T14:07:13Z</time>
      </trkpt>
      <trkpt lat="48.63975" lon="-4.27964">
        <ele>12</ele>
        <time>2014-09-23T14:07:19Z</time>
      </trkpt>
      <trkpt lat="48.63971" lon="-4.2797">
        <ele>12</ele>
        <time>2014-09-23T14:07:25Z</time>
      </trkpt>
      <trkpt lat="48.63968" lon="-4.27976">
        <ele>12</ele>
        <time>2014-09-23T14:07:31Z</time>
      </trkpt>
      <trkpt lat="48.63963" lon="-4.27981">
        <ele>12</ele>
        <time>2014-09-23T14:07:37Z</time>
      </trkpt>
      <trkpt lat="48.63959" lon="-4.27987">
        <ele>12</ele>
        <time>2014-09-23T14:07:43Z</time>
      </trkpt>
      <trkpt lat="48.63956" lon="-4.2799">
        <ele>12</ele>
        <time>2014-09-23T14:07:48Z</time>
      </trkpt>
      <trkpt lat="48.63956" lon="-4.27993">
        <ele>13</ele>
        <time>2014-09-23T14:07:54Z</time>
      </trkpt>
      <trkpt lat="48.63957" lon="-4.27997">
        <ele>13</ele>
        <time>2014-09-23T14:07:59Z</time>
      </trkpt>
      <trkpt lat="48.63958" lon="-4.27999">
        <ele>13</ele>
        <time>2014-09-23T14:08:05Z</time>
      </trkpt>
      <trkpt lat="48.63958" lon="-4.27999">
        <ele>12</ele>
        <time>2014-09-23T14:08:11Z</time>
      </trkpt>
      <trkpt lat="48.63956" lon="-4.27998">
        <ele>12</ele>
        <time>2014-09-23T14:08:16Z</time>
      </trkpt>
      <trkpt lat="48.63956" lon="-4.28">
        <ele>13</ele>
        <time>2014-09-23T14:08:23Z</time>
      </trkpt>
      <trkpt lat="48.63955" lon="-4.28">
        <ele>13</ele>
        <time>2014-09-23T14:08:28Z</time>
      </trkpt>
      <trkpt lat="48.63955" lon="-4.28">
        <ele>13</ele>
        <time>2014-09-23T14:08:35Z</time>
      </trkpt>
      <trkpt lat="48.63956" lon="-4.28">
        <ele>13</ele>
        <time>2014-09-23T14:08:41Z</time>
      </trkpt>
      <trkpt lat="48.63956" lon="-4.27999">
        <ele>13</ele>
        <time>2014-09-23T14:08:50Z</time>
      </trkpt>
      <trkpt lat="48.63955" lon="-4.27999">
        <ele>12</ele>
        <time>2014-09-23T14:08:58Z</time>
      </trkpt>
      <trkpt lat="48.63955" lon="-4.27999">
        <ele>12</ele>
        <time>2014-09-23T14:09:05Z</time>
      </trkpt>
      <trkpt lat="48.63955" lon="-4.27999">
        <ele>12</ele>
        <time>2014-09-23T14:09:13Z</time>
      </trkpt>
      <trkpt lat="48.63955" lon="-4.27999">
        <ele>13</ele>
        <time>2014-09-23T14:09:19Z</time>
      </trkpt>
      <trkpt lat="48.63955" lon="-4.27998">
        <ele>13</ele>
        <time>2014-09-23T14:09:25Z</time>
      </trkpt>
      <trkpt lat="48.63956" lon="-4.27999">
        <ele>12</ele>
        <time>2014-09-23T14:09:34Z</time>
      </trkpt>
      <trkpt lat="48.63956" lon="-4.27998">
        <ele>13</ele>
        <time>2014-09-23T14:09:39Z</time>
      </trkpt>
      <trkpt lat="48.63956" lon="-4.27998">
        <ele>13</ele>
        <time>2014-09-23T14:09:57Z</time>
      </trkpt>
      <trkpt lat="48.63956" lon="-4.27998">
        <ele>13</ele>
        <time>2014-09-23T14:10:04Z</time>
      </trkpt>
      <trkpt lat="48.63956" lon="-4.27998">
        <ele>13</ele>
        <time>2014-09-23T14:10:09Z</time>
      </trkpt>
      <trkpt lat="48.63957" lon="-4.27997">
        <ele>14</ele>
        <time>2014-09-23T14:10:16Z</time>
      </trkpt>
      <trkpt lat="48.63957" lon="-4.27997">
        <ele>15</ele>
        <time>2014-09-23T14:10:22Z</time>
      </trkpt>
      <trkpt lat="48.63955" lon="-4.27999">
        <ele>13</ele>
        <time>2014-09-23T14:10:28Z</time>
      </trkpt>
      <trkpt lat="48.63954" lon="-4.27999">
        <ele>13</ele>
        <time>2014-09-23T14:10:34Z</time>
      </trkpt>
      <trkpt lat="48.63954" lon="-4.27999">
        <ele>14</ele>
        <time>2014-09-23T14:10:39Z</time>
      </trkpt>
      <trkpt lat="48.63954" lon="-4.27998">
        <ele>14</ele>
        <time>2014-09-23T14:10:44Z</time>
      </trkpt>
      <trkpt lat="48.63954" lon="-4.27997">
        <ele>14</ele>
        <time>2014-09-23T14:10:50Z</time>
      </trkpt>
      <trkpt lat="48.63954" lon="-4.27997">
        <ele>14</ele>
        <time>2014-09-23T14:10:55Z</time>
      </trkpt>
      <trkpt lat="48.63954" lon="-4.27997">
        <ele>14</ele>
        <time>2014-09-23T14:11:01Z</time>
      </trkpt>
      <trkpt lat="48.63954" lon="-4.27996">
        <ele>14</ele>
        <time>2014-09-23T14:11:08Z</time>
      </trkpt>
      <trkpt lat="48.63954" lon="-4.27996">
        <ele>14</ele>
        <time>2014-09-23T14:11:14Z</time>
      </trkpt>
      <trkpt lat="48.63954" lon="-4.27996">
        <ele>13</ele>
        <time>2014-09-23T14:11:19Z</time>
      </trkpt>
      <trkpt lat="48.63954" lon="-4.27997">
        <ele>14</ele>
        <time>2014-09-23T14:11:25Z</time>
      </trkpt>
      <trkpt lat="48.63953" lon="-4.27997">
        <ele>14</ele>
        <time>2014-09-23T14:11:33Z</time>
      </trkpt>
      <trkpt lat="48.63953" lon="-4.27997">
        <ele>14</ele>
        <time>2014-09-23T14:11:38Z</time>
      </trkpt>
      <trkpt lat="48.6395" lon="-4.27999">
        <ele>14</ele>
        <time>2014-09-23T14:11:44Z</time>
      </trkpt>
      <trkpt lat="48.63947" lon="-4.28001">
        <ele>13</ele>
        <time>2014-09-23T14:11:50Z</time>
      </trkpt>
      <trkpt lat="48.63943" lon="-4.28001">
        <ele>13</ele>
        <time>2014-09-23T14:11:56Z</time>
      </trkpt>
      <trkpt lat="48.63939" lon="-4.28003">
        <ele>14</ele>
        <time>2014-09-23T14:12:02Z</time>
      </trkpt>
      <trkpt lat="48.63937" lon="-4.28004">
        <ele>14</ele>
        <time>2014-09-23T14:12:08Z</time>
      </trkpt>
      <trkpt lat="48.63937" lon="-4.28005">
        <ele>14</ele>
        <time>2014-09-23T14:12:13Z</time>
      </trkpt>
      <trkpt lat="48.63937" lon="-4.28005">
        <ele>14</ele>
        <time>2014-09-23T14:12:18Z</time>
      </trkpt>
      <trkpt lat="48.63937" lon="-4.28005">
        <ele>14</ele>
        <time>2014-09-23T14:12:26Z</time>
      </trkpt>
      <trkpt lat="48.63937" lon="-4.28006">
        <ele>14</ele>
        <time>2014-09-23T14:12:32Z</time>
      </trkpt>
      <trkpt lat="48.63937" lon="-4.28006">
        <ele>14</ele>
        <time>2014-09-23T14:12:40Z</time>
      </trkpt>
      <trkpt lat="48.63936" lon="-4.28006">
        <ele>14</ele>
        <time>2014-09-23T14:12:47Z</time>
      </trkpt>
      <trkpt lat="48.63936" lon="-4.28006">
        <ele>14</ele>
        <time>2014-09-23T14:12:52Z</time>
      </trkpt>
      <trkpt lat="48.63935" lon="-4.28007">
        <ele>14</ele>
        <time>2014-09-23T14:12:58Z</time>
      </trkpt>
      <trkpt lat="48.63935" lon="-4.28007">
        <ele>14</ele>
        <time>2014-09-23T14:13:03Z</time>
      </trkpt>
      <trkpt lat="48.63935" lon="-4.28007">
        <ele>14</ele>
        <time>2014-09-23T14:13:08Z</time>
      </trkpt>
      <trkpt lat="48.63935" lon="-4.28007">
        <ele>14</ele>
        <time>2014-09-23T14:13:14Z</time>
      </trkpt>
      <trkpt lat="48.63934" lon="-4.28007">
        <ele>15</ele>
        <time>2014-09-23T14:13:19Z</time>
      </trkpt>
      <trkpt lat="48.63934" lon="-4.28007">
        <ele>14</ele>
        <time>2014-09-23T14:13:24Z</time>
      </trkpt>
      <trkpt lat="48.63933" lon="-4.28007">
        <ele>14</ele>
        <time>2014-09-23T14:13:29Z</time>
      </trkpt>
      <trkpt lat="48.63933" lon="-4.28007">
        <ele>14</ele>
        <time>2014-09-23T14:13:35Z</time>
      </trkpt>
      <trkpt lat="48.63933" lon="-4.28007">
        <ele>14</ele>
        <time>2014-09-23T14:13:40Z</time>
      </trkpt>
      <trkpt lat="48.63932" lon="-4.28007">
        <ele>14</ele>
        <time>2014-09-23T14:13:45Z</time>
      </trkpt>
      <trkpt lat="48.63928" lon="-4.28007">
        <ele>14</ele>
        <time>2014-09-23T14:13:50Z</time>
      </trkpt>
      <trkpt lat="48.63924" lon="-4.28012">
        <ele>13</ele>
        <time>2014-09-23T14:13:56Z</time>
      </trkpt>
      <trkpt lat="48.63923" lon="-4.28019">
        <ele>14</ele>
        <time>2014-09-23T14:14:02Z</time>
      </trkpt>
      <trkpt lat="48.63921" lon="-4.28027">
        <ele>14</ele>
        <time>2014-09-23T14:14:07Z</time>
      </trkpt>
      <trkpt lat="48.63919" lon="-4.28032">
        <ele>14</ele>
        <time>2014-09-23T14:14:13Z</time>
      </trkpt>
      <trkpt lat="48.63913" lon="-4.28034">
        <ele>13</ele>
        <time>2014-09-23T14:14:18Z</time>
      </trkpt>
      <trkpt lat="48.63907" lon="-4.28035">
        <ele>13</ele>
        <time>2014-09-23T14:14:24Z</time>
      </trkpt>
      <trkpt lat="48.63902" lon="-4.28035">
        <ele>14</ele>
        <time>2014-09-23T14:14:29Z</time>
      </trkpt>
      <trkpt lat="48.63895" lon="-4.28036">
        <ele>14</ele>
        <time>2014-09-23T14:14:35Z</time>
      </trkpt>
      <trkpt lat="48.6389" lon="-4.28038">
        <ele>14</ele>
        <time>2014-09-23T14:14:40Z</time>
      </trkpt>
      <trkpt lat="48.63883" lon="-4.2804">
        <ele>14</ele>
        <time>2014-09-23T14:14:46Z</time>
      </trkpt>
      <trkpt lat="48.63879" lon="-4.28042">
        <ele>14</ele>
        <time>2014-09-23T14:14:51Z</time>
      </trkpt>
      <trkpt lat="48.63873" lon="-4.28044">
        <ele>14</ele>
        <time>2014-09-23T14:14:57Z</time>
      </trkpt>
      <trkpt lat="48.63867" lon="-4.28045">
        <ele>14</ele>
        <time>2014-09-23T14:15:03Z</time>
      </trkpt>
      <trkpt lat="48.63862" lon="-4.28047">
        <ele>14</ele>
        <time>2014-09-23T14:15:09Z</time>
      </trkpt>
      <trkpt lat="48.6386" lon="-4.28045">
        <ele>14</ele>
        <time>2014-09-23T14:15:14Z</time>
      </trkpt>
      <trkpt lat="48.63856" lon="-4.28049">
        <ele>14</ele>
        <time>2014-09-23T14:15:19Z</time>
      </trkpt>
      <trkpt lat="48.63851" lon="-4.28053">
        <ele>14</ele>
        <time>2014-09-23T14:15:25Z</time>
      </trkpt>
      <trkpt lat="48.63849" lon="-4.28058">
        <ele>14</ele>
        <time>2014-09-23T14:15:31Z</time>
      </trkpt>
      <trkpt lat="48.6385" lon="-4.28059">
        <ele>14</ele>
        <time>2014-09-23T14:15:37Z</time>
      </trkpt>
      <trkpt lat="48.6385" lon="-4.28058">
        <ele>13</ele>
        <time>2014-09-23T14:15:42Z</time>
      </trkpt>
      <trkpt lat="48.63851" lon="-4.28058">
        <ele>14</ele>
        <time>2014-09-23T14:15:48Z</time>
      </trkpt>
      <trkpt lat="48.63851" lon="-4.28059">
        <ele>14</ele>
        <time>2014-09-23T14:15:54Z</time>
      </trkpt>
      <trkpt lat="48.63851" lon="-4.28059">
        <ele>15</ele>
        <time>2014-09-23T14:15:59Z</time>
      </trkpt>
      <trkpt lat="48.6385" lon="-4.28059">
        <ele>14</ele>
        <time>2014-09-23T14:16:05Z</time>
      </trkpt>
      <trkpt lat="48.6385" lon="-4.28059">
        <ele>14</ele>
        <time>2014-09-23T14:16:11Z</time>
      </trkpt>
      <trkpt lat="48.6385" lon="-4.28059">
        <ele>15</ele>
        <time>2014-09-23T14:16:16Z</time>
      </trkpt>
      <trkpt lat="48.6385" lon="-4.28059">
        <ele>14</ele>
        <time>2014-09-23T14:16:22Z</time>
      </trkpt>
      <trkpt lat="48.63849" lon="-4.2806">
        <ele>14</ele>
        <time>2014-09-23T14:16:29Z</time>
      </trkpt>
      <trkpt lat="48.63848" lon="-4.28059">
        <ele>14</ele>
        <time>2014-09-23T14:16:36Z</time>
      </trkpt>
      <trkpt lat="48.63848" lon="-4.2806">
        <ele>14</ele>
        <time>2014-09-23T14:16:49Z</time>
      </trkpt>
      <trkpt lat="48.63848" lon="-4.2806">
        <ele>14</ele>
        <time>2014-09-23T14:16:57Z</time>
      </trkpt>
      <trkpt lat="48.63849" lon="-4.2806">
        <ele>14</ele>
        <time>2014-09-23T14:17:02Z</time>
      </trkpt>
      <trkpt lat="48.63849" lon="-4.2806">
        <ele>15</ele>
        <time>2014-09-23T14:17:09Z</time>
      </trkpt>
      <trkpt lat="48.63849" lon="-4.2806">
        <ele>14</ele>
        <time>2014-09-23T14:17:14Z</time>
      </trkpt>
      <trkpt lat="48.6385" lon="-4.2806">
        <ele>14</ele>
        <time>2014-09-23T14:17:19Z</time>
      </trkpt>
      <trkpt lat="48.63849" lon="-4.2806">
        <ele>14</ele>
        <time>2014-09-23T14:17:24Z</time>
      </trkpt>
      <trkpt lat="48.6385" lon="-4.2806">
        <ele>14</ele>
        <time>2014-09-23T14:17:29Z</time>
      </trkpt>
      <trkpt lat="48.6385" lon="-4.2806">
        <ele>14</ele>
        <time>2014-09-23T14:17:35Z</time>
      </trkpt>
      <trkpt lat="48.6385" lon="-4.28059">
        <ele>14</ele>
        <time>2014-09-23T14:17:41Z</time>
      </trkpt>
      <trkpt lat="48.6385" lon="-4.28059">
        <ele>14</ele>
        <time>2014-09-23T14:17:47Z</time>
      </trkpt>
      <trkpt lat="48.6385" lon="-4.28058">
        <ele>14</ele>
        <time>2014-09-23T14:17:52Z</time>
      </trkpt>
      <trkpt lat="48.63851" lon="-4.28058">
        <ele>14</ele>
        <time>2014-09-23T14:17:58Z</time>
      </trkpt>
      <trkpt lat="48.63851" lon="-4.28059">
        <ele>14</ele>
        <time>2014-09-23T14:18:03Z</time>
      </trkpt>
      <trkpt lat="48.6385" lon="-4.28061">
        <ele>14</ele>
        <time>2014-09-23T14:18:11Z</time>
      </trkpt>
      <trkpt lat="48.6385" lon="-4.28061">
        <ele>14</ele>
        <time>2014-09-23T14:18:16Z</time>
      </trkpt>
      <trkpt lat="48.6385" lon="-4.28061">
        <ele>14</ele>
        <time>2014-09-23T14:18:21Z</time>
      </trkpt>
      <trkpt lat="48.63849" lon="-4.28061">
        <ele>14</ele>
        <time>2014-09-23T14:18:26Z</time>
      </trkpt>
      <trkpt lat="48.63849" lon="-4.28061">
        <ele>14</ele>
        <time>2014-09-23T14:18:31Z</time>
      </trkpt>
      <trkpt lat="48.63849" lon="-4.28061">
        <ele>14</ele>
        <time>2014-09-23T14:18:36Z</time>
      </trkpt>
      <trkpt lat="48.63849" lon="-4.28061">
        <ele>14</ele>
        <time>2014-09-23T14:18:42Z</time>
      </trkpt>
      <trkpt lat="48.6385" lon="-4.28062">
        <ele>14</ele>
        <time>2014-09-23T14:18:48Z</time>
      </trkpt>
      <trkpt lat="48.6385" lon="-4.28062">
        <ele>15</ele>
        <time>2014-09-23T14:18:55Z</time>
      </trkpt>
      <trkpt lat="48.63849" lon="-4.28062">
        <ele>14</ele>
        <time>2014-09-23T14:19:00Z</time>
      </trkpt>
      <trkpt lat="48.63849" lon="-4.28062">
        <ele>14</ele>
        <time>2014-09-23T14:19:08Z</time>
      </trkpt>
      <trkpt lat="48.63849" lon="-4.28062">
        <ele>15</ele>
        <time>2014-09-23T14:19:17Z</time>
      </trkpt>
      <trkpt lat="48.63849" lon="-4.28063">
        <ele>14</ele>
        <time>2014-09-23T14:19:23Z</time>
      </trkpt>
      <trkpt lat="48.63849" lon="-4.28063">
        <ele>14</ele>
        <time>2014-09-23T14:19:30Z</time>
      </trkpt>
      <trkpt lat="48.63849" lon="-4.28061">
        <ele>14</ele>
        <time>2014-09-23T14:19:35Z</time>
      </trkpt>
      <trkpt lat="48.63848" lon="-4.2806">
        <ele>14</ele>
        <time>2014-09-23T14:19:41Z</time>
      </trkpt>
      <trkpt lat="48.63848" lon="-4.28059">
        <ele>14</ele>
        <time>2014-09-23T14:19:49Z</time>
      </trkpt>
      <trkpt lat="48.63848" lon="-4.28059">
        <ele>14</ele>
        <time>2014-09-23T14:19:55Z</time>
      </trkpt>
      <trkpt lat="48.63849" lon="-4.2806">
        <ele>14</ele>
        <time>2014-09-23T14:20:02Z</time>
      </trkpt>
      <trkpt lat="48.63849" lon="-4.28062">
        <ele>14</ele>
        <time>2014-09-23T14:20:07Z</time>
      </trkpt>
      <trkpt lat="48.63848" lon="-4.28063">
        <ele>15</ele>
        <time>2014-09-23T14:20:13Z</time>
      </trkpt>
      <trkpt lat="48.63848" lon="-4.28062">
        <ele>15</ele>
        <time>2014-09-23T14:20:19Z</time>
      </trkpt>
      <trkpt lat="48.63848" lon="-4.28062">
        <ele>14</ele>
        <time>2014-09-23T14:20:26Z</time>
      </trkpt>
      <trkpt lat="48.63849" lon="-4.28063">
        <ele>15</ele>
        <time>2014-09-23T14:20:34Z</time>
      </trkpt>
      <trkpt lat="48.63848" lon="-4.28063">
        <ele>15</ele>
        <time>2014-09-23T14:20:40Z</time>
      </trkpt>
      <trkpt lat="48.63848" lon="-4.28064">
        <ele>15</ele>
        <time>2014-09-23T14:20:45Z</time>
      </trkpt>
      <trkpt lat="48.63847" lon="-4.28064">
        <ele>15</ele>
        <time>2014-09-23T14:20:52Z</time>
      </trkpt>
      <trkpt lat="48.63847" lon="-4.28064">
        <ele>15</ele>
        <time>2014-09-23T14:20:57Z</time>
      </trkpt>
      <trkpt lat="48.63847" lon="-4.28063">
        <ele>15</ele>
        <time>2014-09-23T14:21:02Z</time>
      </trkpt>
      <trkpt lat="48.63847" lon="-4.28062">
        <ele>14</ele>
        <time>2014-09-23T14:21:12Z</time>
      </trkpt>
      <trkpt lat="48.63847" lon="-4.28062">
        <ele>14</ele>
        <time>2014-09-23T14:21:18Z</time>
      </trkpt>
      <trkpt lat="48.63844" lon="-4.28061">
        <ele>15</ele>
        <time>2014-09-23T14:21:23Z</time>
      </trkpt>
      <trkpt lat="48.63843" lon="-4.28061">
        <ele>15</ele>
        <time>2014-09-23T14:21:29Z</time>
      </trkpt>
      <trkpt lat="48.63841" lon="-4.28064">
        <ele>15</ele>
        <time>2014-09-23T14:21:35Z</time>
      </trkpt>
      <trkpt lat="48.6384" lon="-4.28069">
        <ele>14</ele>
        <time>2014-09-23T14:21:40Z</time>
      </trkpt>
      <trkpt lat="48.6384" lon="-4.28075">
        <ele>14</ele>
        <time>2014-09-23T14:21:46Z</time>
      </trkpt>
      <trkpt lat="48.63839" lon="-4.28081">
        <ele>14</ele>
        <time>2014-09-23T14:21:51Z</time>
      </trkpt>
      <trkpt lat="48.63839" lon="-4.28088">
        <ele>14</ele>
        <time>2014-09-23T14:21:57Z</time>
      </trkpt>
      <trkpt lat="48.63837" lon="-4.28095">
        <ele>14</ele>
        <time>2014-09-23T14:22:03Z</time>
      </trkpt>
      <trkpt lat="48.63836" lon="-4.28103">
        <ele>15</ele>
        <time>2014-09-23T14:22:09Z</time>
      </trkpt>
      <trkpt lat="48.63835" lon="-4.28112">
        <ele>15</ele>
        <time>2014-09-23T14:22:15Z</time>
      </trkpt>
      <trkpt lat="48.63833" lon="-4.2812">
        <ele>15</ele>
        <time>2014-09-23T14:22:21Z</time>
      </trkpt>
      <trkpt lat="48.63833" lon="-4.28121">
        <ele>15</ele>
        <time>2014-09-23T14:22:27Z</time>
      </trkpt>
      <trkpt lat="48.63833" lon="-4.28127">
        <ele>15</ele>
        <time>2014-09-23T14:22:32Z</time>
      </trkpt>
      <trkpt lat="48.63832" lon="-4.28133">
        <ele>15</ele>
        <time>2014-09-23T14:22:37Z</time>
      </trkpt>
      <trkpt lat="48.63831" lon="-4.2814">
        <ele>15</ele>
        <time>2014-09-23T14:22:43Z</time>
      </trkpt>
      <trkpt lat="48.6383" lon="-4.28144">
        <ele>15</ele>
        <time>2014-09-23T14:22:50Z</time>
      </trkpt>
      <trkpt lat="48.63829" lon="-4.28152">
        <ele>15</ele>
        <time>2014-09-23T14:22:56Z</time>
      </trkpt>
      <trkpt lat="48.63828" lon="-4.28159">
        <ele>15</ele>
        <time>2014-09-23T14:23:01Z</time>
      </trkpt>
      <trkpt lat="48.63826" lon="-4.28168">
        <ele>15</ele>
        <time>2014-09-23T14:23:07Z</time>
      </trkpt>
      <trkpt lat="48.63825" lon="-4.28178">
        <ele>15</ele>
        <time>2014-09-23T14:23:13Z</time>
      </trkpt>
      <trkpt lat="48.63824" lon="-4.28185">
        <ele>15</ele>
        <time>2014-09-23T14:23:18Z</time>
      </trkpt>
      <trkpt lat="48.63823" lon="-4.28193">
        <ele>15</ele>
        <time>2014-09-23T14:23:23Z</time>
      </trkpt>
      <trkpt lat="48.63823" lon="-4.282">
        <ele>15</ele>
        <time>2014-09-23T14:23:28Z</time>
      </trkpt>
      <trkpt lat="48.63825" lon="-4.28207">
        <ele>14</ele>
        <time>2014-09-23T14:23:34Z</time>
      </trkpt>
      <trkpt lat="48.63828" lon="-4.28208">
        <ele>15</ele>
        <time>2014-09-23T14:23:40Z</time>
      </trkpt>
      <trkpt lat="48.63828" lon="-4.28209">
        <ele>15</ele>
        <time>2014-09-23T14:23:46Z</time>
      </trkpt>
      <trkpt lat="48.63829" lon="-4.28208">
        <ele>15</ele>
        <time>2014-09-23T14:23:53Z</time>
      </trkpt>
      <trkpt lat="48.63829" lon="-4.28208">
        <ele>15</ele>
        <time>2014-09-23T14:23:59Z</time>
      </trkpt>
      <trkpt lat="48.63828" lon="-4.28208">
        <ele>15</ele>
        <time>2014-09-23T14:24:05Z</time>
      </trkpt>
      <trkpt lat="48.63828" lon="-4.28207">
        <ele>14</ele>
        <time>2014-09-23T14:24:10Z</time>
      </trkpt>
      <trkpt lat="48.63828" lon="-4.28206">
        <ele>14</ele>
        <time>2014-09-23T14:24:16Z</time>
      </trkpt>
      <trkpt lat="48.63828" lon="-4.28206">
        <ele>15</ele>
        <time>2014-09-23T14:24:21Z</time>
      </trkpt>
      <trkpt lat="48.63828" lon="-4.28205">
        <ele>14</ele>
        <time>2014-09-23T14:24:26Z</time>
      </trkpt>
      <trkpt lat="48.63829" lon="-4.28206">
        <ele>14</ele>
        <time>2014-09-23T14:24:31Z</time>
      </trkpt>
      <trkpt lat="48.63829" lon="-4.28207">
        <ele>14</ele>
        <time>2014-09-23T14:24:37Z</time>
      </trkpt>
      <trkpt lat="48.63829" lon="-4.28207">
        <ele>14</ele>
        <time>2014-09-23T14:24:43Z</time>
      </trkpt>
      <trkpt lat="48.63829" lon="-4.28207">
        <ele>15</ele>
        <time>2014-09-23T14:24:48Z</time>
      </trkpt>
      <trkpt lat="48.63829" lon="-4.28207">
        <ele>14</ele>
        <time>2014-09-23T14:24:54Z</time>
      </trkpt>
      <trkpt lat="48.63829" lon="-4.28207">
        <ele>14</ele>
        <time>2014-09-23T14:24:59Z</time>
      </trkpt>
      <trkpt lat="48.63829" lon="-4.28208">
        <ele>14</ele>
        <time>2014-09-23T14:25:04Z</time>
      </trkpt>
      <trkpt lat="48.63828" lon="-4.28209">
        <ele>15</ele>
        <time>2014-09-23T14:25:10Z</time>
      </trkpt>
      <trkpt lat="48.63828" lon="-4.2821">
        <ele>14</ele>
        <time>2014-09-23T14:25:16Z</time>
      </trkpt>
      <trkpt lat="48.63828" lon="-4.2821">
        <ele>15</ele>
        <time>2014-09-23T14:25:23Z</time>
      </trkpt>
      <trkpt lat="48.63828" lon="-4.28211">
        <ele>14</ele>
        <time>2014-09-23T14:25:29Z</time>
      </trkpt>
      <trkpt lat="48.63828" lon="-4.28211">
        <ele>15</ele>
        <time>2014-09-23T14:25:35Z</time>
      </trkpt>
      <trkpt lat="48.63827" lon="-4.28212">
        <ele>15</ele>
        <time>2014-09-23T14:25:42Z</time>
      </trkpt>
      <trkpt lat="48.63827" lon="-4.28212">
        <ele>15</ele>
        <time>2014-09-23T14:25:47Z</time>
      </trkpt>
      <trkpt lat="48.63827" lon="-4.28212">
        <ele>15</ele>
        <time>2014-09-23T14:25:53Z</time>
      </trkpt>
      <trkpt lat="48.63827" lon="-4.28212">
        <ele>15</ele>
        <time>2014-09-23T14:25:59Z</time>
      </trkpt>
      <trkpt lat="48.63828" lon="-4.28211">
        <ele>15</ele>
        <time>2014-09-23T14:26:05Z</time>
      </trkpt>
      <trkpt lat="48.63828" lon="-4.28211">
        <ele>15</ele>
        <time>2014-09-23T14:26:11Z</time>
      </trkpt>
      <trkpt lat="48.63828" lon="-4.2821">
        <ele>15</ele>
        <time>2014-09-23T14:26:17Z</time>
      </trkpt>
      <trkpt lat="48.63828" lon="-4.2821">
        <ele>16</ele>
        <time>2014-09-23T14:26:22Z</time>
      </trkpt>
      <trkpt lat="48.63828" lon="-4.28209">
        <ele>15</ele>
        <time>2014-09-23T14:26:30Z</time>
      </trkpt>
      <trkpt lat="48.63828" lon="-4.2821">
        <ele>15</ele>
        <time>2014-09-23T14:26:37Z</time>
      </trkpt>
      <trkpt lat="48.63828" lon="-4.2821">
        <ele>15</ele>
        <time>2014-09-23T14:26:51Z</time>
      </trkpt>
      <trkpt lat="48.63828" lon="-4.2821">
        <ele>14</ele>
        <time>2014-09-23T14:26:58Z</time>
      </trkpt>
      <trkpt lat="48.63828" lon="-4.2821">
        <ele>14</ele>
        <time>2014-09-23T14:27:05Z</time>
      </trkpt>
      <trkpt lat="48.63828" lon="-4.2821">
        <ele>14</ele>
        <time>2014-09-23T14:27:10Z</time>
      </trkpt>
      <trkpt lat="48.63828" lon="-4.2821">
        <ele>14</ele>
        <time>2014-09-23T14:27:15Z</time>
      </trkpt>
      <trkpt lat="48.63828" lon="-4.2821">
        <ele>15</ele>
        <time>2014-09-23T14:27:22Z</time>
      </trkpt>
      <trkpt lat="48.63828" lon="-4.2821">
        <ele>15</ele>
        <time>2014-09-23T14:27:28Z</time>
      </trkpt>
      <trkpt lat="48.63828" lon="-4.2821">
        <ele>15</ele>
        <time>2014-09-23T14:27:36Z</time>
      </trkpt>
      <trkpt lat="48.63829" lon="-4.2821">
        <ele>15</ele>
        <time>2014-09-23T14:27:42Z</time>
      </trkpt>
      <trkpt lat="48.63829" lon="-4.2821">
        <ele>15</ele>
        <time>2014-09-23T14:27:47Z</time>
      </trkpt>
      <trkpt lat="48.63829" lon="-4.2821">
        <ele>15</ele>
        <time>2014-09-23T14:27:55Z</time>
      </trkpt>
      <trkpt lat="48.63829" lon="-4.2821">
        <ele>16</ele>
        <time>2014-09-23T14:28:01Z</time>
      </trkpt>
      <trkpt lat="48.63829" lon="-4.28211">
        <ele>16</ele>
        <time>2014-09-23T14:28:14Z</time>
      </trkpt>
      <trkpt lat="48.63829" lon="-4.28211">
        <ele>16</ele>
        <time>2014-09-23T14:28:26Z</time>
      </trkpt>
      <trkpt lat="48.63829" lon="-4.2821">
        <ele>16</ele>
        <time>2014-09-23T14:28:32Z</time>
      </trkpt>
      <trkpt lat="48.63828" lon="-4.2821">
        <ele>16</ele>
        <time>2014-09-23T14:28:39Z</time>
      </trkpt>
      <trkpt lat="48.63828" lon="-4.2821">
        <ele>16</ele>
        <time>2014-09-23T14:28:46Z</time>
      </trkpt>
      <trkpt lat="48.63829" lon="-4.28209">
        <ele>16</ele>
        <time>2014-09-23T14:28:53Z</time>
      </trkpt>
      <trkpt lat="48.63828" lon="-4.28209">
        <ele>16</ele>
        <time>2014-09-23T14:28:58Z</time>
      </trkpt>
      <trkpt lat="48.63828" lon="-4.28209">
        <ele>16</ele>
        <time>2014-09-23T14:29:04Z</time>
      </trkpt>
      <trkpt lat="48.63828" lon="-4.28209">
        <ele>16</ele>
        <time>2014-09-23T14:29:13Z</time>
      </trkpt>
      <trkpt lat="48.63828" lon="-4.2821">
        <ele>15</ele>
        <time>2014-09-23T14:29:18Z</time>
      </trkpt>
      <trkpt lat="48.63827" lon="-4.28211">
        <ele>16</ele>
        <time>2014-09-23T14:29:26Z</time>
      </trkpt>
      <trkpt lat="48.63827" lon="-4.28211">
        <ele>15</ele>
        <time>2014-09-23T14:29:33Z</time>
      </trkpt>
      <trkpt lat="48.63827" lon="-4.28211">
        <ele>15</ele>
        <time>2014-09-23T14:29:38Z</time>
      </trkpt>
      <trkpt lat="48.63826" lon="-4.28211">
        <ele>16</ele>
        <time>2014-09-23T14:29:43Z</time>
      </trkpt>
      <trkpt lat="48.63827" lon="-4.28211">
        <ele>16</ele>
        <time>2014-09-23T14:29:49Z</time>
      </trkpt>
      <trkpt lat="48.63827" lon="-4.28211">
        <ele>15</ele>
        <time>2014-09-23T14:29:58Z</time>
      </trkpt>
      <trkpt lat="48.63828" lon="-4.2821">
        <ele>15</ele>
        <time>2014-09-23T14:30:04Z</time>
      </trkpt>
      <trkpt lat="48.63828" lon="-4.2821">
        <ele>15</ele>
        <time>2014-09-23T14:30:10Z</time>
      </trkpt>
      <trkpt lat="48.63826" lon="-4.28209">
        <ele>15</ele>
        <time>2014-09-23T14:30:15Z</time>
      </trkpt>
      <trkpt lat="48.63822" lon="-4.2821">
        <ele>15</ele>
        <time>2014-09-23T14:30:20Z</time>
      </trkpt>
      <trkpt lat="48.6382" lon="-4.28216">
        <ele>15</ele>
        <time>2014-09-23T14:30:26Z</time>
      </trkpt>
      <trkpt lat="48.6382" lon="-4.28223">
        <ele>15</ele>
        <time>2014-09-23T14:30:32Z</time>
      </trkpt>
      <trkpt lat="48.63818" lon="-4.2823">
        <ele>16</ele>
        <time>2014-09-23T14:30:38Z</time>
      </trkpt>
      <trkpt lat="48.63817" lon="-4.28238">
        <ele>15</ele>
        <time>2014-09-23T14:30:44Z</time>
      </trkpt>
      <trkpt lat="48.63816" lon="-4.28245">
        <ele>15</ele>
        <time>2014-09-23T14:30:50Z</time>
      </trkpt>
      <trkpt lat="48.63815" lon="-4.28254">
        <ele>16</ele>
        <time>2014-09-23T14:30:56Z</time>
      </trkpt>
      <trkpt lat="48.63814" lon="-4.28262">
        <ele>15</ele>
        <time>2014-09-23T14:31:01Z</time>
      </trkpt>
      <trkpt lat="48.63812" lon="-4.28271">
        <ele>16</ele>
        <time>2014-09-23T14:31:07Z</time>
      </trkpt>
      <trkpt lat="48.63812" lon="-4.28279">
        <ele>15</ele>
        <time>2014-09-23T14:31:12Z</time>
      </trkpt>
      <trkpt lat="48.63811" lon="-4.28288">
        <ele>15</ele>
        <time>2014-09-23T14:31:18Z</time>
      </trkpt>
      <trkpt lat="48.6381" lon="-4.28296">
        <ele>15</ele>
        <time>2014-09-23T14:31:23Z</time>
      </trkpt>
      <trkpt lat="48.6381" lon="-4.28301">
        <ele>15</ele>
        <time>2014-09-23T14:31:28Z</time>
      </trkpt>
      <trkpt lat="48.63815" lon="-4.28305">
        <ele>14</ele>
        <time>2014-09-23T14:31:34Z</time>
      </trkpt>
      <trkpt lat="48.6382" lon="-4.28307">
        <ele>14</ele>
        <time>2014-09-23T14:31:40Z</time>
      </trkpt>
      <trkpt lat="48.63823" lon="-4.28305">
        <ele>15</ele>
        <time>2014-09-23T14:31:45Z</time>
      </trkpt>
      <trkpt lat="48.63823" lon="-4.28306">
        <ele>15</ele>
        <time>2014-09-23T14:31:50Z</time>
      </trkpt>
      <trkpt lat="48.63824" lon="-4.28306">
        <ele>15</ele>
        <time>2014-09-23T14:31:56Z</time>
      </trkpt>
      <trkpt lat="48.63824" lon="-4.28306">
        <ele>15</ele>
        <time>2014-09-23T14:32:01Z</time>
      </trkpt>
      <trkpt lat="48.63825" lon="-4.28307">
        <ele>15</ele>
        <time>2014-09-23T14:32:08Z</time>
      </trkpt>
      <trkpt lat="48.63824" lon="-4.28307">
        <ele>14</ele>
        <time>2014-09-23T14:32:15Z</time>
      </trkpt>
      <trkpt lat="48.63824" lon="-4.28308">
        <ele>15</ele>
        <time>2014-09-23T14:32:21Z</time>
      </trkpt>
      <trkpt lat="48.63824" lon="-4.28308">
        <ele>15</ele>
        <time>2014-09-23T14:32:26Z</time>
      </trkpt>
      <trkpt lat="48.63824" lon="-4.28309">
        <ele>15</ele>
        <time>2014-09-23T14:32:32Z</time>
      </trkpt>
      <trkpt lat="48.63824" lon="-4.28309">
        <ele>15</ele>
        <time>2014-09-23T14:32:40Z</time>
      </trkpt>
      <trkpt lat="48.63823" lon="-4.2831">
        <ele>15</ele>
        <time>2014-09-23T14:32:45Z</time>
      </trkpt>
      <trkpt lat="48.63818" lon="-4.28312">
        <ele>14</ele>
        <time>2014-09-23T14:32:51Z</time>
      </trkpt>
      <trkpt lat="48.63815" lon="-4.28312">
        <ele>15</ele>
        <time>2014-09-23T14:32:56Z</time>
      </trkpt>
      <trkpt lat="48.63809" lon="-4.2831">
        <ele>14</ele>
        <time>2014-09-23T14:33:02Z</time>
      </trkpt>
      <trkpt lat="48.63807" lon="-4.28315">
        <ele>15</ele>
        <time>2014-09-23T14:33:08Z</time>
      </trkpt>
      <trkpt lat="48.63806" lon="-4.2832">
        <ele>15</ele>
        <time>2014-09-23T14:33:14Z</time>
      </trkpt>
      <trkpt lat="48.63805" lon="-4.2832">
        <ele>15</ele>
        <time>2014-09-23T14:33:20Z</time>
      </trkpt>
      <trkpt lat="48.63805" lon="-4.2832">
        <ele>15</ele>
        <time>2014-09-23T14:33:26Z</time>
      </trkpt>
      <trkpt lat="48.63805" lon="-4.2832">
        <ele>15</ele>
        <time>2014-09-23T14:33:32Z</time>
      </trkpt>
      <trkpt lat="48.63804" lon="-4.28319">
        <ele>15</ele>
        <time>2014-09-23T14:33:37Z</time>
      </trkpt>
      <trkpt lat="48.63804" lon="-4.2832">
        <ele>15</ele>
        <time>2014-09-23T14:33:42Z</time>
      </trkpt>
      <trkpt lat="48.63803" lon="-4.2832">
        <ele>15</ele>
        <time>2014-09-23T14:33:47Z</time>
      </trkpt>
      <trkpt lat="48.63802" lon="-4.2832">
        <ele>16</ele>
        <time>2014-09-23T14:33:53Z</time>
      </trkpt>
      <trkpt lat="48.63802" lon="-4.28321">
        <ele>16</ele>
        <time>2014-09-23T14:33:59Z</time>
      </trkpt>
      <trkpt lat="48.63802" lon="-4.28321">
        <ele>15</ele>
        <time>2014-09-23T14:34:04Z</time>
      </trkpt>
      <trkpt lat="48.63802" lon="-4.28325">
        <ele>15</ele>
        <time>2014-09-23T14:34:09Z</time>
      </trkpt>
      <trkpt lat="48.63802" lon="-4.28332">
        <ele>15</ele>
        <time>2014-09-23T14:34:15Z</time>
      </trkpt>
      <trkpt lat="48.63801" lon="-4.28339">
        <ele>15</ele>
        <time>2014-09-23T14:34:20Z</time>
      </trkpt>
      <trkpt lat="48.63801" lon="-4.28348">
        <ele>15</ele>
        <time>2014-09-23T14:34:26Z</time>
      </trkpt>
      <trkpt lat="48.63802" lon="-4.28357">
        <ele>16</ele>
        <time>2014-09-23T14:34:32Z</time>
      </trkpt>
      <trkpt lat="48.63802" lon="-4.28366">
        <ele>16</ele>
        <time>2014-09-23T14:34:38Z</time>
      </trkpt>
      <trkpt lat="48.63802" lon="-4.28374">
        <ele>16</ele>
        <time>2014-09-23T14:34:43Z</time>
      </trkpt>
      <trkpt lat="48.63802" lon="-4.28383">
        <ele>16</ele>
        <time>2014-09-23T14:34:48Z</time>
      </trkpt>
      <trkpt lat="48.63805" lon="-4.28391">
        <ele>16</ele>
        <time>2014-09-23T14:34:53Z</time>
      </trkpt>
      <trkpt lat="48.63806" lon="-4.28399">
        <ele>16</ele>
        <time>2014-09-23T14:34:58Z</time>
      </trkpt>
      <trkpt lat="48.63806" lon="-4.28409">
        <ele>15</ele>
        <time>2014-09-23T14:35:04Z</time>
      </trkpt>
      <trkpt lat="48.63805" lon="-4.28418">
        <ele>16</ele>
        <time>2014-09-23T14:35:10Z</time>
      </trkpt>
      <trkpt lat="48.63802" lon="-4.28427">
        <ele>16</ele>
        <time>2014-09-23T14:35:16Z</time>
      </trkpt>
      <trkpt lat="48.63801" lon="-4.28436">
        <ele>15</ele>
        <time>2014-09-23T14:35:21Z</time>
      </trkpt>
      <trkpt lat="48.63801" lon="-4.28445">
        <ele>15</ele>
        <time>2014-09-23T14:35:27Z</time>
      </trkpt>
      <trkpt lat="48.63802" lon="-4.28453">
        <ele>15</ele>
        <time>2014-09-23T14:35:32Z</time>
      </trkpt>
      <trkpt lat="48.63804" lon="-4.28461">
        <ele>16</ele>
        <time>2014-09-23T14:35:38Z</time>
      </trkpt>
      <trkpt lat="48.63803" lon="-4.2847">
        <ele>15</ele>
        <time>2014-09-23T14:35:44Z</time>
      </trkpt>
      <trkpt lat="48.63802" lon="-4.28478">
        <ele>15</ele>
        <time>2014-09-23T14:35:49Z</time>
      </trkpt>
      <trkpt lat="48.63801" lon="-4.2849">
        <ele>16</ele>
        <time>2014-09-23T14:35:55Z</time>
      </trkpt>
      <trkpt lat="48.638" lon="-4.285">
        <ele>16</ele>
        <time>2014-09-23T14:36:00Z</time>
      </trkpt>
      <trkpt lat="48.63799" lon="-4.28508">
        <ele>16</ele>
        <time>2014-09-23T14:36:05Z</time>
      </trkpt>
      <trkpt lat="48.63799" lon="-4.28518">
        <ele>16</ele>
        <time>2014-09-23T14:36:11Z</time>
      </trkpt>
      <trkpt lat="48.63799" lon="-4.28525">
        <ele>16</ele>
        <time>2014-09-23T14:36:16Z</time>
      </trkpt>
      <trkpt lat="48.63799" lon="-4.28533">
        <ele>16</ele>
        <time>2014-09-23T14:36:22Z</time>
      </trkpt>
      <trkpt lat="48.63797" lon="-4.2854">
        <ele>15</ele>
        <time>2014-09-23T14:36:28Z</time>
      </trkpt>
      <trkpt lat="48.63795" lon="-4.28546">
        <ele>15</ele>
        <time>2014-09-23T14:36:34Z</time>
      </trkpt>
      <trkpt lat="48.63795" lon="-4.28551">
        <ele>15</ele>
        <time>2014-09-23T14:36:40Z</time>
      </trkpt>
      <trkpt lat="48.63795" lon="-4.28554">
        <ele>16</ele>
        <time>2014-09-23T14:36:46Z</time>
      </trkpt>
      <trkpt lat="48.63795" lon="-4.28555">
        <ele>15</ele>
        <time>2014-09-23T14:36:51Z</time>
      </trkpt>
      <trkpt lat="48.63796" lon="-4.28557">
        <ele>16</ele>
        <time>2014-09-23T14:36:56Z</time>
      </trkpt>
      <trkpt lat="48.63796" lon="-4.28557">
        <ele>16</ele>
        <time>2014-09-23T14:37:02Z</time>
      </trkpt>
      <trkpt lat="48.63796" lon="-4.28558">
        <ele>15</ele>
        <time>2014-09-23T14:37:07Z</time>
      </trkpt>
      <trkpt lat="48.63796" lon="-4.28559">
        <ele>15</ele>
        <time>2014-09-23T14:37:13Z</time>
      </trkpt>
      <trkpt lat="48.63796" lon="-4.28559">
        <ele>15</ele>
        <time>2014-09-23T14:37:18Z</time>
      </trkpt>
      <trkpt lat="48.63795" lon="-4.28559">
        <ele>15</ele>
        <time>2014-09-23T14:37:25Z</time>
      </trkpt>
      <trkpt lat="48.63794" lon="-4.2856">
        <ele>15</ele>
        <time>2014-09-23T14:37:31Z</time>
      </trkpt>
      <trkpt lat="48.63794" lon="-4.28559">
        <ele>15</ele>
        <time>2014-09-23T14:37:36Z</time>
      </trkpt>
      <trkpt lat="48.63793" lon="-4.28559">
        <ele>15</ele>
        <time>2014-09-23T14:37:41Z</time>
      </trkpt>
      <trkpt lat="48.63793" lon="-4.28559">
        <ele>15</ele>
        <time>2014-09-23T14:37:47Z</time>
      </trkpt>
      <trkpt lat="48.63792" lon="-4.28559">
        <ele>15</ele>
        <time>2014-09-23T14:37:54Z</time>
      </trkpt>
      <trkpt lat="48.63792" lon="-4.28559">
        <ele>16</ele>
        <time>2014-09-23T14:38:07Z</time>
      </trkpt>
      <trkpt lat="48.63792" lon="-4.28558">
        <ele>15</ele>
        <time>2014-09-23T14:38:13Z</time>
      </trkpt>
      <trkpt lat="48.63792" lon="-4.28558">
        <ele>15</ele>
        <time>2014-09-23T14:38:18Z</time>
      </trkpt>
      <trkpt lat="48.63792" lon="-4.28557">
        <ele>15</ele>
        <time>2014-09-23T14:38:23Z</time>
      </trkpt>
      <trkpt lat="48.63792" lon="-4.28557">
        <ele>16</ele>
        <time>2014-09-23T14:38:28Z</time>
      </trkpt>
      <trkpt lat="48.63793" lon="-4.28557">
        <ele>16</ele>
        <time>2014-09-23T14:38:35Z</time>
      </trkpt>
      <trkpt lat="48.63794" lon="-4.28557">
        <ele>16</ele>
        <time>2014-09-23T14:38:40Z</time>
      </trkpt>
      <trkpt lat="48.63794" lon="-4.28556">
        <ele>16</ele>
        <time>2014-09-23T14:38:49Z</time>
      </trkpt>
      <trkpt lat="48.63793" lon="-4.28557">
        <ele>15</ele>
        <time>2014-09-23T14:38:54Z</time>
      </trkpt>
      <trkpt lat="48.63792" lon="-4.28558">
        <ele>15</ele>
        <time>2014-09-23T14:39:00Z</time>
      </trkpt>
      <trkpt lat="48.63792" lon="-4.28559">
        <ele>16</ele>
        <time>2014-09-23T14:39:06Z</time>
      </trkpt>
      <trkpt lat="48.6379" lon="-4.28563">
        <ele>16</ele>
        <time>2014-09-23T14:39:12Z</time>
      </trkpt>
      <trkpt lat="48.63789" lon="-4.28566">
        <ele>17</ele>
        <time>2014-09-23T14:39:18Z</time>
      </trkpt>
      <trkpt lat="48.63789" lon="-4.28567">
        <ele>16</ele>
        <time>2014-09-23T14:39:27Z</time>
      </trkpt>
      <trkpt lat="48.63789" lon="-4.28569">
        <ele>17</ele>
        <time>2014-09-23T14:39:32Z</time>
      </trkpt>
      <trkpt lat="48.63786" lon="-4.28576">
        <ele>16</ele>
        <time>2014-09-23T14:39:37Z</time>
      </trkpt>
      <trkpt lat="48.63785" lon="-4.28583">
        <ele>16</ele>
        <time>2014-09-23T14:39:42Z</time>
      </trkpt>
      <trkpt lat="48.63783" lon="-4.28592">
        <ele>16</ele>
        <time>2014-09-23T14:39:48Z</time>
      </trkpt>
      <trkpt lat="48.63781" lon="-4.286">
        <ele>16</ele>
        <time>2014-09-23T14:39:53Z</time>
      </trkpt>
      <trkpt lat="48.63779" lon="-4.28609">
        <ele>16</ele>
        <time>2014-09-23T14:39:59Z</time>
      </trkpt>
      <trkpt lat="48.63777" lon="-4.28616">
        <ele>16</ele>
        <time>2014-09-23T14:40:04Z</time>
      </trkpt>
      <trkpt lat="48.63774" lon="-4.28623">
        <ele>16</ele>
        <time>2014-09-23T14:40:10Z</time>
      </trkpt>
      <trkpt lat="48.63771" lon="-4.28631">
        <ele>16</ele>
        <time>2014-09-23T14:40:15Z</time>
      </trkpt>
      <trkpt lat="48.63767" lon="-4.28642">
        <ele>16</ele>
        <time>2014-09-23T14:40:21Z</time>
      </trkpt>
      <trkpt lat="48.63765" lon="-4.28652">
        <ele>16</ele>
        <time>2014-09-23T14:40:26Z</time>
      </trkpt>
      <trkpt lat="48.63762" lon="-4.28664">
        <ele>16</ele>
        <time>2014-09-23T14:40:32Z</time>
      </trkpt>
      <trkpt lat="48.63761" lon="-4.28674">
        <ele>16</ele>
        <time>2014-09-23T14:40:37Z</time>
      </trkpt>
      <trkpt lat="48.63759" lon="-4.28685">
        <ele>16</ele>
        <time>2014-09-23T14:40:43Z</time>
      </trkpt>
      <trkpt lat="48.63757" lon="-4.28694">
        <ele>16</ele>
        <time>2014-09-23T14:40:48Z</time>
      </trkpt>
      <trkpt lat="48.63755" lon="-4.28705">
        <ele>16</ele>
        <time>2014-09-23T14:40:54Z</time>
      </trkpt>
      <trkpt lat="48.63753" lon="-4.28716">
        <ele>16</ele>
        <time>2014-09-23T14:41:00Z</time>
      </trkpt>
      <trkpt lat="48.63752" lon="-4.28725">
        <ele>16</ele>
        <time>2014-09-23T14:41:05Z</time>
      </trkpt>
      <trkpt lat="48.6375" lon="-4.28735">
        <ele>16</ele>
        <time>2014-09-23T14:41:10Z</time>
      </trkpt>
      <trkpt lat="48.63748" lon="-4.28744">
        <ele>16</ele>
        <time>2014-09-23T14:41:15Z</time>
      </trkpt>
      <trkpt lat="48.63747" lon="-4.28754">
        <ele>16</ele>
        <time>2014-09-23T14:41:21Z</time>
      </trkpt>
      <trkpt lat="48.63745" lon="-4.28763">
        <ele>16</ele>
        <time>2014-09-23T14:41:26Z</time>
      </trkpt>
      <trkpt lat="48.63744" lon="-4.28772">
        <ele>16</ele>
        <time>2014-09-23T14:41:31Z</time>
      </trkpt>
      <trkpt lat="48.63742" lon="-4.28782">
        <ele>15</ele>
        <time>2014-09-23T14:41:37Z</time>
      </trkpt>
      <trkpt lat="48.63741" lon="-4.28792">
        <ele>16</ele>
        <time>2014-09-23T14:41:43Z</time>
      </trkpt>
      <trkpt lat="48.6374" lon="-4.28797">
        <ele>16</ele>
        <time>2014-09-23T14:41:48Z</time>
      </trkpt>
      <trkpt lat="48.63739" lon="-4.28797">
        <ele>17</ele>
        <time>2014-09-23T14:41:53Z</time>
      </trkpt>
      <trkpt lat="48.63739" lon="-4.28797">
        <ele>17</ele>
        <time>2014-09-23T14:41:59Z</time>
      </trkpt>
      <trkpt lat="48.63739" lon="-4.28799">
        <ele>17</ele>
        <time>2014-09-23T14:42:04Z</time>
      </trkpt>
      <trkpt lat="48.63737" lon="-4.28806">
        <ele>17</ele>
        <time>2014-09-23T14:42:10Z</time>
      </trkpt>
      <trkpt lat="48.63736" lon="-4.28814">
        <ele>17</ele>
        <time>2014-09-23T14:42:15Z</time>
      </trkpt>
      <trkpt lat="48.63735" lon="-4.28823">
        <ele>17</ele>
        <time>2014-09-23T14:42:21Z</time>
      </trkpt>
      <trkpt lat="48.63734" lon="-4.2883">
        <ele>17</ele>
        <time>2014-09-23T14:42:26Z</time>
      </trkpt>
      <trkpt lat="48.63732" lon="-4.28837">
        <ele>16</ele>
        <time>2014-09-23T14:42:31Z</time>
      </trkpt>
      <trkpt lat="48.63731" lon="-4.28845">
        <ele>16</ele>
        <time>2014-09-23T14:42:36Z</time>
      </trkpt>
      <trkpt lat="48.63729" lon="-4.28854">
        <ele>17</ele>
        <time>2014-09-23T14:42:42Z</time>
      </trkpt>
      <trkpt lat="48.63727" lon="-4.28864">
        <ele>16</ele>
        <time>2014-09-23T14:42:48Z</time>
      </trkpt>
      <trkpt lat="48.63726" lon="-4.28875">
        <ele>16</ele>
        <time>2014-09-23T14:42:54Z</time>
      </trkpt>
      <trkpt lat="48.63726" lon="-4.28883">
        <ele>16</ele>
        <time>2014-09-23T14:43:00Z</time>
      </trkpt>
      <trkpt lat="48.63727" lon="-4.28885">
        <ele>16</ele>
        <time>2014-09-23T14:43:06Z</time>
      </trkpt>
      <trkpt lat="48.63728" lon="-4.28887">
        <ele>17</ele>
        <time>2014-09-23T14:43:12Z</time>
      </trkpt>
      <trkpt lat="48.63731" lon="-4.28892">
        <ele>16</ele>
        <time>2014-09-23T14:43:18Z</time>
      </trkpt>
      <trkpt lat="48.63734" lon="-4.28898">
        <ele>16</ele>
        <time>2014-09-23T14:43:24Z</time>
      </trkpt>
      <trkpt lat="48.63738" lon="-4.28904">
        <ele>16</ele>
        <time>2014-09-23T14:43:30Z</time>
      </trkpt>
      <trkpt lat="48.6374" lon="-4.28912">
        <ele>17</ele>
        <time>2014-09-23T14:43:36Z</time>
      </trkpt>
      <trkpt lat="48.63743" lon="-4.28919">
        <ele>16</ele>
        <time>2014-09-23T14:43:41Z</time>
      </trkpt>
      <trkpt lat="48.63744" lon="-4.28928">
        <ele>16</ele>
        <time>2014-09-23T14:43:47Z</time>
      </trkpt>
      <trkpt lat="48.63744" lon="-4.28938">
        <ele>16</ele>
        <time>2014-09-23T14:43:53Z</time>
      </trkpt>
      <trkpt lat="48.63747" lon="-4.28944">
        <ele>16</ele>
        <time>2014-09-23T14:43:58Z</time>
      </trkpt>
      <trkpt lat="48.63752" lon="-4.28949">
        <ele>16</ele>
        <time>2014-09-23T14:44:04Z</time>
      </trkpt>
      <trkpt lat="48.63756" lon="-4.28955">
        <ele>16</ele>
        <time>2014-09-23T14:44:09Z</time>
      </trkpt>
      <trkpt lat="48.6376" lon="-4.2896">
        <ele>16</ele>
        <time>2014-09-23T14:44:14Z</time>
      </trkpt>
      <trkpt lat="48.63765" lon="-4.28966">
        <ele>16</ele>
        <time>2014-09-23T14:44:20Z</time>
      </trkpt>
      <trkpt lat="48.6377" lon="-4.28973">
        <ele>16</ele>
        <time>2014-09-23T14:44:26Z</time>
      </trkpt>
      <trkpt lat="48.63774" lon="-4.28981">
        <ele>16</ele>
        <time>2014-09-23T14:44:32Z</time>
      </trkpt>
      <trkpt lat="48.63779" lon="-4.28987">
        <ele>17</ele>
        <time>2014-09-23T14:44:37Z</time>
      </trkpt>
      <trkpt lat="48.63784" lon="-4.28995">
        <ele>16</ele>
        <time>2014-09-23T14:44:43Z</time>
      </trkpt>
      <trkpt lat="48.63788" lon="-4.29002">
        <ele>16</ele>
        <time>2014-09-23T14:44:48Z</time>
      </trkpt>
      <trkpt lat="48.63792" lon="-4.29008">
        <ele>17</ele>
        <time>2014-09-23T14:44:53Z</time>
      </trkpt>
      <trkpt lat="48.63796" lon="-4.29016">
        <ele>16</ele>
        <time>2014-09-23T14:44:59Z</time>
      </trkpt>
      <trkpt lat="48.63799" lon="-4.29026">
        <ele>16</ele>
        <time>2014-09-23T14:45:05Z</time>
      </trkpt>
      <trkpt lat="48.63802" lon="-4.29036">
        <ele>16</ele>
        <time>2014-09-23T14:45:11Z</time>
      </trkpt>
      <trkpt lat="48.63804" lon="-4.29046">
        <ele>16</ele>
        <time>2014-09-23T14:45:17Z</time>
      </trkpt>
      <trkpt lat="48.63806" lon="-4.29058">
        <ele>16</ele>
        <time>2014-09-23T14:45:23Z</time>
      </trkpt>
      <trkpt lat="48.63808" lon="-4.29067">
        <ele>16</ele>
        <time>2014-09-23T14:45:28Z</time>
      </trkpt>
      <trkpt lat="48.63811" lon="-4.29076">
        <ele>17</ele>
        <time>2014-09-23T14:45:33Z</time>
      </trkpt>
      <trkpt lat="48.63814" lon="-4.29083">
        <ele>17</ele>
        <time>2014-09-23T14:45:38Z</time>
      </trkpt>
      <trkpt lat="48.63818" lon="-4.29091">
        <ele>17</ele>
        <time>2014-09-23T14:45:44Z</time>
      </trkpt>
      <trkpt lat="48.63821" lon="-4.291">
        <ele>17</ele>
        <time>2014-09-23T14:45:50Z</time>
      </trkpt>
      <trkpt lat="48.63825" lon="-4.29108">
        <ele>17</ele>
        <time>2014-09-23T14:45:56Z</time>
      </trkpt>
      <trkpt lat="48.63825" lon="-4.29117">
        <ele>18</ele>
        <time>2014-09-23T14:46:01Z</time>
      </trkpt>
      <trkpt lat="48.63825" lon="-4.29125">
        <ele>18</ele>
        <time>2014-09-23T14:46:06Z</time>
      </trkpt>
      <trkpt lat="48.63825" lon="-4.29135">
        <ele>18</ele>
        <time>2014-09-23T14:46:12Z</time>
      </trkpt>
      <trkpt lat="48.63825" lon="-4.29143">
        <ele>18</ele>
        <time>2014-09-23T14:46:17Z</time>
      </trkpt>
      <trkpt lat="48.63823" lon="-4.29152">
        <ele>18</ele>
        <time>2014-09-23T14:46:23Z</time>
      </trkpt>
      <trkpt lat="48.63822" lon="-4.29162">
        <ele>18</ele>
        <time>2014-09-23T14:46:29Z</time>
      </trkpt>
      <trkpt lat="48.6382" lon="-4.29172">
        <ele>18</ele>
        <time>2014-09-23T14:46:35Z</time>
      </trkpt>
      <trkpt lat="48.6382" lon="-4.29181">
        <ele>18</ele>
        <time>2014-09-23T14:46:41Z</time>
      </trkpt>
      <trkpt lat="48.63819" lon="-4.2919">
        <ele>18</ele>
        <time>2014-09-23T14:46:46Z</time>
      </trkpt>
      <trkpt lat="48.63821" lon="-4.29199">
        <ele>19</ele>
        <time>2014-09-23T14:46:52Z</time>
      </trkpt>
      <trkpt lat="48.6382" lon="-4.29207">
        <ele>18</ele>
        <time>2014-09-23T14:46:57Z</time>
      </trkpt>
      <trkpt lat="48.63819" lon="-4.29216">
        <ele>18</ele>
        <time>2014-09-23T14:47:03Z</time>
      </trkpt>
      <trkpt lat="48.63817" lon="-4.29224">
        <ele>19</ele>
        <time>2014-09-23T14:47:09Z</time>
      </trkpt>
      <trkpt lat="48.63815" lon="-4.29234">
        <ele>19</ele>
        <time>2014-09-23T14:47:15Z</time>
      </trkpt>
      <trkpt lat="48.63813" lon="-4.29244">
        <ele>19</ele>
        <time>2014-09-23T14:47:21Z</time>
      </trkpt>
      <trkpt lat="48.63812" lon="-4.29251">
        <ele>19</ele>
        <time>2014-09-23T14:47:26Z</time>
      </trkpt>
      <trkpt lat="48.63811" lon="-4.29259">
        <ele>19</ele>
        <time>2014-09-23T14:47:31Z</time>
      </trkpt>
      <trkpt lat="48.63809" lon="-4.29268">
        <ele>19</ele>
        <time>2014-09-23T14:47:37Z</time>
      </trkpt>
      <trkpt lat="48.63807" lon="-4.29276">
        <ele>19</ele>
        <time>2014-09-23T14:47:43Z</time>
      </trkpt>
      <trkpt lat="48.63805" lon="-4.29285">
        <ele>20</ele>
        <time>2014-09-23T14:47:49Z</time>
      </trkpt>
      <trkpt lat="48.63802" lon="-4.29291">
        <ele>19</ele>
        <time>2014-09-23T14:47:54Z</time>
      </trkpt>
      <trkpt lat="48.63799" lon="-4.29298">
        <ele>19</ele>
        <time>2014-09-23T14:48:00Z</time>
      </trkpt>
      <trkpt lat="48.63795" lon="-4.29305">
        <ele>19</ele>
        <time>2014-09-23T14:48:06Z</time>
      </trkpt>
      <trkpt lat="48.63793" lon="-4.29307">
        <ele>20</ele>
        <time>2014-09-23T14:48:13Z</time>
      </trkpt>
      <trkpt lat="48.63793" lon="-4.29307">
        <ele>20</ele>
        <time>2014-09-23T14:48:20Z</time>
      </trkpt>
      <trkpt lat="48.63791" lon="-4.2931">
        <ele>21</ele>
        <time>2014-09-23T14:48:25Z</time>
      </trkpt>
      <trkpt lat="48.63787" lon="-4.29314">
        <ele>21</ele>
        <time>2014-09-23T14:48:31Z</time>
      </trkpt>
      <trkpt lat="48.63784" lon="-4.29317">
        <ele>21</ele>
        <time>2014-09-23T14:48:36Z</time>
      </trkpt>
      <trkpt lat="48.63779" lon="-4.29319">
        <ele>21</ele>
        <time>2014-09-23T14:48:42Z</time>
      </trkpt>
      <trkpt lat="48.63774" lon="-4.29319">
        <ele>21</ele>
        <time>2014-09-23T14:48:47Z</time>
      </trkpt>
      <trkpt lat="48.63769" lon="-4.29319">
        <ele>21</ele>
        <time>2014-09-23T14:48:53Z</time>
      </trkpt>
      <trkpt lat="48.63769" lon="-4.29323">
        <ele>22</ele>
        <time>2014-09-23T14:48:58Z</time>
      </trkpt>
      <trkpt lat="48.63768" lon="-4.29325">
        <ele>22</ele>
        <time>2014-09-23T14:49:04Z</time>
      </trkpt>
      <trkpt lat="48.63769" lon="-4.29326">
        <ele>22</ele>
        <time>2014-09-23T14:49:09Z</time>
      </trkpt>
      <trkpt lat="48.63769" lon="-4.29326">
        <ele>22</ele>
        <time>2014-09-23T14:49:15Z</time>
      </trkpt>
      <trkpt lat="48.63769" lon="-4.29326">
        <ele>22</ele>
        <time>2014-09-23T14:49:21Z</time>
      </trkpt>
      <trkpt lat="48.6377" lon="-4.29324">
        <ele>22</ele>
        <time>2014-09-23T14:49:31Z</time>
      </trkpt>
      <trkpt lat="48.6377" lon="-4.29324">
        <ele>22</ele>
        <time>2014-09-23T14:49:37Z</time>
      </trkpt>
      <trkpt lat="48.63769" lon="-4.29321">
        <ele>22</ele>
        <time>2014-09-23T14:49:42Z</time>
      </trkpt>
      <trkpt lat="48.63763" lon="-4.29318">
        <ele>21</ele>
        <time>2014-09-23T14:49:48Z</time>
      </trkpt>
      <trkpt lat="48.63757" lon="-4.29317">
        <ele>21</ele>
        <time>2014-09-23T14:49:54Z</time>
      </trkpt>
      <trkpt lat="48.63752" lon="-4.29316">
        <ele>21</ele>
        <time>2014-09-23T14:50:00Z</time>
      </trkpt>
      <trkpt lat="48.63747" lon="-4.29315">
        <ele>21</ele>
        <time>2014-09-23T14:50:05Z</time>
      </trkpt>
      <trkpt lat="48.63741" lon="-4.29314">
        <ele>21</ele>
        <time>2014-09-23T14:50:11Z</time>
      </trkpt>
      <trkpt lat="48.63736" lon="-4.29312">
        <ele>21</ele>
        <time>2014-09-23T14:50:16Z</time>
      </trkpt>
      <trkpt lat="48.63729" lon="-4.29309">
        <ele>21</ele>
        <time>2014-09-23T14:50:22Z</time>
      </trkpt>
      <trkpt lat="48.63723" lon="-4.29307">
        <ele>21</ele>
        <time>2014-09-23T14:50:28Z</time>
      </trkpt>
      <trkpt lat="48.63719" lon="-4.29306">
        <ele>21</ele>
        <time>2014-09-23T14:50:33Z</time>
      </trkpt>
      <trkpt lat="48.63718" lon="-4.29306">
        <ele>21</ele>
        <time>2014-09-23T14:50:40Z</time>
      </trkpt>
      <trkpt lat="48.63718" lon="-4.29305">
        <ele>21</ele>
        <time>2014-09-23T14:50:47Z</time>
      </trkpt>
      <trkpt lat="48.63713" lon="-4.29304">
        <ele>20</ele>
        <time>2014-09-23T14:50:53Z</time>
      </trkpt>
      <trkpt lat="48.63706" lon="-4.29302">
        <ele>21</ele>
        <time>2014-09-23T14:50:59Z</time>
      </trkpt>
      <trkpt lat="48.63704" lon="-4.29301">
        <ele>21</ele>
        <time>2014-09-23T14:51:05Z</time>
      </trkpt>
      <trkpt lat="48.63697" lon="-4.29301">
        <ele>20</ele>
        <time>2014-09-23T14:51:11Z</time>
      </trkpt>
      <trkpt lat="48.63692" lon="-4.293">
        <ele>21</ele>
        <time>2014-09-23T14:51:16Z</time>
      </trkpt>
      <trkpt lat="48.63686" lon="-4.29301">
        <ele>21</ele>
        <time>2014-09-23T14:51:22Z</time>
      </trkpt>
      <trkpt lat="48.6368" lon="-4.29304">
        <ele>20</ele>
        <time>2014-09-23T14:51:27Z</time>
      </trkpt>
      <trkpt lat="48.63676" lon="-4.29308">
        <ele>20</ele>
        <time>2014-09-23T14:51:32Z</time>
      </trkpt>
      <trkpt lat="48.6367" lon="-4.29312">
        <ele>20</ele>
        <time>2014-09-23T14:51:38Z</time>
      </trkpt>
      <trkpt lat="48.63665" lon="-4.29316">
        <ele>20</ele>
        <time>2014-09-23T14:51:43Z</time>
      </trkpt>
      <trkpt lat="48.63659" lon="-4.2932">
        <ele>19</ele>
        <time>2014-09-23T14:51:49Z</time>
      </trkpt>
      <trkpt lat="48.63653" lon="-4.29324">
        <ele>19</ele>
        <time>2014-09-23T14:51:54Z</time>
      </trkpt>
      <trkpt lat="48.63649" lon="-4.29327">
        <ele>20</ele>
        <time>2014-09-23T14:51:59Z</time>
      </trkpt>
      <trkpt lat="48.63644" lon="-4.29331">
        <ele>20</ele>
        <time>2014-09-23T14:52:04Z</time>
      </trkpt>
      <trkpt lat="48.63639" lon="-4.29335">
        <ele>20</ele>
        <time>2014-09-23T14:52:09Z</time>
      </trkpt>
      <trkpt lat="48.63635" lon="-4.29339">
        <ele>19</ele>
        <time>2014-09-23T14:52:14Z</time>
      </trkpt>
      <trkpt lat="48.63633" lon="-4.29341">
        <ele>19</ele>
        <time>2014-09-23T14:52:19Z</time>
      </trkpt>
      <trkpt lat="48.63632" lon="-4.29342">
        <ele>19</ele>
        <time>2014-09-23T14:52:25Z</time>
      </trkpt>
      <trkpt lat="48.63632" lon="-4.29342">
        <ele>20</ele>
        <time>2014-09-23T14:52:31Z</time>
      </trkpt>
      <trkpt lat="48.63632" lon="-4.29342">
        <ele>20</ele>
        <time>2014-09-23T14:52:36Z</time>
      </trkpt>
      <trkpt lat="48.63633" lon="-4.29343">
        <ele>20</ele>
        <time>2014-09-23T14:52:42Z</time>
      </trkpt>
      <trkpt lat="48.63633" lon="-4.29343">
        <ele>20</ele>
        <time>2014-09-23T14:52:49Z</time>
      </trkpt>
      <trkpt lat="48.63633" lon="-4.29343">
        <ele>19</ele>
        <time>2014-09-23T14:52:54Z</time>
      </trkpt>
      <trkpt lat="48.63633" lon="-4.29343">
        <ele>20</ele>
        <time>2014-09-23T14:53:04Z</time>
      </trkpt>
      <trkpt lat="48.63633" lon="-4.29343">
        <ele>20</ele>
        <time>2014-09-23T14:53:12Z</time>
      </trkpt>
      <trkpt lat="48.63633" lon="-4.29343">
        <ele>20</ele>
        <time>2014-09-23T14:53:17Z</time>
      </trkpt>
      <trkpt lat="48.63633" lon="-4.29343">
        <ele>19</ele>
        <time>2014-09-23T14:53:25Z</time>
      </trkpt>
      <trkpt lat="48.63633" lon="-4.29343">
        <ele>19</ele>
        <time>2014-09-23T14:53:31Z</time>
      </trkpt>
      <trkpt lat="48.63633" lon="-4.29343">
        <ele>19</ele>
        <time>2014-09-23T14:53:36Z</time>
      </trkpt>
      <trkpt lat="48.63633" lon="-4.29343">
        <ele>19</ele>
        <time>2014-09-23T14:53:42Z</time>
      </trkpt>
      <trkpt lat="48.63632" lon="-4.29343">
        <ele>19</ele>
        <time>2014-09-23T14:53:48Z</time>
      </trkpt>
      <trkpt lat="48.63633" lon="-4.29343">
        <ele>19</ele>
        <time>2014-09-23T14:53:54Z</time>
      </trkpt>
      <trkpt lat="48.63632" lon="-4.29343">
        <ele>19</ele>
        <time>2014-09-23T14:54:01Z</time>
      </trkpt>
      <trkpt lat="48.63633" lon="-4.29343">
        <ele>19</ele>
        <time>2014-09-23T14:54:10Z</time>
      </trkpt>
      <trkpt lat="48.63632" lon="-4.29343">
        <ele>19</ele>
        <time>2014-09-23T14:54:18Z</time>
      </trkpt>
      <trkpt lat="48.63632" lon="-4.29343">
        <ele>19</ele>
        <time>2014-09-23T14:54:26Z</time>
      </trkpt>
      <trkpt lat="48.63632" lon="-4.29343">
        <ele>19</ele>
        <time>2014-09-23T14:54:36Z</time>
      </trkpt>
      <trkpt lat="48.63633" lon="-4.29343">
        <ele>19</ele>
        <time>2014-09-23T14:54:49Z</time>
      </trkpt>
      <trkpt lat="48.63633" lon="-4.29343">
        <ele>19</ele>
        <time>2014-09-23T14:54:54Z</time>
      </trkpt>
      <trkpt lat="48.63633" lon="-4.29343">
        <ele>19</ele>
        <time>2014-09-23T14:55:02Z</time>
      </trkpt>
      <trkpt lat="48.63633" lon="-4.29343">
        <ele>19</ele>
        <time>2014-09-23T14:55:07Z</time>
      </trkpt>
      <trkpt lat="48.63633" lon="-4.29343">
        <ele>19</ele>
        <time>2014-09-23T14:55:21Z</time>
      </trkpt>
      <trkpt lat="48.63633" lon="-4.29343">
        <ele>19</ele>
        <time>2014-09-23T14:55:33Z</time>
      </trkpt>
      <trkpt lat="48.63633" lon="-4.29343">
        <ele>19</ele>
        <time>2014-09-23T14:55:39Z</time>
      </trkpt>
      <trkpt lat="48.63633" lon="-4.29343">
        <ele>19</ele>
        <time>2014-09-23T14:55:44Z</time>
      </trkpt>
      <trkpt lat="48.63633" lon="-4.29343">
        <ele>19</ele>
        <time>2014-09-23T14:55:49Z</time>
      </trkpt>
      <trkpt lat="48.63631" lon="-4.29343">
        <ele>20</ele>
        <time>2014-09-23T14:55:55Z</time>
      </trkpt>
      <trkpt lat="48.63627" lon="-4.29346">
        <ele>20</ele>
        <time>2014-09-23T14:56:01Z</time>
      </trkpt>
      <trkpt lat="48.63625" lon="-4.29348">
        <ele>20</ele>
        <time>2014-09-23T14:56:06Z</time>
      </trkpt>
      <trkpt lat="48.63625" lon="-4.29347">
        <ele>20</ele>
        <time>2014-09-23T14:56:12Z</time>
      </trkpt>
      <trkpt lat="48.63624" lon="-4.29347">
        <ele>20</ele>
        <time>2014-09-23T14:56:18Z</time>
      </trkpt>
      <trkpt lat="48.63623" lon="-4.29347">
        <ele>20</ele>
        <time>2014-09-23T14:56:24Z</time>
      </trkpt>
      <trkpt lat="48.63621" lon="-4.29348">
        <ele>20</ele>
        <time>2014-09-23T14:56:29Z</time>
      </trkpt>
      <trkpt lat="48.63618" lon="-4.2935">
        <ele>20</ele>
        <time>2014-09-23T14:56:34Z</time>
      </trkpt>
      <trkpt lat="48.63614" lon="-4.29353">
        <ele>21</ele>
        <time>2014-09-23T14:56:40Z</time>
      </trkpt>
      <trkpt lat="48.6361" lon="-4.29356">
        <ele>20</ele>
        <time>2014-09-23T14:56:46Z</time>
      </trkpt>
      <trkpt lat="48.63606" lon="-4.2936">
        <ele>20</ele>
        <time>2014-09-23T14:56:51Z</time>
      </trkpt>
      <trkpt lat="48.63601" lon="-4.29363">
        <ele>21</ele>
        <time>2014-09-23T14:56:56Z</time>
      </trkpt>
      <trkpt lat="48.63596" lon="-4.29367">
        <ele>21</ele>
        <time>2014-09-23T14:57:02Z</time>
      </trkpt>
      <trkpt lat="48.63591" lon="-4.29372">
        <ele>21</ele>
        <time>2014-09-23T14:57:07Z</time>
      </trkpt>
      <trkpt lat="48.63585" lon="-4.29376">
        <ele>21</ele>
        <time>2014-09-23T14:57:13Z</time>
      </trkpt>
      <trkpt lat="48.6358" lon="-4.2938">
        <ele>21</ele>
        <time>2014-09-23T14:57:18Z</time>
      </trkpt>
      <trkpt lat="48.63579" lon="-4.2938">
        <ele>20</ele>
        <time>2014-09-23T14:57:26Z</time>
      </trkpt>
      <trkpt lat="48.63579" lon="-4.2938">
        <ele>20</ele>
        <time>2014-09-23T14:57:32Z</time>
      </trkpt>
      <trkpt lat="48.63579" lon="-4.2938">
        <ele>20</ele>
        <time>2014-09-23T14:57:42Z</time>
      </trkpt>
      <trkpt lat="48.63577" lon="-4.29384">
        <ele>20</ele>
        <time>2014-09-23T14:57:48Z</time>
      </trkpt>
      <trkpt lat="48.63574" lon="-4.29387">
        <ele>20</ele>
        <time>2014-09-23T14:57:53Z</time>
      </trkpt>
      <trkpt lat="48.63569" lon="-4.29391">
        <ele>20</ele>
        <time>2014-09-23T14:57:58Z</time>
      </trkpt>
      <trkpt lat="48.63563" lon="-4.29395">
        <ele>20</ele>
        <time>2014-09-23T14:58:04Z</time>
      </trkpt>
      <trkpt lat="48.63557" lon="-4.29399">
        <ele>20</ele>
        <time>2014-09-23T14:58:10Z</time>
      </trkpt>
      <trkpt lat="48.63551" lon="-4.29404">
        <ele>20</ele>
        <time>2014-09-23T14:58:15Z</time>
      </trkpt>
      <trkpt lat="48.63545" lon="-4.29409">
        <ele>20</ele>
        <time>2014-09-23T14:58:21Z</time>
      </trkpt>
      <trkpt lat="48.63538" lon="-4.29415">
        <ele>20</ele>
        <time>2014-09-23T14:58:27Z</time>
      </trkpt>
      <trkpt lat="48.63533" lon="-4.29418">
        <ele>20</ele>
        <time>2014-09-23T14:58:32Z</time>
      </trkpt>
      <trkpt lat="48.63526" lon="-4.29421">
        <ele>20</ele>
        <time>2014-09-23T14:58:38Z</time>
      </trkpt>
      <trkpt lat="48.6352" lon="-4.29425">
        <ele>20</ele>
        <time>2014-09-23T14:58:44Z</time>
      </trkpt>
      <trkpt lat="48.63514" lon="-4.29429">
        <ele>20</ele>
        <time>2014-09-23T14:58:49Z</time>
      </trkpt>
      <trkpt lat="48.63508" lon="-4.29434">
        <ele>20</ele>
        <time>2014-09-23T14:58:55Z</time>
      </trkpt>
      <trkpt lat="48.63502" lon="-4.29439">
        <ele>20</ele>
        <time>2014-09-23T14:59:01Z</time>
      </trkpt>
      <trkpt lat="48.63496" lon="-4.29444">
        <ele>20</ele>
        <time>2014-09-23T14:59:06Z</time>
      </trkpt>
      <trkpt lat="48.63491" lon="-4.29448">
        <ele>20</ele>
        <time>2014-09-23T14:59:11Z</time>
      </trkpt>
      <trkpt lat="48.63484" lon="-4.29453">
        <ele>20</ele>
        <time>2014-09-23T14:59:17Z</time>
      </trkpt>
      <trkpt lat="48.63477" lon="-4.29458">
        <ele>20</ele>
        <time>2014-09-23T14:59:23Z</time>
      </trkpt>
      <trkpt lat="48.63471" lon="-4.29462">
        <ele>20</ele>
        <time>2014-09-23T14:59:29Z</time>
      </trkpt>
      <trkpt lat="48.63465" lon="-4.29467">
        <ele>20</ele>
        <time>2014-09-23T14:59:35Z</time>
      </trkpt>
      <trkpt lat="48.63459" lon="-4.29471">
        <ele>20</ele>
        <time>2014-09-23T14:59:40Z</time>
      </trkpt>
      <trkpt lat="48.63453" lon="-4.29476">
        <ele>19</ele>
        <time>2014-09-23T14:59:46Z</time>
      </trkpt>
      <trkpt lat="48.63448" lon="-4.2948">
        <ele>20</ele>
        <time>2014-09-23T14:59:51Z</time>
      </trkpt>
      <trkpt lat="48.63442" lon="-4.29484">
        <ele>20</ele>
        <time>2014-09-23T14:59:56Z</time>
      </trkpt>
      <trkpt lat="48.63437" lon="-4.29487">
        <ele>20</ele>
        <time>2014-09-23T15:00:01Z</time>
      </trkpt>
      <trkpt lat="48.63431" lon="-4.29492">
        <ele>20</ele>
        <time>2014-09-23T15:00:07Z</time>
      </trkpt>
      <trkpt lat="48.63427" lon="-4.29496">
        <ele>20</ele>
        <time>2014-09-23T15:00:12Z</time>
      </trkpt>
      <trkpt lat="48.6342" lon="-4.29501">
        <ele>20</ele>
        <time>2014-09-23T15:00:18Z</time>
      </trkpt>
      <trkpt lat="48.63415" lon="-4.29505">
        <ele>20</ele>
        <time>2014-09-23T15:00:23Z</time>
      </trkpt>
      <trkpt lat="48.6341" lon="-4.29509">
        <ele>20</ele>
        <time>2014-09-23T15:00:28Z</time>
      </trkpt>
      <trkpt lat="48.63404" lon="-4.29514">
        <ele>20</ele>
        <time>2014-09-23T15:00:34Z</time>
      </trkpt>
      <trkpt lat="48.63399" lon="-4.29517">
        <ele>20</ele>
        <time>2014-09-23T15:00:39Z</time>
      </trkpt>
      <trkpt lat="48.63395" lon="-4.2952">
        <ele>20</ele>
        <time>2014-09-23T15:00:44Z</time>
      </trkpt>
      <trkpt lat="48.63393" lon="-4.29524">
        <ele>21</ele>
        <time>2014-09-23T15:00:50Z</time>
      </trkpt>
      <trkpt lat="48.63392" lon="-4.29525">
        <ele>21</ele>
        <time>2014-09-23T15:00:56Z</time>
      </trkpt>
      <trkpt lat="48.63386" lon="-4.29528">
        <ele>20</ele>
        <time>2014-09-23T15:01:02Z</time>
      </trkpt>
      <trkpt lat="48.63381" lon="-4.29532">
        <ele>20</ele>
        <time>2014-09-23T15:01:07Z</time>
      </trkpt>
      <trkpt lat="48.63375" lon="-4.29535">
        <ele>21</ele>
        <time>2014-09-23T15:01:12Z</time>
      </trkpt>
      <trkpt lat="48.63371" lon="-4.29539">
        <ele>20</ele>
        <time>2014-09-23T15:01:17Z</time>
      </trkpt>
      <trkpt lat="48.63364" lon="-4.29543">
        <ele>20</ele>
        <time>2014-09-23T15:01:23Z</time>
      </trkpt>
      <trkpt lat="48.63359" lon="-4.29547">
        <ele>20</ele>
        <time>2014-09-23T15:01:28Z</time>
      </trkpt>
      <trkpt lat="48.63354" lon="-4.29551">
        <ele>20</ele>
        <time>2014-09-23T15:01:33Z</time>
      </trkpt>
      <trkpt lat="48.63348" lon="-4.29555">
        <ele>20</ele>
        <time>2014-09-23T15:01:39Z</time>
      </trkpt>
      <trkpt lat="48.63343" lon="-4.29559">
        <ele>20</ele>
        <time>2014-09-23T15:01:44Z</time>
      </trkpt>
      <trkpt lat="48.63337" lon="-4.29563">
        <ele>20</ele>
        <time>2014-09-23T15:01:50Z</time>
      </trkpt>
      <trkpt lat="48.63332" lon="-4.29568">
        <ele>20</ele>
        <time>2014-09-23T15:01:55Z</time>
      </trkpt>
      <trkpt lat="48.63327" lon="-4.29572">
        <ele>20</ele>
        <time>2014-09-23T15:02:00Z</time>
      </trkpt>
      <trkpt lat="48.63323" lon="-4.29577">
        <ele>20</ele>
        <time>2014-09-23T15:02:05Z</time>
      </trkpt>
      <trkpt lat="48.63318" lon="-4.29581">
        <ele>21</ele>
        <time>2014-09-23T15:02:10Z</time>
      </trkpt>
      <trkpt lat="48.63312" lon="-4.29585">
        <ele>21</ele>
        <time>2014-09-23T15:02:16Z</time>
      </trkpt>
      <trkpt lat="48.63307" lon="-4.29588">
        <ele>21</ele>
        <time>2014-09-23T15:02:21Z</time>
      </trkpt>
      <trkpt lat="48.63301" lon="-4.29592">
        <ele>20</ele>
        <time>2014-09-23T15:02:27Z</time>
      </trkpt>
      <trkpt lat="48.63297" lon="-4.29595">
        <ele>20</ele>
        <time>2014-09-23T15:02:32Z</time>
      </trkpt>
      <trkpt lat="48.63292" lon="-4.29598">
        <ele>21</ele>
        <time>2014-09-23T15:02:37Z</time>
      </trkpt>
      <trkpt lat="48.63289" lon="-4.29601">
        <ele>22</ele>
        <time>2014-09-23T15:02:43Z</time>
      </trkpt>
      <trkpt lat="48.63288" lon="-4.29603">
        <ele>22</ele>
        <time>2014-09-23T15:02:49Z</time>
      </trkpt>
      <trkpt lat="48.63283" lon="-4.29609">
        <ele>21</ele>
        <time>2014-09-23T15:02:55Z</time>
      </trkpt>
      <trkpt lat="48.63278" lon="-4.29612">
        <ele>21</ele>
        <time>2014-09-23T15:03:00Z</time>
      </trkpt>
      <trkpt lat="48.63272" lon="-4.29618">
        <ele>20</ele>
        <time>2014-09-23T15:03:06Z</time>
      </trkpt>
      <trkpt lat="48.63268" lon="-4.29622">
        <ele>20</ele>
        <time>2014-09-23T15:03:11Z</time>
      </trkpt>
      <trkpt lat="48.63262" lon="-4.29626">
        <ele>21</ele>
        <time>2014-09-23T15:03:16Z</time>
      </trkpt>
      <trkpt lat="48.63258" lon="-4.2963">
        <ele>21</ele>
        <time>2014-09-23T15:03:22Z</time>
      </trkpt>
      <trkpt lat="48.63255" lon="-4.29632">
        <ele>21</ele>
        <time>2014-09-23T15:03:27Z</time>
      </trkpt>
      <trkpt lat="48.6325" lon="-4.29637">
        <ele>20</ele>
        <time>2014-09-23T15:03:33Z</time>
      </trkpt>
      <trkpt lat="48.63243" lon="-4.29643">
        <ele>20</ele>
        <time>2014-09-23T15:03:39Z</time>
      </trkpt>
      <trkpt lat="48.63238" lon="-4.29648">
        <ele>19</ele>
        <time>2014-09-23T15:03:45Z</time>
      </trkpt>
      <trkpt lat="48.63236" lon="-4.29652">
        <ele>20</ele>
        <time>2014-09-23T15:03:50Z</time>
      </trkpt>
      <trkpt lat="48.63233" lon="-4.29647">
        <ele>20</ele>
        <time>2014-09-23T15:03:56Z</time>
      </trkpt>
      <trkpt lat="48.63229" lon="-4.29639">
        <ele>19</ele>
        <time>2014-09-23T15:04:02Z</time>
      </trkpt>
      <trkpt lat="48.63227" lon="-4.29632">
        <ele>19</ele>
        <time>2014-09-23T15:04:07Z</time>
      </trkpt>
      <trkpt lat="48.63224" lon="-4.29626">
        <ele>19</ele>
        <time>2014-09-23T15:04:12Z</time>
      </trkpt>
      <trkpt lat="48.63221" lon="-4.29617">
        <ele>20</ele>
        <time>2014-09-23T15:04:18Z</time>
      </trkpt>
      <trkpt lat="48.63219" lon="-4.2961">
        <ele>20</ele>
        <time>2014-09-23T15:04:23Z</time>
      </trkpt>
      <trkpt lat="48.63217" lon="-4.29601">
        <ele>20</ele>
        <time>2014-09-23T15:04:29Z</time>
      </trkpt>
      <trkpt lat="48.63216" lon="-4.29592">
        <ele>21</ele>
        <time>2014-09-23T15:04:35Z</time>
      </trkpt>
      <trkpt lat="48.63213" lon="-4.29585">
        <ele>20</ele>
        <time>2014-09-23T15:04:40Z</time>
      </trkpt>
      <trkpt lat="48.6321" lon="-4.29575">
        <ele>20</ele>
        <time>2014-09-23T15:04:46Z</time>
      </trkpt>
      <trkpt lat="48.63206" lon="-4.29568">
        <ele>20</ele>
        <time>2014-09-23T15:04:51Z</time>
      </trkpt>
      <trkpt lat="48.63202" lon="-4.29563">
        <ele>20</ele>
        <time>2014-09-23T15:04:56Z</time>
      </trkpt>
      <trkpt lat="48.63198" lon="-4.29555">
        <ele>20</ele>
        <time>2014-09-23T15:05:02Z</time>
      </trkpt>
      <trkpt lat="48.63196" lon="-4.29548">
        <ele>20</ele>
        <time>2014-09-23T15:05:07Z</time>
      </trkpt>
      <trkpt lat="48.63196" lon="-4.2954">
        <ele>20</ele>
        <time>2014-09-23T15:05:12Z</time>
      </trkpt>
      <trkpt lat="48.63201" lon="-4.29532">
        <ele>20</ele>
        <time>2014-09-23T15:05:18Z</time>
      </trkpt>
      <trkpt lat="48.63205" lon="-4.29526">
        <ele>20</ele>
        <time>2014-09-23T15:05:23Z</time>
      </trkpt>
      <trkpt lat="48.63209" lon="-4.2952">
        <ele>20</ele>
        <time>2014-09-23T15:05:28Z</time>
      </trkpt>
      <trkpt lat="48.63214" lon="-4.29516">
        <ele>20</ele>
        <time>2014-09-23T15:05:33Z</time>
      </trkpt>
      <trkpt lat="48.63219" lon="-4.29509">
        <ele>20</ele>
        <time>2014-09-23T15:05:39Z</time>
      </trkpt>
      <trkpt lat="48.63223" lon="-4.29504">
        <ele>19</ele>
        <time>2014-09-23T15:05:44Z</time>
      </trkpt>
      <trkpt lat="48.63227" lon="-4.295">
        <ele>19</ele>
        <time>2014-09-23T15:05:50Z</time>
      </trkpt>
      <trkpt lat="48.63232" lon="-4.29495">
        <ele>20</ele>
        <time>2014-09-23T15:05:56Z</time>
      </trkpt>
      <trkpt lat="48.63236" lon="-4.2949">
        <ele>19</ele>
        <time>2014-09-23T15:06:01Z</time>
      </trkpt>
      <trkpt lat="48.63241" lon="-4.29484">
        <ele>19</ele>
        <time>2014-09-23T15:06:07Z</time>
      </trkpt>
      <trkpt lat="48.63245" lon="-4.29479">
        <ele>20</ele>
        <time>2014-09-23T15:06:12Z</time>
      </trkpt>
      <trkpt lat="48.6325" lon="-4.29474">
        <ele>19</ele>
        <time>2014-09-23T15:06:17Z</time>
      </trkpt>
      <trkpt lat="48.63255" lon="-4.29467">
        <ele>19</ele>
        <time>2014-09-23T15:06:23Z</time>
      </trkpt>
      <trkpt lat="48.6326" lon="-4.2946">
        <ele>20</ele>
        <time>2014-09-23T15:06:29Z</time>
      </trkpt>
      <trkpt lat="48.63265" lon="-4.29453">
        <ele>20</ele>
        <time>2014-09-23T15:06:35Z</time>
      </trkpt>
      <trkpt lat="48.63269" lon="-4.29448">
        <ele>19</ele>
        <time>2014-09-23T15:06:40Z</time>
      </trkpt>
      <trkpt lat="48.63274" lon="-4.29442">
        <ele>19</ele>
        <time>2014-09-23T15:06:46Z</time>
      </trkpt>
      <trkpt lat="48.63279" lon="-4.29436">
        <ele>19</ele>
        <time>2014-09-23T15:06:52Z</time>
      </trkpt>
      <trkpt lat="48.63283" lon="-4.29431">
        <ele>19</ele>
        <time>2014-09-23T15:06:57Z</time>
      </trkpt>
      <trkpt lat="48.63287" lon="-4.29425">
        <ele>19</ele>
        <time>2014-09-23T15:07:02Z</time>
      </trkpt>
      <trkpt lat="48.63292" lon="-4.29419">
        <ele>19</ele>
        <time>2014-09-23T15:07:08Z</time>
      </trkpt>
      <trkpt lat="48.63296" lon="-4.29412">
        <ele>19</ele>
        <time>2014-09-23T15:07:14Z</time>
      </trkpt>
      <trkpt lat="48.633" lon="-4.29406">
        <ele>19</ele>
        <time>2014-09-23T15:07:19Z</time>
      </trkpt>
      <trkpt lat="48.63304" lon="-4.29401">
        <ele>19</ele>
        <time>2014-09-23T15:07:24Z</time>
      </trkpt>
      <trkpt lat="48.63306" lon="-4.29397">
        <ele>19</ele>
        <time>2014-09-23T15:07:29Z</time>
      </trkpt>
      <trkpt lat="48.6331" lon="-4.29391">
        <ele>19</ele>
        <time>2014-09-23T15:07:35Z</time>
      </trkpt>
      <trkpt lat="48.63314" lon="-4.29383">
        <ele>19</ele>
        <time>2014-09-23T15:07:41Z</time>
      </trkpt>
      <trkpt lat="48.63317" lon="-4.29376">
        <ele>19</ele>
        <time>2014-09-23T15:07:46Z</time>
      </trkpt>
      <trkpt lat="48.63321" lon="-4.29369">
        <ele>19</ele>
        <time>2014-09-23T15:07:52Z</time>
      </trkpt>
      <trkpt lat="48.63325" lon="-4.29362">
        <ele>19</ele>
        <time>2014-09-23T15:07:58Z</time>
      </trkpt>
      <trkpt lat="48.6333" lon="-4.29355">
        <ele>19</ele>
        <time>2014-09-23T15:08:04Z</time>
      </trkpt>
      <trkpt lat="48.63334" lon="-4.2935">
        <ele>19</ele>
        <time>2014-09-23T15:08:09Z</time>
      </trkpt>
      <trkpt lat="48.63333" lon="-4.29349">
        <ele>18</ele>
        <time>2014-09-23T15:08:15Z</time>
      </trkpt>
      <trkpt lat="48.63332" lon="-4.29348">
        <ele>18</ele>
        <time>2014-09-23T15:08:20Z</time>
      </trkpt>
      <trkpt lat="48.63333" lon="-4.29345">
        <ele>18</ele>
        <time>2014-09-23T15:08:26Z</time>
      </trkpt>
      <trkpt lat="48.63337" lon="-4.29338">
        <ele>19</ele>
        <time>2014-09-23T15:08:32Z</time>
      </trkpt>
      <trkpt lat="48.63341" lon="-4.29331">
        <ele>18</ele>
        <time>2014-09-23T15:08:38Z</time>
      </trkpt>
      <trkpt lat="48.63345" lon="-4.29325">
        <ele>18</ele>
        <time>2014-09-23T15:08:43Z</time>
      </trkpt>
      <trkpt lat="48.63351" lon="-4.29316">
        <ele>18</ele>
        <time>2014-09-23T15:08:49Z</time>
      </trkpt>
      <trkpt lat="48.63355" lon="-4.2931">
        <ele>18</ele>
        <time>2014-09-23T15:08:54Z</time>
      </trkpt>
      <trkpt lat="48.63359" lon="-4.29303">
        <ele>18</ele>
        <time>2014-09-23T15:09:00Z</time>
      </trkpt>
      <trkpt lat="48.63362" lon="-4.29296">
        <ele>19</ele>
        <time>2014-09-23T15:09:05Z</time>
      </trkpt>
      <trkpt lat="48.63366" lon="-4.2929">
        <ele>19</ele>
        <time>2014-09-23T15:09:11Z</time>
      </trkpt>
      <trkpt lat="48.63367" lon="-4.29288">
        <ele>18</ele>
        <time>2014-09-23T15:09:17Z</time>
      </trkpt>
      <trkpt lat="48.63369" lon="-4.29283">
        <ele>19</ele>
        <time>2014-09-23T15:09:22Z</time>
      </trkpt>
      <trkpt lat="48.63373" lon="-4.29275">
        <ele>19</ele>
        <time>2014-09-23T15:09:28Z</time>
      </trkpt>
      <trkpt lat="48.63377" lon="-4.29268">
        <ele>18</ele>
        <time>2014-09-23T15:09:34Z</time>
      </trkpt>
      <trkpt lat="48.6338" lon="-4.29265">
        <ele>18</ele>
        <time>2014-09-23T15:09:43Z</time>
      </trkpt>
      <trkpt lat="48.63379" lon="-4.29265">
        <ele>18</ele>
        <time>2014-09-23T15:09:49Z</time>
      </trkpt>
      <trkpt lat="48.63379" lon="-4.29265">
        <ele>18</ele>
        <time>2014-09-23T15:09:54Z</time>
      </trkpt>
      <trkpt lat="48.63379" lon="-4.29264">
        <ele>18</ele>
        <time>2014-09-23T15:09:59Z</time>
      </trkpt>
      <trkpt lat="48.6338" lon="-4.29263">
        <ele>18</ele>
        <time>2014-09-23T15:10:05Z</time>
      </trkpt>
      <trkpt lat="48.6338" lon="-4.29263">
        <ele>18</ele>
        <time>2014-09-23T15:10:11Z</time>
      </trkpt>
      <trkpt lat="48.63381" lon="-4.29257">
        <ele>18</ele>
        <time>2014-09-23T15:10:16Z</time>
      </trkpt>
      <trkpt lat="48.63386" lon="-4.2925">
        <ele>18</ele>
        <time>2014-09-23T15:10:22Z</time>
      </trkpt>
      <trkpt lat="48.63389" lon="-4.29244">
        <ele>18</ele>
        <time>2014-09-23T15:10:27Z</time>
      </trkpt>
      <trkpt lat="48.63393" lon="-4.29237">
        <ele>19</ele>
        <time>2014-09-23T15:10:32Z</time>
      </trkpt>
      <trkpt lat="48.63397" lon="-4.29231">
        <ele>19</ele>
        <time>2014-09-23T15:10:37Z</time>
      </trkpt>
      <trkpt lat="48.63398" lon="-4.29228">
        <ele>19</ele>
        <time>2014-09-23T15:10:43Z</time>
      </trkpt>
      <trkpt lat="48.634" lon="-4.29223">
        <ele>19</ele>
        <time>2014-09-23T15:10:49Z</time>
      </trkpt>
      <trkpt lat="48.63405" lon="-4.29215">
        <ele>19</ele>
        <time>2014-09-23T15:10:55Z</time>
      </trkpt>
      <trkpt lat="48.63409" lon="-4.29206">
        <ele>19</ele>
        <time>2014-09-23T15:11:01Z</time>
      </trkpt>
      <trkpt lat="48.63412" lon="-4.29199">
        <ele>18</ele>
        <time>2014-09-23T15:11:06Z</time>
      </trkpt>
      <trkpt lat="48.63416" lon="-4.29192">
        <ele>18</ele>
        <time>2014-09-23T15:11:12Z</time>
      </trkpt>
      <trkpt lat="48.63419" lon="-4.29187">
        <ele>19</ele>
        <time>2014-09-23T15:11:17Z</time>
      </trkpt>
      <trkpt lat="48.6342" lon="-4.29179">
        <ele>19</ele>
        <time>2014-09-23T15:11:23Z</time>
      </trkpt>
      <trkpt lat="48.63424" lon="-4.2917">
        <ele>19</ele>
        <time>2014-09-23T15:11:29Z</time>
      </trkpt>
      <trkpt lat="48.63427" lon="-4.29161">
        <ele>19</ele>
        <time>2014-09-23T15:11:35Z</time>
      </trkpt>
      <trkpt lat="48.63431" lon="-4.29151">
        <ele>19</ele>
        <time>2014-09-23T15:11:41Z</time>
      </trkpt>
      <trkpt lat="48.63434" lon="-4.29143">
        <ele>19</ele>
        <time>2014-09-23T15:11:46Z</time>
      </trkpt>
      <trkpt lat="48.63437" lon="-4.29135">
        <ele>19</ele>
        <time>2014-09-23T15:11:51Z</time>
      </trkpt>
      <trkpt lat="48.63441" lon="-4.29126">
        <ele>19</ele>
        <time>2014-09-23T15:11:57Z</time>
      </trkpt>
      <trkpt lat="48.63445" lon="-4.29117">
        <ele>19</ele>
        <time>2014-09-23T15:12:03Z</time>
      </trkpt>
      <trkpt lat="48.63448" lon="-4.29108">
        <ele>19</ele>
        <time>2014-09-23T15:12:09Z</time>
      </trkpt>
      <trkpt lat="48.6345" lon="-4.29099">
        <ele>19</ele>
        <time>2014-09-23T15:12:15Z</time>
      </trkpt>
      <trkpt lat="48.63454" lon="-4.29089">
        <ele>19</ele>
        <time>2014-09-23T15:12:21Z</time>
      </trkpt>
      <trkpt lat="48.63456" lon="-4.29081">
        <ele>18</ele>
        <time>2014-09-23T15:12:27Z</time>
      </trkpt>
      <trkpt lat="48.63459" lon="-4.29073">
        <ele>18</ele>
        <time>2014-09-23T15:12:32Z</time>
      </trkpt>
      <trkpt lat="48.63462" lon="-4.29065">
        <ele>18</ele>
        <time>2014-09-23T15:12:37Z</time>
      </trkpt>
      <trkpt lat="48.63464" lon="-4.29058">
        <ele>18</ele>
        <time>2014-09-23T15:12:42Z</time>
      </trkpt>
      <trkpt lat="48.63468" lon="-4.29049">
        <ele>19</ele>
        <time>2014-09-23T15:12:48Z</time>
      </trkpt>
      <trkpt lat="48.63471" lon="-4.2904">
        <ele>18</ele>
        <time>2014-09-23T15:12:54Z</time>
      </trkpt>
      <trkpt lat="48.63474" lon="-4.29033">
        <ele>19</ele>
        <time>2014-09-23T15:12:59Z</time>
      </trkpt>
      <trkpt lat="48.63477" lon="-4.29026">
        <ele>19</ele>
        <time>2014-09-23T15:13:04Z</time>
      </trkpt>
      <trkpt lat="48.63481" lon="-4.29017">
        <ele>19</ele>
        <time>2014-09-23T15:13:10Z</time>
      </trkpt>
      <trkpt lat="48.63483" lon="-4.29014">
        <ele>19</ele>
        <time>2014-09-23T15:13:15Z</time>
      </trkpt>
      <trkpt lat="48.63483" lon="-4.29014">
        <ele>19</ele>
        <time>2014-09-23T15:13:21Z</time>
      </trkpt>
      <trkpt lat="48.63482" lon="-4.29014">
        <ele>18</ele>
        <time>2014-09-23T15:13:26Z</time>
      </trkpt>
      <trkpt lat="48.63482" lon="-4.2901">
        <ele>18</ele>
        <time>2014-09-23T15:13:31Z</time>
      </trkpt>
      <trkpt lat="48.63485" lon="-4.29">
        <ele>19</ele>
        <time>2014-09-23T15:13:37Z</time>
      </trkpt>
      <trkpt lat="48.63487" lon="-4.28992">
        <ele>19</ele>
        <time>2014-09-23T15:13:42Z</time>
      </trkpt>
      <trkpt lat="48.6349" lon="-4.28982">
        <ele>18</ele>
        <time>2014-09-23T15:13:48Z</time>
      </trkpt>
      <trkpt lat="48.63492" lon="-4.28974">
        <ele>18</ele>
        <time>2014-09-23T15:13:53Z</time>
      </trkpt>
      <trkpt lat="48.63494" lon="-4.28966">
        <ele>18</ele>
        <time>2014-09-23T15:13:58Z</time>
      </trkpt>
      <trkpt lat="48.63497" lon="-4.28957">
        <ele>18</ele>
        <time>2014-09-23T15:14:04Z</time>
      </trkpt>
      <trkpt lat="48.63499" lon="-4.28949">
        <ele>18</ele>
        <time>2014-09-23T15:14:09Z</time>
      </trkpt>
      <trkpt lat="48.63502" lon="-4.28942">
        <ele>18</ele>
        <time>2014-09-23T15:14:14Z</time>
      </trkpt>
      <trkpt lat="48.63505" lon="-4.28933">
        <ele>18</ele>
        <time>2014-09-23T15:14:20Z</time>
      </trkpt>
      <trkpt lat="48.63508" lon="-4.28924">
        <ele>18</ele>
        <time>2014-09-23T15:14:26Z</time>
      </trkpt>
      <trkpt lat="48.6351" lon="-4.28916">
        <ele>18</ele>
        <time>2014-09-23T15:14:31Z</time>
      </trkpt>
      <trkpt lat="48.63512" lon="-4.28909">
        <ele>18</ele>
        <time>2014-09-23T15:14:36Z</time>
      </trkpt>
      <trkpt lat="48.63515" lon="-4.289">
        <ele>18</ele>
        <time>2014-09-23T15:14:42Z</time>
      </trkpt>
      <trkpt lat="48.63518" lon="-4.28894">
        <ele>18</ele>
        <time>2014-09-23T15:14:47Z</time>
      </trkpt>
      <trkpt lat="48.63521" lon="-4.28885">
        <ele>18</ele>
        <time>2014-09-23T15:14:53Z</time>
      </trkpt>
      <trkpt lat="48.63524" lon="-4.28877">
        <ele>18</ele>
        <time>2014-09-23T15:14:58Z</time>
      </trkpt>
      <trkpt lat="48.63527" lon="-4.28867">
        <ele>18</ele>
        <time>2014-09-23T15:15:04Z</time>
      </trkpt>
      <trkpt lat="48.63529" lon="-4.28858">
        <ele>18</ele>
        <time>2014-09-23T15:15:10Z</time>
      </trkpt>
      <trkpt lat="48.63532" lon="-4.28849">
        <ele>18</ele>
        <time>2014-09-23T15:15:15Z</time>
      </trkpt>
      <trkpt lat="48.63534" lon="-4.28841">
        <ele>19</ele>
        <time>2014-09-23T15:15:20Z</time>
      </trkpt>
      <trkpt lat="48.63537" lon="-4.28832">
        <ele>18</ele>
        <time>2014-09-23T15:15:26Z</time>
      </trkpt>
      <trkpt lat="48.6354" lon="-4.28823">
        <ele>19</ele>
        <time>2014-09-23T15:15:32Z</time>
      </trkpt>
      <trkpt lat="48.63542" lon="-4.28815">
        <ele>19</ele>
        <time>2014-09-23T15:15:37Z</time>
      </trkpt>
      <trkpt lat="48.63545" lon="-4.28807">
        <ele>19</ele>
        <time>2014-09-23T15:15:42Z</time>
      </trkpt>
      <trkpt lat="48.63548" lon="-4.28799">
        <ele>19</ele>
        <time>2014-09-23T15:15:47Z</time>
      </trkpt>
      <trkpt lat="48.63551" lon="-4.2879">
        <ele>18</ele>
        <time>2014-09-23T15:15:53Z</time>
      </trkpt>
      <trkpt lat="48.63554" lon="-4.28781">
        <ele>19</ele>
        <time>2014-09-23T15:15:59Z</time>
      </trkpt>
      <trkpt lat="48.63556" lon="-4.28772">
        <ele>18</ele>
        <time>2014-09-23T15:16:04Z</time>
      </trkpt>
      <trkpt lat="48.63559" lon="-4.28765">
        <ele>18</ele>
        <time>2014-09-23T15:16:09Z</time>
      </trkpt>
      <trkpt lat="48.63561" lon="-4.28758">
        <ele>19</ele>
        <time>2014-09-23T15:16:14Z</time>
      </trkpt>
      <trkpt lat="48.63564" lon="-4.2875">
        <ele>19</ele>
        <time>2014-09-23T15:16:20Z</time>
      </trkpt>
      <trkpt lat="48.63564" lon="-4.2875">
        <ele>19</ele>
        <time>2014-09-23T15:16:27Z</time>
      </trkpt>
      <trkpt lat="48.63566" lon="-4.28741">
        <ele>19</ele>
        <time>2014-09-23T15:16:33Z</time>
      </trkpt>
      <trkpt lat="48.63569" lon="-4.28734">
        <ele>19</ele>
        <time>2014-09-23T15:16:38Z</time>
      </trkpt>
      <trkpt lat="48.63572" lon="-4.28724">
        <ele>19</ele>
        <time>2014-09-23T15:16:44Z</time>
      </trkpt>
      <trkpt lat="48.63575" lon="-4.28715">
        <ele>19</ele>
        <time>2014-09-23T15:16:50Z</time>
      </trkpt>
      <trkpt lat="48.63578" lon="-4.28706">
        <ele>19</ele>
        <time>2014-09-23T15:16:55Z</time>
      </trkpt>
      <trkpt lat="48.6358" lon="-4.28698">
        <ele>19</ele>
        <time>2014-09-23T15:17:01Z</time>
      </trkpt>
      <trkpt lat="48.63582" lon="-4.28694">
        <ele>19</ele>
        <time>2014-09-23T15:17:06Z</time>
      </trkpt>
      <trkpt lat="48.63585" lon="-4.28685">
        <ele>19</ele>
        <time>2014-09-23T15:17:12Z</time>
      </trkpt>
      <trkpt lat="48.63588" lon="-4.28676">
        <ele>19</ele>
        <time>2014-09-23T15:17:18Z</time>
      </trkpt>
      <trkpt lat="48.63591" lon="-4.28668">
        <ele>19</ele>
        <time>2014-09-23T15:17:24Z</time>
      </trkpt>
      <trkpt lat="48.63594" lon="-4.28659">
        <ele>20</ele>
        <time>2014-09-23T15:17:30Z</time>
      </trkpt>
      <trkpt lat="48.63597" lon="-4.28651">
        <ele>19</ele>
        <time>2014-09-23T15:17:35Z</time>
      </trkpt>
      <trkpt lat="48.636" lon="-4.28642">
        <ele>19</ele>
        <time>2014-09-23T15:17:41Z</time>
      </trkpt>
      <trkpt lat="48.63602" lon="-4.28634">
        <ele>19</ele>
        <time>2014-09-23T15:17:46Z</time>
      </trkpt>
      <trkpt lat="48.63605" lon="-4.28626">
        <ele>19</ele>
        <time>2014-09-23T15:17:51Z</time>
      </trkpt>
      <trkpt lat="48.63607" lon="-4.28616">
        <ele>19</ele>
        <time>2014-09-23T15:17:57Z</time>
      </trkpt>
      <trkpt lat="48.63609" lon="-4.28609">
        <ele>19</ele>
        <time>2014-09-23T15:18:02Z</time>
      </trkpt>
      <trkpt lat="48.63613" lon="-4.286">
        <ele>19</ele>
        <time>2014-09-23T15:18:08Z</time>
      </trkpt>
      <trkpt lat="48.63615" lon="-4.28593">
        <ele>20</ele>
        <time>2014-09-23T15:18:13Z</time>
      </trkpt>
      <trkpt lat="48.63618" lon="-4.28585">
        <ele>20</ele>
        <time>2014-09-23T15:18:18Z</time>
      </trkpt>
      <trkpt lat="48.63621" lon="-4.28577">
        <ele>19</ele>
        <time>2014-09-23T15:18:23Z</time>
      </trkpt>
      <trkpt lat="48.63624" lon="-4.28568">
        <ele>19</ele>
        <time>2014-09-23T15:18:29Z</time>
      </trkpt>
      <trkpt lat="48.63625" lon="-4.28564">
        <ele>19</ele>
        <time>2014-09-23T15:18:34Z</time>
      </trkpt>
      <trkpt lat="48.63628" lon="-4.28556">
        <ele>20</ele>
        <time>2014-09-23T15:18:40Z</time>
      </trkpt>
      <trkpt lat="48.6363" lon="-4.28549">
        <ele>20</ele>
        <time>2014-09-23T15:18:45Z</time>
      </trkpt>
      <trkpt lat="48.63633" lon="-4.28541">
        <ele>19</ele>
        <time>2014-09-23T15:18:50Z</time>
      </trkpt>
      <trkpt lat="48.63636" lon="-4.28532">
        <ele>20</ele>
        <time>2014-09-23T15:18:56Z</time>
      </trkpt>
      <trkpt lat="48.63639" lon="-4.28523">
        <ele>19</ele>
        <time>2014-09-23T15:19:02Z</time>
      </trkpt>
      <trkpt lat="48.63642" lon="-4.28515">
        <ele>20</ele>
        <time>2014-09-23T15:19:07Z</time>
      </trkpt>
      <trkpt lat="48.63645" lon="-4.28508">
        <ele>20</ele>
        <time>2014-09-23T15:19:12Z</time>
      </trkpt>
      <trkpt lat="48.63648" lon="-4.28499">
        <ele>20</ele>
        <time>2014-09-23T15:19:18Z</time>
      </trkpt>
      <trkpt lat="48.63651" lon="-4.28489">
        <ele>20</ele>
        <time>2014-09-23T15:19:24Z</time>
      </trkpt>
      <trkpt lat="48.63652" lon="-4.28485">
        <ele>20</ele>
        <time>2014-09-23T15:19:30Z</time>
      </trkpt>
      <trkpt lat="48.63655" lon="-4.28476">
        <ele>20</ele>
        <time>2014-09-23T15:19:36Z</time>
      </trkpt>
      <trkpt lat="48.63659" lon="-4.28466">
        <ele>20</ele>
        <time>2014-09-23T15:19:42Z</time>
      </trkpt>
      <trkpt lat="48.63661" lon="-4.28458">
        <ele>20</ele>
        <time>2014-09-23T15:19:47Z</time>
      </trkpt>
      <trkpt lat="48.63663" lon="-4.2845">
        <ele>20</ele>
        <time>2014-09-23T15:19:52Z</time>
      </trkpt>
      <trkpt lat="48.63667" lon="-4.2844">
        <ele>20</ele>
        <time>2014-09-23T15:19:58Z</time>
      </trkpt>
      <trkpt lat="48.6367" lon="-4.28432">
        <ele>20</ele>
        <time>2014-09-23T15:20:04Z</time>
      </trkpt>
      <trkpt lat="48.63671" lon="-4.28429">
        <ele>20</ele>
        <time>2014-09-23T15:20:11Z</time>
      </trkpt>
      <trkpt lat="48.63671" lon="-4.28428">
        <ele>19</ele>
        <time>2014-09-23T15:20:16Z</time>
      </trkpt>
      <trkpt lat="48.63673" lon="-4.28424">
        <ele>20</ele>
        <time>2014-09-23T15:20:21Z</time>
      </trkpt>
      <trkpt lat="48.63676" lon="-4.28414">
        <ele>20</ele>
        <time>2014-09-23T15:20:27Z</time>
      </trkpt>
      <trkpt lat="48.63678" lon="-4.28405">
        <ele>20</ele>
        <time>2014-09-23T15:20:33Z</time>
      </trkpt>
      <trkpt lat="48.63681" lon="-4.28397">
        <ele>20</ele>
        <time>2014-09-23T15:20:38Z</time>
      </trkpt>
      <trkpt lat="48.63684" lon="-4.28387">
        <ele>20</ele>
        <time>2014-09-23T15:20:44Z</time>
      </trkpt>
      <trkpt lat="48.63687" lon="-4.28377">
        <ele>20</ele>
        <time>2014-09-23T15:20:50Z</time>
      </trkpt>
      <trkpt lat="48.6369" lon="-4.28369">
        <ele>20</ele>
        <time>2014-09-23T15:20:56Z</time>
      </trkpt>
      <trkpt lat="48.63694" lon="-4.2836">
        <ele>20</ele>
        <time>2014-09-23T15:21:02Z</time>
      </trkpt>
      <trkpt lat="48.63697" lon="-4.2835">
        <ele>20</ele>
        <time>2014-09-23T15:21:08Z</time>
      </trkpt>
      <trkpt lat="48.637" lon="-4.28341">
        <ele>20</ele>
        <time>2014-09-23T15:21:14Z</time>
      </trkpt>
      <trkpt lat="48.63703" lon="-4.28335">
        <ele>20</ele>
        <time>2014-09-23T15:21:19Z</time>
      </trkpt>
      <trkpt lat="48.63703" lon="-4.28336">
        <ele>20</ele>
        <time>2014-09-23T15:21:24Z</time>
      </trkpt>
      <trkpt lat="48.63706" lon="-4.28338">
        <ele>20</ele>
        <time>2014-09-23T15:21:30Z</time>
      </trkpt>
      <trkpt lat="48.63705" lon="-4.28333">
        <ele>20</ele>
        <time>2014-09-23T15:21:36Z</time>
      </trkpt>
      <trkpt lat="48.63704" lon="-4.28331">
        <ele>20</ele>
        <time>2014-09-23T15:21:42Z</time>
      </trkpt>
      <trkpt lat="48.63706" lon="-4.28323">
        <ele>20</ele>
        <time>2014-09-23T15:21:48Z</time>
      </trkpt>
      <trkpt lat="48.63707" lon="-4.28319">
        <ele>21</ele>
        <time>2014-09-23T15:21:53Z</time>
      </trkpt>
      <trkpt lat="48.6371" lon="-4.28312">
        <ele>20</ele>
        <time>2014-09-23T15:21:58Z</time>
      </trkpt>
      <trkpt lat="48.63713" lon="-4.28304">
        <ele>21</ele>
        <time>2014-09-23T15:22:04Z</time>
      </trkpt>
      <trkpt lat="48.63715" lon="-4.283">
        <ele>20</ele>
        <time>2014-09-23T15:22:09Z</time>
      </trkpt>
      <trkpt lat="48.63716" lon="-4.28296">
        <ele>20</ele>
        <time>2014-09-23T15:22:14Z</time>
      </trkpt>
      <trkpt lat="48.63719" lon="-4.28288">
        <ele>20</ele>
        <time>2014-09-23T15:22:20Z</time>
      </trkpt>
      <trkpt lat="48.63722" lon="-4.28279">
        <ele>20</ele>
        <time>2014-09-23T15:22:26Z</time>
      </trkpt>
      <trkpt lat="48.63724" lon="-4.28271">
        <ele>20</ele>
        <time>2014-09-23T15:22:31Z</time>
      </trkpt>
      <trkpt lat="48.63728" lon="-4.28262">
        <ele>20</ele>
        <time>2014-09-23T15:22:37Z</time>
      </trkpt>
      <trkpt lat="48.6373" lon="-4.28254">
        <ele>20</ele>
        <time>2014-09-23T15:22:42Z</time>
      </trkpt>
      <trkpt lat="48.63733" lon="-4.28244">
        <ele>20</ele>
        <time>2014-09-23T15:22:48Z</time>
      </trkpt>
      <trkpt lat="48.63736" lon="-4.28235">
        <ele>20</ele>
        <time>2014-09-23T15:22:54Z</time>
      </trkpt>
      <trkpt lat="48.63739" lon="-4.28228">
        <ele>20</ele>
        <time>2014-09-23T15:22:59Z</time>
      </trkpt>
      <trkpt lat="48.63742" lon="-4.28218">
        <ele>20</ele>
        <time>2014-09-23T15:23:05Z</time>
      </trkpt>
      <trkpt lat="48.63745" lon="-4.2821">
        <ele>20</ele>
        <time>2014-09-23T15:23:10Z</time>
      </trkpt>
      <trkpt lat="48.63747" lon="-4.28201">
        <ele>21</ele>
        <time>2014-09-23T15:23:16Z</time>
      </trkpt>
      <trkpt lat="48.63751" lon="-4.28191">
        <ele>20</ele>
        <time>2014-09-23T15:23:22Z</time>
      </trkpt>
      <trkpt lat="48.63753" lon="-4.28184">
        <ele>21</ele>
        <time>2014-09-23T15:23:27Z</time>
      </trkpt>
      <trkpt lat="48.63757" lon="-4.28174">
        <ele>21</ele>
        <time>2014-09-23T15:23:33Z</time>
      </trkpt>
      <trkpt lat="48.63759" lon="-4.28164">
        <ele>21</ele>
        <time>2014-09-23T15:23:39Z</time>
      </trkpt>
      <trkpt lat="48.63762" lon="-4.28157">
        <ele>20</ele>
        <time>2014-09-23T15:23:44Z</time>
      </trkpt>
      <trkpt lat="48.63764" lon="-4.28147">
        <ele>20</ele>
        <time>2014-09-23T15:23:50Z</time>
      </trkpt>
      <trkpt lat="48.63767" lon="-4.28138">
        <ele>20</ele>
        <time>2014-09-23T15:23:56Z</time>
      </trkpt>
      <trkpt lat="48.63769" lon="-4.28131">
        <ele>20</ele>
        <time>2014-09-23T15:24:01Z</time>
      </trkpt>
      <trkpt lat="48.63772" lon="-4.28123">
        <ele>21</ele>
        <time>2014-09-23T15:24:07Z</time>
      </trkpt>
      <trkpt lat="48.63774" lon="-4.28115">
        <ele>21</ele>
        <time>2014-09-23T15:24:12Z</time>
      </trkpt>
      <trkpt lat="48.63777" lon="-4.28106">
        <ele>21</ele>
        <time>2014-09-23T15:24:18Z</time>
      </trkpt>
      <trkpt lat="48.6378" lon="-4.28098">
        <ele>21</ele>
        <time>2014-09-23T15:24:24Z</time>
      </trkpt>
      <trkpt lat="48.63782" lon="-4.2809">
        <ele>21</ele>
        <time>2014-09-23T15:24:29Z</time>
      </trkpt>
      <trkpt lat="48.63785" lon="-4.28083">
        <ele>20</ele>
        <time>2014-09-23T15:24:34Z</time>
      </trkpt>
      <trkpt lat="48.63788" lon="-4.28076">
        <ele>20</ele>
        <time>2014-09-23T15:24:40Z</time>
      </trkpt>
      <trkpt lat="48.6379" lon="-4.28069">
        <ele>21</ele>
        <time>2014-09-23T15:24:45Z</time>
      </trkpt>
      <trkpt lat="48.63792" lon="-4.28062">
        <ele>21</ele>
        <time>2014-09-23T15:24:50Z</time>
      </trkpt>
      <trkpt lat="48.63795" lon="-4.28053">
        <ele>21</ele>
        <time>2014-09-23T15:24:56Z</time>
      </trkpt>
      <trkpt lat="48.63799" lon="-4.28044">
        <ele>20</ele>
        <time>2014-09-23T15:25:02Z</time>
      </trkpt>
      <trkpt lat="48.63801" lon="-4.28036">
        <ele>20</ele>
        <time>2014-09-23T15:25:07Z</time>
      </trkpt>
      <trkpt lat="48.63804" lon="-4.28028">
        <ele>20</ele>
        <time>2014-09-23T15:25:13Z</time>
      </trkpt>
      <trkpt lat="48.63807" lon="-4.2802">
        <ele>20</ele>
        <time>2014-09-23T15:25:18Z</time>
      </trkpt>
      <trkpt lat="48.6381" lon="-4.28012">
        <ele>20</ele>
        <time>2014-09-23T15:25:23Z</time>
      </trkpt>
      <trkpt lat="48.63813" lon="-4.28003">
        <ele>21</ele>
        <time>2014-09-23T15:25:29Z</time>
      </trkpt>
      <trkpt lat="48.63816" lon="-4.27996">
        <ele>21</ele>
        <time>2014-09-23T15:25:34Z</time>
      </trkpt>
      <trkpt lat="48.63819" lon="-4.27986">
        <ele>21</ele>
        <time>2014-09-23T15:25:40Z</time>
      </trkpt>
      <trkpt lat="48.63822" lon="-4.27979">
        <ele>20</ele>
        <time>2014-09-23T15:25:46Z</time>
      </trkpt>
      <trkpt lat="48.63825" lon="-4.2797">
        <ele>20</ele>
        <time>2014-09-23T15:25:52Z</time>
      </trkpt>
      <trkpt lat="48.63828" lon="-4.27961">
        <ele>20</ele>
        <time>2014-09-23T15:25:58Z</time>
      </trkpt>
      <trkpt lat="48.6383" lon="-4.27954">
        <ele>21</ele>
        <time>2014-09-23T15:26:03Z</time>
      </trkpt>
      <trkpt lat="48.63833" lon="-4.27946">
        <ele>21</ele>
        <time>2014-09-23T15:26:08Z</time>
      </trkpt>
      <trkpt lat="48.63835" lon="-4.27937">
        <ele>21</ele>
        <time>2014-09-23T15:26:14Z</time>
      </trkpt>
      <trkpt lat="48.63838" lon="-4.27928">
        <ele>21</ele>
        <time>2014-09-23T15:26:20Z</time>
      </trkpt>
      <trkpt lat="48.63841" lon="-4.2792">
        <ele>21</ele>
        <time>2014-09-23T15:26:26Z</time>
      </trkpt>
      <trkpt lat="48.63844" lon="-4.27912">
        <ele>20</ele>
        <time>2014-09-23T15:26:32Z</time>
      </trkpt>
      <trkpt lat="48.63846" lon="-4.27904">
        <ele>21</ele>
        <time>2014-09-23T15:26:38Z</time>
      </trkpt>
      <trkpt lat="48.63849" lon="-4.27895">
        <ele>21</ele>
        <time>2014-09-23T15:26:44Z</time>
      </trkpt>
      <trkpt lat="48.63852" lon="-4.27887">
        <ele>21</ele>
        <time>2014-09-23T15:26:50Z</time>
      </trkpt>
      <trkpt lat="48.63855" lon="-4.27879">
        <ele>21</ele>
        <time>2014-09-23T15:26:55Z</time>
      </trkpt>
      <trkpt lat="48.63858" lon="-4.2787">
        <ele>21</ele>
        <time>2014-09-23T15:27:01Z</time>
      </trkpt>
      <trkpt lat="48.6386" lon="-4.27866">
        <ele>21</ele>
        <time>2014-09-23T15:27:07Z</time>
      </trkpt>
      <trkpt lat="48.63862" lon="-4.2786">
        <ele>21</ele>
        <time>2014-09-23T15:27:12Z</time>
      </trkpt>
      <trkpt lat="48.63865" lon="-4.27852">
        <ele>21</ele>
        <time>2014-09-23T15:27:18Z</time>
      </trkpt>
      <trkpt lat="48.63867" lon="-4.27846">
        <ele>21</ele>
        <time>2014-09-23T15:27:23Z</time>
      </trkpt>
      <trkpt lat="48.6387" lon="-4.2784">
        <ele>21</ele>
        <time>2014-09-23T15:27:28Z</time>
      </trkpt>
      <trkpt lat="48.63873" lon="-4.27832">
        <ele>21</ele>
        <time>2014-09-23T15:27:34Z</time>
      </trkpt>
      <trkpt lat="48.63876" lon="-4.27822">
        <ele>20</ele>
        <time>2014-09-23T15:27:40Z</time>
      </trkpt>
      <trkpt lat="48.63878" lon="-4.27815">
        <ele>20</ele>
        <time>2014-09-23T15:27:45Z</time>
      </trkpt>
      <trkpt lat="48.6388" lon="-4.27808">
        <ele>21</ele>
        <time>2014-09-23T15:27:50Z</time>
      </trkpt>
      <trkpt lat="48.63883" lon="-4.278">
        <ele>21</ele>
        <time>2014-09-23T15:27:56Z</time>
      </trkpt>
      <trkpt lat="48.63885" lon="-4.27791">
        <ele>21</ele>
        <time>2014-09-23T15:28:02Z</time>
      </trkpt>
      <trkpt lat="48.63887" lon="-4.27783">
        <ele>21</ele>
        <time>2014-09-23T15:28:08Z</time>
      </trkpt>
      <trkpt lat="48.63889" lon="-4.27776">
        <ele>21</ele>
        <time>2014-09-23T15:28:13Z</time>
      </trkpt>
      <trkpt lat="48.63891" lon="-4.27767">
        <ele>21</ele>
        <time>2014-09-23T15:28:19Z</time>
      </trkpt>
      <trkpt lat="48.63893" lon="-4.27758">
        <ele>21</ele>
        <time>2014-09-23T15:28:25Z</time>
      </trkpt>
      <trkpt lat="48.63895" lon="-4.2775">
        <ele>21</ele>
        <time>2014-09-23T15:28:30Z</time>
      </trkpt>
      <trkpt lat="48.63897" lon="-4.27743">
        <ele>21</ele>
        <time>2014-09-23T15:28:35Z</time>
      </trkpt>
      <trkpt lat="48.63898" lon="-4.27735">
        <ele>21</ele>
        <time>2014-09-23T15:28:40Z</time>
      </trkpt>
      <trkpt lat="48.639" lon="-4.27726">
        <ele>21</ele>
        <time>2014-09-23T15:28:46Z</time>
      </trkpt>
      <trkpt lat="48.63902" lon="-4.27718">
        <ele>21</ele>
        <time>2014-09-23T15:28:51Z</time>
      </trkpt>
      <trkpt lat="48.63903" lon="-4.27708">
        <ele>21</ele>
        <time>2014-09-23T15:28:58Z</time>
      </trkpt>
      <trkpt lat="48.63905" lon="-4.277">
        <ele>21</ele>
        <time>2014-09-23T15:29:03Z</time>
      </trkpt>
      <trkpt lat="48.63907" lon="-4.27692">
        <ele>21</ele>
        <time>2014-09-23T15:29:08Z</time>
      </trkpt>
      <trkpt lat="48.63909" lon="-4.27685">
        <ele>21</ele>
        <time>2014-09-23T15:29:14Z</time>
      </trkpt>
      <trkpt lat="48.6391" lon="-4.27677">
        <ele>20</ele>
        <time>2014-09-23T15:29:19Z</time>
      </trkpt>
      <trkpt lat="48.63912" lon="-4.2767">
        <ele>21</ele>
        <time>2014-09-23T15:29:24Z</time>
      </trkpt>
      <trkpt lat="48.63914" lon="-4.27662">
        <ele>20</ele>
        <time>2014-09-23T15:29:30Z</time>
      </trkpt>
      <trkpt lat="48.63916" lon="-4.27654">
        <ele>21</ele>
        <time>2014-09-23T15:29:35Z</time>
      </trkpt>
      <trkpt lat="48.63917" lon="-4.27646">
        <ele>21</ele>
        <time>2014-09-23T15:29:40Z</time>
      </trkpt>
      <trkpt lat="48.63919" lon="-4.27636">
        <ele>21</ele>
        <time>2014-09-23T15:29:45Z</time>
      </trkpt>
      <trkpt lat="48.63921" lon="-4.2763">
        <ele>21</ele>
        <time>2014-09-23T15:29:50Z</time>
      </trkpt>
      <trkpt lat="48.63921" lon="-4.27623">
        <ele>21</ele>
        <time>2014-09-23T15:29:57Z</time>
      </trkpt>
      <trkpt lat="48.63923" lon="-4.27615">
        <ele>21</ele>
        <time>2014-09-23T15:30:02Z</time>
      </trkpt>
      <trkpt lat="48.63924" lon="-4.27606">
        <ele>21</ele>
        <time>2014-09-23T15:30:08Z</time>
      </trkpt>
      <trkpt lat="48.63926" lon="-4.27596">
        <ele>21</ele>
        <time>2014-09-23T15:30:14Z</time>
      </trkpt>
      <trkpt lat="48.63928" lon="-4.27587">
        <ele>21</ele>
        <time>2014-09-23T15:30:19Z</time>
      </trkpt>
      <trkpt lat="48.63929" lon="-4.27579">
        <ele>21</ele>
        <time>2014-09-23T15:30:25Z</time>
      </trkpt>
      <trkpt lat="48.6393" lon="-4.27571">
        <ele>21</ele>
        <time>2014-09-23T15:30:30Z</time>
      </trkpt>
      <trkpt lat="48.63932" lon="-4.27563">
        <ele>21</ele>
        <time>2014-09-23T15:30:35Z</time>
      </trkpt>
      <trkpt lat="48.63933" lon="-4.27553">
        <ele>21</ele>
        <time>2014-09-23T15:30:41Z</time>
      </trkpt>
      <trkpt lat="48.63934" lon="-4.27545">
        <ele>21</ele>
        <time>2014-09-23T15:30:46Z</time>
      </trkpt>
      <trkpt lat="48.63936" lon="-4.27534">
        <ele>21</ele>
        <time>2014-09-23T15:30:51Z</time>
      </trkpt>
      <trkpt lat="48.63937" lon="-4.27526">
        <ele>21</ele>
        <time>2014-09-23T15:30:56Z</time>
      </trkpt>
      <trkpt lat="48.63939" lon="-4.27518">
        <ele>21</ele>
        <time>2014-09-23T15:31:02Z</time>
      </trkpt>
      <trkpt lat="48.6394" lon="-4.27509">
        <ele>21</ele>
        <time>2014-09-23T15:31:07Z</time>
      </trkpt>
      <trkpt lat="48.63942" lon="-4.27501">
        <ele>21</ele>
        <time>2014-09-23T15:31:13Z</time>
      </trkpt>
      <trkpt lat="48.63943" lon="-4.27493">
        <ele>21</ele>
        <time>2014-09-23T15:31:18Z</time>
      </trkpt>
      <trkpt lat="48.63945" lon="-4.27484">
        <ele>22</ele>
        <time>2014-09-23T15:31:24Z</time>
      </trkpt>
      <trkpt lat="48.63946" lon="-4.27476">
        <ele>22</ele>
        <time>2014-09-23T15:31:29Z</time>
      </trkpt>
      <trkpt lat="48.63948" lon="-4.27468">
        <ele>22</ele>
        <time>2014-09-23T15:31:34Z</time>
      </trkpt>
      <trkpt lat="48.63949" lon="-4.27464">
        <ele>21</ele>
        <time>2014-09-23T15:31:39Z</time>
      </trkpt>
      <trkpt lat="48.63952" lon="-4.27461">
        <ele>21</ele>
        <time>2014-09-23T15:31:44Z</time>
      </trkpt>
      <trkpt lat="48.63952" lon="-4.27461">
        <ele>22</ele>
        <time>2014-09-23T15:31:50Z</time>
      </trkpt>
      <trkpt lat="48.63953" lon="-4.27461">
        <ele>22</ele>
        <time>2014-09-23T15:31:56Z</time>
      </trkpt>
      <trkpt lat="48.63953" lon="-4.27461">
        <ele>22</ele>
        <time>2014-09-23T15:32:01Z</time>
      </trkpt>
      <trkpt lat="48.63953" lon="-4.27461">
        <ele>22</ele>
        <time>2014-09-23T15:32:07Z</time>
      </trkpt>
      <trkpt lat="48.63954" lon="-4.27461">
        <ele>22</ele>
        <time>2014-09-23T15:32:13Z</time>
      </trkpt>
      <trkpt lat="48.63954" lon="-4.2746">
        <ele>22</ele>
        <time>2014-09-23T15:32:18Z</time>
      </trkpt>
      <trkpt lat="48.63955" lon="-4.2746">
        <ele>22</ele>
        <time>2014-09-23T15:32:23Z</time>
      </trkpt>
      <trkpt lat="48.63952" lon="-4.27456">
        <ele>21</ele>
        <time>2014-09-23T15:32:28Z</time>
      </trkpt>
      <trkpt lat="48.63951" lon="-4.27455">
        <ele>21</ele>
        <time>2014-09-23T15:32:34Z</time>
      </trkpt>
      <trkpt lat="48.63952" lon="-4.27452">
        <ele>22</ele>
        <time>2014-09-23T15:32:39Z</time>
      </trkpt>
      <trkpt lat="48.63953" lon="-4.27448">
        <ele>22</ele>
        <time>2014-09-23T15:32:44Z</time>
      </trkpt>
      <trkpt lat="48.63955" lon="-4.27439">
        <ele>21</ele>
        <time>2014-09-23T15:32:50Z</time>
      </trkpt>
      <trkpt lat="48.63956" lon="-4.27431">
        <ele>21</ele>
        <time>2014-09-23T15:32:55Z</time>
      </trkpt>
      <trkpt lat="48.63958" lon="-4.27423">
        <ele>21</ele>
        <time>2014-09-23T15:33:00Z</time>
      </trkpt>
      <trkpt lat="48.63959" lon="-4.27415">
        <ele>21</ele>
        <time>2014-09-23T15:33:05Z</time>
      </trkpt>
      <trkpt lat="48.63961" lon="-4.27407">
        <ele>22</ele>
        <time>2014-09-23T15:33:10Z</time>
      </trkpt>
      <trkpt lat="48.63962" lon="-4.27399">
        <ele>22</ele>
        <time>2014-09-23T15:33:16Z</time>
      </trkpt>
      <trkpt lat="48.63962" lon="-4.27396">
        <ele>22</ele>
        <time>2014-09-23T15:33:22Z</time>
      </trkpt>
      <trkpt lat="48.63964" lon="-4.27389">
        <ele>22</ele>
        <time>2014-09-23T15:33:27Z</time>
      </trkpt>
      <trkpt lat="48.63966" lon="-4.27379">
        <ele>22</ele>
        <time>2014-09-23T15:33:33Z</time>
      </trkpt>
      <trkpt lat="48.63967" lon="-4.2737">
        <ele>22</ele>
        <time>2014-09-23T15:33:38Z</time>
      </trkpt>
      <trkpt lat="48.63969" lon="-4.27362">
        <ele>22</ele>
        <time>2014-09-23T15:33:43Z</time>
      </trkpt>
      <trkpt lat="48.63972" lon="-4.27353">
        <ele>22</ele>
        <time>2014-09-23T15:33:50Z</time>
      </trkpt>
      <trkpt lat="48.63974" lon="-4.27344">
        <ele>22</ele>
        <time>2014-09-23T15:33:55Z</time>
      </trkpt>
      <trkpt lat="48.63975" lon="-4.27336">
        <ele>22</ele>
        <time>2014-09-23T15:34:00Z</time>
      </trkpt>
      <trkpt lat="48.63976" lon="-4.27328">
        <ele>22</ele>
        <time>2014-09-23T15:34:06Z</time>
      </trkpt>
      <trkpt lat="48.63977" lon="-4.27318">
        <ele>22</ele>
        <time>2014-09-23T15:34:12Z</time>
      </trkpt>
      <trkpt lat="48.63978" lon="-4.27309">
        <ele>22</ele>
        <time>2014-09-23T15:34:17Z</time>
      </trkpt>
      <trkpt lat="48.63981" lon="-4.27299">
        <ele>22</ele>
        <time>2014-09-23T15:34:22Z</time>
      </trkpt>
      <trkpt lat="48.63982" lon="-4.2729">
        <ele>22</ele>
        <time>2014-09-23T15:34:27Z</time>
      </trkpt>
      <trkpt lat="48.63984" lon="-4.27279">
        <ele>22</ele>
        <time>2014-09-23T15:34:34Z</time>
      </trkpt>
      <trkpt lat="48.63985" lon="-4.27268">
        <ele>22</ele>
        <time>2014-09-23T15:34:39Z</time>
      </trkpt>
      <trkpt lat="48.63986" lon="-4.27259">
        <ele>22</ele>
        <time>2014-09-23T15:34:44Z</time>
      </trkpt>
      <trkpt lat="48.63987" lon="-4.27249">
        <ele>22</ele>
        <time>2014-09-23T15:34:50Z</time>
      </trkpt>
      <trkpt lat="48.63988" lon="-4.2724">
        <ele>22</ele>
        <time>2014-09-23T15:34:55Z</time>
      </trkpt>
      <trkpt lat="48.6399" lon="-4.27229">
        <ele>22</ele>
        <time>2014-09-23T15:35:01Z</time>
      </trkpt>
      <trkpt lat="48.63992" lon="-4.2722">
        <ele>22</ele>
        <time>2014-09-23T15:35:07Z</time>
      </trkpt>
      <trkpt lat="48.63992" lon="-4.27214">
        <ele>22</ele>
        <time>2014-09-23T15:35:12Z</time>
      </trkpt>
      <trkpt lat="48.63993" lon="-4.27205">
        <ele>22</ele>
        <time>2014-09-23T15:35:18Z</time>
      </trkpt>
      <trkpt lat="48.63994" lon="-4.27195">
        <ele>22</ele>
        <time>2014-09-23T15:35:23Z</time>
      </trkpt>
      <trkpt lat="48.63995" lon="-4.27187">
        <ele>22</ele>
        <time>2014-09-23T15:35:28Z</time>
      </trkpt>
      <trkpt lat="48.63997" lon="-4.27178">
        <ele>22</ele>
        <time>2014-09-23T15:35:34Z</time>
      </trkpt>
      <trkpt lat="48.63998" lon="-4.27171">
        <ele>22</ele>
        <time>2014-09-23T15:35:39Z</time>
      </trkpt>
      <trkpt lat="48.63999" lon="-4.2716">
        <ele>22</ele>
        <time>2014-09-23T15:35:45Z</time>
      </trkpt>
      <trkpt lat="48.64" lon="-4.27151">
        <ele>22</ele>
        <time>2014-09-23T15:35:50Z</time>
      </trkpt>
      <trkpt lat="48.64001" lon="-4.27142">
        <ele>22</ele>
        <time>2014-09-23T15:35:55Z</time>
      </trkpt>
      <trkpt lat="48.64002" lon="-4.27134">
        <ele>22</ele>
        <time>2014-09-23T15:36:01Z</time>
      </trkpt>
      <trkpt lat="48.64003" lon="-4.27124">
        <ele>22</ele>
        <time>2014-09-23T15:36:06Z</time>
      </trkpt>
      <trkpt lat="48.64005" lon="-4.27114">
        <ele>23</ele>
        <time>2014-09-23T15:36:12Z</time>
      </trkpt>
      <trkpt lat="48.64006" lon="-4.27106">
        <ele>23</ele>
        <time>2014-09-23T15:36:17Z</time>
      </trkpt>
      <trkpt lat="48.64007" lon="-4.27098">
        <ele>22</ele>
        <time>2014-09-23T15:36:23Z</time>
      </trkpt>
      <trkpt lat="48.64009" lon="-4.27089">
        <ele>23</ele>
        <time>2014-09-23T15:36:29Z</time>
      </trkpt>
      <trkpt lat="48.64011" lon="-4.27079">
        <ele>22</ele>
        <time>2014-09-23T15:36:34Z</time>
      </trkpt>
      <trkpt lat="48.64012" lon="-4.27071">
        <ele>22</ele>
        <time>2014-09-23T15:36:40Z</time>
      </trkpt>
      <trkpt lat="48.64013" lon="-4.27061">
        <ele>22</ele>
        <time>2014-09-23T15:36:45Z</time>
      </trkpt>
      <trkpt lat="48.64014" lon="-4.27053">
        <ele>22</ele>
        <time>2014-09-23T15:36:50Z</time>
      </trkpt>
      <trkpt lat="48.64015" lon="-4.27044">
        <ele>22</ele>
        <time>2014-09-23T15:36:56Z</time>
      </trkpt>
      <trkpt lat="48.64016" lon="-4.27037">
        <ele>22</ele>
        <time>2014-09-23T15:37:01Z</time>
      </trkpt>
      <trkpt lat="48.64018" lon="-4.27029">
        <ele>22</ele>
        <time>2014-09-23T15:37:06Z</time>
      </trkpt>
      <trkpt lat="48.64019" lon="-4.2702">
        <ele>22</ele>
        <time>2014-09-23T15:37:12Z</time>
      </trkpt>
      <trkpt lat="48.6402" lon="-4.27012">
        <ele>22</ele>
        <time>2014-09-23T15:37:17Z</time>
      </trkpt>
      <trkpt lat="48.64021" lon="-4.27004">
        <ele>22</ele>
        <time>2014-09-23T15:37:22Z</time>
      </trkpt>
      <trkpt lat="48.64022" lon="-4.26994">
        <ele>22</ele>
        <time>2014-09-23T15:37:28Z</time>
      </trkpt>
      <trkpt lat="48.64024" lon="-4.26986">
        <ele>22</ele>
        <time>2014-09-23T15:37:33Z</time>
      </trkpt>
      <trkpt lat="48.64025" lon="-4.26977">
        <ele>22</ele>
        <time>2014-09-23T15:37:39Z</time>
      </trkpt>
      <trkpt lat="48.64026" lon="-4.26967">
        <ele>22</ele>
        <time>2014-09-23T15:37:45Z</time>
      </trkpt>
      <trkpt lat="48.64027" lon="-4.26957">
        <ele>23</ele>
        <time>2014-09-23T15:37:50Z</time>
      </trkpt>
      <trkpt lat="48.64029" lon="-4.26949">
        <ele>23</ele>
        <time>2014-09-23T15:37:55Z</time>
      </trkpt>
      <trkpt lat="48.6403" lon="-4.26941">
        <ele>23</ele>
        <time>2014-09-23T15:38:01Z</time>
      </trkpt>
      <trkpt lat="48.64032" lon="-4.26931">
        <ele>22</ele>
        <time>2014-09-23T15:38:06Z</time>
      </trkpt>
      <trkpt lat="48.64032" lon="-4.26923">
        <ele>22</ele>
        <time>2014-09-23T15:38:11Z</time>
      </trkpt>
      <trkpt lat="48.64034" lon="-4.26915">
        <ele>23</ele>
        <time>2014-09-23T15:38:17Z</time>
      </trkpt>
      <trkpt lat="48.64035" lon="-4.26906">
        <ele>23</ele>
        <time>2014-09-23T15:38:22Z</time>
      </trkpt>
      <trkpt lat="48.64036" lon="-4.26898">
        <ele>22</ele>
        <time>2014-09-23T15:38:28Z</time>
      </trkpt>
      <trkpt lat="48.64037" lon="-4.26889">
        <ele>23</ele>
        <time>2014-09-23T15:38:33Z</time>
      </trkpt>
      <trkpt lat="48.64038" lon="-4.26881">
        <ele>23</ele>
        <time>2014-09-23T15:38:38Z</time>
      </trkpt>
      <trkpt lat="48.6404" lon="-4.26873">
        <ele>23</ele>
        <time>2014-09-23T15:38:44Z</time>
      </trkpt>
      <trkpt lat="48.64041" lon="-4.26864">
        <ele>23</ele>
        <time>2014-09-23T15:38:49Z</time>
      </trkpt>
      <trkpt lat="48.64043" lon="-4.26856">
        <ele>23</ele>
        <time>2014-09-23T15:38:55Z</time>
      </trkpt>
      <trkpt lat="48.64045" lon="-4.26847">
        <ele>23</ele>
        <time>2014-09-23T15:39:00Z</time>
      </trkpt>
      <trkpt lat="48.64046" lon="-4.26839">
        <ele>23</ele>
        <time>2014-09-23T15:39:05Z</time>
      </trkpt>
      <trkpt lat="48.64046" lon="-4.2683">
        <ele>23</ele>
        <time>2014-09-23T15:39:11Z</time>
      </trkpt>
      <trkpt lat="48.64046" lon="-4.26822">
        <ele>22</ele>
        <time>2014-09-23T15:39:16Z</time>
      </trkpt>
      <trkpt lat="48.64048" lon="-4.26813">
        <ele>23</ele>
        <time>2014-09-23T15:39:22Z</time>
      </trkpt>
      <trkpt lat="48.6405" lon="-4.26806">
        <ele>23</ele>
        <time>2014-09-23T15:39:28Z</time>
      </trkpt>
      <trkpt lat="48.6405" lon="-4.26797">
        <ele>23</ele>
        <time>2014-09-23T15:39:33Z</time>
      </trkpt>
      <trkpt lat="48.64052" lon="-4.26789">
        <ele>23</ele>
        <time>2014-09-23T15:39:39Z</time>
      </trkpt>
      <trkpt lat="48.64055" lon="-4.2678">
        <ele>23</ele>
        <time>2014-09-23T15:39:44Z</time>
      </trkpt>
      <trkpt lat="48.64055" lon="-4.26776">
        <ele>23</ele>
        <time>2014-09-23T15:39:51Z</time>
      </trkpt>
      <trkpt lat="48.64057" lon="-4.26768">
        <ele>23</ele>
        <time>2014-09-23T15:39:56Z</time>
      </trkpt>
      <trkpt lat="48.64058" lon="-4.26759">
        <ele>23</ele>
        <time>2014-09-23T15:40:02Z</time>
      </trkpt>
      <trkpt lat="48.64059" lon="-4.2675">
        <ele>23</ele>
        <time>2014-09-23T15:40:08Z</time>
      </trkpt>
      <trkpt lat="48.6406" lon="-4.26743">
        <ele>23</ele>
        <time>2014-09-23T15:40:14Z</time>
      </trkpt>
      <trkpt lat="48.64061" lon="-4.26733">
        <ele>23</ele>
        <time>2014-09-23T15:40:20Z</time>
      </trkpt>
      <trkpt lat="48.64062" lon="-4.26722">
        <ele>23</ele>
        <time>2014-09-23T15:40:26Z</time>
      </trkpt>
      <trkpt lat="48.64063" lon="-4.26714">
        <ele>23</ele>
        <time>2014-09-23T15:40:32Z</time>
      </trkpt>
      <trkpt lat="48.64064" lon="-4.26705">
        <ele>23</ele>
        <time>2014-09-23T15:40:37Z</time>
      </trkpt>
      <trkpt lat="48.64065" lon="-4.26696">
        <ele>23</ele>
        <time>2014-09-23T15:40:42Z</time>
      </trkpt>
      <trkpt lat="48.64067" lon="-4.26686">
        <ele>23</ele>
        <time>2014-09-23T15:40:48Z</time>
      </trkpt>
      <trkpt lat="48.64068" lon="-4.26678">
        <ele>23</ele>
        <time>2014-09-23T15:40:53Z</time>
      </trkpt>
      <trkpt lat="48.6407" lon="-4.26668">
        <ele>23</ele>
        <time>2014-09-23T15:40:59Z</time>
      </trkpt>
      <trkpt lat="48.64073" lon="-4.26658">
        <ele>23</ele>
        <time>2014-09-23T15:41:05Z</time>
      </trkpt>
      <trkpt lat="48.64074" lon="-4.26651">
        <ele>23</ele>
        <time>2014-09-23T15:41:10Z</time>
      </trkpt>
      <trkpt lat="48.64075" lon="-4.26641">
        <ele>23</ele>
        <time>2014-09-23T15:41:16Z</time>
      </trkpt>
      <trkpt lat="48.64077" lon="-4.26633">
        <ele>23</ele>
        <time>2014-09-23T15:41:21Z</time>
      </trkpt>
      <trkpt lat="48.64079" lon="-4.26625">
        <ele>23</ele>
        <time>2014-09-23T15:41:26Z</time>
      </trkpt>
      <trkpt lat="48.6408" lon="-4.26616">
        <ele>23</ele>
        <time>2014-09-23T15:41:31Z</time>
      </trkpt>
      <trkpt lat="48.64082" lon="-4.26606">
        <ele>23</ele>
        <time>2014-09-23T15:41:37Z</time>
      </trkpt>
      <trkpt lat="48.64083" lon="-4.26596">
        <ele>23</ele>
        <time>2014-09-23T15:41:43Z</time>
      </trkpt>
      <trkpt lat="48.64083" lon="-4.26587">
        <ele>23</ele>
        <time>2014-09-23T15:41:49Z</time>
      </trkpt>
      <trkpt lat="48.64084" lon="-4.26579">
        <ele>23</ele>
        <time>2014-09-23T15:41:54Z</time>
      </trkpt>
      <trkpt lat="48.64087" lon="-4.2657">
        <ele>23</ele>
        <time>2014-09-23T15:42:00Z</time>
      </trkpt>
      <trkpt lat="48.6409" lon="-4.2656">
        <ele>23</ele>
        <time>2014-09-23T15:42:05Z</time>
      </trkpt>
      <trkpt lat="48.64091" lon="-4.26553">
        <ele>22</ele>
        <time>2014-09-23T15:42:10Z</time>
      </trkpt>
      <trkpt lat="48.64091" lon="-4.26549">
        <ele>22</ele>
        <time>2014-09-23T15:42:15Z</time>
      </trkpt>
      <trkpt lat="48.64091" lon="-4.26539">
        <ele>23</ele>
        <time>2014-09-23T15:42:21Z</time>
      </trkpt>
      <trkpt lat="48.6409" lon="-4.26533">
        <ele>23</ele>
        <time>2014-09-23T15:42:27Z</time>
      </trkpt>
      <trkpt lat="48.64092" lon="-4.26522">
        <ele>23</ele>
        <time>2014-09-23T15:42:32Z</time>
      </trkpt>
      <trkpt lat="48.64093" lon="-4.26516">
        <ele>23</ele>
        <time>2014-09-23T15:42:37Z</time>
      </trkpt>
      <trkpt lat="48.64095" lon="-4.2651">
        <ele>23</ele>
        <time>2014-09-23T15:42:42Z</time>
      </trkpt>
      <trkpt lat="48.64096" lon="-4.26503">
        <ele>23</ele>
        <time>2014-09-23T15:42:48Z</time>
      </trkpt>
      <trkpt lat="48.64098" lon="-4.26497">
        <ele>23</ele>
        <time>2014-09-23T15:42:53Z</time>
      </trkpt>
      <trkpt lat="48.641" lon="-4.2649">
        <ele>23</ele>
        <time>2014-09-23T15:42:59Z</time>
      </trkpt>
      <trkpt lat="48.64101" lon="-4.26482">
        <ele>23</ele>
        <time>2014-09-23T15:43:05Z</time>
      </trkpt>
      <trkpt lat="48.64103" lon="-4.26472">
        <ele>23</ele>
        <time>2014-09-23T15:43:10Z</time>
      </trkpt>
      <trkpt lat="48.64103" lon="-4.26463">
        <ele>23</ele>
        <time>2014-09-23T15:43:15Z</time>
      </trkpt>
      <trkpt lat="48.64103" lon="-4.26453">
        <ele>23</ele>
        <time>2014-09-23T15:43:20Z</time>
      </trkpt>
      <trkpt lat="48.64104" lon="-4.26445">
        <ele>23</ele>
        <time>2014-09-23T15:43:25Z</time>
      </trkpt>
      <trkpt lat="48.64106" lon="-4.26437">
        <ele>23</ele>
        <time>2014-09-23T15:43:31Z</time>
      </trkpt>
      <trkpt lat="48.64106" lon="-4.26435">
        <ele>23</ele>
        <time>2014-09-23T15:43:36Z</time>
      </trkpt>
      <trkpt lat="48.64107" lon="-4.26434">
        <ele>23</ele>
        <time>2014-09-23T15:43:44Z</time>
      </trkpt>
      <trkpt lat="48.64106" lon="-4.26434">
        <ele>23</ele>
        <time>2014-09-23T15:43:49Z</time>
      </trkpt>
      <trkpt lat="48.64105" lon="-4.26433">
        <ele>23</ele>
        <time>2014-09-23T15:43:55Z</time>
      </trkpt>
      <trkpt lat="48.64106" lon="-4.26433">
        <ele>24</ele>
        <time>2014-09-23T15:44:04Z</time>
      </trkpt>
      <trkpt lat="48.64106" lon="-4.26432">
        <ele>23</ele>
        <time>2014-09-23T15:44:10Z</time>
      </trkpt>
      <trkpt lat="48.64106" lon="-4.26432">
        <ele>23</ele>
        <time>2014-09-23T15:44:16Z</time>
      </trkpt>
      <trkpt lat="48.64105" lon="-4.26436">
        <ele>24</ele>
        <time>2014-09-23T15:44:22Z</time>
      </trkpt>
      <trkpt lat="48.64105" lon="-4.26437">
        <ele>24</ele>
        <time>2014-09-23T15:44:28Z</time>
      </trkpt>
      <trkpt lat="48.64104" lon="-4.26437">
        <ele>23</ele>
        <time>2014-09-23T15:44:35Z</time>
      </trkpt>
      <trkpt lat="48.64104" lon="-4.26437">
        <ele>23</ele>
        <time>2014-09-23T15:44:43Z</time>
      </trkpt>
      <trkpt lat="48.64103" lon="-4.26437">
        <ele>23</ele>
        <time>2014-09-23T15:44:48Z</time>
      </trkpt>
      <trkpt lat="48.64103" lon="-4.26438">
        <ele>23</ele>
        <time>2014-09-23T15:44:55Z</time>
      </trkpt>
      <trkpt lat="48.64103" lon="-4.26439">
        <ele>23</ele>
        <time>2014-09-23T15:45:00Z</time>
      </trkpt>
      <trkpt lat="48.64103" lon="-4.26439">
        <ele>23</ele>
        <time>2014-09-23T15:45:06Z</time>
      </trkpt>
      <trkpt lat="48.64103" lon="-4.26439">
        <ele>23</ele>
        <time>2014-09-23T15:45:13Z</time>
      </trkpt>
      <trkpt lat="48.64103" lon="-4.26439">
        <ele>23</ele>
        <time>2014-09-23T15:45:21Z</time>
      </trkpt>
      <trkpt lat="48.64103" lon="-4.26439">
        <ele>23</ele>
        <time>2014-09-23T15:45:26Z</time>
      </trkpt>
      <trkpt lat="48.64103" lon="-4.26439">
        <ele>24</ele>
        <time>2014-09-23T15:45:33Z</time>
      </trkpt>
      <trkpt lat="48.64103" lon="-4.26439">
        <ele>24</ele>
        <time>2014-09-23T15:45:38Z</time>
      </trkpt>
      <trkpt lat="48.64103" lon="-4.26439">
        <ele>24</ele>
        <time>2014-09-23T15:45:43Z</time>
      </trkpt>
      <trkpt lat="48.64103" lon="-4.26438">
        <ele>24</ele>
        <time>2014-09-23T15:45:49Z</time>
      </trkpt>
      <trkpt lat="48.64103" lon="-4.26438">
        <ele>23</ele>
        <time>2014-09-23T15:45:55Z</time>
      </trkpt>
      <trkpt lat="48.64102" lon="-4.26435">
        <ele>24</ele>
        <time>2014-09-23T15:46:01Z</time>
      </trkpt>
      <trkpt lat="48.64103" lon="-4.26434">
        <ele>24</ele>
        <time>2014-09-23T15:46:06Z</time>
      </trkpt>
      <trkpt lat="48.64104" lon="-4.26431">
        <ele>24</ele>
        <time>2014-09-23T15:46:11Z</time>
      </trkpt>
      <trkpt lat="48.64104" lon="-4.26429">
        <ele>24</ele>
        <time>2014-09-23T15:46:16Z</time>
      </trkpt>
      <trkpt lat="48.64107" lon="-4.26422">
        <ele>24</ele>
        <time>2014-09-23T15:46:22Z</time>
      </trkpt>
      <trkpt lat="48.64108" lon="-4.26416">
        <ele>24</ele>
        <time>2014-09-23T15:46:28Z</time>
      </trkpt>
      <trkpt lat="48.64109" lon="-4.26409">
        <ele>24</ele>
        <time>2014-09-23T15:46:33Z</time>
      </trkpt>
      <trkpt lat="48.64112" lon="-4.26401">
        <ele>23</ele>
        <time>2014-09-23T15:46:39Z</time>
      </trkpt>
      <trkpt lat="48.64113" lon="-4.2639">
        <ele>23</ele>
        <time>2014-09-23T15:46:44Z</time>
      </trkpt>
      <trkpt lat="48.64113" lon="-4.26379">
        <ele>23</ele>
        <time>2014-09-23T15:46:50Z</time>
      </trkpt>
      <trkpt lat="48.64114" lon="-4.26371">
        <ele>23</ele>
        <time>2014-09-23T15:46:56Z</time>
      </trkpt>
      <trkpt lat="48.64115" lon="-4.2636">
        <ele>23</ele>
        <time>2014-09-23T15:47:01Z</time>
      </trkpt>
      <trkpt lat="48.64116" lon="-4.2635">
        <ele>23</ele>
        <time>2014-09-23T15:47:07Z</time>
      </trkpt>
      <trkpt lat="48.64118" lon="-4.2634">
        <ele>23</ele>
        <time>2014-09-23T15:47:13Z</time>
      </trkpt>
      <trkpt lat="48.6412" lon="-4.26332">
        <ele>23</ele>
        <time>2014-09-23T15:47:18Z</time>
      </trkpt>
      <trkpt lat="48.64122" lon="-4.26324">
        <ele>23</ele>
        <time>2014-09-23T15:47:23Z</time>
      </trkpt>
      <trkpt lat="48.64124" lon="-4.26316">
        <ele>23</ele>
        <time>2014-09-23T15:47:29Z</time>
      </trkpt>
      <trkpt lat="48.64126" lon="-4.26308">
        <ele>23</ele>
        <time>2014-09-23T15:47:34Z</time>
      </trkpt>
      <trkpt lat="48.64128" lon="-4.26299">
        <ele>23</ele>
        <time>2014-09-23T15:47:39Z</time>
      </trkpt>
      <trkpt lat="48.6413" lon="-4.26291">
        <ele>23</ele>
        <time>2014-09-23T15:47:45Z</time>
      </trkpt>
      <trkpt lat="48.64131" lon="-4.26281">
        <ele>23</ele>
        <time>2014-09-23T15:47:51Z</time>
      </trkpt>
      <trkpt lat="48.64133" lon="-4.26273">
        <ele>23</ele>
        <time>2014-09-23T15:47:56Z</time>
      </trkpt>
      <trkpt lat="48.64133" lon="-4.26262">
        <ele>23</ele>
        <time>2014-09-23T15:48:02Z</time>
      </trkpt>
      <trkpt lat="48.64132" lon="-4.26253">
        <ele>23</ele>
        <time>2014-09-23T15:48:07Z</time>
      </trkpt>
      <trkpt lat="48.64131" lon="-4.26241">
        <ele>23</ele>
        <time>2014-09-23T15:48:13Z</time>
      </trkpt>
      <trkpt lat="48.64131" lon="-4.26231">
        <ele>23</ele>
        <time>2014-09-23T15:48:19Z</time>
      </trkpt>
      <trkpt lat="48.64133" lon="-4.26222">
        <ele>23</ele>
        <time>2014-09-23T15:48:25Z</time>
      </trkpt>
      <trkpt lat="48.64133" lon="-4.26216">
        <ele>23</ele>
        <time>2014-09-23T15:48:30Z</time>
      </trkpt>
      <trkpt lat="48.64134" lon="-4.26209">
        <ele>23</ele>
        <time>2014-09-23T15:48:35Z</time>
      </trkpt>
      <trkpt lat="48.64136" lon="-4.26198">
        <ele>22</ele>
        <time>2014-09-23T15:48:41Z</time>
      </trkpt>
      <trkpt lat="48.64139" lon="-4.26187">
        <ele>23</ele>
        <time>2014-09-23T15:48:47Z</time>
      </trkpt>
      <trkpt lat="48.64142" lon="-4.26178">
        <ele>23</ele>
        <time>2014-09-23T15:48:52Z</time>
      </trkpt>
      <trkpt lat="48.64145" lon="-4.26167">
        <ele>23</ele>
        <time>2014-09-23T15:48:58Z</time>
      </trkpt>
      <trkpt lat="48.64147" lon="-4.26158">
        <ele>23</ele>
        <time>2014-09-23T15:49:03Z</time>
      </trkpt>
      <trkpt lat="48.64148" lon="-4.2615">
        <ele>23</ele>
        <time>2014-09-23T15:49:08Z</time>
      </trkpt>
      <trkpt lat="48.64151" lon="-4.26139">
        <ele>23</ele>
        <time>2014-09-23T15:49:14Z</time>
      </trkpt>
      <trkpt lat="48.64152" lon="-4.2613">
        <ele>23</ele>
        <time>2014-09-23T15:49:19Z</time>
      </trkpt>
      <trkpt lat="48.64154" lon="-4.26122">
        <ele>23</ele>
        <time>2014-09-23T15:49:24Z</time>
      </trkpt>
      <trkpt lat="48.64155" lon="-4.26113">
        <ele>23</ele>
        <time>2014-09-23T15:49:29Z</time>
      </trkpt>
      <trkpt lat="48.64157" lon="-4.26103">
        <ele>23</ele>
        <time>2014-09-23T15:49:35Z</time>
      </trkpt>
      <trkpt lat="48.64158" lon="-4.26095">
        <ele>23</ele>
        <time>2014-09-23T15:49:40Z</time>
      </trkpt>
      <trkpt lat="48.6416" lon="-4.26086">
        <ele>23</ele>
        <time>2014-09-23T15:49:46Z</time>
      </trkpt>
      <trkpt lat="48.64161" lon="-4.26077">
        <ele>23</ele>
        <time>2014-09-23T15:49:51Z</time>
      </trkpt>
      <trkpt lat="48.64163" lon="-4.26069">
        <ele>23</ele>
        <time>2014-09-23T15:49:56Z</time>
      </trkpt>
      <trkpt lat="48.64164" lon="-4.26058">
        <ele>23</ele>
        <time>2014-09-23T15:50:02Z</time>
      </trkpt>
      <trkpt lat="48.64165" lon="-4.26049">
        <ele>23</ele>
        <time>2014-09-23T15:50:07Z</time>
      </trkpt>
      <trkpt lat="48.64166" lon="-4.26039">
        <ele>23</ele>
        <time>2014-09-23T15:50:13Z</time>
      </trkpt>
      <trkpt lat="48.64167" lon="-4.2603">
        <ele>23</ele>
        <time>2014-09-23T15:50:18Z</time>
      </trkpt>
      <trkpt lat="48.64167" lon="-4.26022">
        <ele>23</ele>
        <time>2014-09-23T15:50:24Z</time>
      </trkpt>
      <trkpt lat="48.64169" lon="-4.26013">
        <ele>23</ele>
        <time>2014-09-23T15:50:29Z</time>
      </trkpt>
      <trkpt lat="48.6417" lon="-4.26004">
        <ele>23</ele>
        <time>2014-09-23T15:50:34Z</time>
      </trkpt>
      <trkpt lat="48.64171" lon="-4.25994">
        <ele>23</ele>
        <time>2014-09-23T15:50:40Z</time>
      </trkpt>
      <trkpt lat="48.64173" lon="-4.25985">
        <ele>23</ele>
        <time>2014-09-23T15:50:45Z</time>
      </trkpt>
      <trkpt lat="48.64175" lon="-4.25976">
        <ele>23</ele>
        <time>2014-09-23T15:50:51Z</time>
      </trkpt>
      <trkpt lat="48.64176" lon="-4.25967">
        <ele>23</ele>
        <time>2014-09-23T15:50:56Z</time>
      </trkpt>
      <trkpt lat="48.64177" lon="-4.25959">
        <ele>23</ele>
        <time>2014-09-23T15:51:01Z</time>
      </trkpt>
      <trkpt lat="48.64178" lon="-4.2595">
        <ele>23</ele>
        <time>2014-09-23T15:51:07Z</time>
      </trkpt>
      <trkpt lat="48.6418" lon="-4.2594">
        <ele>23</ele>
        <time>2014-09-23T15:51:13Z</time>
      </trkpt>
      <trkpt lat="48.64181" lon="-4.25932">
        <ele>23</ele>
        <time>2014-09-23T15:51:18Z</time>
      </trkpt>
      <trkpt lat="48.64183" lon="-4.25923">
        <ele>23</ele>
        <time>2014-09-23T15:51:23Z</time>
      </trkpt>
      <trkpt lat="48.64184" lon="-4.25913">
        <ele>23</ele>
        <time>2014-09-23T15:51:29Z</time>
      </trkpt>
      <trkpt lat="48.64186" lon="-4.25905">
        <ele>23</ele>
        <time>2014-09-23T15:51:34Z</time>
      </trkpt>
      <trkpt lat="48.64187" lon="-4.25897">
        <ele>23</ele>
        <time>2014-09-23T15:51:40Z</time>
      </trkpt>
      <trkpt lat="48.64189" lon="-4.25888">
        <ele>23</ele>
        <time>2014-09-23T15:51:45Z</time>
      </trkpt>
      <trkpt lat="48.6419" lon="-4.25881">
        <ele>23</ele>
        <time>2014-09-23T15:51:50Z</time>
      </trkpt>
      <trkpt lat="48.64192" lon="-4.25872">
        <ele>23</ele>
        <time>2014-09-23T15:51:56Z</time>
      </trkpt>
      <trkpt lat="48.64193" lon="-4.25864">
        <ele>23</ele>
        <time>2014-09-23T15:52:01Z</time>
      </trkpt>
      <trkpt lat="48.64193" lon="-4.25853">
        <ele>23</ele>
        <time>2014-09-23T15:52:07Z</time>
      </trkpt>
      <trkpt lat="48.64194" lon="-4.25843">
        <ele>23</ele>
        <time>2014-09-23T15:52:13Z</time>
      </trkpt>
      <trkpt lat="48.64195" lon="-4.25836">
        <ele>23</ele>
        <time>2014-09-23T15:52:18Z</time>
      </trkpt>
      <trkpt lat="48.64196" lon="-4.25826">
        <ele>23</ele>
        <time>2014-09-23T15:52:24Z</time>
      </trkpt>
      <trkpt lat="48.64196" lon="-4.25817">
        <ele>23</ele>
        <time>2014-09-23T15:52:29Z</time>
      </trkpt>
      <trkpt lat="48.64197" lon="-4.25809">
        <ele>23</ele>
        <time>2014-09-23T15:52:34Z</time>
      </trkpt>
      <trkpt lat="48.64199" lon="-4.25798">
        <ele>24</ele>
        <time>2014-09-23T15:52:40Z</time>
      </trkpt>
      <trkpt lat="48.64202" lon="-4.25789">
        <ele>23</ele>
        <time>2014-09-23T15:52:46Z</time>
      </trkpt>
      <trkpt lat="48.64203" lon="-4.2578">
        <ele>22</ele>
        <time>2014-09-23T15:52:52Z</time>
      </trkpt>
      <trkpt lat="48.64205" lon="-4.2577">
        <ele>23</ele>
        <time>2014-09-23T15:52:58Z</time>
      </trkpt>
      <trkpt lat="48.64207" lon="-4.25761">
        <ele>23</ele>
        <time>2014-09-23T15:53:04Z</time>
      </trkpt>
      <trkpt lat="48.64207" lon="-4.25752">
        <ele>23</ele>
        <time>2014-09-23T15:53:09Z</time>
      </trkpt>
      <trkpt lat="48.64209" lon="-4.25742">
        <ele>23</ele>
        <time>2014-09-23T15:53:15Z</time>
      </trkpt>
      <trkpt lat="48.64209" lon="-4.25734">
        <ele>23</ele>
        <time>2014-09-23T15:53:20Z</time>
      </trkpt>
      <trkpt lat="48.6421" lon="-4.25726">
        <ele>23</ele>
        <time>2014-09-23T15:53:25Z</time>
      </trkpt>
      <trkpt lat="48.64213" lon="-4.25715">
        <ele>23</ele>
        <time>2014-09-23T15:53:31Z</time>
      </trkpt>
      <trkpt lat="48.64215" lon="-4.25705">
        <ele>23</ele>
        <time>2014-09-23T15:53:37Z</time>
      </trkpt>
      <trkpt lat="48.64217" lon="-4.25696">
        <ele>23</ele>
        <time>2014-09-23T15:53:43Z</time>
      </trkpt>
      <trkpt lat="48.64218" lon="-4.25687">
        <ele>23</ele>
        <time>2014-09-23T15:53:48Z</time>
      </trkpt>
      <trkpt lat="48.64219" lon="-4.2568">
        <ele>23</ele>
        <time>2014-09-23T15:53:54Z</time>
      </trkpt>
      <trkpt lat="48.6422" lon="-4.25671">
        <ele>23</ele>
        <time>2014-09-23T15:53:59Z</time>
      </trkpt>
      <trkpt lat="48.64221" lon="-4.25663">
        <ele>23</ele>
        <time>2014-09-23T15:54:04Z</time>
      </trkpt>
      <trkpt lat="48.64222" lon="-4.25652">
        <ele>23</ele>
        <time>2014-09-23T15:54:10Z</time>
      </trkpt>
      <trkpt lat="48.64223" lon="-4.25643">
        <ele>23</ele>
        <time>2014-09-23T15:54:15Z</time>
      </trkpt>
      <trkpt lat="48.64224" lon="-4.25633">
        <ele>23</ele>
        <time>2014-09-23T15:54:20Z</time>
      </trkpt>
      <trkpt lat="48.64225" lon="-4.25625">
        <ele>23</ele>
        <time>2014-09-23T15:54:25Z</time>
      </trkpt>
      <trkpt lat="48.64227" lon="-4.25615">
        <ele>23</ele>
        <time>2014-09-23T15:54:31Z</time>
      </trkpt>
      <trkpt lat="48.64228" lon="-4.25604">
        <ele>23</ele>
        <time>2014-09-23T15:54:37Z</time>
      </trkpt>
      <trkpt lat="48.6423" lon="-4.25596">
        <ele>23</ele>
        <time>2014-09-23T15:54:42Z</time>
      </trkpt>
      <trkpt lat="48.64232" lon="-4.25587">
        <ele>23</ele>
        <time>2014-09-23T15:54:48Z</time>
      </trkpt>
      <trkpt lat="48.64233" lon="-4.25579">
        <ele>23</ele>
        <time>2014-09-23T15:54:53Z</time>
      </trkpt>
      <trkpt lat="48.64233" lon="-4.25571">
        <ele>23</ele>
        <time>2014-09-23T15:54:58Z</time>
      </trkpt>
      <trkpt lat="48.64234" lon="-4.25565">
        <ele>23</ele>
        <time>2014-09-23T15:55:03Z</time>
      </trkpt>
      <trkpt lat="48.64235" lon="-4.2556">
        <ele>23</ele>
        <time>2014-09-23T15:55:08Z</time>
      </trkpt>
      <trkpt lat="48.64236" lon="-4.25554">
        <ele>23</ele>
        <time>2014-09-23T15:55:14Z</time>
      </trkpt>
      <trkpt lat="48.64238" lon="-4.25548">
        <ele>23</ele>
        <time>2014-09-23T15:55:19Z</time>
      </trkpt>
      <trkpt lat="48.64238" lon="-4.25538">
        <ele>23</ele>
        <time>2014-09-23T15:55:25Z</time>
      </trkpt>
      <trkpt lat="48.64239" lon="-4.25531">
        <ele>23</ele>
        <time>2014-09-23T15:55:30Z</time>
      </trkpt>
      <trkpt lat="48.64241" lon="-4.25521">
        <ele>23</ele>
        <time>2014-09-23T15:55:36Z</time>
      </trkpt>
      <trkpt lat="48.6424" lon="-4.25517">
        <ele>23</ele>
        <time>2014-09-23T15:55:41Z</time>
      </trkpt>
      <trkpt lat="48.64241" lon="-4.25507">
        <ele>23</ele>
        <time>2014-09-23T15:55:47Z</time>
      </trkpt>
      <trkpt lat="48.64242" lon="-4.25497">
        <ele>23</ele>
        <time>2014-09-23T15:55:53Z</time>
      </trkpt>
      <trkpt lat="48.64245" lon="-4.25488">
        <ele>23</ele>
        <time>2014-09-23T15:55:59Z</time>
      </trkpt>
      <trkpt lat="48.64246" lon="-4.25481">
        <ele>23</ele>
        <time>2014-09-23T15:56:05Z</time>
      </trkpt>
      <trkpt lat="48.64247" lon="-4.25472">
        <ele>23</ele>
        <time>2014-09-23T15:56:10Z</time>
      </trkpt>
      <trkpt lat="48.64249" lon="-4.25461">
        <ele>22</ele>
        <time>2014-09-23T15:56:16Z</time>
      </trkpt>
      <trkpt lat="48.64253" lon="-4.25453">
        <ele>22</ele>
        <time>2014-09-23T15:56:22Z</time>
      </trkpt>
      <trkpt lat="48.64254" lon="-4.25442">
        <ele>23</ele>
        <time>2014-09-23T15:56:28Z</time>
      </trkpt>
      <trkpt lat="48.64255" lon="-4.25434">
        <ele>22</ele>
        <time>2014-09-23T15:56:33Z</time>
      </trkpt>
      <trkpt lat="48.64255" lon="-4.25424">
        <ele>22</ele>
        <time>2014-09-23T15:56:39Z</time>
      </trkpt>
      <trkpt lat="48.64256" lon="-4.25415">
        <ele>23</ele>
        <time>2014-09-23T15:56:44Z</time>
      </trkpt>
      <trkpt lat="48.64257" lon="-4.25405">
        <ele>23</ele>
        <time>2014-09-23T15:56:50Z</time>
      </trkpt>
      <trkpt lat="48.64258" lon="-4.25395">
        <ele>23</ele>
        <time>2014-09-23T15:56:55Z</time>
      </trkpt>
      <trkpt lat="48.64259" lon="-4.25387">
        <ele>22</ele>
        <time>2014-09-23T15:57:00Z</time>
      </trkpt>
      <trkpt lat="48.64261" lon="-4.25378">
        <ele>22</ele>
        <time>2014-09-23T15:57:06Z</time>
      </trkpt>
      <trkpt lat="48.64262" lon="-4.2537">
        <ele>23</ele>
        <time>2014-09-23T15:57:11Z</time>
      </trkpt>
      <trkpt lat="48.64263" lon="-4.25361">
        <ele>23</ele>
        <time>2014-09-23T15:57:16Z</time>
      </trkpt>
      <trkpt lat="48.64264" lon="-4.25351">
        <ele>22</ele>
        <time>2014-09-23T15:57:22Z</time>
      </trkpt>
      <trkpt lat="48.64265" lon="-4.25343">
        <ele>23</ele>
        <time>2014-09-23T15:57:27Z</time>
      </trkpt>
      <trkpt lat="48.64268" lon="-4.25334">
        <ele>23</ele>
        <time>2014-09-23T15:57:33Z</time>
      </trkpt>
      <trkpt lat="48.6427" lon="-4.25325">
        <ele>23</ele>
        <time>2014-09-23T15:57:39Z</time>
      </trkpt>
      <trkpt lat="48.64271" lon="-4.25316">
        <ele>23</ele>
        <time>2014-09-23T15:57:45Z</time>
      </trkpt>
      <trkpt lat="48.6427" lon="-4.25309">
        <ele>22</ele>
        <time>2014-09-23T15:57:50Z</time>
      </trkpt>
      <trkpt lat="48.64269" lon="-4.25305">
        <ele>23</ele>
        <time>2014-09-23T15:57:56Z</time>
      </trkpt>
      <trkpt lat="48.64268" lon="-4.25303">
        <ele>22</ele>
        <time>2014-09-23T15:58:02Z</time>
      </trkpt>
      <trkpt lat="48.6427" lon="-4.25294">
        <ele>22</ele>
        <time>2014-09-23T15:58:07Z</time>
      </trkpt>
      <trkpt lat="48.64271" lon="-4.25283">
        <ele>22</ele>
        <time>2014-09-23T15:58:13Z</time>
      </trkpt>
      <trkpt lat="48.64273" lon="-4.25274">
        <ele>22</ele>
        <time>2014-09-23T15:58:18Z</time>
      </trkpt>
      <trkpt lat="48.64274" lon="-4.25265">
        <ele>22</ele>
        <time>2014-09-23T15:58:23Z</time>
      </trkpt>
      <trkpt lat="48.64275" lon="-4.25255">
        <ele>22</ele>
        <time>2014-09-23T15:58:29Z</time>
      </trkpt>
      <trkpt lat="48.64277" lon="-4.25247">
        <ele>22</ele>
        <time>2014-09-23T15:58:34Z</time>
      </trkpt>
      <trkpt lat="48.64278" lon="-4.25247">
        <ele>22</ele>
        <time>2014-09-23T15:58:40Z</time>
      </trkpt>
      <trkpt lat="48.64278" lon="-4.25247">
        <ele>23</ele>
        <time>2014-09-23T15:58:46Z</time>
      </trkpt>
      <trkpt lat="48.64278" lon="-4.25244">
        <ele>23</ele>
        <time>2014-09-23T15:58:51Z</time>
      </trkpt>
      <trkpt lat="48.64278" lon="-4.25235">
        <ele>22</ele>
        <time>2014-09-23T15:58:57Z</time>
      </trkpt>
      <trkpt lat="48.64278" lon="-4.25229">
        <ele>22</ele>
        <time>2014-09-23T15:59:02Z</time>
      </trkpt>
      <trkpt lat="48.6428" lon="-4.25222">
        <ele>22</ele>
        <time>2014-09-23T15:59:07Z</time>
      </trkpt>
      <trkpt lat="48.64283" lon="-4.25214">
        <ele>23</ele>
        <time>2014-09-23T15:59:13Z</time>
      </trkpt>
      <trkpt lat="48.64284" lon="-4.25208">
        <ele>22</ele>
        <time>2014-09-23T15:59:18Z</time>
      </trkpt>
      <trkpt lat="48.64285" lon="-4.25198">
        <ele>23</ele>
        <time>2014-09-23T15:59:23Z</time>
      </trkpt>
      <trkpt lat="48.64287" lon="-4.25187">
        <ele>23</ele>
        <time>2014-09-23T15:59:28Z</time>
      </trkpt>
      <trkpt lat="48.64288" lon="-4.25177">
        <ele>22</ele>
        <time>2014-09-23T15:59:33Z</time>
      </trkpt>
      <trkpt lat="48.64289" lon="-4.25168">
        <ele>23</ele>
        <time>2014-09-23T15:59:38Z</time>
      </trkpt>
      <trkpt lat="48.64291" lon="-4.25157">
        <ele>23</ele>
        <time>2014-09-23T15:59:44Z</time>
      </trkpt>
      <trkpt lat="48.64292" lon="-4.25147">
        <ele>23</ele>
        <time>2014-09-23T15:59:50Z</time>
      </trkpt>
      <trkpt lat="48.64294" lon="-4.25138">
        <ele>23</ele>
        <time>2014-09-23T15:59:55Z</time>
      </trkpt>
      <trkpt lat="48.64296" lon="-4.25129">
        <ele>23</ele>
        <time>2014-09-23T16:00:00Z</time>
      </trkpt>
      <trkpt lat="48.64297" lon="-4.25118">
        <ele>23</ele>
        <time>2014-09-23T16:00:06Z</time>
      </trkpt>
      <trkpt lat="48.64298" lon="-4.2511">
        <ele>22</ele>
        <time>2014-09-23T16:00:11Z</time>
      </trkpt>
      <trkpt lat="48.64299" lon="-4.251">
        <ele>22</ele>
        <time>2014-09-23T16:00:17Z</time>
      </trkpt>
      <trkpt lat="48.64301" lon="-4.25093">
        <ele>22</ele>
        <time>2014-09-23T16:00:22Z</time>
      </trkpt>
      <trkpt lat="48.64302" lon="-4.25086">
        <ele>22</ele>
        <time>2014-09-23T16:00:27Z</time>
      </trkpt>
      <trkpt lat="48.64302" lon="-4.25078">
        <ele>22</ele>
        <time>2014-09-23T16:00:32Z</time>
      </trkpt>
      <trkpt lat="48.64303" lon="-4.25069">
        <ele>22</ele>
        <time>2014-09-23T16:00:37Z</time>
      </trkpt>
      <trkpt lat="48.64305" lon="-4.25061">
        <ele>23</ele>
        <time>2014-09-23T16:00:43Z</time>
      </trkpt>
      <trkpt lat="48.64306" lon="-4.25051">
        <ele>22</ele>
        <time>2014-09-23T16:00:49Z</time>
      </trkpt>
      <trkpt lat="48.64308" lon="-4.25043">
        <ele>22</ele>
        <time>2014-09-23T16:00:54Z</time>
      </trkpt>
      <trkpt lat="48.64309" lon="-4.25032">
        <ele>22</ele>
        <time>2014-09-23T16:01:00Z</time>
      </trkpt>
      <trkpt lat="48.6431" lon="-4.25022">
        <ele>22</ele>
        <time>2014-09-23T16:01:05Z</time>
      </trkpt>
      <trkpt lat="48.6431" lon="-4.25011">
        <ele>22</ele>
        <time>2014-09-23T16:01:11Z</time>
      </trkpt>
      <trkpt lat="48.64311" lon="-4.25002">
        <ele>22</ele>
        <time>2014-09-23T16:01:16Z</time>
      </trkpt>
      <trkpt lat="48.64312" lon="-4.24993">
        <ele>22</ele>
        <time>2014-09-23T16:01:21Z</time>
      </trkpt>
      <trkpt lat="48.64313" lon="-4.24982">
        <ele>22</ele>
        <time>2014-09-23T16:01:27Z</time>
      </trkpt>
      <trkpt lat="48.64313" lon="-4.24973">
        <ele>22</ele>
        <time>2014-09-23T16:01:32Z</time>
      </trkpt>
      <trkpt lat="48.64314" lon="-4.24963">
        <ele>22</ele>
        <time>2014-09-23T16:01:37Z</time>
      </trkpt>
      <trkpt lat="48.64315" lon="-4.24952">
        <ele>22</ele>
        <time>2014-09-23T16:01:43Z</time>
      </trkpt>
      <trkpt lat="48.64316" lon="-4.24945">
        <ele>22</ele>
        <time>2014-09-23T16:01:48Z</time>
      </trkpt>
      <trkpt lat="48.64318" lon="-4.24935">
        <ele>22</ele>
        <time>2014-09-23T16:01:54Z</time>
      </trkpt>
      <trkpt lat="48.64319" lon="-4.24925">
        <ele>22</ele>
        <time>2014-09-23T16:02:00Z</time>
      </trkpt>
      <trkpt lat="48.64321" lon="-4.24915">
        <ele>22</ele>
        <time>2014-09-23T16:02:06Z</time>
      </trkpt>
      <trkpt lat="48.64322" lon="-4.24905">
        <ele>22</ele>
        <time>2014-09-23T16:02:12Z</time>
      </trkpt>
      <trkpt lat="48.64324" lon="-4.24897">
        <ele>22</ele>
        <time>2014-09-23T16:02:17Z</time>
      </trkpt>
      <trkpt lat="48.64326" lon="-4.2489">
        <ele>22</ele>
        <time>2014-09-23T16:02:22Z</time>
      </trkpt>
      <trkpt lat="48.64327" lon="-4.24881">
        <ele>22</ele>
        <time>2014-09-23T16:02:27Z</time>
      </trkpt>
      <trkpt lat="48.64329" lon="-4.24874">
        <ele>22</ele>
        <time>2014-09-23T16:02:32Z</time>
      </trkpt>
      <trkpt lat="48.64331" lon="-4.24865">
        <ele>22</ele>
        <time>2014-09-23T16:02:38Z</time>
      </trkpt>
      <trkpt lat="48.64332" lon="-4.24857">
        <ele>22</ele>
        <time>2014-09-23T16:02:43Z</time>
      </trkpt>
      <trkpt lat="48.64334" lon="-4.24849">
        <ele>22</ele>
        <time>2014-09-23T16:02:49Z</time>
      </trkpt>
      <trkpt lat="48.64337" lon="-4.2484">
        <ele>22</ele>
        <time>2014-09-23T16:02:55Z</time>
      </trkpt>
      <trkpt lat="48.64338" lon="-4.24834">
        <ele>22</ele>
        <time>2014-09-23T16:03:00Z</time>
      </trkpt>
      <trkpt lat="48.64338" lon="-4.24827">
        <ele>22</ele>
        <time>2014-09-23T16:03:06Z</time>
      </trkpt>
      <trkpt lat="48.64338" lon="-4.24819">
        <ele>22</ele>
        <time>2014-09-23T16:03:11Z</time>
      </trkpt>
      <trkpt lat="48.64339" lon="-4.24811">
        <ele>22</ele>
        <time>2014-09-23T16:03:16Z</time>
      </trkpt>
      <trkpt lat="48.64341" lon="-4.24802">
        <ele>22</ele>
        <time>2014-09-23T16:03:22Z</time>
      </trkpt>
      <trkpt lat="48.64343" lon="-4.24793">
        <ele>22</ele>
        <time>2014-09-23T16:03:28Z</time>
      </trkpt>
      <trkpt lat="48.64345" lon="-4.24782">
        <ele>22</ele>
        <time>2014-09-23T16:03:34Z</time>
      </trkpt>
      <trkpt lat="48.64347" lon="-4.24772">
        <ele>22</ele>
        <time>2014-09-23T16:03:40Z</time>
      </trkpt>
      <trkpt lat="48.64351" lon="-4.24762">
        <ele>22</ele>
        <time>2014-09-23T16:03:46Z</time>
      </trkpt>
      <trkpt lat="48.64352" lon="-4.24754">
        <ele>22</ele>
        <time>2014-09-23T16:03:51Z</time>
      </trkpt>
      <trkpt lat="48.64354" lon="-4.24744">
        <ele>22</ele>
        <time>2014-09-23T16:03:57Z</time>
      </trkpt>
      <trkpt lat="48.64356" lon="-4.24735">
        <ele>22</ele>
        <time>2014-09-23T16:04:02Z</time>
      </trkpt>
      <trkpt lat="48.64354" lon="-4.24727">
        <ele>23</ele>
        <time>2014-09-23T16:04:07Z</time>
      </trkpt>
      <trkpt lat="48.64353" lon="-4.24719">
        <ele>22</ele>
        <time>2014-09-23T16:04:12Z</time>
      </trkpt>
      <trkpt lat="48.64354" lon="-4.24711">
        <ele>22</ele>
        <time>2014-09-23T16:04:17Z</time>
      </trkpt>
      <trkpt lat="48.64356" lon="-4.24702">
        <ele>22</ele>
        <time>2014-09-23T16:04:23Z</time>
      </trkpt>
      <trkpt lat="48.64355" lon="-4.24696">
        <ele>22</ele>
        <time>2014-09-23T16:04:28Z</time>
      </trkpt>
      <trkpt lat="48.64355" lon="-4.24694">
        <ele>22</ele>
        <time>2014-09-23T16:04:33Z</time>
      </trkpt>
      <trkpt lat="48.64355" lon="-4.24691">
        <ele>22</ele>
        <time>2014-09-23T16:04:39Z</time>
      </trkpt>
      <trkpt lat="48.64355" lon="-4.24689">
        <ele>22</ele>
        <time>2014-09-23T16:04:44Z</time>
      </trkpt>
      <trkpt lat="48.64355" lon="-4.24686">
        <ele>22</ele>
        <time>2014-09-23T16:04:51Z</time>
      </trkpt>
      <trkpt lat="48.64356" lon="-4.24685">
        <ele>22</ele>
        <time>2014-09-23T16:04:56Z</time>
      </trkpt>
      <trkpt lat="48.64356" lon="-4.24685">
        <ele>22</ele>
        <time>2014-09-23T16:05:02Z</time>
      </trkpt>
      <trkpt lat="48.64356" lon="-4.24685">
        <ele>22</ele>
        <time>2014-09-23T16:05:07Z</time>
      </trkpt>
      <trkpt lat="48.64355" lon="-4.24686">
        <ele>22</ele>
        <time>2014-09-23T16:05:13Z</time>
      </trkpt>
      <trkpt lat="48.64355" lon="-4.24686">
        <ele>22</ele>
        <time>2014-09-23T16:05:19Z</time>
      </trkpt>
      <trkpt lat="48.64356" lon="-4.24686">
        <ele>22</ele>
        <time>2014-09-23T16:05:24Z</time>
      </trkpt>
      <trkpt lat="48.64356" lon="-4.24687">
        <ele>22</ele>
        <time>2014-09-23T16:05:30Z</time>
      </trkpt>
      <trkpt lat="48.64356" lon="-4.24687">
        <ele>21</ele>
        <time>2014-09-23T16:05:36Z</time>
      </trkpt>
      <trkpt lat="48.64357" lon="-4.24687">
        <ele>22</ele>
        <time>2014-09-23T16:05:42Z</time>
      </trkpt>
      <trkpt lat="48.64356" lon="-4.24687">
        <ele>22</ele>
        <time>2014-09-23T16:05:47Z</time>
      </trkpt>
      <trkpt lat="48.64356" lon="-4.24687">
        <ele>22</ele>
        <time>2014-09-23T16:05:53Z</time>
      </trkpt>
      <trkpt lat="48.64356" lon="-4.24687">
        <ele>22</ele>
        <time>2014-09-23T16:05:58Z</time>
      </trkpt>
      <trkpt lat="48.64355" lon="-4.24687">
        <ele>22</ele>
        <time>2014-09-23T16:06:03Z</time>
      </trkpt>
      <trkpt lat="48.64354" lon="-4.24688">
        <ele>22</ele>
        <time>2014-09-23T16:06:09Z</time>
      </trkpt>
      <trkpt lat="48.64353" lon="-4.24687">
        <ele>22</ele>
        <time>2014-09-23T16:06:15Z</time>
      </trkpt>
      <trkpt lat="48.64352" lon="-4.24686">
        <ele>22</ele>
        <time>2014-09-23T16:06:21Z</time>
      </trkpt>
      <trkpt lat="48.64352" lon="-4.24684">
        <ele>22</ele>
        <time>2014-09-23T16:06:27Z</time>
      </trkpt>
      <trkpt lat="48.64352" lon="-4.24681">
        <ele>22</ele>
        <time>2014-09-23T16:06:32Z</time>
      </trkpt>
      <trkpt lat="48.64356" lon="-4.24682">
        <ele>22</ele>
        <time>2014-09-23T16:06:38Z</time>
      </trkpt>
      <trkpt lat="48.64356" lon="-4.24682">
        <ele>22</ele>
        <time>2014-09-23T16:06:43Z</time>
      </trkpt>
      <trkpt lat="48.64356" lon="-4.24684">
        <ele>22</ele>
        <time>2014-09-23T16:06:48Z</time>
      </trkpt>
      <trkpt lat="48.64358" lon="-4.24684">
        <ele>22</ele>
        <time>2014-09-23T16:06:53Z</time>
      </trkpt>
      <trkpt lat="48.64363" lon="-4.24678">
        <ele>22</ele>
        <time>2014-09-23T16:06:59Z</time>
      </trkpt>
      <trkpt lat="48.64366" lon="-4.24669">
        <ele>22</ele>
        <time>2014-09-23T16:07:05Z</time>
      </trkpt>
      <trkpt lat="48.64368" lon="-4.24661">
        <ele>22</ele>
        <time>2014-09-23T16:07:10Z</time>
      </trkpt>
      <trkpt lat="48.6437" lon="-4.24652">
        <ele>22</ele>
        <time>2014-09-23T16:07:16Z</time>
      </trkpt>
      <trkpt lat="48.64371" lon="-4.24648">
        <ele>22</ele>
        <time>2014-09-23T16:07:21Z</time>
      </trkpt>
      <trkpt lat="48.64373" lon="-4.24642">
        <ele>22</ele>
        <time>2014-09-23T16:07:26Z</time>
      </trkpt>
      <trkpt lat="48.64376" lon="-4.24632">
        <ele>22</ele>
        <time>2014-09-23T16:07:32Z</time>
      </trkpt>
      <trkpt lat="48.64378" lon="-4.24623">
        <ele>22</ele>
        <time>2014-09-23T16:07:37Z</time>
      </trkpt>
      <trkpt lat="48.64379" lon="-4.24614">
        <ele>22</ele>
        <time>2014-09-23T16:07:42Z</time>
      </trkpt>
      <trkpt lat="48.64382" lon="-4.24605">
        <ele>22</ele>
        <time>2014-09-23T16:07:48Z</time>
      </trkpt>
      <trkpt lat="48.64383" lon="-4.24598">
        <ele>22</ele>
        <time>2014-09-23T16:07:53Z</time>
      </trkpt>
      <trkpt lat="48.64386" lon="-4.24589">
        <ele>22</ele>
        <time>2014-09-23T16:07:59Z</time>
      </trkpt>
      <trkpt lat="48.64387" lon="-4.24582">
        <ele>23</ele>
        <time>2014-09-23T16:08:04Z</time>
      </trkpt>
      <trkpt lat="48.64389" lon="-4.24573">
        <ele>23</ele>
        <time>2014-09-23T16:08:10Z</time>
      </trkpt>
      <trkpt lat="48.6439" lon="-4.24566">
        <ele>23</ele>
        <time>2014-09-23T16:08:15Z</time>
      </trkpt>
      <trkpt lat="48.64392" lon="-4.24555">
        <ele>22</ele>
        <time>2014-09-23T16:08:21Z</time>
      </trkpt>
      <trkpt lat="48.64394" lon="-4.24546">
        <ele>22</ele>
        <time>2014-09-23T16:08:26Z</time>
      </trkpt>
      <trkpt lat="48.64397" lon="-4.24537">
        <ele>22</ele>
        <time>2014-09-23T16:08:31Z</time>
      </trkpt>
      <trkpt lat="48.64399" lon="-4.24527">
        <ele>22</ele>
        <time>2014-09-23T16:08:37Z</time>
      </trkpt>
      <trkpt lat="48.64401" lon="-4.24517">
        <ele>22</ele>
        <time>2014-09-23T16:08:42Z</time>
      </trkpt>
      <trkpt lat="48.64403" lon="-4.24509">
        <ele>22</ele>
        <time>2014-09-23T16:08:48Z</time>
      </trkpt>
      <trkpt lat="48.64404" lon="-4.24499">
        <ele>22</ele>
        <time>2014-09-23T16:08:54Z</time>
      </trkpt>
      <trkpt lat="48.64405" lon="-4.2449">
        <ele>22</ele>
        <time>2014-09-23T16:08:59Z</time>
      </trkpt>
      <trkpt lat="48.64407" lon="-4.24482">
        <ele>22</ele>
        <time>2014-09-23T16:09:05Z</time>
      </trkpt>
      <trkpt lat="48.64409" lon="-4.24474">
        <ele>22</ele>
        <time>2014-09-23T16:09:10Z</time>
      </trkpt>
      <trkpt lat="48.64412" lon="-4.24465">
        <ele>22</ele>
        <time>2014-09-23T16:09:15Z</time>
      </trkpt>
      <trkpt lat="48.64414" lon="-4.24456">
        <ele>22</ele>
        <time>2014-09-23T16:09:20Z</time>
      </trkpt>
      <trkpt lat="48.64417" lon="-4.24444">
        <ele>22</ele>
        <time>2014-09-23T16:09:26Z</time>
      </trkpt>
      <trkpt lat="48.6442" lon="-4.24436">
        <ele>22</ele>
        <time>2014-09-23T16:09:31Z</time>
      </trkpt>
      <trkpt lat="48.64423" lon="-4.24427">
        <ele>22</ele>
        <time>2014-09-23T16:09:36Z</time>
      </trkpt>
      <trkpt lat="48.64425" lon="-4.24417">
        <ele>22</ele>
        <time>2014-09-23T16:09:42Z</time>
      </trkpt>
      <trkpt lat="48.64428" lon="-4.24407">
        <ele>22</ele>
        <time>2014-09-23T16:09:48Z</time>
      </trkpt>
      <trkpt lat="48.64431" lon="-4.24397">
        <ele>21</ele>
        <time>2014-09-23T16:09:54Z</time>
      </trkpt>
      <trkpt lat="48.64433" lon="-4.24387">
        <ele>22</ele>
        <time>2014-09-23T16:10:00Z</time>
      </trkpt>
      <trkpt lat="48.64436" lon="-4.24377">
        <ele>22</ele>
        <time>2014-09-23T16:10:06Z</time>
      </trkpt>
      <trkpt lat="48.64437" lon="-4.24369">
        <ele>22</ele>
        <time>2014-09-23T16:10:11Z</time>
      </trkpt>
      <trkpt lat="48.64439" lon="-4.24359">
        <ele>22</ele>
        <time>2014-09-23T16:10:17Z</time>
      </trkpt>
      <trkpt lat="48.64441" lon="-4.2435">
        <ele>22</ele>
        <time>2014-09-23T16:10:22Z</time>
      </trkpt>
      <trkpt lat="48.64443" lon="-4.24339">
        <ele>22</ele>
        <time>2014-09-23T16:10:28Z</time>
      </trkpt>
      <trkpt lat="48.64445" lon="-4.24331">
        <ele>22</ele>
        <time>2014-09-23T16:10:33Z</time>
      </trkpt>
      <trkpt lat="48.64445" lon="-4.24325">
        <ele>22</ele>
        <time>2014-09-23T16:10:39Z</time>
      </trkpt>
      <trkpt lat="48.64447" lon="-4.24315">
        <ele>22</ele>
        <time>2014-09-23T16:10:45Z</time>
      </trkpt>
      <trkpt lat="48.64449" lon="-4.24307">
        <ele>22</ele>
        <time>2014-09-23T16:10:50Z</time>
      </trkpt>
      <trkpt lat="48.6445" lon="-4.24299">
        <ele>22</ele>
        <time>2014-09-23T16:10:55Z</time>
      </trkpt>
      <trkpt lat="48.64451" lon="-4.24291">
        <ele>22</ele>
        <time>2014-09-23T16:11:00Z</time>
      </trkpt>
      <trkpt lat="48.64452" lon="-4.24283">
        <ele>22</ele>
        <time>2014-09-23T16:11:06Z</time>
      </trkpt>
      <trkpt lat="48.64454" lon="-4.24275">
        <ele>22</ele>
        <time>2014-09-23T16:11:11Z</time>
      </trkpt>
      <trkpt lat="48.64456" lon="-4.24265">
        <ele>22</ele>
        <time>2014-09-23T16:11:17Z</time>
      </trkpt>
      <trkpt lat="48.64458" lon="-4.24257">
        <ele>22</ele>
        <time>2014-09-23T16:11:22Z</time>
      </trkpt>
      <trkpt lat="48.6446" lon="-4.24248">
        <ele>22</ele>
        <time>2014-09-23T16:11:27Z</time>
      </trkpt>
      <trkpt lat="48.64463" lon="-4.24238">
        <ele>22</ele>
        <time>2014-09-23T16:11:33Z</time>
      </trkpt>
      <trkpt lat="48.64467" lon="-4.24229">
        <ele>22</ele>
        <time>2014-09-23T16:11:39Z</time>
      </trkpt>
      <trkpt lat="48.6447" lon="-4.2422">
        <ele>22</ele>
        <time>2014-09-23T16:11:45Z</time>
      </trkpt>
      <trkpt lat="48.64472" lon="-4.24213">
        <ele>22</ele>
        <time>2014-09-23T16:11:50Z</time>
      </trkpt>
      <trkpt lat="48.64474" lon="-4.24204">
        <ele>22</ele>
        <time>2014-09-23T16:11:55Z</time>
      </trkpt>
      <trkpt lat="48.64475" lon="-4.24197">
        <ele>22</ele>
        <time>2014-09-23T16:12:00Z</time>
      </trkpt>
      <trkpt lat="48.64478" lon="-4.24189">
        <ele>22</ele>
        <time>2014-09-23T16:12:05Z</time>
      </trkpt>
      <trkpt lat="48.64481" lon="-4.24181">
        <ele>22</ele>
        <time>2014-09-23T16:12:11Z</time>
      </trkpt>
      <trkpt lat="48.64483" lon="-4.24173">
        <ele>22</ele>
        <time>2014-09-23T16:12:16Z</time>
      </trkpt>
      <trkpt lat="48.64486" lon="-4.24165">
        <ele>22</ele>
        <time>2014-09-23T16:12:22Z</time>
      </trkpt>
      <trkpt lat="48.64489" lon="-4.24158">
        <ele>22</ele>
        <time>2014-09-23T16:12:28Z</time>
      </trkpt>
      <trkpt lat="48.64491" lon="-4.24149">
        <ele>22</ele>
        <time>2014-09-23T16:12:34Z</time>
      </trkpt>
      <trkpt lat="48.64492" lon="-4.2414">
        <ele>22</ele>
        <time>2014-09-23T16:12:39Z</time>
      </trkpt>
      <trkpt lat="48.64495" lon="-4.24129">
        <ele>22</ele>
        <time>2014-09-23T16:12:45Z</time>
      </trkpt>
      <trkpt lat="48.64497" lon="-4.24121">
        <ele>22</ele>
        <time>2014-09-23T16:12:50Z</time>
      </trkpt>
      <trkpt lat="48.645" lon="-4.24111">
        <ele>22</ele>
        <time>2014-09-23T16:12:55Z</time>
      </trkpt>
      <trkpt lat="48.64503" lon="-4.24102">
        <ele>22</ele>
        <time>2014-09-23T16:13:01Z</time>
      </trkpt>
      <trkpt lat="48.64505" lon="-4.24091">
        <ele>22</ele>
        <time>2014-09-23T16:13:06Z</time>
      </trkpt>
      <trkpt lat="48.64507" lon="-4.24082">
        <ele>22</ele>
        <time>2014-09-23T16:13:11Z</time>
      </trkpt>
      <trkpt lat="48.6451" lon="-4.24072">
        <ele>22</ele>
        <time>2014-09-23T16:13:17Z</time>
      </trkpt>
      <trkpt lat="48.64511" lon="-4.24063">
        <ele>22</ele>
        <time>2014-09-23T16:13:22Z</time>
      </trkpt>
      <trkpt lat="48.64513" lon="-4.24055">
        <ele>22</ele>
        <time>2014-09-23T16:13:27Z</time>
      </trkpt>
      <trkpt lat="48.64516" lon="-4.24046">
        <ele>22</ele>
        <time>2014-09-23T16:13:33Z</time>
      </trkpt>
      <trkpt lat="48.64517" lon="-4.24036">
        <ele>22</ele>
        <time>2014-09-23T16:13:39Z</time>
      </trkpt>
      <trkpt lat="48.64518" lon="-4.24028">
        <ele>22</ele>
        <time>2014-09-23T16:13:44Z</time>
      </trkpt>
      <trkpt lat="48.6452" lon="-4.2402">
        <ele>22</ele>
        <time>2014-09-23T16:13:49Z</time>
      </trkpt>
      <trkpt lat="48.64521" lon="-4.24012">
        <ele>22</ele>
        <time>2014-09-23T16:13:55Z</time>
      </trkpt>
      <trkpt lat="48.64523" lon="-4.24004">
        <ele>22</ele>
        <time>2014-09-23T16:14:00Z</time>
      </trkpt>
      <trkpt lat="48.64525" lon="-4.23997">
        <ele>22</ele>
        <time>2014-09-23T16:14:05Z</time>
      </trkpt>
      <trkpt lat="48.64528" lon="-4.2399">
        <ele>21</ele>
        <time>2014-09-23T16:14:10Z</time>
      </trkpt>
      <trkpt lat="48.64529" lon="-4.23983">
        <ele>22</ele>
        <time>2014-09-23T16:14:15Z</time>
      </trkpt>
      <trkpt lat="48.64531" lon="-4.23973">
        <ele>22</ele>
        <time>2014-09-23T16:14:21Z</time>
      </trkpt>
      <trkpt lat="48.64533" lon="-4.23963">
        <ele>22</ele>
        <time>2014-09-23T16:14:27Z</time>
      </trkpt>
      <trkpt lat="48.64535" lon="-4.23954">
        <ele>22</ele>
        <time>2014-09-23T16:14:32Z</time>
      </trkpt>
      <trkpt lat="48.64537" lon="-4.23944">
        <ele>22</ele>
        <time>2014-09-23T16:14:38Z</time>
      </trkpt>
      <trkpt lat="48.6454" lon="-4.23935">
        <ele>22</ele>
        <time>2014-09-23T16:14:44Z</time>
      </trkpt>
      <trkpt lat="48.64543" lon="-4.23928">
        <ele>22</ele>
        <time>2014-09-23T16:14:49Z</time>
      </trkpt>
      <trkpt lat="48.64545" lon="-4.23919">
        <ele>22</ele>
        <time>2014-09-23T16:14:55Z</time>
      </trkpt>
      <trkpt lat="48.64547" lon="-4.23911">
        <ele>22</ele>
        <time>2014-09-23T16:15:00Z</time>
      </trkpt>
      <trkpt lat="48.6455" lon="-4.23903">
        <ele>21</ele>
        <time>2014-09-23T16:15:05Z</time>
      </trkpt>
      <trkpt lat="48.64553" lon="-4.23893">
        <ele>22</ele>
        <time>2014-09-23T16:15:11Z</time>
      </trkpt>
      <trkpt lat="48.64555" lon="-4.23882">
        <ele>22</ele>
        <time>2014-09-23T16:15:17Z</time>
      </trkpt>
      <trkpt lat="48.64557" lon="-4.23872">
        <ele>22</ele>
        <time>2014-09-23T16:15:23Z</time>
      </trkpt>
      <trkpt lat="48.6456" lon="-4.23864">
        <ele>22</ele>
        <time>2014-09-23T16:15:28Z</time>
      </trkpt>
      <trkpt lat="48.64561" lon="-4.23856">
        <ele>22</ele>
        <time>2014-09-23T16:15:34Z</time>
      </trkpt>
      <trkpt lat="48.64562" lon="-4.23849">
        <ele>22</ele>
        <time>2014-09-23T16:15:39Z</time>
      </trkpt>
      <trkpt lat="48.64565" lon="-4.23839">
        <ele>22</ele>
        <time>2014-09-23T16:15:45Z</time>
      </trkpt>
      <trkpt lat="48.64568" lon="-4.23831">
        <ele>21</ele>
        <time>2014-09-23T16:15:50Z</time>
      </trkpt>
      <trkpt lat="48.6457" lon="-4.2382">
        <ele>22</ele>
        <time>2014-09-23T16:15:56Z</time>
      </trkpt>
      <trkpt lat="48.64571" lon="-4.23812">
        <ele>22</ele>
        <time>2014-09-23T16:16:01Z</time>
      </trkpt>
      <trkpt lat="48.64574" lon="-4.23802">
        <ele>22</ele>
        <time>2014-09-23T16:16:07Z</time>
      </trkpt>
      <trkpt lat="48.64575" lon="-4.23795">
        <ele>21</ele>
        <time>2014-09-23T16:16:12Z</time>
      </trkpt>
      <trkpt lat="48.64577" lon="-4.23787">
        <ele>21</ele>
        <time>2014-09-23T16:16:17Z</time>
      </trkpt>
      <trkpt lat="48.64581" lon="-4.23777">
        <ele>21</ele>
        <time>2014-09-23T16:16:23Z</time>
      </trkpt>
      <trkpt lat="48.64583" lon="-4.23767">
        <ele>21</ele>
        <time>2014-09-23T16:16:29Z</time>
      </trkpt>
      <trkpt lat="48.64586" lon="-4.23757">
        <ele>21</ele>
        <time>2014-09-23T16:16:35Z</time>
      </trkpt>
      <trkpt lat="48.64588" lon="-4.23749">
        <ele>22</ele>
        <time>2014-09-23T16:16:40Z</time>
      </trkpt>
      <trkpt lat="48.6459" lon="-4.23739">
        <ele>22</ele>
        <time>2014-09-23T16:16:46Z</time>
      </trkpt>
      <trkpt lat="48.64593" lon="-4.23729">
        <ele>22</ele>
        <time>2014-09-23T16:16:52Z</time>
      </trkpt>
      <trkpt lat="48.64596" lon="-4.23719">
        <ele>21</ele>
        <time>2014-09-23T16:16:58Z</time>
      </trkpt>
      <trkpt lat="48.64598" lon="-4.23709">
        <ele>21</ele>
        <time>2014-09-23T16:17:04Z</time>
      </trkpt>
      <trkpt lat="48.646" lon="-4.23701">
        <ele>21</ele>
        <time>2014-09-23T16:17:09Z</time>
      </trkpt>
      <trkpt lat="48.64602" lon="-4.23692">
        <ele>22</ele>
        <time>2014-09-23T16:17:15Z</time>
      </trkpt>
      <trkpt lat="48.64605" lon="-4.23684">
        <ele>22</ele>
        <time>2014-09-23T16:17:20Z</time>
      </trkpt>
      <trkpt lat="48.64607" lon="-4.23675">
        <ele>21</ele>
        <time>2014-09-23T16:17:26Z</time>
      </trkpt>
      <trkpt lat="48.64609" lon="-4.23665">
        <ele>21</ele>
        <time>2014-09-23T16:17:32Z</time>
      </trkpt>
      <trkpt lat="48.64611" lon="-4.23655">
        <ele>21</ele>
        <time>2014-09-23T16:17:38Z</time>
      </trkpt>
      <trkpt lat="48.64613" lon="-4.23648">
        <ele>22</ele>
        <time>2014-09-23T16:17:43Z</time>
      </trkpt>
      <trkpt lat="48.64615" lon="-4.2364">
        <ele>22</ele>
        <time>2014-09-23T16:17:48Z</time>
      </trkpt>
      <trkpt lat="48.64618" lon="-4.23631">
        <ele>22</ele>
        <time>2014-09-23T16:17:53Z</time>
      </trkpt>
      <trkpt lat="48.6462" lon="-4.23624">
        <ele>22</ele>
        <time>2014-09-23T16:17:58Z</time>
      </trkpt>
      <trkpt lat="48.64622" lon="-4.23616">
        <ele>22</ele>
        <time>2014-09-23T16:18:03Z</time>
      </trkpt>
      <trkpt lat="48.64624" lon="-4.23608">
        <ele>21</ele>
        <time>2014-09-23T16:18:09Z</time>
      </trkpt>
      <trkpt lat="48.64624" lon="-4.23607">
        <ele>21</ele>
        <time>2014-09-23T16:18:15Z</time>
      </trkpt>
      <trkpt lat="48.64624" lon="-4.23602">
        <ele>21</ele>
        <time>2014-09-23T16:18:21Z</time>
      </trkpt>
      <trkpt lat="48.64626" lon="-4.23594">
        <ele>21</ele>
        <time>2014-09-23T16:18:26Z</time>
      </trkpt>
      <trkpt lat="48.64629" lon="-4.23584">
        <ele>21</ele>
        <time>2014-09-23T16:18:32Z</time>
      </trkpt>
      <trkpt lat="48.6463" lon="-4.23577">
        <ele>21</ele>
        <time>2014-09-23T16:18:37Z</time>
      </trkpt>
      <trkpt lat="48.64632" lon="-4.23567">
        <ele>21</ele>
        <time>2014-09-23T16:18:43Z</time>
      </trkpt>
      <trkpt lat="48.64635" lon="-4.23557">
        <ele>21</ele>
        <time>2014-09-23T16:18:49Z</time>
      </trkpt>
      <trkpt lat="48.64636" lon="-4.23549">
        <ele>21</ele>
        <time>2014-09-23T16:18:54Z</time>
      </trkpt>
      <trkpt lat="48.64638" lon="-4.2354">
        <ele>21</ele>
        <time>2014-09-23T16:18:59Z</time>
      </trkpt>
      <trkpt lat="48.6464" lon="-4.2353">
        <ele>21</ele>
        <time>2014-09-23T16:19:05Z</time>
      </trkpt>
      <trkpt lat="48.64643" lon="-4.23522">
        <ele>21</ele>
        <time>2014-09-23T16:19:10Z</time>
      </trkpt>
      <trkpt lat="48.64645" lon="-4.23512">
        <ele>21</ele>
        <time>2014-09-23T16:19:16Z</time>
      </trkpt>
      <trkpt lat="48.64648" lon="-4.23502">
        <ele>21</ele>
        <time>2014-09-23T16:19:22Z</time>
      </trkpt>
      <trkpt lat="48.6465" lon="-4.23493">
        <ele>21</ele>
        <time>2014-09-23T16:19:28Z</time>
      </trkpt>
      <trkpt lat="48.64653" lon="-4.23483">
        <ele>21</ele>
        <time>2014-09-23T16:19:34Z</time>
      </trkpt>
      <trkpt lat="48.64656" lon="-4.23473">
        <ele>21</ele>
        <time>2014-09-23T16:19:40Z</time>
      </trkpt>
      <trkpt lat="48.64658" lon="-4.23465">
        <ele>21</ele>
        <time>2014-09-23T16:19:45Z</time>
      </trkpt>
      <trkpt lat="48.6466" lon="-4.23455">
        <ele>21</ele>
        <time>2014-09-23T16:19:51Z</time>
      </trkpt>
      <trkpt lat="48.64662" lon="-4.23447">
        <ele>21</ele>
        <time>2014-09-23T16:19:56Z</time>
      </trkpt>
      <trkpt lat="48.64664" lon="-4.23439">
        <ele>21</ele>
        <time>2014-09-23T16:20:01Z</time>
      </trkpt>
      <trkpt lat="48.64666" lon="-4.23431">
        <ele>21</ele>
        <time>2014-09-23T16:20:06Z</time>
      </trkpt>
      <trkpt lat="48.64669" lon="-4.23421">
        <ele>21</ele>
        <time>2014-09-23T16:20:12Z</time>
      </trkpt>
      <trkpt lat="48.64671" lon="-4.23414">
        <ele>21</ele>
        <time>2014-09-23T16:20:17Z</time>
      </trkpt>
      <trkpt lat="48.64674" lon="-4.23404">
        <ele>21</ele>
        <time>2014-09-23T16:20:23Z</time>
      </trkpt>
      <trkpt lat="48.64675" lon="-4.23397">
        <ele>21</ele>
        <time>2014-09-23T16:20:28Z</time>
      </trkpt>
      <trkpt lat="48.64677" lon="-4.23388">
        <ele>21</ele>
        <time>2014-09-23T16:20:34Z</time>
      </trkpt>
      <trkpt lat="48.64679" lon="-4.23382">
        <ele>21</ele>
        <time>2014-09-23T16:20:39Z</time>
      </trkpt>
      <trkpt lat="48.64681" lon="-4.23375">
        <ele>22</ele>
        <time>2014-09-23T16:20:44Z</time>
      </trkpt>
      <trkpt lat="48.64683" lon="-4.23366">
        <ele>21</ele>
        <time>2014-09-23T16:20:49Z</time>
      </trkpt>
      <trkpt lat="48.64686" lon="-4.23357">
        <ele>21</ele>
        <time>2014-09-23T16:20:55Z</time>
      </trkpt>
      <trkpt lat="48.64688" lon="-4.2335">
        <ele>22</ele>
        <time>2014-09-23T16:21:00Z</time>
      </trkpt>
      <trkpt lat="48.64691" lon="-4.23341">
        <ele>22</ele>
        <time>2014-09-23T16:21:06Z</time>
      </trkpt>
      <trkpt lat="48.64693" lon="-4.23332">
        <ele>22</ele>
        <time>2014-09-23T16:21:12Z</time>
      </trkpt>
      <trkpt lat="48.64695" lon="-4.23323">
        <ele>22</ele>
        <time>2014-09-23T16:21:18Z</time>
      </trkpt>
      <trkpt lat="48.64698" lon="-4.23315">
        <ele>21</ele>
        <time>2014-09-23T16:21:23Z</time>
      </trkpt>
      <trkpt lat="48.647" lon="-4.23308">
        <ele>21</ele>
        <time>2014-09-23T16:21:28Z</time>
      </trkpt>
      <trkpt lat="48.64703" lon="-4.233">
        <ele>21</ele>
        <time>2014-09-23T16:21:34Z</time>
      </trkpt>
      <trkpt lat="48.64705" lon="-4.23294">
        <ele>21</ele>
        <time>2014-09-23T16:21:39Z</time>
      </trkpt>
      <trkpt lat="48.64707" lon="-4.23287">
        <ele>21</ele>
        <time>2014-09-23T16:21:44Z</time>
      </trkpt>
      <trkpt lat="48.64709" lon="-4.2328">
        <ele>21</ele>
        <time>2014-09-23T16:21:49Z</time>
      </trkpt>
      <trkpt lat="48.64711" lon="-4.2327">
        <ele>21</ele>
        <time>2014-09-23T16:21:55Z</time>
      </trkpt>
      <trkpt lat="48.64714" lon="-4.2326">
        <ele>21</ele>
        <time>2014-09-23T16:22:01Z</time>
      </trkpt>
      <trkpt lat="48.64716" lon="-4.2325">
        <ele>22</ele>
        <time>2014-09-23T16:22:07Z</time>
      </trkpt>
      <trkpt lat="48.64718" lon="-4.23243">
        <ele>22</ele>
        <time>2014-09-23T16:22:12Z</time>
      </trkpt>
      <trkpt lat="48.64719" lon="-4.23233">
        <ele>22</ele>
        <time>2014-09-23T16:22:18Z</time>
      </trkpt>
      <trkpt lat="48.64721" lon="-4.23224">
        <ele>22</ele>
        <time>2014-09-23T16:22:24Z</time>
      </trkpt>
      <trkpt lat="48.64723" lon="-4.23216">
        <ele>22</ele>
        <time>2014-09-23T16:22:29Z</time>
      </trkpt>
      <trkpt lat="48.64725" lon="-4.23209">
        <ele>22</ele>
        <time>2014-09-23T16:22:34Z</time>
      </trkpt>
      <trkpt lat="48.64728" lon="-4.23203">
        <ele>22</ele>
        <time>2014-09-23T16:22:39Z</time>
      </trkpt>
      <trkpt lat="48.64732" lon="-4.23199">
        <ele>22</ele>
        <time>2014-09-23T16:22:45Z</time>
      </trkpt>
      <trkpt lat="48.64737" lon="-4.23198">
        <ele>22</ele>
        <time>2014-09-23T16:22:50Z</time>
      </trkpt>
      <trkpt lat="48.64743" lon="-4.23198">
        <ele>22</ele>
        <time>2014-09-23T16:22:56Z</time>
      </trkpt>
      <trkpt lat="48.64748" lon="-4.23202">
        <ele>22</ele>
        <time>2014-09-23T16:23:02Z</time>
      </trkpt>
      <trkpt lat="48.64752" lon="-4.23205">
        <ele>22</ele>
        <time>2014-09-23T16:23:07Z</time>
      </trkpt>
      <trkpt lat="48.64757" lon="-4.23209">
        <ele>22</ele>
        <time>2014-09-23T16:23:13Z</time>
      </trkpt>
      <trkpt lat="48.64761" lon="-4.23212">
        <ele>22</ele>
        <time>2014-09-23T16:23:18Z</time>
      </trkpt>
      <trkpt lat="48.64766" lon="-4.23212">
        <ele>21</ele>
        <time>2014-09-23T16:23:23Z</time>
      </trkpt>
      <trkpt lat="48.64772" lon="-4.23211">
        <ele>22</ele>
        <time>2014-09-23T16:23:29Z</time>
      </trkpt>
      <trkpt lat="48.64777" lon="-4.23212">
        <ele>22</ele>
        <time>2014-09-23T16:23:34Z</time>
      </trkpt>
      <trkpt lat="48.64781" lon="-4.23213">
        <ele>21</ele>
        <time>2014-09-23T16:23:39Z</time>
      </trkpt>
      <trkpt lat="48.64784" lon="-4.23218">
        <ele>21</ele>
        <time>2014-09-23T16:23:45Z</time>
      </trkpt>
      <trkpt lat="48.64784" lon="-4.23217">
        <ele>21</ele>
        <time>2014-09-23T16:23:51Z</time>
      </trkpt>
      <trkpt lat="48.64784" lon="-4.23217">
        <ele>22</ele>
        <time>2014-09-23T16:23:57Z</time>
      </trkpt>
      <trkpt lat="48.64784" lon="-4.23218">
        <ele>22</ele>
        <time>2014-09-23T16:24:02Z</time>
      </trkpt>
      <trkpt lat="48.64784" lon="-4.23218">
        <ele>21</ele>
        <time>2014-09-23T16:24:07Z</time>
      </trkpt>
      <trkpt lat="48.64784" lon="-4.23218">
        <ele>21</ele>
        <time>2014-09-23T16:24:19Z</time>
      </trkpt>
      <trkpt lat="48.64785" lon="-4.23218">
        <ele>21</ele>
        <time>2014-09-23T16:24:24Z</time>
      </trkpt>
      <trkpt lat="48.64785" lon="-4.23219">
        <ele>22</ele>
        <time>2014-09-23T16:24:30Z</time>
      </trkpt>
      <trkpt lat="48.64785" lon="-4.23219">
        <ele>21</ele>
        <time>2014-09-23T16:24:31Z</time>
      </trkpt>
    </trkseg>
  </trk>
</gpx>